<?xml version="1.0" encoding="UTF-8" standalone="no" ?>
<gpx xmlns="http://www.topografix.com/GPX/1/1" xmlns:xsi="http://www.w3.org/2001/XMLSchema-instance" xsi:schemaLocation="http://www.topografix.com/GPX/1/1 http://www.topografix.com/GPX/1/1/gpx.xsd" version="1.1" creator="VisuGPX - https://www.visugpx.com">
  <metadata>
    <name>Croix de l'Alp</name>
  </metadata>
  <trk>
    <name><![CDATA[Croix de l'Alp_1]]></name>
    <extensions>
      <line xmlns="http://www.topografix.com/GPX/gpx_style/0/2">
        <color>0000FF</color>
        <width>4</width>
      </line>
    </extensions>
    <trkseg>
      <trkpt lat="44.419" lon="6.72932">
        <ele>1248.1</ele>
        <time>2021-09-23T07:35:18Z</time>
      </trkpt>
      <trkpt lat="44.41894" lon="6.72924">
        <ele>1248</ele>
        <time>2021-09-23T07:35:22Z</time>
      </trkpt>
      <trkpt lat="44.41885" lon="6.72912">
        <ele>1247.7</ele>
        <time>2021-09-23T07:35:26Z</time>
      </trkpt>
      <trkpt lat="44.41874" lon="6.72897">
        <ele>1247.3</ele>
        <time>2021-09-23T07:35:30Z</time>
      </trkpt>
      <trkpt lat="44.41866" lon="6.72882">
        <ele>1247.6</ele>
        <time>2021-09-23T07:35:34Z</time>
      </trkpt>
      <trkpt lat="44.4186" lon="6.72874">
        <ele>1247.4</ele>
        <time>2021-09-23T07:35:38Z</time>
      </trkpt>
      <trkpt lat="44.41852" lon="6.72863">
        <ele>1247</ele>
        <time>2021-09-23T07:35:42Z</time>
      </trkpt>
      <trkpt lat="44.41842" lon="6.72854">
        <ele>1245.8</ele>
        <time>2021-09-23T07:35:46Z</time>
      </trkpt>
      <trkpt lat="44.4183" lon="6.72842">
        <ele>1244.5</ele>
        <time>2021-09-23T07:35:50Z</time>
      </trkpt>
      <trkpt lat="44.41818" lon="6.72826">
        <ele>1243</ele>
        <time>2021-09-23T07:35:54Z</time>
      </trkpt>
      <trkpt lat="44.41806" lon="6.72814">
        <ele>1240.2</ele>
        <time>2021-09-23T07:35:58Z</time>
      </trkpt>
      <trkpt lat="44.41796" lon="6.72796">
        <ele>1238.4</ele>
        <time>2021-09-23T07:36:02Z</time>
      </trkpt>
      <trkpt lat="44.41791" lon="6.72778">
        <ele>1238.1</ele>
        <time>2021-09-23T07:36:06Z</time>
      </trkpt>
      <trkpt lat="44.41783" lon="6.72757">
        <ele>1237.3</ele>
        <time>2021-09-23T07:36:10Z</time>
      </trkpt>
      <trkpt lat="44.4178" lon="6.72743">
        <ele>1237.7</ele>
        <time>2021-09-23T07:36:14Z</time>
      </trkpt>
      <trkpt lat="44.41777" lon="6.72724">
        <ele>1238.9</ele>
        <time>2021-09-23T07:36:18Z</time>
      </trkpt>
      <trkpt lat="44.41776" lon="6.72708">
        <ele>1240.4</ele>
        <time>2021-09-23T07:36:22Z</time>
      </trkpt>
      <trkpt lat="44.41776" lon="6.72687">
        <ele>1242.7</ele>
        <time>2021-09-23T07:36:26Z</time>
      </trkpt>
      <trkpt lat="44.41778" lon="6.72666">
        <ele>1245.5</ele>
        <time>2021-09-23T07:36:30Z</time>
      </trkpt>
      <trkpt lat="44.41778" lon="6.7265">
        <ele>1247.3</ele>
        <time>2021-09-23T07:36:34Z</time>
      </trkpt>
      <trkpt lat="44.41773" lon="6.72628">
        <ele>1248.3</ele>
        <time>2021-09-23T07:36:38Z</time>
      </trkpt>
      <trkpt lat="44.41761" lon="6.72612">
        <ele>1246.2</ele>
        <time>2021-09-23T07:36:42Z</time>
      </trkpt>
      <trkpt lat="44.4174" lon="6.72605">
        <ele>1242.2</ele>
        <time>2021-09-23T07:36:46Z</time>
      </trkpt>
      <trkpt lat="44.41721" lon="6.72607">
        <ele>1240.1</ele>
        <time>2021-09-23T07:36:50Z</time>
      </trkpt>
      <trkpt lat="44.41702" lon="6.72612">
        <ele>1237.8</ele>
        <time>2021-09-23T07:36:54Z</time>
      </trkpt>
      <trkpt lat="44.41686" lon="6.72603">
        <ele>1236.8</ele>
        <time>2021-09-23T07:36:58Z</time>
      </trkpt>
      <trkpt lat="44.41683" lon="6.72589">
        <ele>1237.4</ele>
        <time>2021-09-23T07:37:02Z</time>
      </trkpt>
      <trkpt lat="44.41682" lon="6.72577">
        <ele>1238.3</ele>
        <time>2021-09-23T07:37:06Z</time>
      </trkpt>
      <trkpt lat="44.41681" lon="6.72565">
        <ele>1239.3</ele>
        <time>2021-09-23T07:37:10Z</time>
      </trkpt>
      <trkpt lat="44.41679" lon="6.72553">
        <ele>1240.2</ele>
        <time>2021-09-23T07:37:14Z</time>
      </trkpt>
      <trkpt lat="44.41679" lon="6.72544">
        <ele>1241</ele>
        <time>2021-09-23T07:37:18Z</time>
      </trkpt>
      <trkpt lat="44.41679" lon="6.72534">
        <ele>1242</ele>
        <time>2021-09-23T07:37:22Z</time>
      </trkpt>
      <trkpt lat="44.4168" lon="6.72526">
        <ele>1242.8</ele>
        <time>2021-09-23T07:37:26Z</time>
      </trkpt>
      <trkpt lat="44.41682" lon="6.72515">
        <ele>1244.1</ele>
        <time>2021-09-23T07:37:30Z</time>
      </trkpt>
      <trkpt lat="44.41684" lon="6.72506">
        <ele>1245.1</ele>
        <time>2021-09-23T07:37:34Z</time>
      </trkpt>
      <trkpt lat="44.41687" lon="6.72496">
        <ele>1246.5</ele>
        <time>2021-09-23T07:37:38Z</time>
      </trkpt>
      <trkpt lat="44.41686" lon="6.72488">
        <ele>1247.4</ele>
        <time>2021-09-23T07:37:42Z</time>
      </trkpt>
      <trkpt lat="44.41684" lon="6.72479">
        <ele>1248.4</ele>
        <time>2021-09-23T07:37:46Z</time>
      </trkpt>
      <trkpt lat="44.41678" lon="6.72471">
        <ele>1248.8</ele>
        <time>2021-09-23T07:37:50Z</time>
      </trkpt>
      <trkpt lat="44.41674" lon="6.72461">
        <ele>1249.5</ele>
        <time>2021-09-23T07:37:54Z</time>
      </trkpt>
      <trkpt lat="44.41671" lon="6.7245">
        <ele>1250.5</ele>
        <time>2021-09-23T07:37:58Z</time>
      </trkpt>
      <trkpt lat="44.41668" lon="6.72438">
        <ele>1251.6</ele>
        <time>2021-09-23T07:38:02Z</time>
      </trkpt>
      <trkpt lat="44.41664" lon="6.72429">
        <ele>1252.3</ele>
        <time>2021-09-23T07:38:06Z</time>
      </trkpt>
      <trkpt lat="44.4166" lon="6.72422">
        <ele>1252.8</ele>
        <time>2021-09-23T07:38:10Z</time>
      </trkpt>
      <trkpt lat="44.41655" lon="6.72416">
        <ele>1253.1</ele>
        <time>2021-09-23T07:38:14Z</time>
      </trkpt>
      <trkpt lat="44.4165" lon="6.72408">
        <ele>1253.5</ele>
        <time>2021-09-23T07:38:18Z</time>
      </trkpt>
      <trkpt lat="44.41644" lon="6.72398">
        <ele>1254</ele>
        <time>2021-09-23T07:38:22Z</time>
      </trkpt>
      <trkpt lat="44.41637" lon="6.72389">
        <ele>1254.1</ele>
        <time>2021-09-23T07:38:26Z</time>
      </trkpt>
      <trkpt lat="44.41629" lon="6.72379">
        <ele>1254.1</ele>
        <time>2021-09-23T07:38:30Z</time>
      </trkpt>
      <trkpt lat="44.41622" lon="6.72371">
        <ele>1254</ele>
        <time>2021-09-23T07:38:34Z</time>
      </trkpt>
      <trkpt lat="44.41612" lon="6.72357">
        <ele>1253.7</ele>
        <time>2021-09-23T07:38:38Z</time>
      </trkpt>
      <trkpt lat="44.41604" lon="6.72347">
        <ele>1253.3</ele>
        <time>2021-09-23T07:38:42Z</time>
      </trkpt>
      <trkpt lat="44.41595" lon="6.72336">
        <ele>1252.7</ele>
        <time>2021-09-23T07:38:46Z</time>
      </trkpt>
      <trkpt lat="44.41588" lon="6.72325">
        <ele>1252.5</ele>
        <time>2021-09-23T07:38:50Z</time>
      </trkpt>
      <trkpt lat="44.4158" lon="6.72311">
        <ele>1253.1</ele>
        <time>2021-09-23T07:38:54Z</time>
      </trkpt>
      <trkpt lat="44.41573" lon="6.72296">
        <ele>1254.3</ele>
        <time>2021-09-23T07:38:58Z</time>
      </trkpt>
      <trkpt lat="44.41566" lon="6.72283">
        <ele>1255.3</ele>
        <time>2021-09-23T07:39:02Z</time>
      </trkpt>
      <trkpt lat="44.41557" lon="6.72274">
        <ele>1255.8</ele>
        <time>2021-09-23T07:39:06Z</time>
      </trkpt>
      <trkpt lat="44.41547" lon="6.72265">
        <ele>1256.3</ele>
        <time>2021-09-23T07:39:10Z</time>
      </trkpt>
      <trkpt lat="44.41537" lon="6.72257">
        <ele>1256.7</ele>
        <time>2021-09-23T07:39:14Z</time>
      </trkpt>
      <trkpt lat="44.41529" lon="6.72249">
        <ele>1257.1</ele>
        <time>2021-09-23T07:39:18Z</time>
      </trkpt>
      <trkpt lat="44.41522" lon="6.7224">
        <ele>1257.7</ele>
        <time>2021-09-23T07:39:22Z</time>
      </trkpt>
      <trkpt lat="44.41516" lon="6.72236">
        <ele>1257.8</ele>
        <time>2021-09-23T07:39:26Z</time>
      </trkpt>
      <trkpt lat="44.41505" lon="6.72232">
        <ele>1257.7</ele>
        <time>2021-09-23T07:39:30Z</time>
      </trkpt>
      <trkpt lat="44.41492" lon="6.72227">
        <ele>1257.9</ele>
        <time>2021-09-23T07:39:34Z</time>
      </trkpt>
      <trkpt lat="44.41482" lon="6.72223">
        <ele>1258.3</ele>
        <time>2021-09-23T07:39:38Z</time>
      </trkpt>
      <trkpt lat="44.41468" lon="6.72214">
        <ele>1259</ele>
        <time>2021-09-23T07:39:42Z</time>
      </trkpt>
      <trkpt lat="44.41459" lon="6.72205">
        <ele>1259.8</ele>
        <time>2021-09-23T07:39:46Z</time>
      </trkpt>
      <trkpt lat="44.41451" lon="6.72191">
        <ele>1261</ele>
        <time>2021-09-23T07:39:50Z</time>
      </trkpt>
      <trkpt lat="44.41445" lon="6.72179">
        <ele>1262</ele>
        <time>2021-09-23T07:39:54Z</time>
      </trkpt>
      <trkpt lat="44.41439" lon="6.72169">
        <ele>1262.8</ele>
        <time>2021-09-23T07:39:58Z</time>
      </trkpt>
      <trkpt lat="44.41434" lon="6.72157">
        <ele>1263.6</ele>
        <time>2021-09-23T07:40:02Z</time>
      </trkpt>
      <trkpt lat="44.41431" lon="6.72145">
        <ele>1264.3</ele>
        <time>2021-09-23T07:40:06Z</time>
      </trkpt>
      <trkpt lat="44.41429" lon="6.72135">
        <ele>1264.8</ele>
        <time>2021-09-23T07:40:10Z</time>
      </trkpt>
      <trkpt lat="44.41427" lon="6.72124">
        <ele>1265.5</ele>
        <time>2021-09-23T07:40:14Z</time>
      </trkpt>
      <trkpt lat="44.41424" lon="6.72115">
        <ele>1266</ele>
        <time>2021-09-23T07:40:18Z</time>
      </trkpt>
      <trkpt lat="44.41421" lon="6.72106">
        <ele>1266.6</ele>
        <time>2021-09-23T07:40:22Z</time>
      </trkpt>
      <trkpt lat="44.41417" lon="6.72097">
        <ele>1267.2</ele>
        <time>2021-09-23T07:40:26Z</time>
      </trkpt>
      <trkpt lat="44.41416" lon="6.72087">
        <ele>1267.8</ele>
        <time>2021-09-23T07:40:30Z</time>
      </trkpt>
      <trkpt lat="44.41413" lon="6.72074">
        <ele>1268.9</ele>
        <time>2021-09-23T07:40:34Z</time>
      </trkpt>
      <trkpt lat="44.41408" lon="6.72065">
        <ele>1269.7</ele>
        <time>2021-09-23T07:40:38Z</time>
      </trkpt>
      <trkpt lat="44.41408" lon="6.72054">
        <ele>1270.7</ele>
        <time>2021-09-23T07:40:42Z</time>
      </trkpt>
      <trkpt lat="44.4141" lon="6.72045">
        <ele>1271.5</ele>
        <time>2021-09-23T07:40:46Z</time>
      </trkpt>
      <trkpt lat="44.41412" lon="6.72037">
        <ele>1272.3</ele>
        <time>2021-09-23T07:40:50Z</time>
      </trkpt>
      <trkpt lat="44.41413" lon="6.72027">
        <ele>1273.3</ele>
        <time>2021-09-23T07:40:54Z</time>
      </trkpt>
      <trkpt lat="44.41414" lon="6.72015">
        <ele>1274.4</ele>
        <time>2021-09-23T07:40:58Z</time>
      </trkpt>
      <trkpt lat="44.41417" lon="6.72004">
        <ele>1275.6</ele>
        <time>2021-09-23T07:41:02Z</time>
      </trkpt>
      <trkpt lat="44.41422" lon="6.71994">
        <ele>1276.6</ele>
        <time>2021-09-23T07:41:06Z</time>
      </trkpt>
      <trkpt lat="44.41427" lon="6.71984">
        <ele>1277.4</ele>
        <time>2021-09-23T07:41:10Z</time>
      </trkpt>
      <trkpt lat="44.41433" lon="6.71976">
        <ele>1278.2</ele>
        <time>2021-09-23T07:41:14Z</time>
      </trkpt>
      <trkpt lat="44.41438" lon="6.71967">
        <ele>1279.1</ele>
        <time>2021-09-23T07:41:18Z</time>
      </trkpt>
      <trkpt lat="44.41443" lon="6.71958">
        <ele>1279.9</ele>
        <time>2021-09-23T07:41:22Z</time>
      </trkpt>
      <trkpt lat="44.41448" lon="6.71949">
        <ele>1280.9</ele>
        <time>2021-09-23T07:41:26Z</time>
      </trkpt>
      <trkpt lat="44.41453" lon="6.71939">
        <ele>1281.9</ele>
        <time>2021-09-23T07:41:30Z</time>
      </trkpt>
      <trkpt lat="44.41459" lon="6.71928">
        <ele>1283.2</ele>
        <time>2021-09-23T07:41:34Z</time>
      </trkpt>
      <trkpt lat="44.41464" lon="6.71918">
        <ele>1284.3</ele>
        <time>2021-09-23T07:41:38Z</time>
      </trkpt>
      <trkpt lat="44.4147" lon="6.71908">
        <ele>1285.2</ele>
        <time>2021-09-23T07:41:42Z</time>
      </trkpt>
      <trkpt lat="44.41475" lon="6.71896">
        <ele>1286.1</ele>
        <time>2021-09-23T07:41:46Z</time>
      </trkpt>
      <trkpt lat="44.4148" lon="6.71885">
        <ele>1287</ele>
        <time>2021-09-23T07:41:50Z</time>
      </trkpt>
      <trkpt lat="44.41484" lon="6.71872">
        <ele>1287.9</ele>
        <time>2021-09-23T07:41:54Z</time>
      </trkpt>
      <trkpt lat="44.41487" lon="6.71859">
        <ele>1288.7</ele>
        <time>2021-09-23T07:41:58Z</time>
      </trkpt>
      <trkpt lat="44.41484" lon="6.71846">
        <ele>1289.1</ele>
        <time>2021-09-23T07:42:02Z</time>
      </trkpt>
      <trkpt lat="44.41479" lon="6.71834">
        <ele>1289.2</ele>
        <time>2021-09-23T07:42:06Z</time>
      </trkpt>
      <trkpt lat="44.41474" lon="6.71825">
        <ele>1289.5</ele>
        <time>2021-09-23T07:42:10Z</time>
      </trkpt>
      <trkpt lat="44.4147" lon="6.71824">
        <ele>1289.2</ele>
        <time>2021-09-23T07:42:58Z</time>
      </trkpt>
      <trkpt lat="44.41463" lon="6.71817">
        <ele>1289.2</ele>
        <time>2021-09-23T07:43:02Z</time>
      </trkpt>
      <trkpt lat="44.41457" lon="6.71809">
        <ele>1289.3</ele>
        <time>2021-09-23T07:43:06Z</time>
      </trkpt>
      <trkpt lat="44.41447" lon="6.71803">
        <ele>1288.9</ele>
        <time>2021-09-23T07:43:10Z</time>
      </trkpt>
      <trkpt lat="44.41434" lon="6.71794">
        <ele>1288.4</ele>
        <time>2021-09-23T07:43:14Z</time>
      </trkpt>
      <trkpt lat="44.41421" lon="6.71786">
        <ele>1287.8</ele>
        <time>2021-09-23T07:43:18Z</time>
      </trkpt>
      <trkpt lat="44.41406" lon="6.71778">
        <ele>1287</ele>
        <time>2021-09-23T07:43:22Z</time>
      </trkpt>
      <trkpt lat="44.41393" lon="6.71769">
        <ele>1286.6</ele>
        <time>2021-09-23T07:43:26Z</time>
      </trkpt>
      <trkpt lat="44.4138" lon="6.71754">
        <ele>1286.6</ele>
        <time>2021-09-23T07:43:30Z</time>
      </trkpt>
      <trkpt lat="44.41383" lon="6.7174">
        <ele>1287.6</ele>
        <time>2021-09-23T07:43:34Z</time>
      </trkpt>
      <trkpt lat="44.41392" lon="6.71729">
        <ele>1289</ele>
        <time>2021-09-23T07:43:38Z</time>
      </trkpt>
      <trkpt lat="44.414" lon="6.71723">
        <ele>1290</ele>
        <time>2021-09-23T07:43:42Z</time>
      </trkpt>
      <trkpt lat="44.4141" lon="6.71716">
        <ele>1291.4</ele>
        <time>2021-09-23T07:43:46Z</time>
      </trkpt>
      <trkpt lat="44.41415" lon="6.71706">
        <ele>1292.5</ele>
        <time>2021-09-23T07:43:50Z</time>
      </trkpt>
      <trkpt lat="44.4142" lon="6.71696">
        <ele>1293.6</ele>
        <time>2021-09-23T07:43:54Z</time>
      </trkpt>
      <trkpt lat="44.41426" lon="6.71686">
        <ele>1294.9</ele>
        <time>2021-09-23T07:43:58Z</time>
      </trkpt>
      <trkpt lat="44.41434" lon="6.71678">
        <ele>1296.3</ele>
        <time>2021-09-23T07:44:02Z</time>
      </trkpt>
      <trkpt lat="44.41441" lon="6.71671">
        <ele>1297.6</ele>
        <time>2021-09-23T07:44:06Z</time>
      </trkpt>
      <trkpt lat="44.41447" lon="6.71665">
        <ele>1298.7</ele>
        <time>2021-09-23T07:44:10Z</time>
      </trkpt>
      <trkpt lat="44.41454" lon="6.71659">
        <ele>1299.6</ele>
        <time>2021-09-23T07:44:14Z</time>
      </trkpt>
      <trkpt lat="44.41461" lon="6.71654">
        <ele>1300.5</ele>
        <time>2021-09-23T07:44:18Z</time>
      </trkpt>
      <trkpt lat="44.41468" lon="6.71649">
        <ele>1301.5</ele>
        <time>2021-09-23T07:44:22Z</time>
      </trkpt>
      <trkpt lat="44.41476" lon="6.71647">
        <ele>1302.4</ele>
        <time>2021-09-23T07:44:26Z</time>
      </trkpt>
      <trkpt lat="44.41484" lon="6.71645">
        <ele>1303.4</ele>
        <time>2021-09-23T07:44:30Z</time>
      </trkpt>
      <trkpt lat="44.41491" lon="6.71642">
        <ele>1304.2</ele>
        <time>2021-09-23T07:44:34Z</time>
      </trkpt>
      <trkpt lat="44.41498" lon="6.71637">
        <ele>1305.1</ele>
        <time>2021-09-23T07:44:38Z</time>
      </trkpt>
      <trkpt lat="44.41506" lon="6.71633">
        <ele>1306</ele>
        <time>2021-09-23T07:44:42Z</time>
      </trkpt>
      <trkpt lat="44.41514" lon="6.71627">
        <ele>1306.8</ele>
        <time>2021-09-23T07:44:46Z</time>
      </trkpt>
      <trkpt lat="44.41521" lon="6.71623">
        <ele>1307.5</ele>
        <time>2021-09-23T07:44:50Z</time>
      </trkpt>
      <trkpt lat="44.41529" lon="6.7162">
        <ele>1308.3</ele>
        <time>2021-09-23T07:44:54Z</time>
      </trkpt>
      <trkpt lat="44.41535" lon="6.71618">
        <ele>1308.9</ele>
        <time>2021-09-23T07:44:58Z</time>
      </trkpt>
      <trkpt lat="44.41532" lon="6.71611">
        <ele>1308.7</ele>
        <time>2021-09-23T07:45:02Z</time>
      </trkpt>
      <trkpt lat="44.41535" lon="6.71598">
        <ele>1309.2</ele>
        <time>2021-09-23T07:45:06Z</time>
      </trkpt>
      <trkpt lat="44.41532" lon="6.71584">
        <ele>1309.1</ele>
        <time>2021-09-23T07:45:10Z</time>
      </trkpt>
      <trkpt lat="44.4153" lon="6.71569">
        <ele>1308.6</ele>
        <time>2021-09-23T07:45:14Z</time>
      </trkpt>
      <trkpt lat="44.41527" lon="6.71555">
        <ele>1308.1</ele>
        <time>2021-09-23T07:45:18Z</time>
      </trkpt>
      <trkpt lat="44.41523" lon="6.71541">
        <ele>1307.6</ele>
        <time>2021-09-23T07:45:22Z</time>
      </trkpt>
      <trkpt lat="44.41523" lon="6.71523">
        <ele>1307.3</ele>
        <time>2021-09-23T07:45:26Z</time>
      </trkpt>
      <trkpt lat="44.41521" lon="6.71497">
        <ele>1307</ele>
        <time>2021-09-23T07:45:30Z</time>
      </trkpt>
      <trkpt lat="44.41512" lon="6.71469">
        <ele>1307.9</ele>
        <time>2021-09-23T07:45:34Z</time>
      </trkpt>
      <trkpt lat="44.41503" lon="6.71438">
        <ele>1308.4</ele>
        <time>2021-09-23T07:45:38Z</time>
      </trkpt>
      <trkpt lat="44.41492" lon="6.71421">
        <ele>1307.4</ele>
        <time>2021-09-23T07:45:42Z</time>
      </trkpt>
      <trkpt lat="44.41479" lon="6.71409">
        <ele>1306.7</ele>
        <time>2021-09-23T07:45:46Z</time>
      </trkpt>
      <trkpt lat="44.41464" lon="6.71395">
        <ele>1306.8</ele>
        <time>2021-09-23T07:45:50Z</time>
      </trkpt>
      <trkpt lat="44.41455" lon="6.71387">
        <ele>1306.8</ele>
        <time>2021-09-23T07:45:54Z</time>
      </trkpt>
      <trkpt lat="44.41449" lon="6.71382">
        <ele>1306.7</ele>
        <time>2021-09-23T07:45:58Z</time>
      </trkpt>
      <trkpt lat="44.41441" lon="6.71374">
        <ele>1306.9</ele>
        <time>2021-09-23T07:46:02Z</time>
      </trkpt>
      <trkpt lat="44.41429" lon="6.71359">
        <ele>1307.9</ele>
        <time>2021-09-23T07:46:06Z</time>
      </trkpt>
      <trkpt lat="44.41418" lon="6.71344">
        <ele>1309.1</ele>
        <time>2021-09-23T07:46:10Z</time>
      </trkpt>
      <trkpt lat="44.41404" lon="6.71329">
        <ele>1308.3</ele>
        <time>2021-09-23T07:46:14Z</time>
      </trkpt>
      <trkpt lat="44.41395" lon="6.71313">
        <ele>1308.6</ele>
        <time>2021-09-23T07:46:18Z</time>
      </trkpt>
      <trkpt lat="44.41386" lon="6.71299">
        <ele>1308.8</ele>
        <time>2021-09-23T07:46:22Z</time>
      </trkpt>
      <trkpt lat="44.41382" lon="6.7129">
        <ele>1309.4</ele>
        <time>2021-09-23T07:46:26Z</time>
      </trkpt>
      <trkpt lat="44.41377" lon="6.71279">
        <ele>1310.1</ele>
        <time>2021-09-23T07:46:30Z</time>
      </trkpt>
      <trkpt lat="44.41369" lon="6.7127">
        <ele>1309.8</ele>
        <time>2021-09-23T07:46:34Z</time>
      </trkpt>
      <trkpt lat="44.41361" lon="6.71258">
        <ele>1310.1</ele>
        <time>2021-09-23T07:46:38Z</time>
      </trkpt>
      <trkpt lat="44.41354" lon="6.71247">
        <ele>1310.5</ele>
        <time>2021-09-23T07:46:42Z</time>
      </trkpt>
      <trkpt lat="44.41346" lon="6.71235">
        <ele>1310.8</ele>
        <time>2021-09-23T07:46:46Z</time>
      </trkpt>
      <trkpt lat="44.41338" lon="6.71226">
        <ele>1310.6</ele>
        <time>2021-09-23T07:46:50Z</time>
      </trkpt>
      <trkpt lat="44.41329" lon="6.71216">
        <ele>1310.4</ele>
        <time>2021-09-23T07:46:54Z</time>
      </trkpt>
      <trkpt lat="44.41321" lon="6.71203">
        <ele>1310.8</ele>
        <time>2021-09-23T07:46:58Z</time>
      </trkpt>
      <trkpt lat="44.41313" lon="6.71185">
        <ele>1312.2</ele>
        <time>2021-09-23T07:47:02Z</time>
      </trkpt>
      <trkpt lat="44.41305" lon="6.71172">
        <ele>1312.5</ele>
        <time>2021-09-23T07:47:06Z</time>
      </trkpt>
      <trkpt lat="44.41297" lon="6.71156">
        <ele>1312.4</ele>
        <time>2021-09-23T07:47:10Z</time>
      </trkpt>
      <trkpt lat="44.41287" lon="6.71136">
        <ele>1311.5</ele>
        <time>2021-09-23T07:47:14Z</time>
      </trkpt>
      <trkpt lat="44.4128" lon="6.71114">
        <ele>1311.7</ele>
        <time>2021-09-23T07:47:18Z</time>
      </trkpt>
      <trkpt lat="44.41272" lon="6.71098">
        <ele>1311.2</ele>
        <time>2021-09-23T07:47:22Z</time>
      </trkpt>
      <trkpt lat="44.41265" lon="6.71086">
        <ele>1310.5</ele>
        <time>2021-09-23T07:47:26Z</time>
      </trkpt>
      <trkpt lat="44.41256" lon="6.71077">
        <ele>1309.3</ele>
        <time>2021-09-23T07:47:30Z</time>
      </trkpt>
      <trkpt lat="44.41249" lon="6.71065">
        <ele>1309.2</ele>
        <time>2021-09-23T07:47:34Z</time>
      </trkpt>
      <trkpt lat="44.41241" lon="6.71053">
        <ele>1309</ele>
        <time>2021-09-23T07:47:38Z</time>
      </trkpt>
      <trkpt lat="44.41235" lon="6.71039">
        <ele>1309.5</ele>
        <time>2021-09-23T07:47:42Z</time>
      </trkpt>
      <trkpt lat="44.41226" lon="6.71024">
        <ele>1309.4</ele>
        <time>2021-09-23T07:47:46Z</time>
      </trkpt>
      <trkpt lat="44.41218" lon="6.71004">
        <ele>1310.2</ele>
        <time>2021-09-23T07:47:50Z</time>
      </trkpt>
      <trkpt lat="44.41203" lon="6.70987">
        <ele>1308</ele>
        <time>2021-09-23T07:47:54Z</time>
      </trkpt>
      <trkpt lat="44.41188" lon="6.70956">
        <ele>1306.1</ele>
        <time>2021-09-23T07:47:58Z</time>
      </trkpt>
      <trkpt lat="44.41172" lon="6.7092">
        <ele>1304.1</ele>
        <time>2021-09-23T07:48:02Z</time>
      </trkpt>
      <trkpt lat="44.41157" lon="6.70898">
        <ele>1302</ele>
        <time>2021-09-23T07:48:06Z</time>
      </trkpt>
      <trkpt lat="44.41141" lon="6.70887">
        <ele>1298.6</ele>
        <time>2021-09-23T07:48:10Z</time>
      </trkpt>
      <trkpt lat="44.41127" lon="6.70875">
        <ele>1295.8</ele>
        <time>2021-09-23T07:48:14Z</time>
      </trkpt>
      <trkpt lat="44.41115" lon="6.70854">
        <ele>1294.2</ele>
        <time>2021-09-23T07:48:18Z</time>
      </trkpt>
      <trkpt lat="44.41108" lon="6.70828">
        <ele>1294.2</ele>
        <time>2021-09-23T07:48:22Z</time>
      </trkpt>
      <trkpt lat="44.41104" lon="6.70801">
        <ele>1295.3</ele>
        <time>2021-09-23T07:48:26Z</time>
      </trkpt>
      <trkpt lat="44.41099" lon="6.70771">
        <ele>1296.2</ele>
        <time>2021-09-23T07:48:30Z</time>
      </trkpt>
      <trkpt lat="44.41095" lon="6.70743">
        <ele>1297.2</ele>
        <time>2021-09-23T07:48:34Z</time>
      </trkpt>
      <trkpt lat="44.4109" lon="6.70725">
        <ele>1297.2</ele>
        <time>2021-09-23T07:48:38Z</time>
      </trkpt>
      <trkpt lat="44.41085" lon="6.70704">
        <ele>1297.4</ele>
        <time>2021-09-23T07:48:42Z</time>
      </trkpt>
      <trkpt lat="44.41082" lon="6.70681">
        <ele>1298.4</ele>
        <time>2021-09-23T07:48:46Z</time>
      </trkpt>
      <trkpt lat="44.41083" lon="6.70661">
        <ele>1300.3</ele>
        <time>2021-09-23T07:48:50Z</time>
      </trkpt>
      <trkpt lat="44.41082" lon="6.70633">
        <ele>1302</ele>
        <time>2021-09-23T07:48:54Z</time>
      </trkpt>
      <trkpt lat="44.41079" lon="6.7061">
        <ele>1302.7</ele>
        <time>2021-09-23T07:48:58Z</time>
      </trkpt>
      <trkpt lat="44.41075" lon="6.70596">
        <ele>1302.5</ele>
        <time>2021-09-23T07:49:02Z</time>
      </trkpt>
      <trkpt lat="44.41068" lon="6.70583">
        <ele>1301.3</ele>
        <time>2021-09-23T07:49:06Z</time>
      </trkpt>
      <trkpt lat="44.4106" lon="6.70568">
        <ele>1301.6</ele>
        <time>2021-09-23T07:49:10Z</time>
      </trkpt>
      <trkpt lat="44.41053" lon="6.70553">
        <ele>1302.1</ele>
        <time>2021-09-23T07:49:14Z</time>
      </trkpt>
      <trkpt lat="44.41044" lon="6.70537">
        <ele>1302.1</ele>
        <time>2021-09-23T07:49:18Z</time>
      </trkpt>
      <trkpt lat="44.41037" lon="6.70522">
        <ele>1302.5</ele>
        <time>2021-09-23T07:49:22Z</time>
      </trkpt>
      <trkpt lat="44.4103" lon="6.7051">
        <ele>1302.3</ele>
        <time>2021-09-23T07:49:26Z</time>
      </trkpt>
      <trkpt lat="44.41021" lon="6.70503">
        <ele>1300.5</ele>
        <time>2021-09-23T07:49:30Z</time>
      </trkpt>
      <trkpt lat="44.41013" lon="6.70488">
        <ele>1300.2</ele>
        <time>2021-09-23T07:49:34Z</time>
      </trkpt>
      <trkpt lat="44.4101" lon="6.70474">
        <ele>1301.2</ele>
        <time>2021-09-23T07:49:38Z</time>
      </trkpt>
      <trkpt lat="44.41009" lon="6.70462">
        <ele>1302.6</ele>
        <time>2021-09-23T07:49:42Z</time>
      </trkpt>
      <trkpt lat="44.41009" lon="6.7045">
        <ele>1304.4</ele>
        <time>2021-09-23T07:49:46Z</time>
      </trkpt>
      <trkpt lat="44.41009" lon="6.70435">
        <ele>1306.6</ele>
        <time>2021-09-23T07:49:50Z</time>
      </trkpt>
      <trkpt lat="44.41003" lon="6.70414">
        <ele>1307.5</ele>
        <time>2021-09-23T07:49:54Z</time>
      </trkpt>
      <trkpt lat="44.40994" lon="6.704">
        <ele>1306.4</ele>
        <time>2021-09-23T07:49:58Z</time>
      </trkpt>
      <trkpt lat="44.40988" lon="6.70391">
        <ele>1305.9</ele>
        <time>2021-09-23T07:50:02Z</time>
      </trkpt>
      <trkpt lat="44.40984" lon="6.7038">
        <ele>1306.2</ele>
        <time>2021-09-23T07:50:06Z</time>
      </trkpt>
      <trkpt lat="44.4098" lon="6.70367">
        <ele>1306.8</ele>
        <time>2021-09-23T07:50:10Z</time>
      </trkpt>
      <trkpt lat="44.40977" lon="6.70351">
        <ele>1308.2</ele>
        <time>2021-09-23T07:50:14Z</time>
      </trkpt>
      <trkpt lat="44.40976" lon="6.70335">
        <ele>1310.1</ele>
        <time>2021-09-23T07:50:18Z</time>
      </trkpt>
      <trkpt lat="44.40975" lon="6.7032">
        <ele>1312</ele>
        <time>2021-09-23T07:50:22Z</time>
      </trkpt>
      <trkpt lat="44.40971" lon="6.70305">
        <ele>1313</ele>
        <time>2021-09-23T07:50:26Z</time>
      </trkpt>
      <trkpt lat="44.40962" lon="6.70287">
        <ele>1312.9</ele>
        <time>2021-09-23T07:50:30Z</time>
      </trkpt>
      <trkpt lat="44.40954" lon="6.70273">
        <ele>1312.6</ele>
        <time>2021-09-23T07:50:34Z</time>
      </trkpt>
      <trkpt lat="44.4095" lon="6.70264">
        <ele>1312.7</ele>
        <time>2021-09-23T07:50:38Z</time>
      </trkpt>
      <trkpt lat="44.40943" lon="6.70264">
        <ele>1310.7</ele>
        <time>2021-09-23T07:50:42Z</time>
      </trkpt>
      <trkpt lat="44.40937" lon="6.70265">
        <ele>1308.8</ele>
        <time>2021-09-23T07:50:46Z</time>
      </trkpt>
      <trkpt lat="44.40927" lon="6.70265">
        <ele>1306</ele>
        <time>2021-09-23T07:50:50Z</time>
      </trkpt>
      <trkpt lat="44.40915" lon="6.70262">
        <ele>1302.9</ele>
        <time>2021-09-23T07:50:54Z</time>
      </trkpt>
      <trkpt lat="44.40904" lon="6.70254">
        <ele>1300.5</ele>
        <time>2021-09-23T07:50:58Z</time>
      </trkpt>
      <trkpt lat="44.409" lon="6.70231">
        <ele>1300.9</ele>
        <time>2021-09-23T07:51:02Z</time>
      </trkpt>
      <trkpt lat="44.40895" lon="6.70202">
        <ele>1301.1</ele>
        <time>2021-09-23T07:51:06Z</time>
      </trkpt>
      <trkpt lat="44.40867" lon="6.70178">
        <ele>1293.8</ele>
        <time>2021-09-23T07:51:10Z</time>
      </trkpt>
      <trkpt lat="44.40848" lon="6.70153">
        <ele>1288.8</ele>
        <time>2021-09-23T07:51:14Z</time>
      </trkpt>
      <trkpt lat="44.40844" lon="6.70124">
        <ele>1287.9</ele>
        <time>2021-09-23T07:51:18Z</time>
      </trkpt>
      <trkpt lat="44.4084" lon="6.70094">
        <ele>1287</ele>
        <time>2021-09-23T07:51:22Z</time>
      </trkpt>
      <trkpt lat="44.40828" lon="6.70067">
        <ele>1282.9</ele>
        <time>2021-09-23T07:51:26Z</time>
      </trkpt>
      <trkpt lat="44.40832" lon="6.70027">
        <ele>1284.4</ele>
        <time>2021-09-23T07:51:30Z</time>
      </trkpt>
      <trkpt lat="44.40823" lon="6.69987">
        <ele>1281.2</ele>
        <time>2021-09-23T07:51:34Z</time>
      </trkpt>
      <trkpt lat="44.4081" lon="6.69949">
        <ele>1277.7</ele>
        <time>2021-09-23T07:51:38Z</time>
      </trkpt>
      <trkpt lat="44.408" lon="6.69905">
        <ele>1275.9</ele>
        <time>2021-09-23T07:51:42Z</time>
      </trkpt>
      <trkpt lat="44.4078" lon="6.69871">
        <ele>1269</ele>
        <time>2021-09-23T07:51:46Z</time>
      </trkpt>
      <trkpt lat="44.40761" lon="6.69846">
        <ele>1262.1</ele>
        <time>2021-09-23T07:51:50Z</time>
      </trkpt>
      <trkpt lat="44.40739" lon="6.69824">
        <ele>1255.5</ele>
        <time>2021-09-23T07:51:54Z</time>
      </trkpt>
      <trkpt lat="44.40725" lon="6.6979">
        <ele>1255.5</ele>
        <time>2021-09-23T07:51:58Z</time>
      </trkpt>
      <trkpt lat="44.407" lon="6.69776">
        <ele>1248.9</ele>
        <time>2021-09-23T07:52:02Z</time>
      </trkpt>
      <trkpt lat="44.40671" lon="6.69748">
        <ele>1243</ele>
        <time>2021-09-23T07:52:06Z</time>
      </trkpt>
      <trkpt lat="44.40652" lon="6.69716">
        <ele>1246</ele>
        <time>2021-09-23T07:52:10Z</time>
      </trkpt>
      <trkpt lat="44.40638" lon="6.69691">
        <ele>1248.2</ele>
        <time>2021-09-23T07:52:14Z</time>
      </trkpt>
      <trkpt lat="44.40625" lon="6.69678">
        <ele>1247.4</ele>
        <time>2021-09-23T07:52:18Z</time>
      </trkpt>
      <trkpt lat="44.40606" lon="6.69662">
        <ele>1244.5</ele>
        <time>2021-09-23T07:52:22Z</time>
      </trkpt>
      <trkpt lat="44.40583" lon="6.69644">
        <ele>1239.4</ele>
        <time>2021-09-23T07:52:26Z</time>
      </trkpt>
      <trkpt lat="44.40557" lon="6.69641">
        <ele>1236.1</ele>
        <time>2021-09-23T07:52:30Z</time>
      </trkpt>
      <trkpt lat="44.40543" lon="6.69642">
        <ele>1234.1</ele>
        <time>2021-09-23T07:52:34Z</time>
      </trkpt>
      <trkpt lat="44.40529" lon="6.69663">
        <ele>1230.7</ele>
        <time>2021-09-23T07:52:38Z</time>
      </trkpt>
      <trkpt lat="44.40516" lon="6.69687">
        <ele>1227.6</ele>
        <time>2021-09-23T07:52:42Z</time>
      </trkpt>
      <trkpt lat="44.40501" lon="6.69709">
        <ele>1225.5</ele>
        <time>2021-09-23T07:52:46Z</time>
      </trkpt>
      <trkpt lat="44.40488" lon="6.69703">
        <ele>1224.7</ele>
        <time>2021-09-23T07:52:50Z</time>
      </trkpt>
      <trkpt lat="44.40483" lon="6.69687">
        <ele>1224.7</ele>
        <time>2021-09-23T07:52:54Z</time>
      </trkpt>
      <trkpt lat="44.40475" lon="6.69669">
        <ele>1224.5</ele>
        <time>2021-09-23T07:52:58Z</time>
      </trkpt>
      <trkpt lat="44.40461" lon="6.69644">
        <ele>1224.2</ele>
        <time>2021-09-23T07:53:02Z</time>
      </trkpt>
      <trkpt lat="44.40445" lon="6.69624">
        <ele>1223.4</ele>
        <time>2021-09-23T07:53:06Z</time>
      </trkpt>
      <trkpt lat="44.40432" lon="6.69606">
        <ele>1222.8</ele>
        <time>2021-09-23T07:53:10Z</time>
      </trkpt>
      <trkpt lat="44.40422" lon="6.69593">
        <ele>1222.2</ele>
        <time>2021-09-23T07:53:14Z</time>
      </trkpt>
      <trkpt lat="44.40414" lon="6.69574">
        <ele>1222</ele>
        <time>2021-09-23T07:53:18Z</time>
      </trkpt>
      <trkpt lat="44.40407" lon="6.6956">
        <ele>1221.7</ele>
        <time>2021-09-23T07:53:22Z</time>
      </trkpt>
      <trkpt lat="44.40399" lon="6.69548">
        <ele>1221.3</ele>
        <time>2021-09-23T07:53:26Z</time>
      </trkpt>
      <trkpt lat="44.4039" lon="6.69536">
        <ele>1220.7</ele>
        <time>2021-09-23T07:53:30Z</time>
      </trkpt>
      <trkpt lat="44.40382" lon="6.69525">
        <ele>1220.2</ele>
        <time>2021-09-23T07:53:34Z</time>
      </trkpt>
      <trkpt lat="44.40377" lon="6.69513">
        <ele>1220</ele>
        <time>2021-09-23T07:53:38Z</time>
      </trkpt>
      <trkpt lat="44.40372" lon="6.69496">
        <ele>1219.8</ele>
        <time>2021-09-23T07:53:42Z</time>
      </trkpt>
      <trkpt lat="44.40367" lon="6.69476">
        <ele>1219.9</ele>
        <time>2021-09-23T07:53:46Z</time>
      </trkpt>
      <trkpt lat="44.40361" lon="6.69452">
        <ele>1219.8</ele>
        <time>2021-09-23T07:53:50Z</time>
      </trkpt>
      <trkpt lat="44.40354" lon="6.69427">
        <ele>1219.5</ele>
        <time>2021-09-23T07:53:54Z</time>
      </trkpt>
      <trkpt lat="44.4034" lon="6.69406">
        <ele>1217.9</ele>
        <time>2021-09-23T07:53:58Z</time>
      </trkpt>
      <trkpt lat="44.40322" lon="6.69385">
        <ele>1215.6</ele>
        <time>2021-09-23T07:54:02Z</time>
      </trkpt>
      <trkpt lat="44.40298" lon="6.69379">
        <ele>1212.5</ele>
        <time>2021-09-23T07:54:06Z</time>
      </trkpt>
      <trkpt lat="44.40276" lon="6.69388">
        <ele>1209.7</ele>
        <time>2021-09-23T07:54:10Z</time>
      </trkpt>
      <trkpt lat="44.40254" lon="6.69397">
        <ele>1206.8</ele>
        <time>2021-09-23T07:54:14Z</time>
      </trkpt>
      <trkpt lat="44.40226" lon="6.69387">
        <ele>1203</ele>
        <time>2021-09-23T07:54:18Z</time>
      </trkpt>
      <trkpt lat="44.40205" lon="6.69369">
        <ele>1200</ele>
        <time>2021-09-23T07:54:22Z</time>
      </trkpt>
      <trkpt lat="44.40196" lon="6.6934">
        <ele>1198.6</ele>
        <time>2021-09-23T07:54:26Z</time>
      </trkpt>
      <trkpt lat="44.40199" lon="6.69308">
        <ele>1199.3</ele>
        <time>2021-09-23T07:54:30Z</time>
      </trkpt>
      <trkpt lat="44.40203" lon="6.69281">
        <ele>1200.3</ele>
        <time>2021-09-23T07:54:34Z</time>
      </trkpt>
      <trkpt lat="44.4021" lon="6.69253">
        <ele>1201.7</ele>
        <time>2021-09-23T07:54:38Z</time>
      </trkpt>
      <trkpt lat="44.40213" lon="6.69225">
        <ele>1203.6</ele>
        <time>2021-09-23T07:54:42Z</time>
      </trkpt>
      <trkpt lat="44.40214" lon="6.69199">
        <ele>1205.2</ele>
        <time>2021-09-23T07:54:46Z</time>
      </trkpt>
      <trkpt lat="44.40202" lon="6.69182">
        <ele>1205</ele>
        <time>2021-09-23T07:54:50Z</time>
      </trkpt>
      <trkpt lat="44.40178" lon="6.6918">
        <ele>1202.8</ele>
        <time>2021-09-23T07:54:54Z</time>
      </trkpt>
      <trkpt lat="44.40154" lon="6.69181">
        <ele>1201.1</ele>
        <time>2021-09-23T07:54:58Z</time>
      </trkpt>
      <trkpt lat="44.40134" lon="6.69169">
        <ele>1201.2</ele>
        <time>2021-09-23T07:55:02Z</time>
      </trkpt>
      <trkpt lat="44.40112" lon="6.69158">
        <ele>1200.8</ele>
        <time>2021-09-23T07:55:06Z</time>
      </trkpt>
      <trkpt lat="44.40092" lon="6.69148">
        <ele>1200.5</ele>
        <time>2021-09-23T07:55:10Z</time>
      </trkpt>
      <trkpt lat="44.40075" lon="6.69137">
        <ele>1200.4</ele>
        <time>2021-09-23T07:55:14Z</time>
      </trkpt>
      <trkpt lat="44.40055" lon="6.69125">
        <ele>1200</ele>
        <time>2021-09-23T07:55:18Z</time>
      </trkpt>
      <trkpt lat="44.40038" lon="6.69113">
        <ele>1199.5</ele>
        <time>2021-09-23T07:55:22Z</time>
      </trkpt>
      <trkpt lat="44.40017" lon="6.69096">
        <ele>1198.8</ele>
        <time>2021-09-23T07:55:26Z</time>
      </trkpt>
      <trkpt lat="44.39999" lon="6.69079">
        <ele>1198.3</ele>
        <time>2021-09-23T07:55:30Z</time>
      </trkpt>
      <trkpt lat="44.39983" lon="6.69068">
        <ele>1198.5</ele>
        <time>2021-09-23T07:55:34Z</time>
      </trkpt>
      <trkpt lat="44.39968" lon="6.69055">
        <ele>1198.8</ele>
        <time>2021-09-23T07:55:38Z</time>
      </trkpt>
      <trkpt lat="44.39954" lon="6.69045">
        <ele>1199</ele>
        <time>2021-09-23T07:55:42Z</time>
      </trkpt>
      <trkpt lat="44.39941" lon="6.69035">
        <ele>1199.2</ele>
        <time>2021-09-23T07:55:46Z</time>
      </trkpt>
      <trkpt lat="44.39928" lon="6.69018">
        <ele>1200</ele>
        <time>2021-09-23T07:55:50Z</time>
      </trkpt>
      <trkpt lat="44.39914" lon="6.69004">
        <ele>1200.5</ele>
        <time>2021-09-23T07:55:54Z</time>
      </trkpt>
      <trkpt lat="44.39899" lon="6.68989">
        <ele>1200.5</ele>
        <time>2021-09-23T07:55:58Z</time>
      </trkpt>
      <trkpt lat="44.39888" lon="6.68975">
        <ele>1200.5</ele>
        <time>2021-09-23T07:56:02Z</time>
      </trkpt>
      <trkpt lat="44.3988" lon="6.68965">
        <ele>1200.5</ele>
        <time>2021-09-23T07:56:06Z</time>
      </trkpt>
      <trkpt lat="44.39875" lon="6.68957">
        <ele>1200.6</ele>
        <time>2021-09-23T07:56:14Z</time>
      </trkpt>
      <trkpt lat="44.39869" lon="6.6895">
        <ele>1200.5</ele>
        <time>2021-09-23T07:56:18Z</time>
      </trkpt>
      <trkpt lat="44.39866" lon="6.68944">
        <ele>1200.6</ele>
        <time>2021-09-23T07:56:22Z</time>
      </trkpt>
      <trkpt lat="44.39862" lon="6.68941">
        <ele>1200.4</ele>
        <time>2021-09-23T07:56:26Z</time>
      </trkpt>
      <trkpt lat="44.39853" lon="6.6893">
        <ele>1200.2</ele>
        <time>2021-09-23T07:56:30Z</time>
      </trkpt>
      <trkpt lat="44.39845" lon="6.68918">
        <ele>1200.1</ele>
        <time>2021-09-23T07:56:34Z</time>
      </trkpt>
      <trkpt lat="44.39837" lon="6.68905">
        <ele>1200.2</ele>
        <time>2021-09-23T07:56:38Z</time>
      </trkpt>
      <trkpt lat="44.39831" lon="6.68892">
        <ele>1200.7</ele>
        <time>2021-09-23T07:56:42Z</time>
      </trkpt>
      <trkpt lat="44.39822" lon="6.6888">
        <ele>1201.1</ele>
        <time>2021-09-23T07:56:46Z</time>
      </trkpt>
      <trkpt lat="44.39813" lon="6.68868">
        <ele>1201.3</ele>
        <time>2021-09-23T07:56:50Z</time>
      </trkpt>
      <trkpt lat="44.39806" lon="6.68858">
        <ele>1201.5</ele>
        <time>2021-09-23T07:56:54Z</time>
      </trkpt>
      <trkpt lat="44.39799" lon="6.68848">
        <ele>1201.7</ele>
        <time>2021-09-23T07:56:58Z</time>
      </trkpt>
      <trkpt lat="44.39791" lon="6.68838">
        <ele>1201.7</ele>
        <time>2021-09-23T07:57:02Z</time>
      </trkpt>
      <trkpt lat="44.39782" lon="6.68828">
        <ele>1201.7</ele>
        <time>2021-09-23T07:57:06Z</time>
      </trkpt>
      <trkpt lat="44.39772" lon="6.68817">
        <ele>1201.9</ele>
        <time>2021-09-23T07:57:10Z</time>
      </trkpt>
      <trkpt lat="44.39763" lon="6.68806">
        <ele>1202.2</ele>
        <time>2021-09-23T07:57:14Z</time>
      </trkpt>
      <trkpt lat="44.39752" lon="6.68794">
        <ele>1202.4</ele>
        <time>2021-09-23T07:57:18Z</time>
      </trkpt>
      <trkpt lat="44.39741" lon="6.68782">
        <ele>1202.7</ele>
        <time>2021-09-23T07:57:22Z</time>
      </trkpt>
      <trkpt lat="44.39734" lon="6.68764">
        <ele>1203.5</ele>
        <time>2021-09-23T07:57:26Z</time>
      </trkpt>
      <trkpt lat="44.3973" lon="6.68745">
        <ele>1204.4</ele>
        <time>2021-09-23T07:57:30Z</time>
      </trkpt>
      <trkpt lat="44.39726" lon="6.68728">
        <ele>1205.1</ele>
        <time>2021-09-23T07:57:34Z</time>
      </trkpt>
      <trkpt lat="44.3972" lon="6.68712">
        <ele>1205.4</ele>
        <time>2021-09-23T07:57:38Z</time>
      </trkpt>
      <trkpt lat="44.3971" lon="6.68698">
        <ele>1205</ele>
        <time>2021-09-23T07:57:42Z</time>
      </trkpt>
      <trkpt lat="44.39698" lon="6.68687">
        <ele>1204.1</ele>
        <time>2021-09-23T07:57:46Z</time>
      </trkpt>
      <trkpt lat="44.39687" lon="6.68676">
        <ele>1203.3</ele>
        <time>2021-09-23T07:57:50Z</time>
      </trkpt>
      <trkpt lat="44.39676" lon="6.68662">
        <ele>1202.5</ele>
        <time>2021-09-23T07:57:54Z</time>
      </trkpt>
      <trkpt lat="44.39667" lon="6.68647">
        <ele>1202</ele>
        <time>2021-09-23T07:57:58Z</time>
      </trkpt>
      <trkpt lat="44.39659" lon="6.6863">
        <ele>1202.2</ele>
        <time>2021-09-23T07:58:02Z</time>
      </trkpt>
      <trkpt lat="44.39652" lon="6.68613">
        <ele>1202.6</ele>
        <time>2021-09-23T07:58:06Z</time>
      </trkpt>
      <trkpt lat="44.39645" lon="6.68597">
        <ele>1203</ele>
        <time>2021-09-23T07:58:10Z</time>
      </trkpt>
      <trkpt lat="44.39639" lon="6.68582">
        <ele>1203.4</ele>
        <time>2021-09-23T07:58:14Z</time>
      </trkpt>
      <trkpt lat="44.39632" lon="6.68565">
        <ele>1204.3</ele>
        <time>2021-09-23T07:58:18Z</time>
      </trkpt>
      <trkpt lat="44.39627" lon="6.68547">
        <ele>1205.3</ele>
        <time>2021-09-23T07:58:22Z</time>
      </trkpt>
      <trkpt lat="44.39619" lon="6.68531">
        <ele>1205.8</ele>
        <time>2021-09-23T07:58:26Z</time>
      </trkpt>
      <trkpt lat="44.39613" lon="6.68514">
        <ele>1206.5</ele>
        <time>2021-09-23T07:58:30Z</time>
      </trkpt>
      <trkpt lat="44.39606" lon="6.68496">
        <ele>1207.2</ele>
        <time>2021-09-23T07:58:34Z</time>
      </trkpt>
      <trkpt lat="44.39599" lon="6.6848">
        <ele>1207.6</ele>
        <time>2021-09-23T07:58:38Z</time>
      </trkpt>
      <trkpt lat="44.39593" lon="6.68465">
        <ele>1208</ele>
        <time>2021-09-23T07:58:42Z</time>
      </trkpt>
      <trkpt lat="44.39587" lon="6.68449">
        <ele>1208.4</ele>
        <time>2021-09-23T07:58:46Z</time>
      </trkpt>
      <trkpt lat="44.3958" lon="6.68431">
        <ele>1208.7</ele>
        <time>2021-09-23T07:58:50Z</time>
      </trkpt>
      <trkpt lat="44.39571" lon="6.6841">
        <ele>1208.5</ele>
        <time>2021-09-23T07:58:54Z</time>
      </trkpt>
      <trkpt lat="44.3956" lon="6.68384">
        <ele>1207.8</ele>
        <time>2021-09-23T07:58:58Z</time>
      </trkpt>
      <trkpt lat="44.3955" lon="6.68356">
        <ele>1207.5</ele>
        <time>2021-09-23T07:59:02Z</time>
      </trkpt>
      <trkpt lat="44.3954" lon="6.6833">
        <ele>1207.4</ele>
        <time>2021-09-23T07:59:06Z</time>
      </trkpt>
      <trkpt lat="44.39527" lon="6.68309">
        <ele>1206.9</ele>
        <time>2021-09-23T07:59:10Z</time>
      </trkpt>
      <trkpt lat="44.39515" lon="6.6829">
        <ele>1206.5</ele>
        <time>2021-09-23T07:59:14Z</time>
      </trkpt>
      <trkpt lat="44.39504" lon="6.68272">
        <ele>1206.4</ele>
        <time>2021-09-23T07:59:18Z</time>
      </trkpt>
      <trkpt lat="44.39495" lon="6.68251">
        <ele>1206.4</ele>
        <time>2021-09-23T07:59:22Z</time>
      </trkpt>
      <trkpt lat="44.39488" lon="6.68229">
        <ele>1205.8</ele>
        <time>2021-09-23T07:59:26Z</time>
      </trkpt>
      <trkpt lat="44.3948" lon="6.6821">
        <ele>1205.1</ele>
        <time>2021-09-23T07:59:30Z</time>
      </trkpt>
      <trkpt lat="44.39473" lon="6.68189">
        <ele>1204.5</ele>
        <time>2021-09-23T07:59:34Z</time>
      </trkpt>
      <trkpt lat="44.39467" lon="6.68168">
        <ele>1204</ele>
        <time>2021-09-23T07:59:38Z</time>
      </trkpt>
      <trkpt lat="44.39461" lon="6.6814">
        <ele>1203</ele>
        <time>2021-09-23T07:59:42Z</time>
      </trkpt>
      <trkpt lat="44.39457" lon="6.68109">
        <ele>1202.2</ele>
        <time>2021-09-23T07:59:46Z</time>
      </trkpt>
      <trkpt lat="44.39455" lon="6.68076">
        <ele>1201.5</ele>
        <time>2021-09-23T07:59:50Z</time>
      </trkpt>
      <trkpt lat="44.39453" lon="6.68042">
        <ele>1200.6</ele>
        <time>2021-09-23T07:59:54Z</time>
      </trkpt>
      <trkpt lat="44.3945" lon="6.68009">
        <ele>1199.6</ele>
        <time>2021-09-23T07:59:58Z</time>
      </trkpt>
      <trkpt lat="44.39437" lon="6.6798">
        <ele>1197.8</ele>
        <time>2021-09-23T08:00:02Z</time>
      </trkpt>
      <trkpt lat="44.39419" lon="6.67954">
        <ele>1195.5</ele>
        <time>2021-09-23T08:00:06Z</time>
      </trkpt>
      <trkpt lat="44.39404" lon="6.67924">
        <ele>1192.9</ele>
        <time>2021-09-23T08:00:10Z</time>
      </trkpt>
      <trkpt lat="44.39396" lon="6.67898">
        <ele>1191.5</ele>
        <time>2021-09-23T08:00:14Z</time>
      </trkpt>
      <trkpt lat="44.39384" lon="6.67874">
        <ele>1190.1</ele>
        <time>2021-09-23T08:00:18Z</time>
      </trkpt>
      <trkpt lat="44.3938" lon="6.67832">
        <ele>1189.4</ele>
        <time>2021-09-23T08:00:22Z</time>
      </trkpt>
      <trkpt lat="44.39368" lon="6.678">
        <ele>1189.1</ele>
        <time>2021-09-23T08:00:26Z</time>
      </trkpt>
      <trkpt lat="44.39348" lon="6.67774">
        <ele>1188.4</ele>
        <time>2021-09-23T08:00:30Z</time>
      </trkpt>
      <trkpt lat="44.39343" lon="6.67743">
        <ele>1188.4</ele>
        <time>2021-09-23T08:00:34Z</time>
      </trkpt>
      <trkpt lat="44.39347" lon="6.67716">
        <ele>1187.9</ele>
        <time>2021-09-23T08:00:38Z</time>
      </trkpt>
      <trkpt lat="44.39351" lon="6.67688">
        <ele>1187.5</ele>
        <time>2021-09-23T08:00:42Z</time>
      </trkpt>
      <trkpt lat="44.39353" lon="6.67652">
        <ele>1186.6</ele>
        <time>2021-09-23T08:00:46Z</time>
      </trkpt>
      <trkpt lat="44.39352" lon="6.67614">
        <ele>1185.3</ele>
        <time>2021-09-23T08:00:50Z</time>
      </trkpt>
      <trkpt lat="44.39345" lon="6.67579">
        <ele>1183.4</ele>
        <time>2021-09-23T08:00:54Z</time>
      </trkpt>
      <trkpt lat="44.39338" lon="6.67548">
        <ele>1182.5</ele>
        <time>2021-09-23T08:00:58Z</time>
      </trkpt>
      <trkpt lat="44.39332" lon="6.67519">
        <ele>1181.8</ele>
        <time>2021-09-23T08:01:02Z</time>
      </trkpt>
      <trkpt lat="44.39324" lon="6.67496">
        <ele>1180.5</ele>
        <time>2021-09-23T08:01:06Z</time>
      </trkpt>
      <trkpt lat="44.39306" lon="6.67477">
        <ele>1177.3</ele>
        <time>2021-09-23T08:01:10Z</time>
      </trkpt>
      <trkpt lat="44.39288" lon="6.67458">
        <ele>1174.9</ele>
        <time>2021-09-23T08:01:14Z</time>
      </trkpt>
      <trkpt lat="44.3927" lon="6.67439">
        <ele>1173.1</ele>
        <time>2021-09-23T08:01:18Z</time>
      </trkpt>
      <trkpt lat="44.39254" lon="6.67417">
        <ele>1172.2</ele>
        <time>2021-09-23T08:01:22Z</time>
      </trkpt>
      <trkpt lat="44.39237" lon="6.67393">
        <ele>1170.1</ele>
        <time>2021-09-23T08:01:26Z</time>
      </trkpt>
      <trkpt lat="44.39221" lon="6.67369">
        <ele>1167.9</ele>
        <time>2021-09-23T08:01:30Z</time>
      </trkpt>
      <trkpt lat="44.39204" lon="6.67344">
        <ele>1165.8</ele>
        <time>2021-09-23T08:01:34Z</time>
      </trkpt>
      <trkpt lat="44.39187" lon="6.67319">
        <ele>1163.2</ele>
        <time>2021-09-23T08:01:38Z</time>
      </trkpt>
      <trkpt lat="44.39169" lon="6.67293">
        <ele>1160.3</ele>
        <time>2021-09-23T08:01:42Z</time>
      </trkpt>
      <trkpt lat="44.39152" lon="6.67268">
        <ele>1157.9</ele>
        <time>2021-09-23T08:01:46Z</time>
      </trkpt>
      <trkpt lat="44.39142" lon="6.67248">
        <ele>1156.5</ele>
        <time>2021-09-23T08:01:50Z</time>
      </trkpt>
      <trkpt lat="44.39142" lon="6.67225">
        <ele>1156.3</ele>
        <time>2021-09-23T08:01:54Z</time>
      </trkpt>
      <trkpt lat="44.39142" lon="6.672">
        <ele>1156.2</ele>
        <time>2021-09-23T08:01:58Z</time>
      </trkpt>
      <trkpt lat="44.39141" lon="6.67173">
        <ele>1155.9</ele>
        <time>2021-09-23T08:02:02Z</time>
      </trkpt>
      <trkpt lat="44.3914" lon="6.67146">
        <ele>1155.9</ele>
        <time>2021-09-23T08:02:06Z</time>
      </trkpt>
      <trkpt lat="44.39139" lon="6.67118">
        <ele>1156.1</ele>
        <time>2021-09-23T08:02:10Z</time>
      </trkpt>
      <trkpt lat="44.39134" lon="6.67094">
        <ele>1155.8</ele>
        <time>2021-09-23T08:02:14Z</time>
      </trkpt>
      <trkpt lat="44.39127" lon="6.67069">
        <ele>1155.1</ele>
        <time>2021-09-23T08:02:18Z</time>
      </trkpt>
      <trkpt lat="44.39116" lon="6.67047">
        <ele>1154</ele>
        <time>2021-09-23T08:02:22Z</time>
      </trkpt>
      <trkpt lat="44.39103" lon="6.67028">
        <ele>1152.7</ele>
        <time>2021-09-23T08:02:26Z</time>
      </trkpt>
      <trkpt lat="44.39089" lon="6.67012">
        <ele>1151.5</ele>
        <time>2021-09-23T08:02:30Z</time>
      </trkpt>
      <trkpt lat="44.39074" lon="6.66998">
        <ele>1150.9</ele>
        <time>2021-09-23T08:02:34Z</time>
      </trkpt>
      <trkpt lat="44.39058" lon="6.66985">
        <ele>1151</ele>
        <time>2021-09-23T08:02:38Z</time>
      </trkpt>
      <trkpt lat="44.39045" lon="6.66967">
        <ele>1151.1</ele>
        <time>2021-09-23T08:02:42Z</time>
      </trkpt>
      <trkpt lat="44.39037" lon="6.66948">
        <ele>1151.3</ele>
        <time>2021-09-23T08:02:46Z</time>
      </trkpt>
      <trkpt lat="44.39032" lon="6.66923">
        <ele>1151.5</ele>
        <time>2021-09-23T08:02:50Z</time>
      </trkpt>
      <trkpt lat="44.39025" lon="6.66897">
        <ele>1150.9</ele>
        <time>2021-09-23T08:02:54Z</time>
      </trkpt>
      <trkpt lat="44.39017" lon="6.66868">
        <ele>1150</ele>
        <time>2021-09-23T08:02:58Z</time>
      </trkpt>
      <trkpt lat="44.39009" lon="6.66842">
        <ele>1149</ele>
        <time>2021-09-23T08:03:02Z</time>
      </trkpt>
      <trkpt lat="44.39003" lon="6.66814">
        <ele>1148.8</ele>
        <time>2021-09-23T08:03:06Z</time>
      </trkpt>
      <trkpt lat="44.39001" lon="6.6679">
        <ele>1149.1</ele>
        <time>2021-09-23T08:03:10Z</time>
      </trkpt>
      <trkpt lat="44.38997" lon="6.66772">
        <ele>1149.3</ele>
        <time>2021-09-23T08:03:14Z</time>
      </trkpt>
      <trkpt lat="44.38985" lon="6.66779">
        <ele>1148.5</ele>
        <time>2021-09-23T08:03:18Z</time>
      </trkpt>
      <trkpt lat="44.38969" lon="6.66783">
        <ele>1147.6</ele>
        <time>2021-09-23T08:03:22Z</time>
      </trkpt>
      <trkpt lat="44.38954" lon="6.66792">
        <ele>1146.8</ele>
        <time>2021-09-23T08:03:26Z</time>
      </trkpt>
      <trkpt lat="44.3894" lon="6.66806">
        <ele>1146.3</ele>
        <time>2021-09-23T08:03:30Z</time>
      </trkpt>
      <trkpt lat="44.38926" lon="6.6682">
        <ele>1146</ele>
        <time>2021-09-23T08:03:34Z</time>
      </trkpt>
      <trkpt lat="44.38912" lon="6.66834">
        <ele>1146.1</ele>
        <time>2021-09-23T08:03:38Z</time>
      </trkpt>
      <trkpt lat="44.38897" lon="6.66849">
        <ele>1146.4</ele>
        <time>2021-09-23T08:03:42Z</time>
      </trkpt>
      <trkpt lat="44.38885" lon="6.66868">
        <ele>1146.8</ele>
        <time>2021-09-23T08:03:46Z</time>
      </trkpt>
      <trkpt lat="44.38874" lon="6.66888">
        <ele>1147.2</ele>
        <time>2021-09-23T08:03:50Z</time>
      </trkpt>
      <trkpt lat="44.38862" lon="6.66903">
        <ele>1147.5</ele>
        <time>2021-09-23T08:03:54Z</time>
      </trkpt>
      <trkpt lat="44.38851" lon="6.66916">
        <ele>1147.8</ele>
        <time>2021-09-23T08:03:58Z</time>
      </trkpt>
      <trkpt lat="44.3884" lon="6.66927">
        <ele>1148</ele>
        <time>2021-09-23T08:04:02Z</time>
      </trkpt>
      <trkpt lat="44.38829" lon="6.66938">
        <ele>1148.4</ele>
        <time>2021-09-23T08:04:06Z</time>
      </trkpt>
      <trkpt lat="44.38818" lon="6.66949">
        <ele>1148.8</ele>
        <time>2021-09-23T08:04:10Z</time>
      </trkpt>
      <trkpt lat="44.38808" lon="6.66961">
        <ele>1149.1</ele>
        <time>2021-09-23T08:04:14Z</time>
      </trkpt>
      <trkpt lat="44.38796" lon="6.66972">
        <ele>1149.6</ele>
        <time>2021-09-23T08:04:18Z</time>
      </trkpt>
      <trkpt lat="44.38785" lon="6.66983">
        <ele>1150</ele>
        <time>2021-09-23T08:04:22Z</time>
      </trkpt>
      <trkpt lat="44.38774" lon="6.66995">
        <ele>1150.4</ele>
        <time>2021-09-23T08:04:26Z</time>
      </trkpt>
      <trkpt lat="44.38763" lon="6.67006">
        <ele>1150.9</ele>
        <time>2021-09-23T08:04:30Z</time>
      </trkpt>
      <trkpt lat="44.38751" lon="6.67017">
        <ele>1151.6</ele>
        <time>2021-09-23T08:04:34Z</time>
      </trkpt>
      <trkpt lat="44.3874" lon="6.67028">
        <ele>1152.2</ele>
        <time>2021-09-23T08:04:38Z</time>
      </trkpt>
      <trkpt lat="44.3873" lon="6.67038">
        <ele>1152.8</ele>
        <time>2021-09-23T08:04:42Z</time>
      </trkpt>
      <trkpt lat="44.3872" lon="6.67048">
        <ele>1153.4</ele>
        <time>2021-09-23T08:04:46Z</time>
      </trkpt>
      <trkpt lat="44.3871" lon="6.67058">
        <ele>1154</ele>
        <time>2021-09-23T08:04:50Z</time>
      </trkpt>
      <trkpt lat="44.387" lon="6.67068">
        <ele>1154.6</ele>
        <time>2021-09-23T08:04:54Z</time>
      </trkpt>
      <trkpt lat="44.38689" lon="6.67078">
        <ele>1155.3</ele>
        <time>2021-09-23T08:04:58Z</time>
      </trkpt>
      <trkpt lat="44.3868" lon="6.67088">
        <ele>1155.9</ele>
        <time>2021-09-23T08:05:02Z</time>
      </trkpt>
      <trkpt lat="44.3867" lon="6.67099">
        <ele>1156.7</ele>
        <time>2021-09-23T08:05:06Z</time>
      </trkpt>
      <trkpt lat="44.38659" lon="6.67109">
        <ele>1157.3</ele>
        <time>2021-09-23T08:05:10Z</time>
      </trkpt>
      <trkpt lat="44.38648" lon="6.67119">
        <ele>1157.8</ele>
        <time>2021-09-23T08:05:14Z</time>
      </trkpt>
      <trkpt lat="44.38638" lon="6.6713">
        <ele>1158.4</ele>
        <time>2021-09-23T08:05:18Z</time>
      </trkpt>
      <trkpt lat="44.38628" lon="6.6714">
        <ele>1158.9</ele>
        <time>2021-09-23T08:05:22Z</time>
      </trkpt>
      <trkpt lat="44.38618" lon="6.67151">
        <ele>1159.4</ele>
        <time>2021-09-23T08:05:26Z</time>
      </trkpt>
      <trkpt lat="44.38607" lon="6.67161">
        <ele>1159.8</ele>
        <time>2021-09-23T08:05:30Z</time>
      </trkpt>
      <trkpt lat="44.38597" lon="6.67172">
        <ele>1160.2</ele>
        <time>2021-09-23T08:05:34Z</time>
      </trkpt>
      <trkpt lat="44.38586" lon="6.67182">
        <ele>1160.5</ele>
        <time>2021-09-23T08:05:38Z</time>
      </trkpt>
      <trkpt lat="44.38576" lon="6.67192">
        <ele>1161.2</ele>
        <time>2021-09-23T08:05:42Z</time>
      </trkpt>
      <trkpt lat="44.38567" lon="6.67202">
        <ele>1161.9</ele>
        <time>2021-09-23T08:05:46Z</time>
      </trkpt>
      <trkpt lat="44.38557" lon="6.67211">
        <ele>1162.7</ele>
        <time>2021-09-23T08:05:50Z</time>
      </trkpt>
      <trkpt lat="44.38547" lon="6.67221">
        <ele>1163.5</ele>
        <time>2021-09-23T08:05:54Z</time>
      </trkpt>
      <trkpt lat="44.38538" lon="6.6723">
        <ele>1164.3</ele>
        <time>2021-09-23T08:05:58Z</time>
      </trkpt>
      <trkpt lat="44.38528" lon="6.67241">
        <ele>1165.3</ele>
        <time>2021-09-23T08:06:02Z</time>
      </trkpt>
      <trkpt lat="44.38518" lon="6.67251">
        <ele>1166.2</ele>
        <time>2021-09-23T08:06:06Z</time>
      </trkpt>
      <trkpt lat="44.38508" lon="6.67261">
        <ele>1167.1</ele>
        <time>2021-09-23T08:06:10Z</time>
      </trkpt>
      <trkpt lat="44.38498" lon="6.67271">
        <ele>1167.8</ele>
        <time>2021-09-23T08:06:14Z</time>
      </trkpt>
      <trkpt lat="44.38487" lon="6.67281">
        <ele>1168.3</ele>
        <time>2021-09-23T08:06:18Z</time>
      </trkpt>
      <trkpt lat="44.38477" lon="6.67291">
        <ele>1168.9</ele>
        <time>2021-09-23T08:06:22Z</time>
      </trkpt>
      <trkpt lat="44.38467" lon="6.67302">
        <ele>1169.5</ele>
        <time>2021-09-23T08:06:26Z</time>
      </trkpt>
      <trkpt lat="44.38456" lon="6.67312">
        <ele>1170.2</ele>
        <time>2021-09-23T08:06:30Z</time>
      </trkpt>
      <trkpt lat="44.38447" lon="6.67323">
        <ele>1170.8</ele>
        <time>2021-09-23T08:06:34Z</time>
      </trkpt>
      <trkpt lat="44.38436" lon="6.67333">
        <ele>1171.5</ele>
        <time>2021-09-23T08:06:38Z</time>
      </trkpt>
      <trkpt lat="44.38425" lon="6.67344">
        <ele>1172.3</ele>
        <time>2021-09-23T08:06:42Z</time>
      </trkpt>
      <trkpt lat="44.38415" lon="6.67353">
        <ele>1173</ele>
        <time>2021-09-23T08:06:46Z</time>
      </trkpt>
      <trkpt lat="44.38405" lon="6.67364">
        <ele>1173.7</ele>
        <time>2021-09-23T08:06:50Z</time>
      </trkpt>
      <trkpt lat="44.38395" lon="6.67374">
        <ele>1174.3</ele>
        <time>2021-09-23T08:06:54Z</time>
      </trkpt>
      <trkpt lat="44.38385" lon="6.67384">
        <ele>1175</ele>
        <time>2021-09-23T08:06:58Z</time>
      </trkpt>
      <trkpt lat="44.38375" lon="6.67394">
        <ele>1175.8</ele>
        <time>2021-09-23T08:07:02Z</time>
      </trkpt>
      <trkpt lat="44.38364" lon="6.67404">
        <ele>1176.6</ele>
        <time>2021-09-23T08:07:06Z</time>
      </trkpt>
      <trkpt lat="44.38355" lon="6.67415">
        <ele>1177.4</ele>
        <time>2021-09-23T08:07:10Z</time>
      </trkpt>
      <trkpt lat="44.38345" lon="6.67425">
        <ele>1178.2</ele>
        <time>2021-09-23T08:07:14Z</time>
      </trkpt>
      <trkpt lat="44.38335" lon="6.67434">
        <ele>1179</ele>
        <time>2021-09-23T08:07:18Z</time>
      </trkpt>
      <trkpt lat="44.38326" lon="6.67443">
        <ele>1179.9</ele>
        <time>2021-09-23T08:07:22Z</time>
      </trkpt>
      <trkpt lat="44.38316" lon="6.67452">
        <ele>1180.8</ele>
        <time>2021-09-23T08:07:26Z</time>
      </trkpt>
      <trkpt lat="44.38307" lon="6.67462">
        <ele>1181.8</ele>
        <time>2021-09-23T08:07:30Z</time>
      </trkpt>
      <trkpt lat="44.38297" lon="6.67472">
        <ele>1182.9</ele>
        <time>2021-09-23T08:07:34Z</time>
      </trkpt>
      <trkpt lat="44.38288" lon="6.67482">
        <ele>1184</ele>
        <time>2021-09-23T08:07:38Z</time>
      </trkpt>
      <trkpt lat="44.38279" lon="6.67492">
        <ele>1185.1</ele>
        <time>2021-09-23T08:07:42Z</time>
      </trkpt>
      <trkpt lat="44.38269" lon="6.67501">
        <ele>1186.1</ele>
        <time>2021-09-23T08:07:46Z</time>
      </trkpt>
      <trkpt lat="44.3826" lon="6.6751">
        <ele>1186.9</ele>
        <time>2021-09-23T08:07:50Z</time>
      </trkpt>
      <trkpt lat="44.38252" lon="6.67519">
        <ele>1187.6</ele>
        <time>2021-09-23T08:07:54Z</time>
      </trkpt>
      <trkpt lat="44.38243" lon="6.67529">
        <ele>1188.1</ele>
        <time>2021-09-23T08:07:58Z</time>
      </trkpt>
      <trkpt lat="44.38234" lon="6.67537">
        <ele>1188.4</ele>
        <time>2021-09-23T08:08:02Z</time>
      </trkpt>
      <trkpt lat="44.38225" lon="6.67545">
        <ele>1188.8</ele>
        <time>2021-09-23T08:08:06Z</time>
      </trkpt>
      <trkpt lat="44.38216" lon="6.67554">
        <ele>1189.1</ele>
        <time>2021-09-23T08:08:10Z</time>
      </trkpt>
      <trkpt lat="44.38207" lon="6.67563">
        <ele>1189.4</ele>
        <time>2021-09-23T08:08:14Z</time>
      </trkpt>
      <trkpt lat="44.38198" lon="6.67572">
        <ele>1189.7</ele>
        <time>2021-09-23T08:08:18Z</time>
      </trkpt>
      <trkpt lat="44.38189" lon="6.6758">
        <ele>1189.9</ele>
        <time>2021-09-23T08:08:22Z</time>
      </trkpt>
      <trkpt lat="44.38181" lon="6.67589">
        <ele>1190.3</ele>
        <time>2021-09-23T08:08:26Z</time>
      </trkpt>
      <trkpt lat="44.38173" lon="6.67597">
        <ele>1190.8</ele>
        <time>2021-09-23T08:08:30Z</time>
      </trkpt>
      <trkpt lat="44.38165" lon="6.67605">
        <ele>1191.4</ele>
        <time>2021-09-23T08:08:34Z</time>
      </trkpt>
      <trkpt lat="44.38157" lon="6.67613">
        <ele>1192.1</ele>
        <time>2021-09-23T08:08:38Z</time>
      </trkpt>
      <trkpt lat="44.38149" lon="6.67621">
        <ele>1192.8</ele>
        <time>2021-09-23T08:08:42Z</time>
      </trkpt>
      <trkpt lat="44.38141" lon="6.67628">
        <ele>1193.4</ele>
        <time>2021-09-23T08:08:46Z</time>
      </trkpt>
      <trkpt lat="44.38133" lon="6.67636">
        <ele>1194.1</ele>
        <time>2021-09-23T08:08:50Z</time>
      </trkpt>
      <trkpt lat="44.38124" lon="6.67643">
        <ele>1194.7</ele>
        <time>2021-09-23T08:08:54Z</time>
      </trkpt>
      <trkpt lat="44.38115" lon="6.6765">
        <ele>1195.4</ele>
        <time>2021-09-23T08:08:58Z</time>
      </trkpt>
      <trkpt lat="44.38106" lon="6.67656">
        <ele>1195.9</ele>
        <time>2021-09-23T08:09:02Z</time>
      </trkpt>
      <trkpt lat="44.38097" lon="6.67662">
        <ele>1196.4</ele>
        <time>2021-09-23T08:09:06Z</time>
      </trkpt>
      <trkpt lat="44.38089" lon="6.67666">
        <ele>1196.8</ele>
        <time>2021-09-23T08:09:10Z</time>
      </trkpt>
      <trkpt lat="44.3808" lon="6.6767">
        <ele>1198.1</ele>
        <time>2021-09-23T08:09:14Z</time>
      </trkpt>
      <trkpt lat="44.38071" lon="6.67675">
        <ele>1200</ele>
        <time>2021-09-23T08:09:18Z</time>
      </trkpt>
      <trkpt lat="44.38063" lon="6.67679">
        <ele>1201.5</ele>
        <time>2021-09-23T08:09:22Z</time>
      </trkpt>
      <trkpt lat="44.38055" lon="6.67684">
        <ele>1202.9</ele>
        <time>2021-09-23T08:09:26Z</time>
      </trkpt>
      <trkpt lat="44.38047" lon="6.67687">
        <ele>1204</ele>
        <time>2021-09-23T08:09:30Z</time>
      </trkpt>
      <trkpt lat="44.38039" lon="6.67691">
        <ele>1205</ele>
        <time>2021-09-23T08:09:34Z</time>
      </trkpt>
      <trkpt lat="44.38031" lon="6.67694">
        <ele>1205.7</ele>
        <time>2021-09-23T08:09:38Z</time>
      </trkpt>
      <trkpt lat="44.38023" lon="6.67698">
        <ele>1206.4</ele>
        <time>2021-09-23T08:09:42Z</time>
      </trkpt>
      <trkpt lat="44.38015" lon="6.67702">
        <ele>1206.9</ele>
        <time>2021-09-23T08:09:46Z</time>
      </trkpt>
      <trkpt lat="44.38008" lon="6.67706">
        <ele>1207.2</ele>
        <time>2021-09-23T08:09:50Z</time>
      </trkpt>
      <trkpt lat="44.38" lon="6.6771">
        <ele>1207.4</ele>
        <time>2021-09-23T08:09:54Z</time>
      </trkpt>
      <trkpt lat="44.37993" lon="6.67715">
        <ele>1208.1</ele>
        <time>2021-09-23T08:09:58Z</time>
      </trkpt>
      <trkpt lat="44.37984" lon="6.67719">
        <ele>1208.9</ele>
        <time>2021-09-23T08:10:02Z</time>
      </trkpt>
      <trkpt lat="44.37976" lon="6.67723">
        <ele>1209.4</ele>
        <time>2021-09-23T08:10:06Z</time>
      </trkpt>
      <trkpt lat="44.37967" lon="6.67726">
        <ele>1210</ele>
        <time>2021-09-23T08:10:10Z</time>
      </trkpt>
      <trkpt lat="44.37959" lon="6.6773">
        <ele>1210.3</ele>
        <time>2021-09-23T08:10:14Z</time>
      </trkpt>
      <trkpt lat="44.37952" lon="6.67734">
        <ele>1210.4</ele>
        <time>2021-09-23T08:10:18Z</time>
      </trkpt>
      <trkpt lat="44.37943" lon="6.67737">
        <ele>1210.7</ele>
        <time>2021-09-23T08:10:22Z</time>
      </trkpt>
      <trkpt lat="44.37935" lon="6.67744">
        <ele>1210.1</ele>
        <time>2021-09-23T08:10:26Z</time>
      </trkpt>
      <trkpt lat="44.37929" lon="6.67752">
        <ele>1209.6</ele>
        <time>2021-09-23T08:10:30Z</time>
      </trkpt>
      <trkpt lat="44.37922" lon="6.67761">
        <ele>1210.4</ele>
        <time>2021-09-23T08:10:34Z</time>
      </trkpt>
      <trkpt lat="44.37917" lon="6.67771">
        <ele>1211</ele>
        <time>2021-09-23T08:10:38Z</time>
      </trkpt>
      <trkpt lat="44.37911" lon="6.67781">
        <ele>1212</ele>
        <time>2021-09-23T08:10:42Z</time>
      </trkpt>
      <trkpt lat="44.37904" lon="6.67789">
        <ele>1212.9</ele>
        <time>2021-09-23T08:10:46Z</time>
      </trkpt>
      <trkpt lat="44.37896" lon="6.67795">
        <ele>1213.7</ele>
        <time>2021-09-23T08:10:50Z</time>
      </trkpt>
      <trkpt lat="44.37888" lon="6.67799">
        <ele>1214.4</ele>
        <time>2021-09-23T08:10:54Z</time>
      </trkpt>
      <trkpt lat="44.3788" lon="6.67803">
        <ele>1215.1</ele>
        <time>2021-09-23T08:10:58Z</time>
      </trkpt>
      <trkpt lat="44.37872" lon="6.67806">
        <ele>1215.7</ele>
        <time>2021-09-23T08:11:02Z</time>
      </trkpt>
      <trkpt lat="44.37864" lon="6.67808">
        <ele>1216.3</ele>
        <time>2021-09-23T08:11:06Z</time>
      </trkpt>
      <trkpt lat="44.37856" lon="6.67811">
        <ele>1216.8</ele>
        <time>2021-09-23T08:11:10Z</time>
      </trkpt>
      <trkpt lat="44.37848" lon="6.67814">
        <ele>1217.3</ele>
        <time>2021-09-23T08:11:14Z</time>
      </trkpt>
      <trkpt lat="44.37841" lon="6.67815">
        <ele>1217.8</ele>
        <time>2021-09-23T08:11:18Z</time>
      </trkpt>
      <trkpt lat="44.37833" lon="6.67816">
        <ele>1218.3</ele>
        <time>2021-09-23T08:11:22Z</time>
      </trkpt>
      <trkpt lat="44.37825" lon="6.67818">
        <ele>1219.6</ele>
        <time>2021-09-23T08:11:26Z</time>
      </trkpt>
      <trkpt lat="44.37817" lon="6.67817">
        <ele>1221.1</ele>
        <time>2021-09-23T08:11:30Z</time>
      </trkpt>
      <trkpt lat="44.3781" lon="6.67816">
        <ele>1222.3</ele>
        <time>2021-09-23T08:11:34Z</time>
      </trkpt>
      <trkpt lat="44.37802" lon="6.67816">
        <ele>1223.7</ele>
        <time>2021-09-23T08:11:38Z</time>
      </trkpt>
      <trkpt lat="44.37794" lon="6.67815">
        <ele>1225.2</ele>
        <time>2021-09-23T08:11:42Z</time>
      </trkpt>
      <trkpt lat="44.37787" lon="6.67816">
        <ele>1226.4</ele>
        <time>2021-09-23T08:11:46Z</time>
      </trkpt>
      <trkpt lat="44.3778" lon="6.67818">
        <ele>1227.4</ele>
        <time>2021-09-23T08:11:50Z</time>
      </trkpt>
      <trkpt lat="44.37774" lon="6.67826">
        <ele>1227.8</ele>
        <time>2021-09-23T08:11:54Z</time>
      </trkpt>
      <trkpt lat="44.37769" lon="6.67835">
        <ele>1228.1</ele>
        <time>2021-09-23T08:11:58Z</time>
      </trkpt>
      <trkpt lat="44.37763" lon="6.67843">
        <ele>1229.3</ele>
        <time>2021-09-23T08:12:02Z</time>
      </trkpt>
      <trkpt lat="44.37759" lon="6.67851">
        <ele>1230.2</ele>
        <time>2021-09-23T08:12:06Z</time>
      </trkpt>
      <trkpt lat="44.37754" lon="6.67859">
        <ele>1231.3</ele>
        <time>2021-09-23T08:12:10Z</time>
      </trkpt>
      <trkpt lat="44.37749" lon="6.67868">
        <ele>1232.4</ele>
        <time>2021-09-23T08:12:14Z</time>
      </trkpt>
      <trkpt lat="44.37744" lon="6.67878">
        <ele>1233.8</ele>
        <time>2021-09-23T08:12:18Z</time>
      </trkpt>
      <trkpt lat="44.3774" lon="6.67886">
        <ele>1235</ele>
        <time>2021-09-23T08:12:22Z</time>
      </trkpt>
      <trkpt lat="44.37735" lon="6.67895">
        <ele>1236.5</ele>
        <time>2021-09-23T08:12:26Z</time>
      </trkpt>
      <trkpt lat="44.3773" lon="6.67902">
        <ele>1238.1</ele>
        <time>2021-09-23T08:12:30Z</time>
      </trkpt>
      <trkpt lat="44.37727" lon="6.67911">
        <ele>1239.4</ele>
        <time>2021-09-23T08:12:34Z</time>
      </trkpt>
      <trkpt lat="44.37723" lon="6.67923">
        <ele>1240.9</ele>
        <time>2021-09-23T08:12:38Z</time>
      </trkpt>
      <trkpt lat="44.3772" lon="6.67935">
        <ele>1241.8</ele>
        <time>2021-09-23T08:12:42Z</time>
      </trkpt>
      <trkpt lat="44.37717" lon="6.67945">
        <ele>1242.8</ele>
        <time>2021-09-23T08:12:46Z</time>
      </trkpt>
      <trkpt lat="44.37715" lon="6.67954">
        <ele>1243.5</ele>
        <time>2021-09-23T08:12:50Z</time>
      </trkpt>
      <trkpt lat="44.37713" lon="6.67964">
        <ele>1244.3</ele>
        <time>2021-09-23T08:12:54Z</time>
      </trkpt>
      <trkpt lat="44.37711" lon="6.67974">
        <ele>1245.1</ele>
        <time>2021-09-23T08:12:58Z</time>
      </trkpt>
      <trkpt lat="44.37709" lon="6.67983">
        <ele>1245.9</ele>
        <time>2021-09-23T08:13:02Z</time>
      </trkpt>
      <trkpt lat="44.37706" lon="6.6799">
        <ele>1247</ele>
        <time>2021-09-23T08:13:06Z</time>
      </trkpt>
      <trkpt lat="44.37703" lon="6.67996">
        <ele>1248.1</ele>
        <time>2021-09-23T08:13:10Z</time>
      </trkpt>
      <trkpt lat="44.377" lon="6.68">
        <ele>1249.2</ele>
        <time>2021-09-23T08:13:14Z</time>
      </trkpt>
      <trkpt lat="44.37697" lon="6.68006">
        <ele>1249.8</ele>
        <time>2021-09-23T08:13:18Z</time>
      </trkpt>
      <trkpt lat="44.37693" lon="6.68013">
        <ele>1250.5</ele>
        <time>2021-09-23T08:13:22Z</time>
      </trkpt>
      <trkpt lat="44.3769" lon="6.6802">
        <ele>1250.9</ele>
        <time>2021-09-23T08:13:26Z</time>
      </trkpt>
      <trkpt lat="44.37688" lon="6.68026">
        <ele>1251.1</ele>
        <time>2021-09-23T08:13:30Z</time>
      </trkpt>
      <trkpt lat="44.37684" lon="6.68035">
        <ele>1251.5</ele>
        <time>2021-09-23T08:13:34Z</time>
      </trkpt>
      <trkpt lat="44.37681" lon="6.68041">
        <ele>1251.9</ele>
        <time>2021-09-23T08:13:38Z</time>
      </trkpt>
      <trkpt lat="44.37677" lon="6.68048">
        <ele>1252.5</ele>
        <time>2021-09-23T08:13:42Z</time>
      </trkpt>
      <trkpt lat="44.37674" lon="6.68055">
        <ele>1252.7</ele>
        <time>2021-09-23T08:13:46Z</time>
      </trkpt>
      <trkpt lat="44.37672" lon="6.68062">
        <ele>1252.6</ele>
        <time>2021-09-23T08:13:50Z</time>
      </trkpt>
      <trkpt lat="44.3767" lon="6.6807">
        <ele>1252.4</ele>
        <time>2021-09-23T08:13:54Z</time>
      </trkpt>
      <trkpt lat="44.37666" lon="6.6808">
        <ele>1252.7</ele>
        <time>2021-09-23T08:13:58Z</time>
      </trkpt>
      <trkpt lat="44.37663" lon="6.68087">
        <ele>1253.6</ele>
        <time>2021-09-23T08:14:02Z</time>
      </trkpt>
      <trkpt lat="44.37658" lon="6.68094">
        <ele>1255.4</ele>
        <time>2021-09-23T08:14:06Z</time>
      </trkpt>
      <trkpt lat="44.37653" lon="6.68103">
        <ele>1256.9</ele>
        <time>2021-09-23T08:14:10Z</time>
      </trkpt>
      <trkpt lat="44.37648" lon="6.68112">
        <ele>1258.3</ele>
        <time>2021-09-23T08:14:14Z</time>
      </trkpt>
      <trkpt lat="44.37645" lon="6.68121">
        <ele>1258.6</ele>
        <time>2021-09-23T08:14:18Z</time>
      </trkpt>
      <trkpt lat="44.3764" lon="6.6813">
        <ele>1259.7</ele>
        <time>2021-09-23T08:14:22Z</time>
      </trkpt>
      <trkpt lat="44.37635" lon="6.68138">
        <ele>1261</ele>
        <time>2021-09-23T08:14:26Z</time>
      </trkpt>
      <trkpt lat="44.37631" lon="6.68148">
        <ele>1261.3</ele>
        <time>2021-09-23T08:14:30Z</time>
      </trkpt>
      <trkpt lat="44.37627" lon="6.68157">
        <ele>1261.7</ele>
        <time>2021-09-23T08:14:34Z</time>
      </trkpt>
      <trkpt lat="44.37624" lon="6.68162">
        <ele>1262.2</ele>
        <time>2021-09-23T08:14:38Z</time>
      </trkpt>
      <trkpt lat="44.3762" lon="6.68171">
        <ele>1262.7</ele>
        <time>2021-09-23T08:14:42Z</time>
      </trkpt>
      <trkpt lat="44.37616" lon="6.6818">
        <ele>1263.3</ele>
        <time>2021-09-23T08:14:46Z</time>
      </trkpt>
      <trkpt lat="44.37611" lon="6.68189">
        <ele>1264.1</ele>
        <time>2021-09-23T08:14:50Z</time>
      </trkpt>
      <trkpt lat="44.37605" lon="6.68201">
        <ele>1264.6</ele>
        <time>2021-09-23T08:14:54Z</time>
      </trkpt>
      <trkpt lat="44.37601" lon="6.6821">
        <ele>1264.5</ele>
        <time>2021-09-23T08:14:58Z</time>
      </trkpt>
      <trkpt lat="44.37598" lon="6.68218">
        <ele>1264.1</ele>
        <time>2021-09-23T08:15:02Z</time>
      </trkpt>
      <trkpt lat="44.37591" lon="6.68227">
        <ele>1264.6</ele>
        <time>2021-09-23T08:15:06Z</time>
      </trkpt>
      <trkpt lat="44.37586" lon="6.68236">
        <ele>1264.2</ele>
        <time>2021-09-23T08:15:10Z</time>
      </trkpt>
      <trkpt lat="44.37579" lon="6.68243">
        <ele>1265.1</ele>
        <time>2021-09-23T08:15:14Z</time>
      </trkpt>
      <trkpt lat="44.37572" lon="6.68251">
        <ele>1266.2</ele>
        <time>2021-09-23T08:15:18Z</time>
      </trkpt>
      <trkpt lat="44.37563" lon="6.68256">
        <ele>1269.4</ele>
        <time>2021-09-23T08:15:22Z</time>
      </trkpt>
      <trkpt lat="44.37556" lon="6.6826">
        <ele>1271.8</ele>
        <time>2021-09-23T08:15:26Z</time>
      </trkpt>
      <trkpt lat="44.37549" lon="6.68261">
        <ele>1274.2</ele>
        <time>2021-09-23T08:15:30Z</time>
      </trkpt>
      <trkpt lat="44.37547" lon="6.68262">
        <ele>1274.8</ele>
        <time>2021-09-23T08:15:34Z</time>
      </trkpt>
      <trkpt lat="44.37545" lon="6.68265">
        <ele>1275.3</ele>
        <time>2021-09-23T08:15:38Z</time>
      </trkpt>
      <trkpt lat="44.37545" lon="6.68269">
        <ele>1275</ele>
        <time>2021-09-23T08:15:42Z</time>
      </trkpt>
      <trkpt lat="44.37541" lon="6.68271">
        <ele>1276.2</ele>
        <time>2021-09-23T08:15:46Z</time>
      </trkpt>
      <trkpt lat="44.37539" lon="6.68272">
        <ele>1276.8</ele>
        <time>2021-09-23T08:15:54Z</time>
      </trkpt>
      <trkpt lat="44.37535" lon="6.68278">
        <ele>1277.5</ele>
        <time>2021-09-23T08:15:58Z</time>
      </trkpt>
      <trkpt lat="44.37529" lon="6.68284">
        <ele>1278.8</ele>
        <time>2021-09-23T08:16:02Z</time>
      </trkpt>
      <trkpt lat="44.37523" lon="6.68293">
        <ele>1279.5</ele>
        <time>2021-09-23T08:16:06Z</time>
      </trkpt>
      <trkpt lat="44.37519" lon="6.683">
        <ele>1279.7</ele>
        <time>2021-09-23T08:16:10Z</time>
      </trkpt>
      <trkpt lat="44.37519" lon="6.68306">
        <ele>1279</ele>
        <time>2021-09-23T08:16:14Z</time>
      </trkpt>
      <trkpt lat="44.3752" lon="6.68313">
        <ele>1277.9</ele>
        <time>2021-09-23T08:16:22Z</time>
      </trkpt>
      <trkpt lat="44.37526" lon="6.68317">
        <ele>1276.1</ele>
        <time>2021-09-23T08:16:26Z</time>
      </trkpt>
      <trkpt lat="44.37531" lon="6.6832">
        <ele>1274.7</ele>
        <time>2021-09-23T08:16:34Z</time>
      </trkpt>
      <trkpt lat="44.37536" lon="6.68321">
        <ele>1273.6</ele>
        <time>2021-09-23T08:16:38Z</time>
      </trkpt>
      <trkpt lat="44.37541" lon="6.68323">
        <ele>1272.4</ele>
        <time>2021-09-23T08:16:46Z</time>
      </trkpt>
      <trkpt lat="44.37545" lon="6.68323">
        <ele>1271.6</ele>
        <time>2021-09-23T08:16:50Z</time>
      </trkpt>
      <trkpt lat="44.3755" lon="6.68325">
        <ele>1270.4</ele>
        <time>2021-09-23T08:16:54Z</time>
      </trkpt>
      <trkpt lat="44.37557" lon="6.68329">
        <ele>1268.9</ele>
        <time>2021-09-23T08:16:58Z</time>
      </trkpt>
      <trkpt lat="44.37563" lon="6.68334">
        <ele>1267.8</ele>
        <time>2021-09-23T08:17:02Z</time>
      </trkpt>
      <trkpt lat="44.37568" lon="6.68339">
        <ele>1267.8</ele>
        <time>2021-09-23T08:17:06Z</time>
      </trkpt>
      <trkpt lat="44.37574" lon="6.68346">
        <ele>1267.9</ele>
        <time>2021-09-23T08:17:10Z</time>
      </trkpt>
      <trkpt lat="44.37579" lon="6.68352">
        <ele>1268</ele>
        <time>2021-09-23T08:17:14Z</time>
      </trkpt>
      <trkpt lat="44.37584" lon="6.68358">
        <ele>1268</ele>
        <time>2021-09-23T08:17:18Z</time>
      </trkpt>
      <trkpt lat="44.37588" lon="6.68366">
        <ele>1268.6</ele>
        <time>2021-09-23T08:17:22Z</time>
      </trkpt>
      <trkpt lat="44.37586" lon="6.68372">
        <ele>1270</ele>
        <time>2021-09-23T08:17:26Z</time>
      </trkpt>
      <trkpt lat="44.37582" lon="6.68371">
        <ele>1270.6</ele>
        <time>2021-09-23T08:17:30Z</time>
      </trkpt>
      <trkpt lat="44.37579" lon="6.68371">
        <ele>1271.3</ele>
        <time>2021-09-23T08:17:34Z</time>
      </trkpt>
      <trkpt lat="44.37574" lon="6.68369">
        <ele>1272.1</ele>
        <time>2021-09-23T08:17:38Z</time>
      </trkpt>
      <trkpt lat="44.37567" lon="6.68368">
        <ele>1273.4</ele>
        <time>2021-09-23T08:17:42Z</time>
      </trkpt>
      <trkpt lat="44.37561" lon="6.68368">
        <ele>1274.7</ele>
        <time>2021-09-23T08:17:46Z</time>
      </trkpt>
      <trkpt lat="44.37554" lon="6.68367">
        <ele>1276.1</ele>
        <time>2021-09-23T08:17:50Z</time>
      </trkpt>
      <trkpt lat="44.37548" lon="6.68367">
        <ele>1277.4</ele>
        <time>2021-09-23T08:17:54Z</time>
      </trkpt>
      <trkpt lat="44.37543" lon="6.68367">
        <ele>1278.5</ele>
        <time>2021-09-23T08:17:58Z</time>
      </trkpt>
      <trkpt lat="44.37536" lon="6.68365">
        <ele>1279.6</ele>
        <time>2021-09-23T08:18:02Z</time>
      </trkpt>
      <trkpt lat="44.37531" lon="6.68366">
        <ele>1280.9</ele>
        <time>2021-09-23T08:18:06Z</time>
      </trkpt>
      <trkpt lat="44.37525" lon="6.68366">
        <ele>1282.2</ele>
        <time>2021-09-23T08:18:10Z</time>
      </trkpt>
      <trkpt lat="44.37519" lon="6.68369">
        <ele>1284.2</ele>
        <time>2021-09-23T08:18:14Z</time>
      </trkpt>
      <trkpt lat="44.37522" lon="6.68372">
        <ele>1284.3</ele>
        <time>2021-09-23T08:18:18Z</time>
      </trkpt>
      <trkpt lat="44.37526" lon="6.68371">
        <ele>1283.1</ele>
        <time>2021-09-23T08:18:22Z</time>
      </trkpt>
      <trkpt lat="44.3753" lon="6.68371">
        <ele>1282.2</ele>
        <time>2021-09-23T08:18:26Z</time>
      </trkpt>
      <trkpt lat="44.37535" lon="6.68372">
        <ele>1281.3</ele>
        <time>2021-09-23T08:18:30Z</time>
      </trkpt>
      <trkpt lat="44.37541" lon="6.68376">
        <ele>1280.9</ele>
        <time>2021-09-23T08:18:34Z</time>
      </trkpt>
      <trkpt lat="44.37548" lon="6.6838">
        <ele>1280.1</ele>
        <time>2021-09-23T08:18:38Z</time>
      </trkpt>
      <trkpt lat="44.37553" lon="6.68385">
        <ele>1279.9</ele>
        <time>2021-09-23T08:18:42Z</time>
      </trkpt>
      <trkpt lat="44.37558" lon="6.68389">
        <ele>1279.5</ele>
        <time>2021-09-23T08:18:46Z</time>
      </trkpt>
      <trkpt lat="44.37564" lon="6.68394">
        <ele>1279</ele>
        <time>2021-09-23T08:18:50Z</time>
      </trkpt>
      <trkpt lat="44.3757" lon="6.684">
        <ele>1278.6</ele>
        <time>2021-09-23T08:18:54Z</time>
      </trkpt>
      <trkpt lat="44.37574" lon="6.68408">
        <ele>1279</ele>
        <time>2021-09-23T08:18:58Z</time>
      </trkpt>
      <trkpt lat="44.3757" lon="6.6841">
        <ele>1280.5</ele>
        <time>2021-09-23T08:19:02Z</time>
      </trkpt>
      <trkpt lat="44.37566" lon="6.68408">
        <ele>1281.2</ele>
        <time>2021-09-23T08:19:06Z</time>
      </trkpt>
      <trkpt lat="44.37561" lon="6.68406">
        <ele>1282.1</ele>
        <time>2021-09-23T08:19:10Z</time>
      </trkpt>
      <trkpt lat="44.37557" lon="6.68404">
        <ele>1282.8</ele>
        <time>2021-09-23T08:19:14Z</time>
      </trkpt>
      <trkpt lat="44.37551" lon="6.68404">
        <ele>1284.3</ele>
        <time>2021-09-23T08:19:18Z</time>
      </trkpt>
      <trkpt lat="44.37544" lon="6.68405">
        <ele>1286.4</ele>
        <time>2021-09-23T08:19:22Z</time>
      </trkpt>
      <trkpt lat="44.37539" lon="6.68406">
        <ele>1287.9</ele>
        <time>2021-09-23T08:19:26Z</time>
      </trkpt>
      <trkpt lat="44.37532" lon="6.68406">
        <ele>1289.7</ele>
        <time>2021-09-23T08:19:30Z</time>
      </trkpt>
      <trkpt lat="44.37527" lon="6.68405">
        <ele>1290.8</ele>
        <time>2021-09-23T08:19:34Z</time>
      </trkpt>
      <trkpt lat="44.37521" lon="6.68404">
        <ele>1292.2</ele>
        <time>2021-09-23T08:19:38Z</time>
      </trkpt>
      <trkpt lat="44.37515" lon="6.68404">
        <ele>1293.7</ele>
        <time>2021-09-23T08:19:42Z</time>
      </trkpt>
      <trkpt lat="44.37508" lon="6.68402">
        <ele>1295.1</ele>
        <time>2021-09-23T08:19:46Z</time>
      </trkpt>
      <trkpt lat="44.37503" lon="6.68402">
        <ele>1296.4</ele>
        <time>2021-09-23T08:19:50Z</time>
      </trkpt>
      <trkpt lat="44.37498" lon="6.68402">
        <ele>1297.4</ele>
        <time>2021-09-23T08:19:54Z</time>
      </trkpt>
      <trkpt lat="44.37492" lon="6.68403">
        <ele>1298.3</ele>
        <time>2021-09-23T08:19:58Z</time>
      </trkpt>
      <trkpt lat="44.37485" lon="6.68404">
        <ele>1299.3</ele>
        <time>2021-09-23T08:20:02Z</time>
      </trkpt>
      <trkpt lat="44.37478" lon="6.68407">
        <ele>1300.7</ele>
        <time>2021-09-23T08:20:06Z</time>
      </trkpt>
      <trkpt lat="44.37472" lon="6.6841">
        <ele>1301.7</ele>
        <time>2021-09-23T08:20:10Z</time>
      </trkpt>
      <trkpt lat="44.37465" lon="6.68409">
        <ele>1302.2</ele>
        <time>2021-09-23T08:20:14Z</time>
      </trkpt>
      <trkpt lat="44.37459" lon="6.68408">
        <ele>1302.7</ele>
        <time>2021-09-23T08:20:18Z</time>
      </trkpt>
      <trkpt lat="44.37453" lon="6.6841">
        <ele>1303.4</ele>
        <time>2021-09-23T08:20:22Z</time>
      </trkpt>
      <trkpt lat="44.37446" lon="6.68409">
        <ele>1303.9</ele>
        <time>2021-09-23T08:20:26Z</time>
      </trkpt>
      <trkpt lat="44.37441" lon="6.68412">
        <ele>1304.5</ele>
        <time>2021-09-23T08:20:30Z</time>
      </trkpt>
      <trkpt lat="44.37437" lon="6.68414">
        <ele>1304.8</ele>
        <time>2021-09-23T08:20:34Z</time>
      </trkpt>
      <trkpt lat="44.37432" lon="6.68415">
        <ele>1305.1</ele>
        <time>2021-09-23T08:20:38Z</time>
      </trkpt>
      <trkpt lat="44.37426" lon="6.68416">
        <ele>1305.5</ele>
        <time>2021-09-23T08:20:42Z</time>
      </trkpt>
      <trkpt lat="44.3742" lon="6.68418">
        <ele>1306.2</ele>
        <time>2021-09-23T08:20:46Z</time>
      </trkpt>
      <trkpt lat="44.37415" lon="6.68421">
        <ele>1307.9</ele>
        <time>2021-09-23T08:20:50Z</time>
      </trkpt>
      <trkpt lat="44.37411" lon="6.68428">
        <ele>1311</ele>
        <time>2021-09-23T08:20:54Z</time>
      </trkpt>
      <trkpt lat="44.37406" lon="6.6843">
        <ele>1312.8</ele>
        <time>2021-09-23T08:20:58Z</time>
      </trkpt>
      <trkpt lat="44.37402" lon="6.68434">
        <ele>1314.7</ele>
        <time>2021-09-23T08:21:02Z</time>
      </trkpt>
      <trkpt lat="44.37397" lon="6.68437">
        <ele>1316.5</ele>
        <time>2021-09-23T08:21:06Z</time>
      </trkpt>
      <trkpt lat="44.37392" lon="6.68439">
        <ele>1318</ele>
        <time>2021-09-23T08:21:10Z</time>
      </trkpt>
      <trkpt lat="44.37387" lon="6.6844">
        <ele>1319.1</ele>
        <time>2021-09-23T08:21:14Z</time>
      </trkpt>
      <trkpt lat="44.37383" lon="6.68444">
        <ele>1320.6</ele>
        <time>2021-09-23T08:21:18Z</time>
      </trkpt>
      <trkpt lat="44.37379" lon="6.68447">
        <ele>1321.7</ele>
        <time>2021-09-23T08:21:22Z</time>
      </trkpt>
      <trkpt lat="44.37375" lon="6.68451">
        <ele>1322.9</ele>
        <time>2021-09-23T08:21:26Z</time>
      </trkpt>
      <trkpt lat="44.37372" lon="6.68457">
        <ele>1324.1</ele>
        <time>2021-09-23T08:21:30Z</time>
      </trkpt>
      <trkpt lat="44.3737" lon="6.68464">
        <ele>1325.2</ele>
        <time>2021-09-23T08:21:34Z</time>
      </trkpt>
      <trkpt lat="44.37367" lon="6.6847">
        <ele>1326.1</ele>
        <time>2021-09-23T08:21:38Z</time>
      </trkpt>
      <trkpt lat="44.37367" lon="6.68475">
        <ele>1326.7</ele>
        <time>2021-09-23T08:21:42Z</time>
      </trkpt>
      <trkpt lat="44.37371" lon="6.68476">
        <ele>1326.7</ele>
        <time>2021-09-23T08:21:46Z</time>
      </trkpt>
      <trkpt lat="44.37375" lon="6.68473">
        <ele>1326.1</ele>
        <time>2021-09-23T08:21:50Z</time>
      </trkpt>
      <trkpt lat="44.3738" lon="6.68471">
        <ele>1325.6</ele>
        <time>2021-09-23T08:21:54Z</time>
      </trkpt>
      <trkpt lat="44.37384" lon="6.68468">
        <ele>1324.8</ele>
        <time>2021-09-23T08:21:58Z</time>
      </trkpt>
      <trkpt lat="44.37388" lon="6.68467">
        <ele>1324.3</ele>
        <time>2021-09-23T08:22:02Z</time>
      </trkpt>
      <trkpt lat="44.37393" lon="6.68468">
        <ele>1324.2</ele>
        <time>2021-09-23T08:22:06Z</time>
      </trkpt>
      <trkpt lat="44.37397" lon="6.68467">
        <ele>1323.7</ele>
        <time>2021-09-23T08:22:10Z</time>
      </trkpt>
      <trkpt lat="44.37402" lon="6.68466">
        <ele>1323.1</ele>
        <time>2021-09-23T08:22:14Z</time>
      </trkpt>
      <trkpt lat="44.37407" lon="6.68466">
        <ele>1322.7</ele>
        <time>2021-09-23T08:22:18Z</time>
      </trkpt>
      <trkpt lat="44.37413" lon="6.68466">
        <ele>1322.3</ele>
        <time>2021-09-23T08:22:22Z</time>
      </trkpt>
      <trkpt lat="44.37417" lon="6.68468">
        <ele>1322.6</ele>
        <time>2021-09-23T08:22:26Z</time>
      </trkpt>
      <trkpt lat="44.37422" lon="6.68469">
        <ele>1322.6</ele>
        <time>2021-09-23T08:22:30Z</time>
      </trkpt>
      <trkpt lat="44.37426" lon="6.68468">
        <ele>1321.9</ele>
        <time>2021-09-23T08:22:34Z</time>
      </trkpt>
      <trkpt lat="44.3743" lon="6.68469">
        <ele>1322</ele>
        <time>2021-09-23T08:22:38Z</time>
      </trkpt>
      <trkpt lat="44.37435" lon="6.68468">
        <ele>1321.3</ele>
        <time>2021-09-23T08:22:42Z</time>
      </trkpt>
      <trkpt lat="44.3744" lon="6.68469">
        <ele>1321.2</ele>
        <time>2021-09-23T08:22:46Z</time>
      </trkpt>
      <trkpt lat="44.37444" lon="6.68469">
        <ele>1320.9</ele>
        <time>2021-09-23T08:22:50Z</time>
      </trkpt>
      <trkpt lat="44.37449" lon="6.68468">
        <ele>1320.2</ele>
        <time>2021-09-23T08:22:54Z</time>
      </trkpt>
      <trkpt lat="44.37454" lon="6.68467">
        <ele>1319.5</ele>
        <time>2021-09-23T08:22:58Z</time>
      </trkpt>
      <trkpt lat="44.37459" lon="6.68467">
        <ele>1319.2</ele>
        <time>2021-09-23T08:23:02Z</time>
      </trkpt>
      <trkpt lat="44.37465" lon="6.68467">
        <ele>1318.7</ele>
        <time>2021-09-23T08:23:06Z</time>
      </trkpt>
      <trkpt lat="44.3747" lon="6.68465">
        <ele>1317.7</ele>
        <time>2021-09-23T08:23:10Z</time>
      </trkpt>
      <trkpt lat="44.37475" lon="6.68463">
        <ele>1316.7</ele>
        <time>2021-09-23T08:23:14Z</time>
      </trkpt>
      <trkpt lat="44.3748" lon="6.68463">
        <ele>1316.4</ele>
        <time>2021-09-23T08:23:18Z</time>
      </trkpt>
      <trkpt lat="44.37486" lon="6.68464">
        <ele>1316.2</ele>
        <time>2021-09-23T08:23:22Z</time>
      </trkpt>
      <trkpt lat="44.37492" lon="6.68465">
        <ele>1316.1</ele>
        <time>2021-09-23T08:23:26Z</time>
      </trkpt>
      <trkpt lat="44.37497" lon="6.68466">
        <ele>1316</ele>
        <time>2021-09-23T08:23:30Z</time>
      </trkpt>
      <trkpt lat="44.37503" lon="6.68469">
        <ele>1315.2</ele>
        <time>2021-09-23T08:23:34Z</time>
      </trkpt>
      <trkpt lat="44.37506" lon="6.68475">
        <ele>1315.4</ele>
        <time>2021-09-23T08:23:38Z</time>
      </trkpt>
      <trkpt lat="44.37505" lon="6.68482">
        <ele>1317.9</ele>
        <time>2021-09-23T08:23:42Z</time>
      </trkpt>
      <trkpt lat="44.37504" lon="6.68488">
        <ele>1320.1</ele>
        <time>2021-09-23T08:23:46Z</time>
      </trkpt>
      <trkpt lat="44.37502" lon="6.68494">
        <ele>1323</ele>
        <time>2021-09-23T08:23:50Z</time>
      </trkpt>
      <trkpt lat="44.37499" lon="6.68499">
        <ele>1325.8</ele>
        <time>2021-09-23T08:23:54Z</time>
      </trkpt>
      <trkpt lat="44.37497" lon="6.68504">
        <ele>1326</ele>
        <time>2021-09-23T08:23:58Z</time>
      </trkpt>
      <trkpt lat="44.37494" lon="6.68509">
        <ele>1326</ele>
        <time>2021-09-23T08:24:02Z</time>
      </trkpt>
      <trkpt lat="44.37492" lon="6.68516">
        <ele>1326</ele>
        <time>2021-09-23T08:24:06Z</time>
      </trkpt>
      <trkpt lat="44.37488" lon="6.68521">
        <ele>1326.4</ele>
        <time>2021-09-23T08:24:10Z</time>
      </trkpt>
      <trkpt lat="44.37485" lon="6.68526">
        <ele>1326.7</ele>
        <time>2021-09-23T08:24:14Z</time>
      </trkpt>
      <trkpt lat="44.37481" lon="6.68529">
        <ele>1327.4</ele>
        <time>2021-09-23T08:24:18Z</time>
      </trkpt>
      <trkpt lat="44.37477" lon="6.68535">
        <ele>1328.2</ele>
        <time>2021-09-23T08:24:22Z</time>
      </trkpt>
      <trkpt lat="44.37473" lon="6.68538">
        <ele>1329.1</ele>
        <time>2021-09-23T08:24:26Z</time>
      </trkpt>
      <trkpt lat="44.3747" lon="6.68544">
        <ele>1329.9</ele>
        <time>2021-09-23T08:24:30Z</time>
      </trkpt>
      <trkpt lat="44.37467" lon="6.68551">
        <ele>1330.9</ele>
        <time>2021-09-23T08:24:34Z</time>
      </trkpt>
      <trkpt lat="44.37465" lon="6.68556">
        <ele>1331.7</ele>
        <time>2021-09-23T08:24:38Z</time>
      </trkpt>
      <trkpt lat="44.37462" lon="6.68563">
        <ele>1332.9</ele>
        <time>2021-09-23T08:24:42Z</time>
      </trkpt>
      <trkpt lat="44.37458" lon="6.68569">
        <ele>1334.6</ele>
        <time>2021-09-23T08:24:46Z</time>
      </trkpt>
      <trkpt lat="44.37455" lon="6.68574">
        <ele>1336</ele>
        <time>2021-09-23T08:24:50Z</time>
      </trkpt>
      <trkpt lat="44.37452" lon="6.6858">
        <ele>1337.5</ele>
        <time>2021-09-23T08:24:54Z</time>
      </trkpt>
      <trkpt lat="44.37449" lon="6.68586">
        <ele>1338.5</ele>
        <time>2021-09-23T08:24:58Z</time>
      </trkpt>
      <trkpt lat="44.37446" lon="6.68592">
        <ele>1338.6</ele>
        <time>2021-09-23T08:25:02Z</time>
      </trkpt>
      <trkpt lat="44.37442" lon="6.68599">
        <ele>1339.1</ele>
        <time>2021-09-23T08:25:06Z</time>
      </trkpt>
      <trkpt lat="44.37439" lon="6.68605">
        <ele>1339.3</ele>
        <time>2021-09-23T08:25:10Z</time>
      </trkpt>
      <trkpt lat="44.37435" lon="6.68612">
        <ele>1339.9</ele>
        <time>2021-09-23T08:25:14Z</time>
      </trkpt>
      <trkpt lat="44.37432" lon="6.68618">
        <ele>1340.3</ele>
        <time>2021-09-23T08:25:18Z</time>
      </trkpt>
      <trkpt lat="44.37428" lon="6.68625">
        <ele>1341</ele>
        <time>2021-09-23T08:25:22Z</time>
      </trkpt>
      <trkpt lat="44.37422" lon="6.6863">
        <ele>1343</ele>
        <time>2021-09-23T08:25:26Z</time>
      </trkpt>
      <trkpt lat="44.37414" lon="6.68633">
        <ele>1345.1</ele>
        <time>2021-09-23T08:25:30Z</time>
      </trkpt>
      <trkpt lat="44.37407" lon="6.68636">
        <ele>1345</ele>
        <time>2021-09-23T08:25:34Z</time>
      </trkpt>
      <trkpt lat="44.37402" lon="6.6864">
        <ele>1344.9</ele>
        <time>2021-09-23T08:25:38Z</time>
      </trkpt>
      <trkpt lat="44.37397" lon="6.68645">
        <ele>1344.8</ele>
        <time>2021-09-23T08:25:42Z</time>
      </trkpt>
      <trkpt lat="44.37393" lon="6.68653">
        <ele>1344.7</ele>
        <time>2021-09-23T08:25:46Z</time>
      </trkpt>
      <trkpt lat="44.37388" lon="6.68659">
        <ele>1345</ele>
        <time>2021-09-23T08:25:50Z</time>
      </trkpt>
      <trkpt lat="44.37382" lon="6.68667">
        <ele>1345.5</ele>
        <time>2021-09-23T08:25:54Z</time>
      </trkpt>
      <trkpt lat="44.37374" lon="6.68673">
        <ele>1344.8</ele>
        <time>2021-09-23T08:25:58Z</time>
      </trkpt>
      <trkpt lat="44.37366" lon="6.68677">
        <ele>1344.9</ele>
        <time>2021-09-23T08:26:02Z</time>
      </trkpt>
      <trkpt lat="44.37359" lon="6.68678">
        <ele>1345.8</ele>
        <time>2021-09-23T08:26:06Z</time>
      </trkpt>
      <trkpt lat="44.37351" lon="6.6868">
        <ele>1346.6</ele>
        <time>2021-09-23T08:26:10Z</time>
      </trkpt>
      <trkpt lat="44.37344" lon="6.68681">
        <ele>1347.5</ele>
        <time>2021-09-23T08:26:14Z</time>
      </trkpt>
      <trkpt lat="44.37337" lon="6.68684">
        <ele>1348</ele>
        <time>2021-09-23T08:26:18Z</time>
      </trkpt>
      <trkpt lat="44.3733" lon="6.68686">
        <ele>1348.5</ele>
        <time>2021-09-23T08:26:22Z</time>
      </trkpt>
      <trkpt lat="44.37322" lon="6.68688">
        <ele>1348.7</ele>
        <time>2021-09-23T08:26:26Z</time>
      </trkpt>
      <trkpt lat="44.37315" lon="6.68689">
        <ele>1349.1</ele>
        <time>2021-09-23T08:26:30Z</time>
      </trkpt>
      <trkpt lat="44.37308" lon="6.68692">
        <ele>1349.3</ele>
        <time>2021-09-23T08:26:34Z</time>
      </trkpt>
      <trkpt lat="44.373" lon="6.68695">
        <ele>1349.7</ele>
        <time>2021-09-23T08:26:38Z</time>
      </trkpt>
      <trkpt lat="44.37294" lon="6.68697">
        <ele>1350.1</ele>
        <time>2021-09-23T08:26:42Z</time>
      </trkpt>
      <trkpt lat="44.37288" lon="6.68699">
        <ele>1350.6</ele>
        <time>2021-09-23T08:26:46Z</time>
      </trkpt>
      <trkpt lat="44.37281" lon="6.68703">
        <ele>1351.3</ele>
        <time>2021-09-23T08:26:50Z</time>
      </trkpt>
      <trkpt lat="44.37275" lon="6.68705">
        <ele>1352</ele>
        <time>2021-09-23T08:26:54Z</time>
      </trkpt>
      <trkpt lat="44.3727" lon="6.68707">
        <ele>1352.7</ele>
        <time>2021-09-23T08:26:58Z</time>
      </trkpt>
      <trkpt lat="44.37265" lon="6.6871">
        <ele>1353.5</ele>
        <time>2021-09-23T08:27:02Z</time>
      </trkpt>
      <trkpt lat="44.37262" lon="6.68714">
        <ele>1354.1</ele>
        <time>2021-09-23T08:27:06Z</time>
      </trkpt>
      <trkpt lat="44.37258" lon="6.68718">
        <ele>1355</ele>
        <time>2021-09-23T08:27:10Z</time>
      </trkpt>
      <trkpt lat="44.37254" lon="6.68724">
        <ele>1356.1</ele>
        <time>2021-09-23T08:27:14Z</time>
      </trkpt>
      <trkpt lat="44.3725" lon="6.68728">
        <ele>1357.2</ele>
        <time>2021-09-23T08:27:18Z</time>
      </trkpt>
      <trkpt lat="44.37245" lon="6.6873">
        <ele>1357.8</ele>
        <time>2021-09-23T08:27:22Z</time>
      </trkpt>
      <trkpt lat="44.37243" lon="6.68726">
        <ele>1357.7</ele>
        <time>2021-09-23T08:27:26Z</time>
      </trkpt>
      <trkpt lat="44.37244" lon="6.68721">
        <ele>1357.1</ele>
        <time>2021-09-23T08:27:30Z</time>
      </trkpt>
      <trkpt lat="44.37242" lon="6.68723">
        <ele>1357.5</ele>
        <time>2021-09-23T08:28:26Z</time>
      </trkpt>
      <trkpt lat="44.37241" lon="6.68725">
        <ele>1357.8</ele>
        <time>2021-09-23T08:28:34Z</time>
      </trkpt>
      <trkpt lat="44.37239" lon="6.68729">
        <ele>1358.3</ele>
        <time>2021-09-23T08:28:38Z</time>
      </trkpt>
      <trkpt lat="44.37235" lon="6.68727">
        <ele>1358.5</ele>
        <time>2021-09-23T08:28:42Z</time>
      </trkpt>
      <trkpt lat="44.37231" lon="6.68724">
        <ele>1358.6</ele>
        <time>2021-09-23T08:28:46Z</time>
      </trkpt>
      <trkpt lat="44.37226" lon="6.68722">
        <ele>1358.9</ele>
        <time>2021-09-23T08:28:50Z</time>
      </trkpt>
      <trkpt lat="44.37221" lon="6.6872">
        <ele>1359.1</ele>
        <time>2021-09-23T08:28:54Z</time>
      </trkpt>
      <trkpt lat="44.37215" lon="6.68718">
        <ele>1359.4</ele>
        <time>2021-09-23T08:28:58Z</time>
      </trkpt>
      <trkpt lat="44.37211" lon="6.68718">
        <ele>1359.7</ele>
        <time>2021-09-23T08:29:02Z</time>
      </trkpt>
      <trkpt lat="44.37205" lon="6.68719">
        <ele>1360.4</ele>
        <time>2021-09-23T08:29:06Z</time>
      </trkpt>
      <trkpt lat="44.37201" lon="6.6872">
        <ele>1360.9</ele>
        <time>2021-09-23T08:29:10Z</time>
      </trkpt>
      <trkpt lat="44.37196" lon="6.68722">
        <ele>1361.6</ele>
        <time>2021-09-23T08:29:14Z</time>
      </trkpt>
      <trkpt lat="44.3719" lon="6.68722">
        <ele>1362.2</ele>
        <time>2021-09-23T08:29:18Z</time>
      </trkpt>
      <trkpt lat="44.37185" lon="6.68724">
        <ele>1362.9</ele>
        <time>2021-09-23T08:29:22Z</time>
      </trkpt>
      <trkpt lat="44.3718" lon="6.68725">
        <ele>1363.5</ele>
        <time>2021-09-23T08:29:26Z</time>
      </trkpt>
      <trkpt lat="44.37175" lon="6.68726">
        <ele>1364.2</ele>
        <time>2021-09-23T08:29:30Z</time>
      </trkpt>
      <trkpt lat="44.3717" lon="6.68728">
        <ele>1365</ele>
        <time>2021-09-23T08:29:38Z</time>
      </trkpt>
      <trkpt lat="44.37166" lon="6.68733">
        <ele>1366.2</ele>
        <time>2021-09-23T08:29:42Z</time>
      </trkpt>
      <trkpt lat="44.37162" lon="6.68738">
        <ele>1367.6</ele>
        <time>2021-09-23T08:29:46Z</time>
      </trkpt>
      <trkpt lat="44.3716" lon="6.68744">
        <ele>1368.8</ele>
        <time>2021-09-23T08:29:50Z</time>
      </trkpt>
      <trkpt lat="44.37158" lon="6.68747">
        <ele>1369.4</ele>
        <time>2021-09-23T08:29:54Z</time>
      </trkpt>
      <trkpt lat="44.37154" lon="6.68754">
        <ele>1370.6</ele>
        <time>2021-09-23T08:29:58Z</time>
      </trkpt>
      <trkpt lat="44.37152" lon="6.68761">
        <ele>1371.5</ele>
        <time>2021-09-23T08:30:02Z</time>
      </trkpt>
      <trkpt lat="44.37149" lon="6.68767">
        <ele>1372.3</ele>
        <time>2021-09-23T08:30:06Z</time>
      </trkpt>
      <trkpt lat="44.37147" lon="6.68773">
        <ele>1373</ele>
        <time>2021-09-23T08:30:10Z</time>
      </trkpt>
      <trkpt lat="44.37145" lon="6.68779">
        <ele>1373.8</ele>
        <time>2021-09-23T08:30:14Z</time>
      </trkpt>
      <trkpt lat="44.37142" lon="6.68786">
        <ele>1374.6</ele>
        <time>2021-09-23T08:30:18Z</time>
      </trkpt>
      <trkpt lat="44.3714" lon="6.68793">
        <ele>1375.4</ele>
        <time>2021-09-23T08:30:22Z</time>
      </trkpt>
      <trkpt lat="44.37138" lon="6.68796">
        <ele>1375.8</ele>
        <time>2021-09-23T08:30:26Z</time>
      </trkpt>
      <trkpt lat="44.37135" lon="6.68801">
        <ele>1376.4</ele>
        <time>2021-09-23T08:30:30Z</time>
      </trkpt>
      <trkpt lat="44.37133" lon="6.68805">
        <ele>1376.8</ele>
        <time>2021-09-23T08:30:34Z</time>
      </trkpt>
      <trkpt lat="44.37132" lon="6.68811">
        <ele>1377.4</ele>
        <time>2021-09-23T08:30:38Z</time>
      </trkpt>
      <trkpt lat="44.37129" lon="6.68814">
        <ele>1377.8</ele>
        <time>2021-09-23T08:30:42Z</time>
      </trkpt>
      <trkpt lat="44.37128" lon="6.68815">
        <ele>1377.9</ele>
        <time>2021-09-23T08:30:46Z</time>
      </trkpt>
      <trkpt lat="44.37125" lon="6.6882">
        <ele>1378.5</ele>
        <time>2021-09-23T08:30:50Z</time>
      </trkpt>
      <trkpt lat="44.37121" lon="6.68823">
        <ele>1378.9</ele>
        <time>2021-09-23T08:30:54Z</time>
      </trkpt>
      <trkpt lat="44.37116" lon="6.68826">
        <ele>1379.3</ele>
        <time>2021-09-23T08:30:58Z</time>
      </trkpt>
      <trkpt lat="44.37112" lon="6.6883">
        <ele>1379.7</ele>
        <time>2021-09-23T08:31:02Z</time>
      </trkpt>
      <trkpt lat="44.37108" lon="6.68834">
        <ele>1380.2</ele>
        <time>2021-09-23T08:31:06Z</time>
      </trkpt>
      <trkpt lat="44.37104" lon="6.68836">
        <ele>1380.7</ele>
        <time>2021-09-23T08:31:10Z</time>
      </trkpt>
      <trkpt lat="44.37103" lon="6.68837">
        <ele>1380.9</ele>
        <time>2021-09-23T08:31:14Z</time>
      </trkpt>
      <trkpt lat="44.37105" lon="6.68835">
        <ele>1380.5</ele>
        <time>2021-09-23T08:31:18Z</time>
      </trkpt>
      <trkpt lat="44.3711" lon="6.68832">
        <ele>1380</ele>
        <time>2021-09-23T08:31:22Z</time>
      </trkpt>
      <trkpt lat="44.37117" lon="6.68828">
        <ele>1379.4</ele>
        <time>2021-09-23T08:31:26Z</time>
      </trkpt>
      <trkpt lat="44.37123" lon="6.68824">
        <ele>1378.9</ele>
        <time>2021-09-23T08:31:30Z</time>
      </trkpt>
      <trkpt lat="44.37128" lon="6.68817">
        <ele>1378.1</ele>
        <time>2021-09-23T08:31:34Z</time>
      </trkpt>
      <trkpt lat="44.37129" lon="6.68816">
        <ele>1378</ele>
        <time>2021-09-23T08:31:38Z</time>
      </trkpt>
      <trkpt lat="44.37132" lon="6.68814">
        <ele>1377.6</ele>
        <time>2021-09-23T08:31:42Z</time>
      </trkpt>
      <trkpt lat="44.37133" lon="6.68814">
        <ele>1377.6</ele>
        <time>2021-09-23T08:31:46Z</time>
      </trkpt>
      <trkpt lat="44.37134" lon="6.68813">
        <ele>1377.5</ele>
        <time>2021-09-23T08:31:54Z</time>
      </trkpt>
      <trkpt lat="44.37135" lon="6.68813">
        <ele>1377.4</ele>
        <time>2021-09-23T08:31:58Z</time>
      </trkpt>
      <trkpt lat="44.37138" lon="6.68812">
        <ele>1377.2</ele>
        <time>2021-09-23T08:32:02Z</time>
      </trkpt>
      <trkpt lat="44.37142" lon="6.68813">
        <ele>1377.1</ele>
        <time>2021-09-23T08:32:10Z</time>
      </trkpt>
      <trkpt lat="44.37145" lon="6.68815">
        <ele>1377.1</ele>
        <time>2021-09-23T08:32:14Z</time>
      </trkpt>
      <trkpt lat="44.37147" lon="6.68818">
        <ele>1377.3</ele>
        <time>2021-09-23T08:32:18Z</time>
      </trkpt>
      <trkpt lat="44.37149" lon="6.68823">
        <ele>1377.7</ele>
        <time>2021-09-23T08:32:22Z</time>
      </trkpt>
      <trkpt lat="44.3715" lon="6.68829">
        <ele>1378.2</ele>
        <time>2021-09-23T08:32:26Z</time>
      </trkpt>
      <trkpt lat="44.3715" lon="6.68834">
        <ele>1378.6</ele>
        <time>2021-09-23T08:32:34Z</time>
      </trkpt>
      <trkpt lat="44.37149" lon="6.68842">
        <ele>1378.7</ele>
        <time>2021-09-23T08:32:38Z</time>
      </trkpt>
      <trkpt lat="44.37145" lon="6.68847">
        <ele>1379.1</ele>
        <time>2021-09-23T08:32:42Z</time>
      </trkpt>
      <trkpt lat="44.37142" lon="6.68851">
        <ele>1379.4</ele>
        <time>2021-09-23T08:32:46Z</time>
      </trkpt>
      <trkpt lat="44.37138" lon="6.68856">
        <ele>1380</ele>
        <time>2021-09-23T08:32:50Z</time>
      </trkpt>
      <trkpt lat="44.37135" lon="6.6886">
        <ele>1380.5</ele>
        <time>2021-09-23T08:32:54Z</time>
      </trkpt>
      <trkpt lat="44.37133" lon="6.68865">
        <ele>1381.1</ele>
        <time>2021-09-23T08:32:58Z</time>
      </trkpt>
      <trkpt lat="44.3713" lon="6.68869">
        <ele>1381.8</ele>
        <time>2021-09-23T08:33:02Z</time>
      </trkpt>
      <trkpt lat="44.37128" lon="6.68872">
        <ele>1382.3</ele>
        <time>2021-09-23T08:33:06Z</time>
      </trkpt>
      <trkpt lat="44.37126" lon="6.68876">
        <ele>1382.9</ele>
        <time>2021-09-23T08:33:10Z</time>
      </trkpt>
      <trkpt lat="44.37122" lon="6.68878">
        <ele>1383.8</ele>
        <time>2021-09-23T08:33:14Z</time>
      </trkpt>
      <trkpt lat="44.37118" lon="6.6888">
        <ele>1384.7</ele>
        <time>2021-09-23T08:33:18Z</time>
      </trkpt>
      <trkpt lat="44.37115" lon="6.68882">
        <ele>1385.5</ele>
        <time>2021-09-23T08:33:22Z</time>
      </trkpt>
      <trkpt lat="44.37112" lon="6.68885">
        <ele>1386.4</ele>
        <time>2021-09-23T08:33:26Z</time>
      </trkpt>
      <trkpt lat="44.3711" lon="6.68887">
        <ele>1387.1</ele>
        <time>2021-09-23T08:33:30Z</time>
      </trkpt>
      <trkpt lat="44.37108" lon="6.68889">
        <ele>1387.8</ele>
        <time>2021-09-23T08:33:34Z</time>
      </trkpt>
      <trkpt lat="44.37106" lon="6.68893">
        <ele>1388.8</ele>
        <time>2021-09-23T08:33:38Z</time>
      </trkpt>
      <trkpt lat="44.37104" lon="6.68896">
        <ele>1389.7</ele>
        <time>2021-09-23T08:33:42Z</time>
      </trkpt>
      <trkpt lat="44.37102" lon="6.68898">
        <ele>1390.5</ele>
        <time>2021-09-23T08:33:46Z</time>
      </trkpt>
      <trkpt lat="44.371" lon="6.68901">
        <ele>1391.4</ele>
        <time>2021-09-23T08:33:50Z</time>
      </trkpt>
      <trkpt lat="44.37098" lon="6.68904">
        <ele>1392.5</ele>
        <time>2021-09-23T08:33:54Z</time>
      </trkpt>
      <trkpt lat="44.37096" lon="6.68906">
        <ele>1393.3</ele>
        <time>2021-09-23T08:33:58Z</time>
      </trkpt>
      <trkpt lat="44.37094" lon="6.68909">
        <ele>1394.4</ele>
        <time>2021-09-23T08:34:02Z</time>
      </trkpt>
      <trkpt lat="44.37092" lon="6.68912">
        <ele>1395.5</ele>
        <time>2021-09-23T08:34:06Z</time>
      </trkpt>
      <trkpt lat="44.3709" lon="6.68915">
        <ele>1396.7</ele>
        <time>2021-09-23T08:34:14Z</time>
      </trkpt>
      <trkpt lat="44.37087" lon="6.68917">
        <ele>1397.9</ele>
        <time>2021-09-23T08:34:18Z</time>
      </trkpt>
      <trkpt lat="44.37085" lon="6.6892">
        <ele>1399</ele>
        <time>2021-09-23T08:34:22Z</time>
      </trkpt>
      <trkpt lat="44.37083" lon="6.68921">
        <ele>1399.7</ele>
        <time>2021-09-23T08:34:26Z</time>
      </trkpt>
      <trkpt lat="44.37081" lon="6.68924">
        <ele>1400.1</ele>
        <time>2021-09-23T08:34:30Z</time>
      </trkpt>
      <trkpt lat="44.37078" lon="6.68927">
        <ele>1400.5</ele>
        <time>2021-09-23T08:34:34Z</time>
      </trkpt>
      <trkpt lat="44.37076" lon="6.6893">
        <ele>1400.9</ele>
        <time>2021-09-23T08:34:38Z</time>
      </trkpt>
      <trkpt lat="44.37075" lon="6.68932">
        <ele>1401.2</ele>
        <time>2021-09-23T08:34:42Z</time>
      </trkpt>
      <trkpt lat="44.37074" lon="6.68935">
        <ele>1401.7</ele>
        <time>2021-09-23T08:34:46Z</time>
      </trkpt>
      <trkpt lat="44.37072" lon="6.6894">
        <ele>1402.4</ele>
        <time>2021-09-23T08:34:58Z</time>
      </trkpt>
      <trkpt lat="44.37071" lon="6.68946">
        <ele>1403.4</ele>
        <time>2021-09-23T08:35:02Z</time>
      </trkpt>
      <trkpt lat="44.37069" lon="6.68951">
        <ele>1404.2</ele>
        <time>2021-09-23T08:35:06Z</time>
      </trkpt>
      <trkpt lat="44.37067" lon="6.68957">
        <ele>1405.1</ele>
        <time>2021-09-23T08:35:10Z</time>
      </trkpt>
      <trkpt lat="44.37066" lon="6.68962">
        <ele>1405.9</ele>
        <time>2021-09-23T08:35:14Z</time>
      </trkpt>
      <trkpt lat="44.37064" lon="6.68966">
        <ele>1406.5</ele>
        <time>2021-09-23T08:35:18Z</time>
      </trkpt>
      <trkpt lat="44.37062" lon="6.68972">
        <ele>1407.5</ele>
        <time>2021-09-23T08:35:22Z</time>
      </trkpt>
      <trkpt lat="44.37057" lon="6.68976">
        <ele>1408.1</ele>
        <time>2021-09-23T08:35:26Z</time>
      </trkpt>
      <trkpt lat="44.37052" lon="6.6898">
        <ele>1408.7</ele>
        <time>2021-09-23T08:35:30Z</time>
      </trkpt>
      <trkpt lat="44.37047" lon="6.68986">
        <ele>1409.7</ele>
        <time>2021-09-23T08:35:34Z</time>
      </trkpt>
      <trkpt lat="44.37043" lon="6.68991">
        <ele>1410.5</ele>
        <time>2021-09-23T08:35:38Z</time>
      </trkpt>
      <trkpt lat="44.37039" lon="6.68996">
        <ele>1411.3</ele>
        <time>2021-09-23T08:35:42Z</time>
      </trkpt>
      <trkpt lat="44.37034" lon="6.69">
        <ele>1412</ele>
        <time>2021-09-23T08:35:46Z</time>
      </trkpt>
      <trkpt lat="44.37029" lon="6.69004">
        <ele>1412.6</ele>
        <time>2021-09-23T08:35:50Z</time>
      </trkpt>
      <trkpt lat="44.37024" lon="6.69007">
        <ele>1413.2</ele>
        <time>2021-09-23T08:35:54Z</time>
      </trkpt>
      <trkpt lat="44.37019" lon="6.69012">
        <ele>1414.3</ele>
        <time>2021-09-23T08:35:58Z</time>
      </trkpt>
      <trkpt lat="44.37014" lon="6.69016">
        <ele>1415.4</ele>
        <time>2021-09-23T08:36:02Z</time>
      </trkpt>
      <trkpt lat="44.37008" lon="6.69021">
        <ele>1416.9</ele>
        <time>2021-09-23T08:36:06Z</time>
      </trkpt>
      <trkpt lat="44.37003" lon="6.69026">
        <ele>1418.6</ele>
        <time>2021-09-23T08:36:10Z</time>
      </trkpt>
      <trkpt lat="44.36997" lon="6.6903">
        <ele>1420.1</ele>
        <time>2021-09-23T08:36:14Z</time>
      </trkpt>
      <trkpt lat="44.36991" lon="6.69033">
        <ele>1421.2</ele>
        <time>2021-09-23T08:36:18Z</time>
      </trkpt>
      <trkpt lat="44.36985" lon="6.69036">
        <ele>1422.3</ele>
        <time>2021-09-23T08:36:22Z</time>
      </trkpt>
      <trkpt lat="44.36978" lon="6.69039">
        <ele>1423.4</ele>
        <time>2021-09-23T08:36:26Z</time>
      </trkpt>
      <trkpt lat="44.36972" lon="6.69043">
        <ele>1424.7</ele>
        <time>2021-09-23T08:36:30Z</time>
      </trkpt>
      <trkpt lat="44.36973" lon="6.69052">
        <ele>1426.9</ele>
        <time>2021-09-23T08:36:34Z</time>
      </trkpt>
      <trkpt lat="44.3698" lon="6.69053">
        <ele>1426.8</ele>
        <time>2021-09-23T08:36:38Z</time>
      </trkpt>
      <trkpt lat="44.36988" lon="6.69051">
        <ele>1426</ele>
        <time>2021-09-23T08:36:42Z</time>
      </trkpt>
      <trkpt lat="44.36996" lon="6.69049">
        <ele>1425.1</ele>
        <time>2021-09-23T08:36:46Z</time>
      </trkpt>
      <trkpt lat="44.37004" lon="6.69044">
        <ele>1423</ele>
        <time>2021-09-23T08:36:50Z</time>
      </trkpt>
      <trkpt lat="44.37012" lon="6.69041">
        <ele>1421.1</ele>
        <time>2021-09-23T08:36:54Z</time>
      </trkpt>
      <trkpt lat="44.37012" lon="6.69049">
        <ele>1422.8</ele>
        <time>2021-09-23T08:36:58Z</time>
      </trkpt>
      <trkpt lat="44.37006" lon="6.69053">
        <ele>1424.8</ele>
        <time>2021-09-23T08:37:02Z</time>
      </trkpt>
      <trkpt lat="44.37" lon="6.69056">
        <ele>1426.8</ele>
        <time>2021-09-23T08:37:06Z</time>
      </trkpt>
      <trkpt lat="44.36994" lon="6.69059">
        <ele>1427.8</ele>
        <time>2021-09-23T08:37:10Z</time>
      </trkpt>
      <trkpt lat="44.36988" lon="6.69063">
        <ele>1429.1</ele>
        <time>2021-09-23T08:37:14Z</time>
      </trkpt>
      <trkpt lat="44.36983" lon="6.69066">
        <ele>1430</ele>
        <time>2021-09-23T08:37:18Z</time>
      </trkpt>
      <trkpt lat="44.36978" lon="6.69071">
        <ele>1431.4</ele>
        <time>2021-09-23T08:37:22Z</time>
      </trkpt>
      <trkpt lat="44.36972" lon="6.69075">
        <ele>1432.6</ele>
        <time>2021-09-23T08:37:26Z</time>
      </trkpt>
      <trkpt lat="44.36966" lon="6.69079">
        <ele>1433.8</ele>
        <time>2021-09-23T08:37:30Z</time>
      </trkpt>
      <trkpt lat="44.36961" lon="6.69083">
        <ele>1434.9</ele>
        <time>2021-09-23T08:37:34Z</time>
      </trkpt>
      <trkpt lat="44.36955" lon="6.69088">
        <ele>1435.7</ele>
        <time>2021-09-23T08:37:38Z</time>
      </trkpt>
      <trkpt lat="44.36949" lon="6.69091">
        <ele>1436.3</ele>
        <time>2021-09-23T08:37:42Z</time>
      </trkpt>
      <trkpt lat="44.36944" lon="6.69094">
        <ele>1436.9</ele>
        <time>2021-09-23T08:37:46Z</time>
      </trkpt>
      <trkpt lat="44.36939" lon="6.69098">
        <ele>1437.7</ele>
        <time>2021-09-23T08:37:50Z</time>
      </trkpt>
      <trkpt lat="44.36933" lon="6.69102">
        <ele>1438.7</ele>
        <time>2021-09-23T08:37:54Z</time>
      </trkpt>
      <trkpt lat="44.36928" lon="6.69104">
        <ele>1439.3</ele>
        <time>2021-09-23T08:37:58Z</time>
      </trkpt>
      <trkpt lat="44.36923" lon="6.69103">
        <ele>1439.4</ele>
        <time>2021-09-23T08:38:02Z</time>
      </trkpt>
      <trkpt lat="44.36918" lon="6.69109">
        <ele>1440.8</ele>
        <time>2021-09-23T08:38:06Z</time>
      </trkpt>
      <trkpt lat="44.36919" lon="6.69119">
        <ele>1442.6</ele>
        <time>2021-09-23T08:38:10Z</time>
      </trkpt>
      <trkpt lat="44.36922" lon="6.69131">
        <ele>1444.6</ele>
        <time>2021-09-23T08:38:14Z</time>
      </trkpt>
      <trkpt lat="44.36926" lon="6.69141">
        <ele>1445.9</ele>
        <time>2021-09-23T08:38:18Z</time>
      </trkpt>
      <trkpt lat="44.36931" lon="6.69147">
        <ele>1446.3</ele>
        <time>2021-09-23T08:38:22Z</time>
      </trkpt>
      <trkpt lat="44.36934" lon="6.69152">
        <ele>1446.7</ele>
        <time>2021-09-23T08:38:26Z</time>
      </trkpt>
      <trkpt lat="44.36936" lon="6.69154">
        <ele>1446.7</ele>
        <time>2021-09-23T08:38:30Z</time>
      </trkpt>
      <trkpt lat="44.36933" lon="6.69156">
        <ele>1447.5</ele>
        <time>2021-09-23T08:39:14Z</time>
      </trkpt>
      <trkpt lat="44.3693" lon="6.69153">
        <ele>1447.5</ele>
        <time>2021-09-23T08:39:18Z</time>
      </trkpt>
      <trkpt lat="44.36928" lon="6.6915">
        <ele>1447.2</ele>
        <time>2021-09-23T08:39:22Z</time>
      </trkpt>
      <trkpt lat="44.36924" lon="6.69148">
        <ele>1447.4</ele>
        <time>2021-09-23T08:39:26Z</time>
      </trkpt>
      <trkpt lat="44.36921" lon="6.69159">
        <ele>1449.9</ele>
        <time>2021-09-23T08:39:30Z</time>
      </trkpt>
      <trkpt lat="44.36922" lon="6.69176">
        <ele>1451.7</ele>
        <time>2021-09-23T08:39:34Z</time>
      </trkpt>
      <trkpt lat="44.36923" lon="6.69194">
        <ele>1452.7</ele>
        <time>2021-09-23T08:39:38Z</time>
      </trkpt>
      <trkpt lat="44.36924" lon="6.69213">
        <ele>1453.7</ele>
        <time>2021-09-23T08:39:42Z</time>
      </trkpt>
      <trkpt lat="44.36925" lon="6.69232">
        <ele>1454.7</ele>
        <time>2021-09-23T08:39:46Z</time>
      </trkpt>
      <trkpt lat="44.36927" lon="6.6925">
        <ele>1455.3</ele>
        <time>2021-09-23T08:39:50Z</time>
      </trkpt>
      <trkpt lat="44.3693" lon="6.69268">
        <ele>1454.9</ele>
        <time>2021-09-23T08:39:54Z</time>
      </trkpt>
      <trkpt lat="44.36934" lon="6.69284">
        <ele>1454.2</ele>
        <time>2021-09-23T08:39:58Z</time>
      </trkpt>
      <trkpt lat="44.36939" lon="6.693">
        <ele>1453.3</ele>
        <time>2021-09-23T08:40:02Z</time>
      </trkpt>
      <trkpt lat="44.36945" lon="6.69316">
        <ele>1452.1</ele>
        <time>2021-09-23T08:40:06Z</time>
      </trkpt>
      <trkpt lat="44.36948" lon="6.69332">
        <ele>1451.7</ele>
        <time>2021-09-23T08:40:10Z</time>
      </trkpt>
      <trkpt lat="44.36945" lon="6.69348">
        <ele>1454</ele>
        <time>2021-09-23T08:40:14Z</time>
      </trkpt>
      <trkpt lat="44.36935" lon="6.69358">
        <ele>1458</ele>
        <time>2021-09-23T08:40:18Z</time>
      </trkpt>
      <trkpt lat="44.36924" lon="6.69359">
        <ele>1461.3</ele>
        <time>2021-09-23T08:40:22Z</time>
      </trkpt>
      <trkpt lat="44.36914" lon="6.69357">
        <ele>1463.4</ele>
        <time>2021-09-23T08:40:26Z</time>
      </trkpt>
      <trkpt lat="44.36904" lon="6.69352">
        <ele>1463.8</ele>
        <time>2021-09-23T08:40:30Z</time>
      </trkpt>
      <trkpt lat="44.36894" lon="6.69348">
        <ele>1464.3</ele>
        <time>2021-09-23T08:40:34Z</time>
      </trkpt>
      <trkpt lat="44.36884" lon="6.69343">
        <ele>1464.5</ele>
        <time>2021-09-23T08:40:38Z</time>
      </trkpt>
      <trkpt lat="44.36874" lon="6.69337">
        <ele>1464.6</ele>
        <time>2021-09-23T08:40:42Z</time>
      </trkpt>
      <trkpt lat="44.36864" lon="6.69332">
        <ele>1465</ele>
        <time>2021-09-23T08:40:46Z</time>
      </trkpt>
      <trkpt lat="44.36853" lon="6.69327">
        <ele>1465.7</ele>
        <time>2021-09-23T08:40:50Z</time>
      </trkpt>
      <trkpt lat="44.36843" lon="6.69325">
        <ele>1466.5</ele>
        <time>2021-09-23T08:40:54Z</time>
      </trkpt>
      <trkpt lat="44.36832" lon="6.69324">
        <ele>1467.6</ele>
        <time>2021-09-23T08:40:58Z</time>
      </trkpt>
      <trkpt lat="44.36821" lon="6.69325">
        <ele>1469.6</ele>
        <time>2021-09-23T08:41:02Z</time>
      </trkpt>
      <trkpt lat="44.36811" lon="6.69327">
        <ele>1471.5</ele>
        <time>2021-09-23T08:41:06Z</time>
      </trkpt>
      <trkpt lat="44.368" lon="6.69327">
        <ele>1473.5</ele>
        <time>2021-09-23T08:41:10Z</time>
      </trkpt>
      <trkpt lat="44.3679" lon="6.69327">
        <ele>1475.3</ele>
        <time>2021-09-23T08:41:14Z</time>
      </trkpt>
      <trkpt lat="44.3678" lon="6.69324">
        <ele>1476.8</ele>
        <time>2021-09-23T08:41:18Z</time>
      </trkpt>
      <trkpt lat="44.36771" lon="6.69317">
        <ele>1477.8</ele>
        <time>2021-09-23T08:41:22Z</time>
      </trkpt>
      <trkpt lat="44.36764" lon="6.69308">
        <ele>1478.2</ele>
        <time>2021-09-23T08:41:26Z</time>
      </trkpt>
      <trkpt lat="44.36759" lon="6.69297">
        <ele>1478</ele>
        <time>2021-09-23T08:41:30Z</time>
      </trkpt>
      <trkpt lat="44.36755" lon="6.69284">
        <ele>1477.4</ele>
        <time>2021-09-23T08:41:34Z</time>
      </trkpt>
      <trkpt lat="44.36751" lon="6.69271">
        <ele>1476.9</ele>
        <time>2021-09-23T08:41:38Z</time>
      </trkpt>
      <trkpt lat="44.36747" lon="6.6926">
        <ele>1476.3</ele>
        <time>2021-09-23T08:41:42Z</time>
      </trkpt>
      <trkpt lat="44.3674" lon="6.6925">
        <ele>1476.1</ele>
        <time>2021-09-23T08:41:46Z</time>
      </trkpt>
      <trkpt lat="44.36732" lon="6.69244">
        <ele>1475.5</ele>
        <time>2021-09-23T08:41:50Z</time>
      </trkpt>
      <trkpt lat="44.36722" lon="6.69244">
        <ele>1476.6</ele>
        <time>2021-09-23T08:41:54Z</time>
      </trkpt>
      <trkpt lat="44.36713" lon="6.6925">
        <ele>1479</ele>
        <time>2021-09-23T08:41:58Z</time>
      </trkpt>
      <trkpt lat="44.36707" lon="6.69259">
        <ele>1480.8</ele>
        <time>2021-09-23T08:42:02Z</time>
      </trkpt>
      <trkpt lat="44.36704" lon="6.69271">
        <ele>1482.7</ele>
        <time>2021-09-23T08:42:06Z</time>
      </trkpt>
      <trkpt lat="44.36703" lon="6.69284">
        <ele>1484.5</ele>
        <time>2021-09-23T08:42:10Z</time>
      </trkpt>
      <trkpt lat="44.36703" lon="6.69296">
        <ele>1486</ele>
        <time>2021-09-23T08:42:14Z</time>
      </trkpt>
      <trkpt lat="44.36703" lon="6.69307">
        <ele>1487.5</ele>
        <time>2021-09-23T08:42:18Z</time>
      </trkpt>
      <trkpt lat="44.36703" lon="6.69319">
        <ele>1489</ele>
        <time>2021-09-23T08:42:22Z</time>
      </trkpt>
      <trkpt lat="44.36703" lon="6.69331">
        <ele>1490.6</ele>
        <time>2021-09-23T08:42:26Z</time>
      </trkpt>
      <trkpt lat="44.36703" lon="6.69343">
        <ele>1491.9</ele>
        <time>2021-09-23T08:42:30Z</time>
      </trkpt>
      <trkpt lat="44.36703" lon="6.69354">
        <ele>1493.1</ele>
        <time>2021-09-23T08:42:34Z</time>
      </trkpt>
      <trkpt lat="44.36704" lon="6.69365">
        <ele>1494.1</ele>
        <time>2021-09-23T08:42:38Z</time>
      </trkpt>
      <trkpt lat="44.36704" lon="6.69377">
        <ele>1495.4</ele>
        <time>2021-09-23T08:42:42Z</time>
      </trkpt>
      <trkpt lat="44.36706" lon="6.69389">
        <ele>1496.4</ele>
        <time>2021-09-23T08:42:46Z</time>
      </trkpt>
      <trkpt lat="44.36709" lon="6.69399">
        <ele>1497</ele>
        <time>2021-09-23T08:42:50Z</time>
      </trkpt>
      <trkpt lat="44.36711" lon="6.6941">
        <ele>1497.9</ele>
        <time>2021-09-23T08:42:54Z</time>
      </trkpt>
      <trkpt lat="44.36713" lon="6.69421">
        <ele>1498.8</ele>
        <time>2021-09-23T08:42:58Z</time>
      </trkpt>
      <trkpt lat="44.36716" lon="6.69433">
        <ele>1499.8</ele>
        <time>2021-09-23T08:43:02Z</time>
      </trkpt>
      <trkpt lat="44.36717" lon="6.69445">
        <ele>1501.1</ele>
        <time>2021-09-23T08:43:06Z</time>
      </trkpt>
      <trkpt lat="44.36715" lon="6.69455">
        <ele>1502.5</ele>
        <time>2021-09-23T08:43:10Z</time>
      </trkpt>
      <trkpt lat="44.36708" lon="6.69463">
        <ele>1504.3</ele>
        <time>2021-09-23T08:43:14Z</time>
      </trkpt>
      <trkpt lat="44.36699" lon="6.69463">
        <ele>1505.4</ele>
        <time>2021-09-23T08:43:18Z</time>
      </trkpt>
      <trkpt lat="44.36691" lon="6.69456">
        <ele>1505.7</ele>
        <time>2021-09-23T08:43:22Z</time>
      </trkpt>
      <trkpt lat="44.36685" lon="6.69447">
        <ele>1505.5</ele>
        <time>2021-09-23T08:43:26Z</time>
      </trkpt>
      <trkpt lat="44.3668" lon="6.69437">
        <ele>1505.1</ele>
        <time>2021-09-23T08:43:30Z</time>
      </trkpt>
      <trkpt lat="44.36674" lon="6.69427">
        <ele>1505</ele>
        <time>2021-09-23T08:43:34Z</time>
      </trkpt>
      <trkpt lat="44.36669" lon="6.69418">
        <ele>1504.8</ele>
        <time>2021-09-23T08:43:38Z</time>
      </trkpt>
      <trkpt lat="44.36663" lon="6.6941">
        <ele>1504.9</ele>
        <time>2021-09-23T08:43:42Z</time>
      </trkpt>
      <trkpt lat="44.36654" lon="6.69405">
        <ele>1505.8</ele>
        <time>2021-09-23T08:43:46Z</time>
      </trkpt>
      <trkpt lat="44.36646" lon="6.69405">
        <ele>1507.1</ele>
        <time>2021-09-23T08:43:50Z</time>
      </trkpt>
      <trkpt lat="44.36638" lon="6.69412">
        <ele>1509</ele>
        <time>2021-09-23T08:43:54Z</time>
      </trkpt>
      <trkpt lat="44.36634" lon="6.69424">
        <ele>1511</ele>
        <time>2021-09-23T08:43:58Z</time>
      </trkpt>
      <trkpt lat="44.36635" lon="6.69437">
        <ele>1512.4</ele>
        <time>2021-09-23T08:44:02Z</time>
      </trkpt>
      <trkpt lat="44.36639" lon="6.69451">
        <ele>1513.3</ele>
        <time>2021-09-23T08:44:06Z</time>
      </trkpt>
      <trkpt lat="44.36643" lon="6.69464">
        <ele>1514</ele>
        <time>2021-09-23T08:44:10Z</time>
      </trkpt>
      <trkpt lat="44.36648" lon="6.69475">
        <ele>1514.3</ele>
        <time>2021-09-23T08:44:14Z</time>
      </trkpt>
      <trkpt lat="44.36652" lon="6.69488">
        <ele>1514.9</ele>
        <time>2021-09-23T08:44:18Z</time>
      </trkpt>
      <trkpt lat="44.36655" lon="6.69501">
        <ele>1515.6</ele>
        <time>2021-09-23T08:44:22Z</time>
      </trkpt>
      <trkpt lat="44.36658" lon="6.69514">
        <ele>1516.5</ele>
        <time>2021-09-23T08:44:26Z</time>
      </trkpt>
      <trkpt lat="44.36659" lon="6.69525">
        <ele>1517.6</ele>
        <time>2021-09-23T08:44:30Z</time>
      </trkpt>
      <trkpt lat="44.36662" lon="6.69538">
        <ele>1518.5</ele>
        <time>2021-09-23T08:44:34Z</time>
      </trkpt>
      <trkpt lat="44.36666" lon="6.6955">
        <ele>1519.1</ele>
        <time>2021-09-23T08:44:38Z</time>
      </trkpt>
      <trkpt lat="44.36672" lon="6.69561">
        <ele>1519.6</ele>
        <time>2021-09-23T08:44:42Z</time>
      </trkpt>
      <trkpt lat="44.36679" lon="6.69568">
        <ele>1519.5</ele>
        <time>2021-09-23T08:44:46Z</time>
      </trkpt>
      <trkpt lat="44.36684" lon="6.6958">
        <ele>1520.1</ele>
        <time>2021-09-23T08:44:50Z</time>
      </trkpt>
      <trkpt lat="44.36677" lon="6.69586">
        <ele>1521.8</ele>
        <time>2021-09-23T08:44:54Z</time>
      </trkpt>
      <trkpt lat="44.36668" lon="6.69579">
        <ele>1522.3</ele>
        <time>2021-09-23T08:44:58Z</time>
      </trkpt>
      <trkpt lat="44.36659" lon="6.69573">
        <ele>1523.3</ele>
        <time>2021-09-23T08:45:02Z</time>
      </trkpt>
      <trkpt lat="44.36653" lon="6.69567">
        <ele>1523.7</ele>
        <time>2021-09-23T08:45:06Z</time>
      </trkpt>
      <trkpt lat="44.36645" lon="6.69561">
        <ele>1524.6</ele>
        <time>2021-09-23T08:45:10Z</time>
      </trkpt>
      <trkpt lat="44.36638" lon="6.69552">
        <ele>1525</ele>
        <time>2021-09-23T08:45:14Z</time>
      </trkpt>
      <trkpt lat="44.36632" lon="6.69547">
        <ele>1525.7</ele>
        <time>2021-09-23T08:45:18Z</time>
      </trkpt>
      <trkpt lat="44.36625" lon="6.69541">
        <ele>1526.4</ele>
        <time>2021-09-23T08:45:22Z</time>
      </trkpt>
      <trkpt lat="44.36619" lon="6.69536">
        <ele>1527.1</ele>
        <time>2021-09-23T08:45:26Z</time>
      </trkpt>
      <trkpt lat="44.36612" lon="6.69532">
        <ele>1528.1</ele>
        <time>2021-09-23T08:45:30Z</time>
      </trkpt>
      <trkpt lat="44.36605" lon="6.69525">
        <ele>1528.9</ele>
        <time>2021-09-23T08:45:34Z</time>
      </trkpt>
      <trkpt lat="44.36597" lon="6.69519">
        <ele>1529.9</ele>
        <time>2021-09-23T08:45:38Z</time>
      </trkpt>
      <trkpt lat="44.3659" lon="6.69512">
        <ele>1530.7</ele>
        <time>2021-09-23T08:45:42Z</time>
      </trkpt>
      <trkpt lat="44.36584" lon="6.69504">
        <ele>1531.2</ele>
        <time>2021-09-23T08:45:46Z</time>
      </trkpt>
      <trkpt lat="44.36577" lon="6.69496">
        <ele>1531.5</ele>
        <time>2021-09-23T08:45:50Z</time>
      </trkpt>
      <trkpt lat="44.36571" lon="6.69486">
        <ele>1531</ele>
        <time>2021-09-23T08:45:54Z</time>
      </trkpt>
      <trkpt lat="44.36566" lon="6.69476">
        <ele>1530.5</ele>
        <time>2021-09-23T08:45:58Z</time>
      </trkpt>
      <trkpt lat="44.36561" lon="6.69466">
        <ele>1530</ele>
        <time>2021-09-23T08:46:02Z</time>
      </trkpt>
      <trkpt lat="44.36555" lon="6.69456">
        <ele>1529.8</ele>
        <time>2021-09-23T08:46:06Z</time>
      </trkpt>
      <trkpt lat="44.36549" lon="6.69448">
        <ele>1529.9</ele>
        <time>2021-09-23T08:46:10Z</time>
      </trkpt>
      <trkpt lat="44.36542" lon="6.69441">
        <ele>1530.5</ele>
        <time>2021-09-23T08:46:14Z</time>
      </trkpt>
      <trkpt lat="44.36533" lon="6.69437">
        <ele>1531.9</ele>
        <time>2021-09-23T08:46:18Z</time>
      </trkpt>
      <trkpt lat="44.36526" lon="6.69433">
        <ele>1532.9</ele>
        <time>2021-09-23T08:46:22Z</time>
      </trkpt>
      <trkpt lat="44.36518" lon="6.6943">
        <ele>1534.3</ele>
        <time>2021-09-23T08:46:26Z</time>
      </trkpt>
      <trkpt lat="44.36511" lon="6.69424">
        <ele>1535.3</ele>
        <time>2021-09-23T08:46:30Z</time>
      </trkpt>
      <trkpt lat="44.36504" lon="6.69418">
        <ele>1536.2</ele>
        <time>2021-09-23T08:46:34Z</time>
      </trkpt>
      <trkpt lat="44.36497" lon="6.6941">
        <ele>1536</ele>
        <time>2021-09-23T08:46:38Z</time>
      </trkpt>
      <trkpt lat="44.3649" lon="6.69402">
        <ele>1535.2</ele>
        <time>2021-09-23T08:46:42Z</time>
      </trkpt>
      <trkpt lat="44.36483" lon="6.69393">
        <ele>1534.2</ele>
        <time>2021-09-23T08:46:46Z</time>
      </trkpt>
      <trkpt lat="44.36476" lon="6.69385">
        <ele>1533.3</ele>
        <time>2021-09-23T08:46:50Z</time>
      </trkpt>
      <trkpt lat="44.36468" lon="6.69378">
        <ele>1532.7</ele>
        <time>2021-09-23T08:46:54Z</time>
      </trkpt>
      <trkpt lat="44.36459" lon="6.69374">
        <ele>1532.9</ele>
        <time>2021-09-23T08:46:58Z</time>
      </trkpt>
      <trkpt lat="44.3645" lon="6.69376">
        <ele>1534.5</ele>
        <time>2021-09-23T08:47:02Z</time>
      </trkpt>
      <trkpt lat="44.36442" lon="6.69381">
        <ele>1536.8</ele>
        <time>2021-09-23T08:47:06Z</time>
      </trkpt>
      <trkpt lat="44.36436" lon="6.6939">
        <ele>1539.7</ele>
        <time>2021-09-23T08:47:10Z</time>
      </trkpt>
      <trkpt lat="44.36431" lon="6.69399">
        <ele>1542.6</ele>
        <time>2021-09-23T08:47:14Z</time>
      </trkpt>
      <trkpt lat="44.36427" lon="6.69409">
        <ele>1545.6</ele>
        <time>2021-09-23T08:47:18Z</time>
      </trkpt>
      <trkpt lat="44.36423" lon="6.69419">
        <ele>1548.4</ele>
        <time>2021-09-23T08:47:22Z</time>
      </trkpt>
      <trkpt lat="44.36419" lon="6.6943">
        <ele>1550.3</ele>
        <time>2021-09-23T08:47:26Z</time>
      </trkpt>
      <trkpt lat="44.36415" lon="6.69439">
        <ele>1551.8</ele>
        <time>2021-09-23T08:47:30Z</time>
      </trkpt>
      <trkpt lat="44.36409" lon="6.69448">
        <ele>1553.2</ele>
        <time>2021-09-23T08:47:34Z</time>
      </trkpt>
      <trkpt lat="44.36403" lon="6.69457">
        <ele>1554.7</ele>
        <time>2021-09-23T08:47:38Z</time>
      </trkpt>
      <trkpt lat="44.36395" lon="6.69464">
        <ele>1555.9</ele>
        <time>2021-09-23T08:47:42Z</time>
      </trkpt>
      <trkpt lat="44.36388" lon="6.69471">
        <ele>1557.1</ele>
        <time>2021-09-23T08:47:46Z</time>
      </trkpt>
      <trkpt lat="44.36382" lon="6.69478">
        <ele>1558.2</ele>
        <time>2021-09-23T08:47:50Z</time>
      </trkpt>
      <trkpt lat="44.36375" lon="6.69485">
        <ele>1559.4</ele>
        <time>2021-09-23T08:47:54Z</time>
      </trkpt>
      <trkpt lat="44.36368" lon="6.69492">
        <ele>1560.5</ele>
        <time>2021-09-23T08:47:58Z</time>
      </trkpt>
      <trkpt lat="44.3636" lon="6.69499">
        <ele>1561.6</ele>
        <time>2021-09-23T08:48:02Z</time>
      </trkpt>
      <trkpt lat="44.36354" lon="6.69506">
        <ele>1562.7</ele>
        <time>2021-09-23T08:48:06Z</time>
      </trkpt>
      <trkpt lat="44.36346" lon="6.69513">
        <ele>1563.8</ele>
        <time>2021-09-23T08:48:10Z</time>
      </trkpt>
      <trkpt lat="44.36339" lon="6.69519">
        <ele>1564.8</ele>
        <time>2021-09-23T08:48:14Z</time>
      </trkpt>
      <trkpt lat="44.36331" lon="6.69525">
        <ele>1565.9</ele>
        <time>2021-09-23T08:48:18Z</time>
      </trkpt>
      <trkpt lat="44.36324" lon="6.69532">
        <ele>1567.3</ele>
        <time>2021-09-23T08:48:22Z</time>
      </trkpt>
      <trkpt lat="44.36317" lon="6.69537">
        <ele>1568.5</ele>
        <time>2021-09-23T08:48:26Z</time>
      </trkpt>
      <trkpt lat="44.36308" lon="6.69539">
        <ele>1569.5</ele>
        <time>2021-09-23T08:48:30Z</time>
      </trkpt>
      <trkpt lat="44.36299" lon="6.69538">
        <ele>1570.2</ele>
        <time>2021-09-23T08:48:34Z</time>
      </trkpt>
      <trkpt lat="44.3629" lon="6.69532">
        <ele>1570.4</ele>
        <time>2021-09-23T08:48:38Z</time>
      </trkpt>
      <trkpt lat="44.36284" lon="6.69523">
        <ele>1570.1</ele>
        <time>2021-09-23T08:48:42Z</time>
      </trkpt>
      <trkpt lat="44.36279" lon="6.69512">
        <ele>1569.4</ele>
        <time>2021-09-23T08:48:46Z</time>
      </trkpt>
      <trkpt lat="44.36276" lon="6.69501">
        <ele>1568.6</ele>
        <time>2021-09-23T08:48:50Z</time>
      </trkpt>
      <trkpt lat="44.36273" lon="6.69489">
        <ele>1567.7</ele>
        <time>2021-09-23T08:48:54Z</time>
      </trkpt>
      <trkpt lat="44.36272" lon="6.69477">
        <ele>1566.7</ele>
        <time>2021-09-23T08:48:58Z</time>
      </trkpt>
      <trkpt lat="44.36268" lon="6.69466">
        <ele>1566</ele>
        <time>2021-09-23T08:49:02Z</time>
      </trkpt>
      <trkpt lat="44.36263" lon="6.69456">
        <ele>1565.5</ele>
        <time>2021-09-23T08:49:06Z</time>
      </trkpt>
      <trkpt lat="44.36256" lon="6.69448">
        <ele>1565.4</ele>
        <time>2021-09-23T08:49:10Z</time>
      </trkpt>
      <trkpt lat="44.36246" lon="6.69445">
        <ele>1565.6</ele>
        <time>2021-09-23T08:49:14Z</time>
      </trkpt>
      <trkpt lat="44.36236" lon="6.69447">
        <ele>1565.5</ele>
        <time>2021-09-23T08:49:18Z</time>
      </trkpt>
      <trkpt lat="44.36227" lon="6.69453">
        <ele>1566</ele>
        <time>2021-09-23T08:49:22Z</time>
      </trkpt>
      <trkpt lat="44.36219" lon="6.6946">
        <ele>1566.7</ele>
        <time>2021-09-23T08:49:26Z</time>
      </trkpt>
      <trkpt lat="44.36211" lon="6.69467">
        <ele>1567.5</ele>
        <time>2021-09-23T08:49:30Z</time>
      </trkpt>
      <trkpt lat="44.36204" lon="6.69475">
        <ele>1568.5</ele>
        <time>2021-09-23T08:49:34Z</time>
      </trkpt>
      <trkpt lat="44.36197" lon="6.69484">
        <ele>1569.9</ele>
        <time>2021-09-23T08:49:38Z</time>
      </trkpt>
      <trkpt lat="44.36192" lon="6.69494">
        <ele>1571.5</ele>
        <time>2021-09-23T08:49:42Z</time>
      </trkpt>
      <trkpt lat="44.36187" lon="6.69505">
        <ele>1573.3</ele>
        <time>2021-09-23T08:49:46Z</time>
      </trkpt>
      <trkpt lat="44.36184" lon="6.69517">
        <ele>1575.3</ele>
        <time>2021-09-23T08:49:50Z</time>
      </trkpt>
      <trkpt lat="44.36183" lon="6.69529">
        <ele>1577.4</ele>
        <time>2021-09-23T08:49:54Z</time>
      </trkpt>
      <trkpt lat="44.36182" lon="6.69539">
        <ele>1579</ele>
        <time>2021-09-23T08:49:58Z</time>
      </trkpt>
      <trkpt lat="44.36181" lon="6.69551">
        <ele>1581.1</ele>
        <time>2021-09-23T08:50:02Z</time>
      </trkpt>
      <trkpt lat="44.36179" lon="6.69563">
        <ele>1583.3</ele>
        <time>2021-09-23T08:50:06Z</time>
      </trkpt>
      <trkpt lat="44.36176" lon="6.69576">
        <ele>1585.7</ele>
        <time>2021-09-23T08:50:10Z</time>
      </trkpt>
      <trkpt lat="44.36172" lon="6.69587">
        <ele>1587.8</ele>
        <time>2021-09-23T08:50:14Z</time>
      </trkpt>
      <trkpt lat="44.36167" lon="6.69596">
        <ele>1589.2</ele>
        <time>2021-09-23T08:50:18Z</time>
      </trkpt>
      <trkpt lat="44.3616" lon="6.69602">
        <ele>1590.3</ele>
        <time>2021-09-23T08:50:22Z</time>
      </trkpt>
      <trkpt lat="44.36151" lon="6.69606">
        <ele>1591.4</ele>
        <time>2021-09-23T08:50:26Z</time>
      </trkpt>
      <trkpt lat="44.36142" lon="6.69608">
        <ele>1592.4</ele>
        <time>2021-09-23T08:50:30Z</time>
      </trkpt>
      <trkpt lat="44.36133" lon="6.6961">
        <ele>1593.4</ele>
        <time>2021-09-23T08:50:34Z</time>
      </trkpt>
      <trkpt lat="44.36123" lon="6.69612">
        <ele>1594.5</ele>
        <time>2021-09-23T08:50:38Z</time>
      </trkpt>
      <trkpt lat="44.36114" lon="6.69613">
        <ele>1595.4</ele>
        <time>2021-09-23T08:50:42Z</time>
      </trkpt>
      <trkpt lat="44.36105" lon="6.6961">
        <ele>1595.7</ele>
        <time>2021-09-23T08:50:46Z</time>
      </trkpt>
      <trkpt lat="44.36099" lon="6.69605">
        <ele>1595.4</ele>
        <time>2021-09-23T08:50:50Z</time>
      </trkpt>
      <trkpt lat="44.36093" lon="6.69597">
        <ele>1594.6</ele>
        <time>2021-09-23T08:50:54Z</time>
      </trkpt>
      <trkpt lat="44.36087" lon="6.69587">
        <ele>1593.4</ele>
        <time>2021-09-23T08:50:58Z</time>
      </trkpt>
      <trkpt lat="44.36082" lon="6.69578">
        <ele>1592.1</ele>
        <time>2021-09-23T08:51:02Z</time>
      </trkpt>
      <trkpt lat="44.36076" lon="6.69568">
        <ele>1591</ele>
        <time>2021-09-23T08:51:06Z</time>
      </trkpt>
      <trkpt lat="44.3607" lon="6.6956">
        <ele>1590.4</ele>
        <time>2021-09-23T08:51:10Z</time>
      </trkpt>
      <trkpt lat="44.36062" lon="6.69554">
        <ele>1590.5</ele>
        <time>2021-09-23T08:51:14Z</time>
      </trkpt>
      <trkpt lat="44.36054" lon="6.69551">
        <ele>1591.3</ele>
        <time>2021-09-23T08:51:18Z</time>
      </trkpt>
      <trkpt lat="44.36046" lon="6.6955">
        <ele>1592.4</ele>
        <time>2021-09-23T08:51:22Z</time>
      </trkpt>
      <trkpt lat="44.36037" lon="6.69552">
        <ele>1594.3</ele>
        <time>2021-09-23T08:51:26Z</time>
      </trkpt>
      <trkpt lat="44.36028" lon="6.69556">
        <ele>1596.5</ele>
        <time>2021-09-23T08:51:30Z</time>
      </trkpt>
      <trkpt lat="44.36021" lon="6.69563">
        <ele>1598.9</ele>
        <time>2021-09-23T08:51:34Z</time>
      </trkpt>
      <trkpt lat="44.36014" lon="6.69573">
        <ele>1601.9</ele>
        <time>2021-09-23T08:51:38Z</time>
      </trkpt>
      <trkpt lat="44.3601" lon="6.69585">
        <ele>1604.8</ele>
        <time>2021-09-23T08:51:42Z</time>
      </trkpt>
      <trkpt lat="44.36008" lon="6.69599">
        <ele>1607.9</ele>
        <time>2021-09-23T08:51:46Z</time>
      </trkpt>
      <trkpt lat="44.3601" lon="6.69614">
        <ele>1610.6</ele>
        <time>2021-09-23T08:51:50Z</time>
      </trkpt>
      <trkpt lat="44.36015" lon="6.69627">
        <ele>1612.3</ele>
        <time>2021-09-23T08:51:54Z</time>
      </trkpt>
      <trkpt lat="44.3602" lon="6.69639">
        <ele>1613.8</ele>
        <time>2021-09-23T08:51:58Z</time>
      </trkpt>
      <trkpt lat="44.36026" lon="6.6965">
        <ele>1614.8</ele>
        <time>2021-09-23T08:52:02Z</time>
      </trkpt>
      <trkpt lat="44.36031" lon="6.69664">
        <ele>1616.5</ele>
        <time>2021-09-23T08:52:06Z</time>
      </trkpt>
      <trkpt lat="44.36033" lon="6.69677">
        <ele>1617.6</ele>
        <time>2021-09-23T08:52:10Z</time>
      </trkpt>
      <trkpt lat="44.36034" lon="6.69691">
        <ele>1618.6</ele>
        <time>2021-09-23T08:52:14Z</time>
      </trkpt>
      <trkpt lat="44.36037" lon="6.69706">
        <ele>1619.4</ele>
        <time>2021-09-23T08:52:18Z</time>
      </trkpt>
      <trkpt lat="44.36041" lon="6.69718">
        <ele>1619.7</ele>
        <time>2021-09-23T08:52:22Z</time>
      </trkpt>
      <trkpt lat="44.36048" lon="6.69726">
        <ele>1619.3</ele>
        <time>2021-09-23T08:52:26Z</time>
      </trkpt>
      <trkpt lat="44.36057" lon="6.6973">
        <ele>1618.2</ele>
        <time>2021-09-23T08:52:30Z</time>
      </trkpt>
      <trkpt lat="44.36066" lon="6.69734">
        <ele>1617.1</ele>
        <time>2021-09-23T08:52:34Z</time>
      </trkpt>
      <trkpt lat="44.36075" lon="6.69737">
        <ele>1615.9</ele>
        <time>2021-09-23T08:52:38Z</time>
      </trkpt>
      <trkpt lat="44.36083" lon="6.69741">
        <ele>1615.1</ele>
        <time>2021-09-23T08:52:42Z</time>
      </trkpt>
      <trkpt lat="44.36091" lon="6.69746">
        <ele>1615.1</ele>
        <time>2021-09-23T08:52:46Z</time>
      </trkpt>
      <trkpt lat="44.36098" lon="6.69753">
        <ele>1615.6</ele>
        <time>2021-09-23T08:52:50Z</time>
      </trkpt>
      <trkpt lat="44.36104" lon="6.69762">
        <ele>1616.7</ele>
        <time>2021-09-23T08:52:54Z</time>
      </trkpt>
      <trkpt lat="44.36109" lon="6.69774">
        <ele>1618.5</ele>
        <time>2021-09-23T08:52:58Z</time>
      </trkpt>
      <trkpt lat="44.36111" lon="6.69787">
        <ele>1620.6</ele>
        <time>2021-09-23T08:53:02Z</time>
      </trkpt>
      <trkpt lat="44.3611" lon="6.698">
        <ele>1622.8</ele>
        <time>2021-09-23T08:53:06Z</time>
      </trkpt>
      <trkpt lat="44.36105" lon="6.6981">
        <ele>1624.6</ele>
        <time>2021-09-23T08:53:10Z</time>
      </trkpt>
      <trkpt lat="44.36096" lon="6.69815">
        <ele>1625.7</ele>
        <time>2021-09-23T08:53:14Z</time>
      </trkpt>
      <trkpt lat="44.36087" lon="6.6982">
        <ele>1626.8</ele>
        <time>2021-09-23T08:53:18Z</time>
      </trkpt>
      <trkpt lat="44.36078" lon="6.69823">
        <ele>1627.8</ele>
        <time>2021-09-23T08:53:22Z</time>
      </trkpt>
      <trkpt lat="44.36069" lon="6.69827">
        <ele>1629.1</ele>
        <time>2021-09-23T08:53:26Z</time>
      </trkpt>
      <trkpt lat="44.36061" lon="6.69831">
        <ele>1630.3</ele>
        <time>2021-09-23T08:53:30Z</time>
      </trkpt>
      <trkpt lat="44.36053" lon="6.69837">
        <ele>1631.6</ele>
        <time>2021-09-23T08:53:34Z</time>
      </trkpt>
      <trkpt lat="44.36046" lon="6.69844">
        <ele>1632.9</ele>
        <time>2021-09-23T08:53:38Z</time>
      </trkpt>
      <trkpt lat="44.36038" lon="6.69851">
        <ele>1634.1</ele>
        <time>2021-09-23T08:53:42Z</time>
      </trkpt>
      <trkpt lat="44.36029" lon="6.69856">
        <ele>1635.2</ele>
        <time>2021-09-23T08:53:46Z</time>
      </trkpt>
      <trkpt lat="44.36021" lon="6.69863">
        <ele>1636.3</ele>
        <time>2021-09-23T08:53:50Z</time>
      </trkpt>
      <trkpt lat="44.36013" lon="6.69869">
        <ele>1637.3</ele>
        <time>2021-09-23T08:53:54Z</time>
      </trkpt>
      <trkpt lat="44.36005" lon="6.69876">
        <ele>1638.3</ele>
        <time>2021-09-23T08:53:58Z</time>
      </trkpt>
      <trkpt lat="44.35997" lon="6.69881">
        <ele>1639.2</ele>
        <time>2021-09-23T08:54:02Z</time>
      </trkpt>
      <trkpt lat="44.35988" lon="6.69886">
        <ele>1640.2</ele>
        <time>2021-09-23T08:54:06Z</time>
      </trkpt>
      <trkpt lat="44.3598" lon="6.69893">
        <ele>1641.3</ele>
        <time>2021-09-23T08:54:10Z</time>
      </trkpt>
      <trkpt lat="44.35971" lon="6.69901">
        <ele>1642.6</ele>
        <time>2021-09-23T08:54:14Z</time>
      </trkpt>
      <trkpt lat="44.35962" lon="6.69909">
        <ele>1643.7</ele>
        <time>2021-09-23T08:54:18Z</time>
      </trkpt>
      <trkpt lat="44.35953" lon="6.69917">
        <ele>1644.9</ele>
        <time>2021-09-23T08:54:22Z</time>
      </trkpt>
      <trkpt lat="44.35943" lon="6.69924">
        <ele>1647.1</ele>
        <time>2021-09-23T08:54:26Z</time>
      </trkpt>
      <trkpt lat="44.35933" lon="6.6993">
        <ele>1649.1</ele>
        <time>2021-09-23T08:54:30Z</time>
      </trkpt>
      <trkpt lat="44.35922" lon="6.69937">
        <ele>1651.5</ele>
        <time>2021-09-23T08:54:34Z</time>
      </trkpt>
      <trkpt lat="44.35912" lon="6.69943">
        <ele>1653.7</ele>
        <time>2021-09-23T08:54:38Z</time>
      </trkpt>
      <trkpt lat="44.35902" lon="6.69947">
        <ele>1655.5</ele>
        <time>2021-09-23T08:54:42Z</time>
      </trkpt>
      <trkpt lat="44.35892" lon="6.69953">
        <ele>1657.5</ele>
        <time>2021-09-23T08:54:46Z</time>
      </trkpt>
      <trkpt lat="44.35882" lon="6.69956">
        <ele>1658.8</ele>
        <time>2021-09-23T08:54:50Z</time>
      </trkpt>
      <trkpt lat="44.35872" lon="6.69959">
        <ele>1660.1</ele>
        <time>2021-09-23T08:54:54Z</time>
      </trkpt>
      <trkpt lat="44.35863" lon="6.6996">
        <ele>1660.8</ele>
        <time>2021-09-23T08:54:58Z</time>
      </trkpt>
      <trkpt lat="44.35853" lon="6.69954">
        <ele>1660.5</ele>
        <time>2021-09-23T08:55:02Z</time>
      </trkpt>
      <trkpt lat="44.35846" lon="6.6994">
        <ele>1658.9</ele>
        <time>2021-09-23T08:55:06Z</time>
      </trkpt>
      <trkpt lat="44.35844" lon="6.69926">
        <ele>1657.1</ele>
        <time>2021-09-23T08:55:10Z</time>
      </trkpt>
      <trkpt lat="44.35844" lon="6.6991">
        <ele>1655.7</ele>
        <time>2021-09-23T08:55:14Z</time>
      </trkpt>
      <trkpt lat="44.35845" lon="6.69896">
        <ele>1655.4</ele>
        <time>2021-09-23T08:55:18Z</time>
      </trkpt>
      <trkpt lat="44.35848" lon="6.69882">
        <ele>1654.9</ele>
        <time>2021-09-23T08:55:22Z</time>
      </trkpt>
      <trkpt lat="44.35848" lon="6.69867">
        <ele>1654.7</ele>
        <time>2021-09-23T08:55:26Z</time>
      </trkpt>
      <trkpt lat="44.35844" lon="6.69853">
        <ele>1655.2</ele>
        <time>2021-09-23T08:55:30Z</time>
      </trkpt>
      <trkpt lat="44.35838" lon="6.69844">
        <ele>1656.2</ele>
        <time>2021-09-23T08:55:34Z</time>
      </trkpt>
      <trkpt lat="44.35829" lon="6.69839">
        <ele>1657.4</ele>
        <time>2021-09-23T08:55:38Z</time>
      </trkpt>
      <trkpt lat="44.35819" lon="6.69842">
        <ele>1658.4</ele>
        <time>2021-09-23T08:55:42Z</time>
      </trkpt>
      <trkpt lat="44.35811" lon="6.69848">
        <ele>1659.3</ele>
        <time>2021-09-23T08:55:46Z</time>
      </trkpt>
      <trkpt lat="44.35805" lon="6.69858">
        <ele>1660.3</ele>
        <time>2021-09-23T08:55:50Z</time>
      </trkpt>
      <trkpt lat="44.35801" lon="6.69871">
        <ele>1661.3</ele>
        <time>2021-09-23T08:55:54Z</time>
      </trkpt>
      <trkpt lat="44.35798" lon="6.69886">
        <ele>1662.4</ele>
        <time>2021-09-23T08:55:58Z</time>
      </trkpt>
      <trkpt lat="44.35796" lon="6.699">
        <ele>1663.4</ele>
        <time>2021-09-23T08:56:02Z</time>
      </trkpt>
      <trkpt lat="44.35793" lon="6.69914">
        <ele>1664.6</ele>
        <time>2021-09-23T08:56:06Z</time>
      </trkpt>
      <trkpt lat="44.35791" lon="6.6993">
        <ele>1666.6</ele>
        <time>2021-09-23T08:56:10Z</time>
      </trkpt>
      <trkpt lat="44.35789" lon="6.69947">
        <ele>1668.7</ele>
        <time>2021-09-23T08:56:14Z</time>
      </trkpt>
      <trkpt lat="44.35787" lon="6.69962">
        <ele>1670.7</ele>
        <time>2021-09-23T08:56:18Z</time>
      </trkpt>
      <trkpt lat="44.35784" lon="6.69976">
        <ele>1672.6</ele>
        <time>2021-09-23T08:56:22Z</time>
      </trkpt>
      <trkpt lat="44.35778" lon="6.69988">
        <ele>1674.8</ele>
        <time>2021-09-23T08:56:26Z</time>
      </trkpt>
      <trkpt lat="44.35768" lon="6.69992">
        <ele>1676.7</ele>
        <time>2021-09-23T08:56:30Z</time>
      </trkpt>
      <trkpt lat="44.35758" lon="6.69988">
        <ele>1677.8</ele>
        <time>2021-09-23T08:56:34Z</time>
      </trkpt>
      <trkpt lat="44.35752" lon="6.69982">
        <ele>1678.2</ele>
        <time>2021-09-23T08:56:38Z</time>
      </trkpt>
      <trkpt lat="44.35746" lon="6.69972">
        <ele>1678.1</ele>
        <time>2021-09-23T08:56:42Z</time>
      </trkpt>
      <trkpt lat="44.3574" lon="6.69962">
        <ele>1678.1</ele>
        <time>2021-09-23T08:56:46Z</time>
      </trkpt>
      <trkpt lat="44.35734" lon="6.69951">
        <ele>1677.9</ele>
        <time>2021-09-23T08:56:50Z</time>
      </trkpt>
      <trkpt lat="44.35729" lon="6.6994">
        <ele>1677.7</ele>
        <time>2021-09-23T08:56:54Z</time>
      </trkpt>
      <trkpt lat="44.35723" lon="6.6993">
        <ele>1677.6</ele>
        <time>2021-09-23T08:56:58Z</time>
      </trkpt>
      <trkpt lat="44.35717" lon="6.69919">
        <ele>1677.5</ele>
        <time>2021-09-23T08:57:02Z</time>
      </trkpt>
      <trkpt lat="44.3571" lon="6.69908">
        <ele>1677.3</ele>
        <time>2021-09-23T08:57:06Z</time>
      </trkpt>
      <trkpt lat="44.35704" lon="6.69899">
        <ele>1677</ele>
        <time>2021-09-23T08:57:10Z</time>
      </trkpt>
      <trkpt lat="44.35695" lon="6.6989">
        <ele>1677.2</ele>
        <time>2021-09-23T08:57:14Z</time>
      </trkpt>
      <trkpt lat="44.35686" lon="6.69883">
        <ele>1677.5</ele>
        <time>2021-09-23T08:57:18Z</time>
      </trkpt>
      <trkpt lat="44.35676" lon="6.69878">
        <ele>1678.2</ele>
        <time>2021-09-23T08:57:22Z</time>
      </trkpt>
      <trkpt lat="44.35666" lon="6.69875">
        <ele>1679</ele>
        <time>2021-09-23T08:57:26Z</time>
      </trkpt>
      <trkpt lat="44.35655" lon="6.69873">
        <ele>1678.3</ele>
        <time>2021-09-23T08:57:30Z</time>
      </trkpt>
      <trkpt lat="44.35645" lon="6.69872">
        <ele>1677.8</ele>
        <time>2021-09-23T08:57:34Z</time>
      </trkpt>
      <trkpt lat="44.35632" lon="6.69874">
        <ele>1677.4</ele>
        <time>2021-09-23T08:57:38Z</time>
      </trkpt>
      <trkpt lat="44.3562" lon="6.69881">
        <ele>1677.6</ele>
        <time>2021-09-23T08:57:42Z</time>
      </trkpt>
      <trkpt lat="44.35609" lon="6.69893">
        <ele>1678</ele>
        <time>2021-09-23T08:57:46Z</time>
      </trkpt>
      <trkpt lat="44.35599" lon="6.6991">
        <ele>1678.7</ele>
        <time>2021-09-23T08:57:50Z</time>
      </trkpt>
      <trkpt lat="44.35588" lon="6.69932">
        <ele>1679.3</ele>
        <time>2021-09-23T08:57:54Z</time>
      </trkpt>
      <trkpt lat="44.35577" lon="6.69954">
        <ele>1680.6</ele>
        <time>2021-09-23T08:57:58Z</time>
      </trkpt>
      <trkpt lat="44.35564" lon="6.69972">
        <ele>1682.5</ele>
        <time>2021-09-23T08:58:02Z</time>
      </trkpt>
      <trkpt lat="44.3555" lon="6.69983">
        <ele>1684</ele>
        <time>2021-09-23T08:58:06Z</time>
      </trkpt>
      <trkpt lat="44.35536" lon="6.69987">
        <ele>1685.1</ele>
        <time>2021-09-23T08:58:10Z</time>
      </trkpt>
      <trkpt lat="44.35525" lon="6.69985">
        <ele>1685.6</ele>
        <time>2021-09-23T08:58:14Z</time>
      </trkpt>
      <trkpt lat="44.35515" lon="6.69976">
        <ele>1685.7</ele>
        <time>2021-09-23T08:58:18Z</time>
      </trkpt>
      <trkpt lat="44.35507" lon="6.69964">
        <ele>1685.4</ele>
        <time>2021-09-23T08:58:22Z</time>
      </trkpt>
      <trkpt lat="44.35502" lon="6.69952">
        <ele>1685</ele>
        <time>2021-09-23T08:58:26Z</time>
      </trkpt>
      <trkpt lat="44.35501" lon="6.69939">
        <ele>1684.3</ele>
        <time>2021-09-23T08:58:30Z</time>
      </trkpt>
      <trkpt lat="44.355" lon="6.69927">
        <ele>1683.6</ele>
        <time>2021-09-23T08:58:34Z</time>
      </trkpt>
      <trkpt lat="44.35499" lon="6.69922">
        <ele>1683.5</ele>
        <time>2021-09-23T08:58:42Z</time>
      </trkpt>
      <trkpt lat="44.35499" lon="6.69923">
        <ele>1683.5</ele>
        <time>2021-09-23T09:11:18Z</time>
      </trkpt>
      <trkpt lat="44.355" lon="6.69922">
        <ele>1683.3</ele>
        <time>2021-09-23T09:11:22Z</time>
      </trkpt>
      <trkpt lat="44.35502" lon="6.6992">
        <ele>1683.1</ele>
        <time>2021-09-23T09:11:26Z</time>
      </trkpt>
      <trkpt lat="44.35501" lon="6.69926">
        <ele>1683.5</ele>
        <time>2021-09-23T09:11:30Z</time>
      </trkpt>
      <trkpt lat="44.35495" lon="6.6993">
        <ele>1684.5</ele>
        <time>2021-09-23T09:11:34Z</time>
      </trkpt>
      <trkpt lat="44.35491" lon="6.69931">
        <ele>1685.1</ele>
        <time>2021-09-23T09:11:38Z</time>
      </trkpt>
      <trkpt lat="44.35487" lon="6.69933">
        <ele>1685.8</ele>
        <time>2021-09-23T09:11:42Z</time>
      </trkpt>
      <trkpt lat="44.35483" lon="6.69934">
        <ele>1686.5</ele>
        <time>2021-09-23T09:11:46Z</time>
      </trkpt>
      <trkpt lat="44.3548" lon="6.69935">
        <ele>1687</ele>
        <time>2021-09-23T09:11:50Z</time>
      </trkpt>
      <trkpt lat="44.35476" lon="6.69937">
        <ele>1687.7</ele>
        <time>2021-09-23T09:11:54Z</time>
      </trkpt>
      <trkpt lat="44.35472" lon="6.69939">
        <ele>1688.4</ele>
        <time>2021-09-23T09:11:58Z</time>
      </trkpt>
      <trkpt lat="44.35468" lon="6.69939">
        <ele>1689</ele>
        <time>2021-09-23T09:12:02Z</time>
      </trkpt>
      <trkpt lat="44.35464" lon="6.69943">
        <ele>1689.9</ele>
        <time>2021-09-23T09:12:06Z</time>
      </trkpt>
      <trkpt lat="44.35459" lon="6.69945">
        <ele>1690.8</ele>
        <time>2021-09-23T09:12:10Z</time>
      </trkpt>
      <trkpt lat="44.35455" lon="6.69948">
        <ele>1691.6</ele>
        <time>2021-09-23T09:12:14Z</time>
      </trkpt>
      <trkpt lat="44.35451" lon="6.6995">
        <ele>1692.4</ele>
        <time>2021-09-23T09:12:18Z</time>
      </trkpt>
      <trkpt lat="44.35445" lon="6.69952">
        <ele>1693.5</ele>
        <time>2021-09-23T09:12:22Z</time>
      </trkpt>
      <trkpt lat="44.3544" lon="6.69953">
        <ele>1694.4</ele>
        <time>2021-09-23T09:12:26Z</time>
      </trkpt>
      <trkpt lat="44.35435" lon="6.69955">
        <ele>1695.3</ele>
        <time>2021-09-23T09:12:30Z</time>
      </trkpt>
      <trkpt lat="44.35431" lon="6.69957">
        <ele>1696.1</ele>
        <time>2021-09-23T09:12:34Z</time>
      </trkpt>
      <trkpt lat="44.35426" lon="6.6996">
        <ele>1697.2</ele>
        <time>2021-09-23T09:12:38Z</time>
      </trkpt>
      <trkpt lat="44.35422" lon="6.69963">
        <ele>1698.2</ele>
        <time>2021-09-23T09:12:42Z</time>
      </trkpt>
      <trkpt lat="44.35418" lon="6.69966">
        <ele>1699.1</ele>
        <time>2021-09-23T09:12:46Z</time>
      </trkpt>
      <trkpt lat="44.35413" lon="6.69968">
        <ele>1700.3</ele>
        <time>2021-09-23T09:12:50Z</time>
      </trkpt>
      <trkpt lat="44.35407" lon="6.69971">
        <ele>1701.8</ele>
        <time>2021-09-23T09:12:54Z</time>
      </trkpt>
      <trkpt lat="44.35402" lon="6.69973">
        <ele>1702.9</ele>
        <time>2021-09-23T09:12:58Z</time>
      </trkpt>
      <trkpt lat="44.35397" lon="6.69975">
        <ele>1704.1</ele>
        <time>2021-09-23T09:13:02Z</time>
      </trkpt>
      <trkpt lat="44.35391" lon="6.69976">
        <ele>1705.3</ele>
        <time>2021-09-23T09:13:06Z</time>
      </trkpt>
      <trkpt lat="44.35386" lon="6.69977">
        <ele>1706.4</ele>
        <time>2021-09-23T09:13:10Z</time>
      </trkpt>
      <trkpt lat="44.35382" lon="6.69978">
        <ele>1707.2</ele>
        <time>2021-09-23T09:13:14Z</time>
      </trkpt>
      <trkpt lat="44.35376" lon="6.6998">
        <ele>1708.5</ele>
        <time>2021-09-23T09:13:18Z</time>
      </trkpt>
      <trkpt lat="44.35371" lon="6.6998">
        <ele>1709.4</ele>
        <time>2021-09-23T09:13:22Z</time>
      </trkpt>
      <trkpt lat="44.35366" lon="6.69982">
        <ele>1710.5</ele>
        <time>2021-09-23T09:13:26Z</time>
      </trkpt>
      <trkpt lat="44.35362" lon="6.69985">
        <ele>1711.4</ele>
        <time>2021-09-23T09:13:30Z</time>
      </trkpt>
      <trkpt lat="44.35357" lon="6.69986">
        <ele>1712.4</ele>
        <time>2021-09-23T09:13:34Z</time>
      </trkpt>
      <trkpt lat="44.35352" lon="6.69988">
        <ele>1713.4</ele>
        <time>2021-09-23T09:13:38Z</time>
      </trkpt>
      <trkpt lat="44.35349" lon="6.69993">
        <ele>1714.1</ele>
        <time>2021-09-23T09:13:42Z</time>
      </trkpt>
      <trkpt lat="44.35347" lon="6.69998">
        <ele>1714.6</ele>
        <time>2021-09-23T09:13:46Z</time>
      </trkpt>
      <trkpt lat="44.35344" lon="6.70004">
        <ele>1715.2</ele>
        <time>2021-09-23T09:13:50Z</time>
      </trkpt>
      <trkpt lat="44.35342" lon="6.70009">
        <ele>1715.5</ele>
        <time>2021-09-23T09:13:54Z</time>
      </trkpt>
      <trkpt lat="44.3534" lon="6.70015">
        <ele>1715.7</ele>
        <time>2021-09-23T09:13:58Z</time>
      </trkpt>
      <trkpt lat="44.35338" lon="6.7002">
        <ele>1716</ele>
        <time>2021-09-23T09:14:02Z</time>
      </trkpt>
      <trkpt lat="44.35336" lon="6.70025">
        <ele>1716.3</ele>
        <time>2021-09-23T09:14:06Z</time>
      </trkpt>
      <trkpt lat="44.35334" lon="6.7003">
        <ele>1716.5</ele>
        <time>2021-09-23T09:14:10Z</time>
      </trkpt>
      <trkpt lat="44.35332" lon="6.70035">
        <ele>1717</ele>
        <time>2021-09-23T09:14:14Z</time>
      </trkpt>
      <trkpt lat="44.35329" lon="6.7004">
        <ele>1717.7</ele>
        <time>2021-09-23T09:14:18Z</time>
      </trkpt>
      <trkpt lat="44.35326" lon="6.70044">
        <ele>1718.5</ele>
        <time>2021-09-23T09:14:22Z</time>
      </trkpt>
      <trkpt lat="44.35323" lon="6.70048">
        <ele>1719.3</ele>
        <time>2021-09-23T09:14:26Z</time>
      </trkpt>
      <trkpt lat="44.3532" lon="6.70053">
        <ele>1720</ele>
        <time>2021-09-23T09:14:30Z</time>
      </trkpt>
      <trkpt lat="44.35317" lon="6.70056">
        <ele>1720.8</ele>
        <time>2021-09-23T09:14:34Z</time>
      </trkpt>
      <trkpt lat="44.35314" lon="6.7006">
        <ele>1721.5</ele>
        <time>2021-09-23T09:14:38Z</time>
      </trkpt>
      <trkpt lat="44.35311" lon="6.70063">
        <ele>1722.3</ele>
        <time>2021-09-23T09:14:42Z</time>
      </trkpt>
      <trkpt lat="44.35308" lon="6.70066">
        <ele>1723</ele>
        <time>2021-09-23T09:14:46Z</time>
      </trkpt>
      <trkpt lat="44.35304" lon="6.70069">
        <ele>1724</ele>
        <time>2021-09-23T09:14:50Z</time>
      </trkpt>
      <trkpt lat="44.35301" lon="6.70073">
        <ele>1724.8</ele>
        <time>2021-09-23T09:14:54Z</time>
      </trkpt>
      <trkpt lat="44.35298" lon="6.70077">
        <ele>1725.5</ele>
        <time>2021-09-23T09:14:58Z</time>
      </trkpt>
      <trkpt lat="44.35295" lon="6.70079">
        <ele>1726.2</ele>
        <time>2021-09-23T09:15:02Z</time>
      </trkpt>
      <trkpt lat="44.35291" lon="6.70083">
        <ele>1727.2</ele>
        <time>2021-09-23T09:15:06Z</time>
      </trkpt>
      <trkpt lat="44.35288" lon="6.70086">
        <ele>1728</ele>
        <time>2021-09-23T09:15:10Z</time>
      </trkpt>
      <trkpt lat="44.35284" lon="6.70089">
        <ele>1729.1</ele>
        <time>2021-09-23T09:15:14Z</time>
      </trkpt>
      <trkpt lat="44.3528" lon="6.70091">
        <ele>1730.2</ele>
        <time>2021-09-23T09:15:18Z</time>
      </trkpt>
      <trkpt lat="44.35277" lon="6.70095">
        <ele>1731</ele>
        <time>2021-09-23T09:15:22Z</time>
      </trkpt>
      <trkpt lat="44.35275" lon="6.70099">
        <ele>1731.5</ele>
        <time>2021-09-23T09:15:26Z</time>
      </trkpt>
      <trkpt lat="44.35273" lon="6.70103">
        <ele>1732</ele>
        <time>2021-09-23T09:15:30Z</time>
      </trkpt>
      <trkpt lat="44.35271" lon="6.70109">
        <ele>1732.5</ele>
        <time>2021-09-23T09:15:34Z</time>
      </trkpt>
      <trkpt lat="44.3527" lon="6.70113">
        <ele>1732.7</ele>
        <time>2021-09-23T09:15:38Z</time>
      </trkpt>
      <trkpt lat="44.35267" lon="6.70117">
        <ele>1733.4</ele>
        <time>2021-09-23T09:15:42Z</time>
      </trkpt>
      <trkpt lat="44.35263" lon="6.70121">
        <ele>1734.2</ele>
        <time>2021-09-23T09:15:46Z</time>
      </trkpt>
      <trkpt lat="44.35259" lon="6.70124">
        <ele>1735.1</ele>
        <time>2021-09-23T09:15:50Z</time>
      </trkpt>
      <trkpt lat="44.35256" lon="6.70127">
        <ele>1735.7</ele>
        <time>2021-09-23T09:15:54Z</time>
      </trkpt>
      <trkpt lat="44.35251" lon="6.70131">
        <ele>1736.6</ele>
        <time>2021-09-23T09:15:58Z</time>
      </trkpt>
      <trkpt lat="44.35247" lon="6.70132">
        <ele>1737.8</ele>
        <time>2021-09-23T09:16:02Z</time>
      </trkpt>
      <trkpt lat="44.35243" lon="6.70135">
        <ele>1739.1</ele>
        <time>2021-09-23T09:16:06Z</time>
      </trkpt>
      <trkpt lat="44.3524" lon="6.70138">
        <ele>1740</ele>
        <time>2021-09-23T09:16:10Z</time>
      </trkpt>
      <trkpt lat="44.35235" lon="6.70138">
        <ele>1741.6</ele>
        <time>2021-09-23T09:16:14Z</time>
      </trkpt>
      <trkpt lat="44.35232" lon="6.70141">
        <ele>1742.5</ele>
        <time>2021-09-23T09:16:18Z</time>
      </trkpt>
      <trkpt lat="44.35228" lon="6.70143">
        <ele>1743.7</ele>
        <time>2021-09-23T09:16:22Z</time>
      </trkpt>
      <trkpt lat="44.35224" lon="6.70148">
        <ele>1744.8</ele>
        <time>2021-09-23T09:16:26Z</time>
      </trkpt>
      <trkpt lat="44.35221" lon="6.70152">
        <ele>1745.6</ele>
        <time>2021-09-23T09:16:30Z</time>
      </trkpt>
      <trkpt lat="44.35219" lon="6.70158">
        <ele>1746</ele>
        <time>2021-09-23T09:16:34Z</time>
      </trkpt>
      <trkpt lat="44.35218" lon="6.70164">
        <ele>1746.1</ele>
        <time>2021-09-23T09:16:38Z</time>
      </trkpt>
      <trkpt lat="44.35216" lon="6.70169">
        <ele>1746.6</ele>
        <time>2021-09-23T09:16:42Z</time>
      </trkpt>
      <trkpt lat="44.35215" lon="6.70174">
        <ele>1747</ele>
        <time>2021-09-23T09:16:46Z</time>
      </trkpt>
      <trkpt lat="44.35216" lon="6.70179">
        <ele>1746.7</ele>
        <time>2021-09-23T09:16:50Z</time>
      </trkpt>
      <trkpt lat="44.35215" lon="6.70182">
        <ele>1747</ele>
        <time>2021-09-23T09:16:54Z</time>
      </trkpt>
      <trkpt lat="44.35214" lon="6.70187">
        <ele>1747.4</ele>
        <time>2021-09-23T09:16:58Z</time>
      </trkpt>
      <trkpt lat="44.35213" lon="6.70196">
        <ele>1747.7</ele>
        <time>2021-09-23T09:17:02Z</time>
      </trkpt>
      <trkpt lat="44.35212" lon="6.70203">
        <ele>1748</ele>
        <time>2021-09-23T09:17:06Z</time>
      </trkpt>
      <trkpt lat="44.35213" lon="6.70211">
        <ele>1747.8</ele>
        <time>2021-09-23T09:17:10Z</time>
      </trkpt>
      <trkpt lat="44.35215" lon="6.70219">
        <ele>1747.3</ele>
        <time>2021-09-23T09:17:14Z</time>
      </trkpt>
      <trkpt lat="44.35217" lon="6.70231">
        <ele>1746.9</ele>
        <time>2021-09-23T09:17:18Z</time>
      </trkpt>
      <trkpt lat="44.35218" lon="6.70242">
        <ele>1746.8</ele>
        <time>2021-09-23T09:17:22Z</time>
      </trkpt>
      <trkpt lat="44.3522" lon="6.70251">
        <ele>1746.6</ele>
        <time>2021-09-23T09:17:26Z</time>
      </trkpt>
      <trkpt lat="44.35218" lon="6.70261">
        <ele>1748</ele>
        <time>2021-09-23T09:17:30Z</time>
      </trkpt>
      <trkpt lat="44.35221" lon="6.70272">
        <ele>1748.4</ele>
        <time>2021-09-23T09:17:34Z</time>
      </trkpt>
      <trkpt lat="44.35227" lon="6.7028">
        <ele>1748.1</ele>
        <time>2021-09-23T09:17:38Z</time>
      </trkpt>
      <trkpt lat="44.35235" lon="6.70282">
        <ele>1746.9</ele>
        <time>2021-09-23T09:17:42Z</time>
      </trkpt>
      <trkpt lat="44.35242" lon="6.70284">
        <ele>1745.9</ele>
        <time>2021-09-23T09:17:46Z</time>
      </trkpt>
      <trkpt lat="44.35251" lon="6.70286">
        <ele>1744.8</ele>
        <time>2021-09-23T09:17:50Z</time>
      </trkpt>
      <trkpt lat="44.35258" lon="6.70289">
        <ele>1745.2</ele>
        <time>2021-09-23T09:17:54Z</time>
      </trkpt>
      <trkpt lat="44.35259" lon="6.70294">
        <ele>1745.9</ele>
        <time>2021-09-23T09:17:58Z</time>
      </trkpt>
      <trkpt lat="44.35263" lon="6.70298">
        <ele>1746.6</ele>
        <time>2021-09-23T09:18:02Z</time>
      </trkpt>
      <trkpt lat="44.35266" lon="6.70301">
        <ele>1747.1</ele>
        <time>2021-09-23T09:18:06Z</time>
      </trkpt>
      <trkpt lat="44.35269" lon="6.70307">
        <ele>1748</ele>
        <time>2021-09-23T09:18:10Z</time>
      </trkpt>
      <trkpt lat="44.3527" lon="6.70311">
        <ele>1748.6</ele>
        <time>2021-09-23T09:18:14Z</time>
      </trkpt>
      <trkpt lat="44.35266" lon="6.70315">
        <ele>1749.1</ele>
        <time>2021-09-23T09:18:18Z</time>
      </trkpt>
      <trkpt lat="44.35262" lon="6.70321">
        <ele>1749.8</ele>
        <time>2021-09-23T09:18:22Z</time>
      </trkpt>
      <trkpt lat="44.35259" lon="6.70327">
        <ele>1750.5</ele>
        <time>2021-09-23T09:18:26Z</time>
      </trkpt>
      <trkpt lat="44.35256" lon="6.70332">
        <ele>1751.1</ele>
        <time>2021-09-23T09:18:30Z</time>
      </trkpt>
      <trkpt lat="44.35254" lon="6.70337">
        <ele>1751.8</ele>
        <time>2021-09-23T09:18:34Z</time>
      </trkpt>
      <trkpt lat="44.35252" lon="6.70343">
        <ele>1752.7</ele>
        <time>2021-09-23T09:18:38Z</time>
      </trkpt>
      <trkpt lat="44.35251" lon="6.70351">
        <ele>1754</ele>
        <time>2021-09-23T09:18:42Z</time>
      </trkpt>
      <trkpt lat="44.3525" lon="6.70355">
        <ele>1754.6</ele>
        <time>2021-09-23T09:18:46Z</time>
      </trkpt>
      <trkpt lat="44.35248" lon="6.70357">
        <ele>1755.1</ele>
        <time>2021-09-23T09:18:50Z</time>
      </trkpt>
      <trkpt lat="44.35244" lon="6.7036">
        <ele>1755.9</ele>
        <time>2021-09-23T09:18:54Z</time>
      </trkpt>
      <trkpt lat="44.35242" lon="6.7036">
        <ele>1756.1</ele>
        <time>2021-09-23T09:18:58Z</time>
      </trkpt>
      <trkpt lat="44.3524" lon="6.70361">
        <ele>1756.4</ele>
        <time>2021-09-23T09:19:06Z</time>
      </trkpt>
      <trkpt lat="44.35238" lon="6.70361">
        <ele>1756.6</ele>
        <time>2021-09-23T09:19:10Z</time>
      </trkpt>
      <trkpt lat="44.35234" lon="6.70361">
        <ele>1756.9</ele>
        <time>2021-09-23T09:19:14Z</time>
      </trkpt>
      <trkpt lat="44.35232" lon="6.70362">
        <ele>1757.2</ele>
        <time>2021-09-23T09:19:18Z</time>
      </trkpt>
      <trkpt lat="44.3523" lon="6.70364">
        <ele>1757.6</ele>
        <time>2021-09-23T09:19:22Z</time>
      </trkpt>
      <trkpt lat="44.35228" lon="6.70367">
        <ele>1758.1</ele>
        <time>2021-09-23T09:19:30Z</time>
      </trkpt>
      <trkpt lat="44.35226" lon="6.70372">
        <ele>1758.9</ele>
        <time>2021-09-23T09:19:34Z</time>
      </trkpt>
      <trkpt lat="44.35224" lon="6.70378">
        <ele>1759.8</ele>
        <time>2021-09-23T09:19:38Z</time>
      </trkpt>
      <trkpt lat="44.35224" lon="6.70381">
        <ele>1760.2</ele>
        <time>2021-09-23T09:19:42Z</time>
      </trkpt>
      <trkpt lat="44.35223" lon="6.70384">
        <ele>1760.6</ele>
        <time>2021-09-23T09:19:46Z</time>
      </trkpt>
      <trkpt lat="44.35222" lon="6.70388">
        <ele>1761.1</ele>
        <time>2021-09-23T09:19:50Z</time>
      </trkpt>
      <trkpt lat="44.35221" lon="6.70392">
        <ele>1761.6</ele>
        <time>2021-09-23T09:19:54Z</time>
      </trkpt>
      <trkpt lat="44.35221" lon="6.70396">
        <ele>1762.1</ele>
        <time>2021-09-23T09:19:58Z</time>
      </trkpt>
      <trkpt lat="44.3522" lon="6.70401">
        <ele>1762.8</ele>
        <time>2021-09-23T09:20:02Z</time>
      </trkpt>
      <trkpt lat="44.35218" lon="6.70405">
        <ele>1763.2</ele>
        <time>2021-09-23T09:20:06Z</time>
      </trkpt>
      <trkpt lat="44.35218" lon="6.70409">
        <ele>1763.7</ele>
        <time>2021-09-23T09:20:10Z</time>
      </trkpt>
      <trkpt lat="44.3522" lon="6.70412">
        <ele>1764.1</ele>
        <time>2021-09-23T09:20:14Z</time>
      </trkpt>
      <trkpt lat="44.35221" lon="6.70414">
        <ele>1764.3</ele>
        <time>2021-09-23T09:20:18Z</time>
      </trkpt>
      <trkpt lat="44.35221" lon="6.70417">
        <ele>1764.7</ele>
        <time>2021-09-23T09:20:22Z</time>
      </trkpt>
      <trkpt lat="44.35223" lon="6.70419">
        <ele>1765</ele>
        <time>2021-09-23T09:20:26Z</time>
      </trkpt>
      <trkpt lat="44.35223" lon="6.70422">
        <ele>1765.4</ele>
        <time>2021-09-23T09:20:30Z</time>
      </trkpt>
      <trkpt lat="44.35224" lon="6.70425">
        <ele>1765.9</ele>
        <time>2021-09-23T09:20:34Z</time>
      </trkpt>
      <trkpt lat="44.35223" lon="6.70427">
        <ele>1766.1</ele>
        <time>2021-09-23T09:20:38Z</time>
      </trkpt>
      <trkpt lat="44.35222" lon="6.7043">
        <ele>1766.5</ele>
        <time>2021-09-23T09:20:42Z</time>
      </trkpt>
      <trkpt lat="44.35221" lon="6.70433">
        <ele>1766.9</ele>
        <time>2021-09-23T09:20:46Z</time>
      </trkpt>
      <trkpt lat="44.35221" lon="6.70436">
        <ele>1767.3</ele>
        <time>2021-09-23T09:20:50Z</time>
      </trkpt>
      <trkpt lat="44.3522" lon="6.7044">
        <ele>1767.9</ele>
        <time>2021-09-23T09:20:58Z</time>
      </trkpt>
      <trkpt lat="44.35219" lon="6.70444">
        <ele>1768.4</ele>
        <time>2021-09-23T09:21:02Z</time>
      </trkpt>
      <trkpt lat="44.35218" lon="6.70447">
        <ele>1768.7</ele>
        <time>2021-09-23T09:21:06Z</time>
      </trkpt>
      <trkpt lat="44.35218" lon="6.70451">
        <ele>1769.3</ele>
        <time>2021-09-23T09:21:10Z</time>
      </trkpt>
      <trkpt lat="44.35218" lon="6.70454">
        <ele>1769.7</ele>
        <time>2021-09-23T09:21:14Z</time>
      </trkpt>
      <trkpt lat="44.35218" lon="6.70459">
        <ele>1770.4</ele>
        <time>2021-09-23T09:21:18Z</time>
      </trkpt>
      <trkpt lat="44.35219" lon="6.70461">
        <ele>1770.7</ele>
        <time>2021-09-23T09:21:22Z</time>
      </trkpt>
      <trkpt lat="44.35221" lon="6.70464">
        <ele>1771.2</ele>
        <time>2021-09-23T09:21:26Z</time>
      </trkpt>
      <trkpt lat="44.35223" lon="6.70465">
        <ele>1771.5</ele>
        <time>2021-09-23T09:21:30Z</time>
      </trkpt>
      <trkpt lat="44.35225" lon="6.70468">
        <ele>1772</ele>
        <time>2021-09-23T09:21:34Z</time>
      </trkpt>
      <trkpt lat="44.35226" lon="6.7047">
        <ele>1772.4</ele>
        <time>2021-09-23T09:21:42Z</time>
      </trkpt>
      <trkpt lat="44.35228" lon="6.70473">
        <ele>1773</ele>
        <time>2021-09-23T09:21:46Z</time>
      </trkpt>
      <trkpt lat="44.35231" lon="6.70476">
        <ele>1773.6</ele>
        <time>2021-09-23T09:21:50Z</time>
      </trkpt>
      <trkpt lat="44.35233" lon="6.70476">
        <ele>1773.7</ele>
        <time>2021-09-23T09:21:54Z</time>
      </trkpt>
      <trkpt lat="44.35236" lon="6.70477">
        <ele>1774.1</ele>
        <time>2021-09-23T09:21:58Z</time>
      </trkpt>
      <trkpt lat="44.35239" lon="6.70477">
        <ele>1774.3</ele>
        <time>2021-09-23T09:22:02Z</time>
      </trkpt>
      <trkpt lat="44.35242" lon="6.70477">
        <ele>1774.6</ele>
        <time>2021-09-23T09:22:06Z</time>
      </trkpt>
      <trkpt lat="44.35245" lon="6.70476">
        <ele>1774.6</ele>
        <time>2021-09-23T09:22:10Z</time>
      </trkpt>
      <trkpt lat="44.35248" lon="6.70475">
        <ele>1774.7</ele>
        <time>2021-09-23T09:22:14Z</time>
      </trkpt>
      <trkpt lat="44.35251" lon="6.70477">
        <ele>1775.3</ele>
        <time>2021-09-23T09:22:18Z</time>
      </trkpt>
      <trkpt lat="44.35253" lon="6.7048">
        <ele>1776.1</ele>
        <time>2021-09-23T09:22:22Z</time>
      </trkpt>
      <trkpt lat="44.35255" lon="6.70484">
        <ele>1777.2</ele>
        <time>2021-09-23T09:22:26Z</time>
      </trkpt>
      <trkpt lat="44.35257" lon="6.70485">
        <ele>1777.7</ele>
        <time>2021-09-23T09:22:30Z</time>
      </trkpt>
      <trkpt lat="44.35259" lon="6.70487">
        <ele>1778.4</ele>
        <time>2021-09-23T09:22:38Z</time>
      </trkpt>
      <trkpt lat="44.35259" lon="6.70491">
        <ele>1779.1</ele>
        <time>2021-09-23T09:22:42Z</time>
      </trkpt>
      <trkpt lat="44.3526" lon="6.70495">
        <ele>1780</ele>
        <time>2021-09-23T09:22:46Z</time>
      </trkpt>
      <trkpt lat="44.35259" lon="6.70498">
        <ele>1780.4</ele>
        <time>2021-09-23T09:22:50Z</time>
      </trkpt>
      <trkpt lat="44.3526" lon="6.70501">
        <ele>1781.1</ele>
        <time>2021-09-23T09:22:54Z</time>
      </trkpt>
      <trkpt lat="44.35262" lon="6.70503">
        <ele>1781.9</ele>
        <time>2021-09-23T09:22:58Z</time>
      </trkpt>
      <trkpt lat="44.35261" lon="6.70508">
        <ele>1782.6</ele>
        <time>2021-09-23T09:23:18Z</time>
      </trkpt>
      <trkpt lat="44.35258" lon="6.70511">
        <ele>1782.5</ele>
        <time>2021-09-23T09:23:22Z</time>
      </trkpt>
      <trkpt lat="44.35255" lon="6.70515">
        <ele>1782.6</ele>
        <time>2021-09-23T09:23:26Z</time>
      </trkpt>
      <trkpt lat="44.35252" lon="6.7052">
        <ele>1782.8</ele>
        <time>2021-09-23T09:23:30Z</time>
      </trkpt>
      <trkpt lat="44.35247" lon="6.70524">
        <ele>1782.7</ele>
        <time>2021-09-23T09:23:34Z</time>
      </trkpt>
      <trkpt lat="44.35242" lon="6.7053">
        <ele>1783.3</ele>
        <time>2021-09-23T09:23:38Z</time>
      </trkpt>
      <trkpt lat="44.35239" lon="6.70535">
        <ele>1783.8</ele>
        <time>2021-09-23T09:23:42Z</time>
      </trkpt>
      <trkpt lat="44.35236" lon="6.70542">
        <ele>1784.7</ele>
        <time>2021-09-23T09:23:46Z</time>
      </trkpt>
      <trkpt lat="44.35233" lon="6.70547">
        <ele>1785.3</ele>
        <time>2021-09-23T09:23:50Z</time>
      </trkpt>
      <trkpt lat="44.3523" lon="6.70552">
        <ele>1785.8</ele>
        <time>2021-09-23T09:23:54Z</time>
      </trkpt>
      <trkpt lat="44.35226" lon="6.70559">
        <ele>1786.6</ele>
        <time>2021-09-23T09:23:58Z</time>
      </trkpt>
      <trkpt lat="44.35221" lon="6.70564">
        <ele>1787</ele>
        <time>2021-09-23T09:24:02Z</time>
      </trkpt>
      <trkpt lat="44.35216" lon="6.70571">
        <ele>1787.7</ele>
        <time>2021-09-23T09:24:06Z</time>
      </trkpt>
      <trkpt lat="44.35212" lon="6.70577">
        <ele>1788.3</ele>
        <time>2021-09-23T09:24:10Z</time>
      </trkpt>
      <trkpt lat="44.35206" lon="6.70581">
        <ele>1788.4</ele>
        <time>2021-09-23T09:24:14Z</time>
      </trkpt>
      <trkpt lat="44.35201" lon="6.70586">
        <ele>1789.2</ele>
        <time>2021-09-23T09:24:18Z</time>
      </trkpt>
      <trkpt lat="44.35196" lon="6.70589">
        <ele>1789.7</ele>
        <time>2021-09-23T09:24:22Z</time>
      </trkpt>
      <trkpt lat="44.35192" lon="6.70591">
        <ele>1790</ele>
        <time>2021-09-23T09:24:26Z</time>
      </trkpt>
      <trkpt lat="44.35186" lon="6.70592">
        <ele>1789.8</ele>
        <time>2021-09-23T09:24:30Z</time>
      </trkpt>
      <trkpt lat="44.35179" lon="6.70593">
        <ele>1789.5</ele>
        <time>2021-09-23T09:24:34Z</time>
      </trkpt>
      <trkpt lat="44.35174" lon="6.70593">
        <ele>1789</ele>
        <time>2021-09-23T09:24:38Z</time>
      </trkpt>
      <trkpt lat="44.35168" lon="6.70594">
        <ele>1788.8</ele>
        <time>2021-09-23T09:24:42Z</time>
      </trkpt>
      <trkpt lat="44.35163" lon="6.70595">
        <ele>1789.4</ele>
        <time>2021-09-23T09:24:46Z</time>
      </trkpt>
      <trkpt lat="44.35159" lon="6.70597">
        <ele>1790.4</ele>
        <time>2021-09-23T09:24:50Z</time>
      </trkpt>
      <trkpt lat="44.35155" lon="6.70598">
        <ele>1791.1</ele>
        <time>2021-09-23T09:24:54Z</time>
      </trkpt>
      <trkpt lat="44.35151" lon="6.70599">
        <ele>1791.7</ele>
        <time>2021-09-23T09:24:58Z</time>
      </trkpt>
      <trkpt lat="44.35147" lon="6.70601">
        <ele>1792.7</ele>
        <time>2021-09-23T09:25:02Z</time>
      </trkpt>
      <trkpt lat="44.35142" lon="6.70605">
        <ele>1794.4</ele>
        <time>2021-09-23T09:25:06Z</time>
      </trkpt>
      <trkpt lat="44.35138" lon="6.70608">
        <ele>1795.7</ele>
        <time>2021-09-23T09:25:10Z</time>
      </trkpt>
      <trkpt lat="44.35134" lon="6.7061">
        <ele>1796.7</ele>
        <time>2021-09-23T09:25:14Z</time>
      </trkpt>
      <trkpt lat="44.3513" lon="6.70609">
        <ele>1796.6</ele>
        <time>2021-09-23T09:25:18Z</time>
      </trkpt>
      <trkpt lat="44.35125" lon="6.70609">
        <ele>1797</ele>
        <time>2021-09-23T09:25:22Z</time>
      </trkpt>
      <trkpt lat="44.35121" lon="6.7061">
        <ele>1797.6</ele>
        <time>2021-09-23T09:25:26Z</time>
      </trkpt>
      <trkpt lat="44.35117" lon="6.70612">
        <ele>1798.5</ele>
        <time>2021-09-23T09:25:30Z</time>
      </trkpt>
      <trkpt lat="44.35115" lon="6.70615">
        <ele>1799.6</ele>
        <time>2021-09-23T09:25:34Z</time>
      </trkpt>
      <trkpt lat="44.35111" lon="6.70619">
        <ele>1801</ele>
        <time>2021-09-23T09:25:38Z</time>
      </trkpt>
      <trkpt lat="44.35107" lon="6.70621">
        <ele>1801.9</ele>
        <time>2021-09-23T09:25:42Z</time>
      </trkpt>
      <trkpt lat="44.35102" lon="6.70622">
        <ele>1802.5</ele>
        <time>2021-09-23T09:25:46Z</time>
      </trkpt>
      <trkpt lat="44.35098" lon="6.70623">
        <ele>1803</ele>
        <time>2021-09-23T09:25:50Z</time>
      </trkpt>
      <trkpt lat="44.35095" lon="6.70624">
        <ele>1803.5</ele>
        <time>2021-09-23T09:25:54Z</time>
      </trkpt>
      <trkpt lat="44.35091" lon="6.70626">
        <ele>1804.3</ele>
        <time>2021-09-23T09:25:58Z</time>
      </trkpt>
      <trkpt lat="44.35087" lon="6.70627">
        <ele>1804.8</ele>
        <time>2021-09-23T09:26:02Z</time>
      </trkpt>
      <trkpt lat="44.35083" lon="6.70627">
        <ele>1805.1</ele>
        <time>2021-09-23T09:26:06Z</time>
      </trkpt>
      <trkpt lat="44.35078" lon="6.70632">
        <ele>1807.4</ele>
        <time>2021-09-23T09:26:14Z</time>
      </trkpt>
      <trkpt lat="44.35074" lon="6.70636">
        <ele>1809.1</ele>
        <time>2021-09-23T09:26:18Z</time>
      </trkpt>
      <trkpt lat="44.35071" lon="6.7064">
        <ele>1810.6</ele>
        <time>2021-09-23T09:26:22Z</time>
      </trkpt>
      <trkpt lat="44.35068" lon="6.70643">
        <ele>1811.8</ele>
        <time>2021-09-23T09:26:26Z</time>
      </trkpt>
      <trkpt lat="44.35065" lon="6.70647">
        <ele>1813.2</ele>
        <time>2021-09-23T09:26:30Z</time>
      </trkpt>
      <trkpt lat="44.35063" lon="6.70653">
        <ele>1814.9</ele>
        <time>2021-09-23T09:26:34Z</time>
      </trkpt>
      <trkpt lat="44.35061" lon="6.70657">
        <ele>1816</ele>
        <time>2021-09-23T09:26:38Z</time>
      </trkpt>
      <trkpt lat="44.35057" lon="6.70663">
        <ele>1817.8</ele>
        <time>2021-09-23T09:26:42Z</time>
      </trkpt>
      <trkpt lat="44.35052" lon="6.70667">
        <ele>1819.1</ele>
        <time>2021-09-23T09:26:46Z</time>
      </trkpt>
      <trkpt lat="44.35047" lon="6.7067">
        <ele>1820.3</ele>
        <time>2021-09-23T09:26:50Z</time>
      </trkpt>
      <trkpt lat="44.35042" lon="6.70673">
        <ele>1821.5</ele>
        <time>2021-09-23T09:26:54Z</time>
      </trkpt>
      <trkpt lat="44.35036" lon="6.70674">
        <ele>1822.3</ele>
        <time>2021-09-23T09:26:58Z</time>
      </trkpt>
      <trkpt lat="44.3503" lon="6.70677">
        <ele>1823.5</ele>
        <time>2021-09-23T09:27:02Z</time>
      </trkpt>
      <trkpt lat="44.35025" lon="6.70677">
        <ele>1823.9</ele>
        <time>2021-09-23T09:27:06Z</time>
      </trkpt>
      <trkpt lat="44.35022" lon="6.70677">
        <ele>1824.1</ele>
        <time>2021-09-23T09:27:10Z</time>
      </trkpt>
      <trkpt lat="44.3502" lon="6.70677">
        <ele>1824.3</ele>
        <time>2021-09-23T09:27:14Z</time>
      </trkpt>
      <trkpt lat="44.35016" lon="6.70676">
        <ele>1824.4</ele>
        <time>2021-09-23T09:27:18Z</time>
      </trkpt>
      <trkpt lat="44.35013" lon="6.70677">
        <ele>1824.9</ele>
        <time>2021-09-23T09:27:22Z</time>
      </trkpt>
      <trkpt lat="44.35011" lon="6.70676">
        <ele>1824.9</ele>
        <time>2021-09-23T09:27:26Z</time>
      </trkpt>
      <trkpt lat="44.35008" lon="6.70677">
        <ele>1825.3</ele>
        <time>2021-09-23T09:27:30Z</time>
      </trkpt>
      <trkpt lat="44.35005" lon="6.70675">
        <ele>1825.2</ele>
        <time>2021-09-23T09:27:38Z</time>
      </trkpt>
      <trkpt lat="44.35002" lon="6.70676">
        <ele>1825.6</ele>
        <time>2021-09-23T09:27:42Z</time>
      </trkpt>
      <trkpt lat="44.34998" lon="6.70676">
        <ele>1826</ele>
        <time>2021-09-23T09:27:46Z</time>
      </trkpt>
      <trkpt lat="44.34996" lon="6.70676">
        <ele>1826.1</ele>
        <time>2021-09-23T09:27:50Z</time>
      </trkpt>
      <trkpt lat="44.34994" lon="6.70677">
        <ele>1826.5</ele>
        <time>2021-09-23T09:27:54Z</time>
      </trkpt>
      <trkpt lat="44.34991" lon="6.70678">
        <ele>1826.9</ele>
        <time>2021-09-23T09:27:58Z</time>
      </trkpt>
      <trkpt lat="44.34988" lon="6.70678">
        <ele>1827.1</ele>
        <time>2021-09-23T09:28:02Z</time>
      </trkpt>
      <trkpt lat="44.34985" lon="6.70678">
        <ele>1827.3</ele>
        <time>2021-09-23T09:28:06Z</time>
      </trkpt>
      <trkpt lat="44.34985" lon="6.7068">
        <ele>1827.7</ele>
        <time>2021-09-23T09:28:18Z</time>
      </trkpt>
      <trkpt lat="44.34981" lon="6.70682">
        <ele>1828.3</ele>
        <time>2021-09-23T09:28:22Z</time>
      </trkpt>
      <trkpt lat="44.34977" lon="6.70683">
        <ele>1828.7</ele>
        <time>2021-09-23T09:28:26Z</time>
      </trkpt>
      <trkpt lat="44.34973" lon="6.70685">
        <ele>1829.3</ele>
        <time>2021-09-23T09:28:30Z</time>
      </trkpt>
      <trkpt lat="44.34969" lon="6.70687">
        <ele>1829.8</ele>
        <time>2021-09-23T09:28:34Z</time>
      </trkpt>
      <trkpt lat="44.34965" lon="6.7069">
        <ele>1830.4</ele>
        <time>2021-09-23T09:28:38Z</time>
      </trkpt>
      <trkpt lat="44.3496" lon="6.70693">
        <ele>1831.1</ele>
        <time>2021-09-23T09:28:42Z</time>
      </trkpt>
      <trkpt lat="44.34955" lon="6.70695">
        <ele>1831.6</ele>
        <time>2021-09-23T09:28:46Z</time>
      </trkpt>
      <trkpt lat="44.34949" lon="6.70698">
        <ele>1832.2</ele>
        <time>2021-09-23T09:28:50Z</time>
      </trkpt>
      <trkpt lat="44.34944" lon="6.707">
        <ele>1832.6</ele>
        <time>2021-09-23T09:28:54Z</time>
      </trkpt>
      <trkpt lat="44.34938" lon="6.70701">
        <ele>1832.9</ele>
        <time>2021-09-23T09:28:58Z</time>
      </trkpt>
      <trkpt lat="44.34931" lon="6.70704">
        <ele>1833.3</ele>
        <time>2021-09-23T09:29:02Z</time>
      </trkpt>
      <trkpt lat="44.34924" lon="6.70704">
        <ele>1833.6</ele>
        <time>2021-09-23T09:29:06Z</time>
      </trkpt>
      <trkpt lat="44.34916" lon="6.70703">
        <ele>1833.8</ele>
        <time>2021-09-23T09:29:10Z</time>
      </trkpt>
      <trkpt lat="44.3491" lon="6.70702">
        <ele>1833.8</ele>
        <time>2021-09-23T09:29:14Z</time>
      </trkpt>
      <trkpt lat="44.34904" lon="6.707">
        <ele>1833.9</ele>
        <time>2021-09-23T09:29:18Z</time>
      </trkpt>
      <trkpt lat="44.34899" lon="6.70702">
        <ele>1834.1</ele>
        <time>2021-09-23T09:29:22Z</time>
      </trkpt>
      <trkpt lat="44.34896" lon="6.70707">
        <ele>1834.3</ele>
        <time>2021-09-23T09:29:26Z</time>
      </trkpt>
      <trkpt lat="44.34893" lon="6.70715">
        <ele>1834.6</ele>
        <time>2021-09-23T09:29:30Z</time>
      </trkpt>
      <trkpt lat="44.3489" lon="6.70729">
        <ele>1835.1</ele>
        <time>2021-09-23T09:29:34Z</time>
      </trkpt>
      <trkpt lat="44.34885" lon="6.70743">
        <ele>1835.4</ele>
        <time>2021-09-23T09:29:38Z</time>
      </trkpt>
      <trkpt lat="44.3488" lon="6.70753">
        <ele>1836</ele>
        <time>2021-09-23T09:29:42Z</time>
      </trkpt>
      <trkpt lat="44.34876" lon="6.70765">
        <ele>1837.9</ele>
        <time>2021-09-23T09:29:46Z</time>
      </trkpt>
      <trkpt lat="44.34872" lon="6.70774">
        <ele>1839.2</ele>
        <time>2021-09-23T09:29:50Z</time>
      </trkpt>
      <trkpt lat="44.3487" lon="6.70781">
        <ele>1840.2</ele>
        <time>2021-09-23T09:29:54Z</time>
      </trkpt>
      <trkpt lat="44.34867" lon="6.70789">
        <ele>1841.3</ele>
        <time>2021-09-23T09:29:58Z</time>
      </trkpt>
      <trkpt lat="44.34866" lon="6.70796">
        <ele>1842.3</ele>
        <time>2021-09-23T09:30:02Z</time>
      </trkpt>
      <trkpt lat="44.34865" lon="6.70804">
        <ele>1843.5</ele>
        <time>2021-09-23T09:30:06Z</time>
      </trkpt>
      <trkpt lat="44.34863" lon="6.70811">
        <ele>1844.5</ele>
        <time>2021-09-23T09:30:10Z</time>
      </trkpt>
      <trkpt lat="44.34859" lon="6.70816">
        <ele>1845</ele>
        <time>2021-09-23T09:30:14Z</time>
      </trkpt>
      <trkpt lat="44.34855" lon="6.70821">
        <ele>1845.5</ele>
        <time>2021-09-23T09:30:18Z</time>
      </trkpt>
      <trkpt lat="44.34852" lon="6.70827">
        <ele>1846.2</ele>
        <time>2021-09-23T09:30:22Z</time>
      </trkpt>
      <trkpt lat="44.34848" lon="6.70832">
        <ele>1846.7</ele>
        <time>2021-09-23T09:30:26Z</time>
      </trkpt>
      <trkpt lat="44.34845" lon="6.70838">
        <ele>1847.3</ele>
        <time>2021-09-23T09:30:30Z</time>
      </trkpt>
      <trkpt lat="44.34841" lon="6.70844">
        <ele>1847.7</ele>
        <time>2021-09-23T09:30:34Z</time>
      </trkpt>
      <trkpt lat="44.34838" lon="6.7085">
        <ele>1848.1</ele>
        <time>2021-09-23T09:30:38Z</time>
      </trkpt>
      <trkpt lat="44.34835" lon="6.70856">
        <ele>1848.6</ele>
        <time>2021-09-23T09:30:42Z</time>
      </trkpt>
      <trkpt lat="44.34832" lon="6.70862">
        <ele>1849.2</ele>
        <time>2021-09-23T09:30:46Z</time>
      </trkpt>
      <trkpt lat="44.34829" lon="6.70868">
        <ele>1849.9</ele>
        <time>2021-09-23T09:30:50Z</time>
      </trkpt>
      <trkpt lat="44.34828" lon="6.70875">
        <ele>1850.7</ele>
        <time>2021-09-23T09:30:54Z</time>
      </trkpt>
      <trkpt lat="44.34825" lon="6.70881">
        <ele>1851.4</ele>
        <time>2021-09-23T09:30:58Z</time>
      </trkpt>
      <trkpt lat="44.34822" lon="6.70884">
        <ele>1851.8</ele>
        <time>2021-09-23T09:31:02Z</time>
      </trkpt>
      <trkpt lat="44.34819" lon="6.7089">
        <ele>1852.5</ele>
        <time>2021-09-23T09:31:06Z</time>
      </trkpt>
      <trkpt lat="44.34817" lon="6.70896">
        <ele>1853.1</ele>
        <time>2021-09-23T09:31:10Z</time>
      </trkpt>
      <trkpt lat="44.34814" lon="6.70904">
        <ele>1853.8</ele>
        <time>2021-09-23T09:31:14Z</time>
      </trkpt>
      <trkpt lat="44.34811" lon="6.7091">
        <ele>1854.4</ele>
        <time>2021-09-23T09:31:18Z</time>
      </trkpt>
      <trkpt lat="44.34808" lon="6.70915">
        <ele>1854.9</ele>
        <time>2021-09-23T09:31:22Z</time>
      </trkpt>
      <trkpt lat="44.34804" lon="6.70919">
        <ele>1855.4</ele>
        <time>2021-09-23T09:31:26Z</time>
      </trkpt>
      <trkpt lat="44.34799" lon="6.70923">
        <ele>1855.9</ele>
        <time>2021-09-23T09:31:30Z</time>
      </trkpt>
      <trkpt lat="44.34795" lon="6.70927">
        <ele>1856.5</ele>
        <time>2021-09-23T09:31:34Z</time>
      </trkpt>
      <trkpt lat="44.3479" lon="6.70933">
        <ele>1857.2</ele>
        <time>2021-09-23T09:31:38Z</time>
      </trkpt>
      <trkpt lat="44.34786" lon="6.70938">
        <ele>1857.8</ele>
        <time>2021-09-23T09:31:42Z</time>
      </trkpt>
      <trkpt lat="44.34781" lon="6.70942">
        <ele>1858.1</ele>
        <time>2021-09-23T09:31:46Z</time>
      </trkpt>
      <trkpt lat="44.34774" lon="6.70945">
        <ele>1858.1</ele>
        <time>2021-09-23T09:31:50Z</time>
      </trkpt>
      <trkpt lat="44.34767" lon="6.70946">
        <ele>1857.9</ele>
        <time>2021-09-23T09:31:54Z</time>
      </trkpt>
      <trkpt lat="44.34764" lon="6.70952">
        <ele>1858.3</ele>
        <time>2021-09-23T09:31:58Z</time>
      </trkpt>
      <trkpt lat="44.34766" lon="6.7096">
        <ele>1859.2</ele>
        <time>2021-09-23T09:32:02Z</time>
      </trkpt>
      <trkpt lat="44.34771" lon="6.70963">
        <ele>1859.9</ele>
        <time>2021-09-23T09:32:06Z</time>
      </trkpt>
      <trkpt lat="44.34777" lon="6.70968">
        <ele>1860.9</ele>
        <time>2021-09-23T09:32:10Z</time>
      </trkpt>
      <trkpt lat="44.34783" lon="6.7097">
        <ele>1861.6</ele>
        <time>2021-09-23T09:32:14Z</time>
      </trkpt>
      <trkpt lat="44.34792" lon="6.70969">
        <ele>1862.2</ele>
        <time>2021-09-23T09:32:18Z</time>
      </trkpt>
      <trkpt lat="44.348" lon="6.70967">
        <ele>1862.6</ele>
        <time>2021-09-23T09:32:22Z</time>
      </trkpt>
      <trkpt lat="44.34808" lon="6.70962">
        <ele>1862.4</ele>
        <time>2021-09-23T09:32:26Z</time>
      </trkpt>
      <trkpt lat="44.34815" lon="6.70958">
        <ele>1862.2</ele>
        <time>2021-09-23T09:32:30Z</time>
      </trkpt>
      <trkpt lat="44.34822" lon="6.70955">
        <ele>1862.1</ele>
        <time>2021-09-23T09:32:34Z</time>
      </trkpt>
      <trkpt lat="44.34828" lon="6.70952">
        <ele>1861.9</ele>
        <time>2021-09-23T09:32:38Z</time>
      </trkpt>
      <trkpt lat="44.34834" lon="6.7095">
        <ele>1861.9</ele>
        <time>2021-09-23T09:32:42Z</time>
      </trkpt>
      <trkpt lat="44.3484" lon="6.70948">
        <ele>1862.2</ele>
        <time>2021-09-23T09:32:46Z</time>
      </trkpt>
      <trkpt lat="44.34845" lon="6.70944">
        <ele>1862</ele>
        <time>2021-09-23T09:32:50Z</time>
      </trkpt>
      <trkpt lat="44.3485" lon="6.7094">
        <ele>1861.8</ele>
        <time>2021-09-23T09:32:54Z</time>
      </trkpt>
      <trkpt lat="44.34855" lon="6.70938">
        <ele>1862.1</ele>
        <time>2021-09-23T09:32:58Z</time>
      </trkpt>
      <trkpt lat="44.34861" lon="6.70936">
        <ele>1862.4</ele>
        <time>2021-09-23T09:33:02Z</time>
      </trkpt>
      <trkpt lat="44.34867" lon="6.70935">
        <ele>1863</ele>
        <time>2021-09-23T09:33:06Z</time>
      </trkpt>
      <trkpt lat="44.34873" lon="6.70934">
        <ele>1863.6</ele>
        <time>2021-09-23T09:33:10Z</time>
      </trkpt>
      <trkpt lat="44.34878" lon="6.70934">
        <ele>1864.2</ele>
        <time>2021-09-23T09:33:14Z</time>
      </trkpt>
      <trkpt lat="44.34883" lon="6.70934">
        <ele>1864.8</ele>
        <time>2021-09-23T09:33:18Z</time>
      </trkpt>
      <trkpt lat="44.34889" lon="6.70935">
        <ele>1865.8</ele>
        <time>2021-09-23T09:33:22Z</time>
      </trkpt>
      <trkpt lat="44.34895" lon="6.70935">
        <ele>1866.6</ele>
        <time>2021-09-23T09:33:26Z</time>
      </trkpt>
      <trkpt lat="44.34899" lon="6.70937">
        <ele>1867.4</ele>
        <time>2021-09-23T09:33:30Z</time>
      </trkpt>
      <trkpt lat="44.34904" lon="6.70938">
        <ele>1868.2</ele>
        <time>2021-09-23T09:33:34Z</time>
      </trkpt>
      <trkpt lat="44.34909" lon="6.70938">
        <ele>1868.9</ele>
        <time>2021-09-23T09:33:38Z</time>
      </trkpt>
      <trkpt lat="44.34913" lon="6.7094">
        <ele>1869.7</ele>
        <time>2021-09-23T09:33:42Z</time>
      </trkpt>
      <trkpt lat="44.34917" lon="6.70942">
        <ele>1870.6</ele>
        <time>2021-09-23T09:33:46Z</time>
      </trkpt>
      <trkpt lat="44.34921" lon="6.70945">
        <ele>1871.2</ele>
        <time>2021-09-23T09:33:50Z</time>
      </trkpt>
      <trkpt lat="44.34925" lon="6.70948">
        <ele>1871.8</ele>
        <time>2021-09-23T09:33:54Z</time>
      </trkpt>
      <trkpt lat="44.34929" lon="6.70952">
        <ele>1872.6</ele>
        <time>2021-09-23T09:33:58Z</time>
      </trkpt>
      <trkpt lat="44.34933" lon="6.70955">
        <ele>1873.2</ele>
        <time>2021-09-23T09:34:02Z</time>
      </trkpt>
      <trkpt lat="44.34937" lon="6.7096">
        <ele>1874.2</ele>
        <time>2021-09-23T09:34:06Z</time>
      </trkpt>
      <trkpt lat="44.34939" lon="6.70966">
        <ele>1875.3</ele>
        <time>2021-09-23T09:34:10Z</time>
      </trkpt>
      <trkpt lat="44.34943" lon="6.70971">
        <ele>1876.3</ele>
        <time>2021-09-23T09:34:14Z</time>
      </trkpt>
      <trkpt lat="44.34946" lon="6.70975">
        <ele>1877.1</ele>
        <time>2021-09-23T09:34:18Z</time>
      </trkpt>
      <trkpt lat="44.3495" lon="6.70977">
        <ele>1877.5</ele>
        <time>2021-09-23T09:34:22Z</time>
      </trkpt>
      <trkpt lat="44.34955" lon="6.7098">
        <ele>1878.2</ele>
        <time>2021-09-23T09:34:26Z</time>
      </trkpt>
      <trkpt lat="44.3496" lon="6.70983">
        <ele>1878.9</ele>
        <time>2021-09-23T09:34:30Z</time>
      </trkpt>
      <trkpt lat="44.34965" lon="6.70986">
        <ele>1879.5</ele>
        <time>2021-09-23T09:34:34Z</time>
      </trkpt>
      <trkpt lat="44.3497" lon="6.70987">
        <ele>1879.8</ele>
        <time>2021-09-23T09:34:38Z</time>
      </trkpt>
      <trkpt lat="44.34975" lon="6.70989">
        <ele>1880.3</ele>
        <time>2021-09-23T09:34:42Z</time>
      </trkpt>
      <trkpt lat="44.3498" lon="6.70991">
        <ele>1880.8</ele>
        <time>2021-09-23T09:34:46Z</time>
      </trkpt>
      <trkpt lat="44.34985" lon="6.70992">
        <ele>1881.1</ele>
        <time>2021-09-23T09:34:50Z</time>
      </trkpt>
      <trkpt lat="44.3499" lon="6.70989">
        <ele>1880.7</ele>
        <time>2021-09-23T09:34:54Z</time>
      </trkpt>
      <trkpt lat="44.34996" lon="6.70989">
        <ele>1880.8</ele>
        <time>2021-09-23T09:34:58Z</time>
      </trkpt>
      <trkpt lat="44.35004" lon="6.7099">
        <ele>1881.2</ele>
        <time>2021-09-23T09:35:02Z</time>
      </trkpt>
      <trkpt lat="44.35014" lon="6.70991">
        <ele>1881.8</ele>
        <time>2021-09-23T09:35:06Z</time>
      </trkpt>
      <trkpt lat="44.35023" lon="6.70993">
        <ele>1882.5</ele>
        <time>2021-09-23T09:35:10Z</time>
      </trkpt>
      <trkpt lat="44.35032" lon="6.70995">
        <ele>1883.2</ele>
        <time>2021-09-23T09:35:14Z</time>
      </trkpt>
      <trkpt lat="44.35039" lon="6.71">
        <ele>1884.4</ele>
        <time>2021-09-23T09:35:18Z</time>
      </trkpt>
      <trkpt lat="44.35046" lon="6.71002">
        <ele>1884.9</ele>
        <time>2021-09-23T09:35:22Z</time>
      </trkpt>
      <trkpt lat="44.35052" lon="6.71004">
        <ele>1885.4</ele>
        <time>2021-09-23T09:35:26Z</time>
      </trkpt>
      <trkpt lat="44.35058" lon="6.71004">
        <ele>1885.6</ele>
        <time>2021-09-23T09:35:30Z</time>
      </trkpt>
      <trkpt lat="44.35064" lon="6.71005">
        <ele>1886</ele>
        <time>2021-09-23T09:35:34Z</time>
      </trkpt>
      <trkpt lat="44.35069" lon="6.71006">
        <ele>1886.3</ele>
        <time>2021-09-23T09:35:38Z</time>
      </trkpt>
      <trkpt lat="44.35074" lon="6.71009">
        <ele>1886.9</ele>
        <time>2021-09-23T09:35:42Z</time>
      </trkpt>
      <trkpt lat="44.35079" lon="6.71013">
        <ele>1887.6</ele>
        <time>2021-09-23T09:35:46Z</time>
      </trkpt>
      <trkpt lat="44.35081" lon="6.71018">
        <ele>1888.3</ele>
        <time>2021-09-23T09:35:50Z</time>
      </trkpt>
      <trkpt lat="44.35084" lon="6.71022">
        <ele>1889</ele>
        <time>2021-09-23T09:35:54Z</time>
      </trkpt>
      <trkpt lat="44.35086" lon="6.71026">
        <ele>1889.7</ele>
        <time>2021-09-23T09:35:58Z</time>
      </trkpt>
      <trkpt lat="44.35088" lon="6.71031">
        <ele>1890.6</ele>
        <time>2021-09-23T09:36:02Z</time>
      </trkpt>
      <trkpt lat="44.3509" lon="6.71035">
        <ele>1891.4</ele>
        <time>2021-09-23T09:36:06Z</time>
      </trkpt>
      <trkpt lat="44.35093" lon="6.71041">
        <ele>1892.6</ele>
        <time>2021-09-23T09:36:10Z</time>
      </trkpt>
      <trkpt lat="44.35095" lon="6.71046">
        <ele>1893.5</ele>
        <time>2021-09-23T09:36:14Z</time>
      </trkpt>
      <trkpt lat="44.35098" lon="6.71051">
        <ele>1894.5</ele>
        <time>2021-09-23T09:36:18Z</time>
      </trkpt>
      <trkpt lat="44.35101" lon="6.71056">
        <ele>1895.6</ele>
        <time>2021-09-23T09:36:22Z</time>
      </trkpt>
      <trkpt lat="44.35103" lon="6.71061">
        <ele>1896.5</ele>
        <time>2021-09-23T09:36:26Z</time>
      </trkpt>
      <trkpt lat="44.35105" lon="6.71065">
        <ele>1897.3</ele>
        <time>2021-09-23T09:36:30Z</time>
      </trkpt>
      <trkpt lat="44.35108" lon="6.7107">
        <ele>1898.4</ele>
        <time>2021-09-23T09:36:34Z</time>
      </trkpt>
      <trkpt lat="44.3511" lon="6.71073">
        <ele>1899.1</ele>
        <time>2021-09-23T09:36:38Z</time>
      </trkpt>
      <trkpt lat="44.35114" lon="6.71076">
        <ele>1900</ele>
        <time>2021-09-23T09:36:42Z</time>
      </trkpt>
      <trkpt lat="44.35118" lon="6.71077">
        <ele>1900.7</ele>
        <time>2021-09-23T09:36:46Z</time>
      </trkpt>
      <trkpt lat="44.35122" lon="6.71078">
        <ele>1901.3</ele>
        <time>2021-09-23T09:36:50Z</time>
      </trkpt>
      <trkpt lat="44.35125" lon="6.71078">
        <ele>1901.7</ele>
        <time>2021-09-23T09:36:54Z</time>
      </trkpt>
      <trkpt lat="44.35129" lon="6.71077">
        <ele>1902.1</ele>
        <time>2021-09-23T09:36:58Z</time>
      </trkpt>
      <trkpt lat="44.35133" lon="6.71076">
        <ele>1902.5</ele>
        <time>2021-09-23T09:37:02Z</time>
      </trkpt>
      <trkpt lat="44.35137" lon="6.71074">
        <ele>1902.7</ele>
        <time>2021-09-23T09:37:06Z</time>
      </trkpt>
      <trkpt lat="44.35141" lon="6.71073">
        <ele>1903.1</ele>
        <time>2021-09-23T09:37:10Z</time>
      </trkpt>
      <trkpt lat="44.35145" lon="6.71072">
        <ele>1903.4</ele>
        <time>2021-09-23T09:37:14Z</time>
      </trkpt>
      <trkpt lat="44.35149" lon="6.71069">
        <ele>1903.5</ele>
        <time>2021-09-23T09:37:18Z</time>
      </trkpt>
      <trkpt lat="44.35152" lon="6.71067">
        <ele>1903.6</ele>
        <time>2021-09-23T09:37:22Z</time>
      </trkpt>
      <trkpt lat="44.35156" lon="6.71063">
        <ele>1903.5</ele>
        <time>2021-09-23T09:37:26Z</time>
      </trkpt>
      <trkpt lat="44.3516" lon="6.7106">
        <ele>1903.5</ele>
        <time>2021-09-23T09:37:30Z</time>
      </trkpt>
      <trkpt lat="44.35163" lon="6.71058">
        <ele>1903.6</ele>
        <time>2021-09-23T09:37:34Z</time>
      </trkpt>
      <trkpt lat="44.35167" lon="6.71058">
        <ele>1904.1</ele>
        <time>2021-09-23T09:37:38Z</time>
      </trkpt>
      <trkpt lat="44.3517" lon="6.71058">
        <ele>1905</ele>
        <time>2021-09-23T09:37:42Z</time>
      </trkpt>
      <trkpt lat="44.35174" lon="6.71061">
        <ele>1906.6</ele>
        <time>2021-09-23T09:37:46Z</time>
      </trkpt>
      <trkpt lat="44.35177" lon="6.71065">
        <ele>1908</ele>
        <time>2021-09-23T09:37:50Z</time>
      </trkpt>
      <trkpt lat="44.3518" lon="6.71068">
        <ele>1909.4</ele>
        <time>2021-09-23T09:37:54Z</time>
      </trkpt>
      <trkpt lat="44.35183" lon="6.71071">
        <ele>1910.7</ele>
        <time>2021-09-23T09:37:58Z</time>
      </trkpt>
      <trkpt lat="44.35187" lon="6.71071">
        <ele>1911.8</ele>
        <time>2021-09-23T09:38:02Z</time>
      </trkpt>
      <trkpt lat="44.35191" lon="6.7107">
        <ele>1912.8</ele>
        <time>2021-09-23T09:38:06Z</time>
      </trkpt>
      <trkpt lat="44.35194" lon="6.71067">
        <ele>1913.1</ele>
        <time>2021-09-23T09:38:10Z</time>
      </trkpt>
      <trkpt lat="44.35198" lon="6.71063">
        <ele>1913.6</ele>
        <time>2021-09-23T09:38:14Z</time>
      </trkpt>
      <trkpt lat="44.35201" lon="6.71059">
        <ele>1913.7</ele>
        <time>2021-09-23T09:38:18Z</time>
      </trkpt>
      <trkpt lat="44.35204" lon="6.71054">
        <ele>1913.7</ele>
        <time>2021-09-23T09:38:22Z</time>
      </trkpt>
      <trkpt lat="44.35207" lon="6.71049">
        <ele>1913.7</ele>
        <time>2021-09-23T09:38:26Z</time>
      </trkpt>
      <trkpt lat="44.35211" lon="6.71047">
        <ele>1914.4</ele>
        <time>2021-09-23T09:38:30Z</time>
      </trkpt>
      <trkpt lat="44.35214" lon="6.71048">
        <ele>1915.4</ele>
        <time>2021-09-23T09:38:34Z</time>
      </trkpt>
      <trkpt lat="44.35216" lon="6.71053">
        <ele>1916.8</ele>
        <time>2021-09-23T09:38:38Z</time>
      </trkpt>
      <trkpt lat="44.35217" lon="6.71059">
        <ele>1918.2</ele>
        <time>2021-09-23T09:38:42Z</time>
      </trkpt>
      <trkpt lat="44.35217" lon="6.71064">
        <ele>1919.1</ele>
        <time>2021-09-23T09:38:46Z</time>
      </trkpt>
      <trkpt lat="44.35217" lon="6.7107">
        <ele>1920.1</ele>
        <time>2021-09-23T09:38:50Z</time>
      </trkpt>
      <trkpt lat="44.35218" lon="6.71076">
        <ele>1921.5</ele>
        <time>2021-09-23T09:38:54Z</time>
      </trkpt>
      <trkpt lat="44.35219" lon="6.7108">
        <ele>1922.5</ele>
        <time>2021-09-23T09:38:58Z</time>
      </trkpt>
      <trkpt lat="44.35224" lon="6.7108">
        <ele>1923.9</ele>
        <time>2021-09-23T09:39:02Z</time>
      </trkpt>
      <trkpt lat="44.35227" lon="6.71079">
        <ele>1924.6</ele>
        <time>2021-09-23T09:39:06Z</time>
      </trkpt>
      <trkpt lat="44.35231" lon="6.71075">
        <ele>1925</ele>
        <time>2021-09-23T09:39:10Z</time>
      </trkpt>
      <trkpt lat="44.35234" lon="6.71071">
        <ele>1925.1</ele>
        <time>2021-09-23T09:39:14Z</time>
      </trkpt>
      <trkpt lat="44.35237" lon="6.71067">
        <ele>1925.2</ele>
        <time>2021-09-23T09:39:18Z</time>
      </trkpt>
      <trkpt lat="44.3524" lon="6.71063">
        <ele>1925.3</ele>
        <time>2021-09-23T09:39:22Z</time>
      </trkpt>
      <trkpt lat="44.35243" lon="6.7106">
        <ele>1925.6</ele>
        <time>2021-09-23T09:39:26Z</time>
      </trkpt>
      <trkpt lat="44.35247" lon="6.71057">
        <ele>1926.1</ele>
        <time>2021-09-23T09:39:30Z</time>
      </trkpt>
      <trkpt lat="44.3525" lon="6.71054">
        <ele>1926.4</ele>
        <time>2021-09-23T09:39:34Z</time>
      </trkpt>
      <trkpt lat="44.35253" lon="6.71051">
        <ele>1926.4</ele>
        <time>2021-09-23T09:39:38Z</time>
      </trkpt>
      <trkpt lat="44.35256" lon="6.71048">
        <ele>1926.4</ele>
        <time>2021-09-23T09:39:42Z</time>
      </trkpt>
      <trkpt lat="44.3526" lon="6.71045">
        <ele>1926.6</ele>
        <time>2021-09-23T09:39:46Z</time>
      </trkpt>
      <trkpt lat="44.35263" lon="6.71044">
        <ele>1926.9</ele>
        <time>2021-09-23T09:39:50Z</time>
      </trkpt>
      <trkpt lat="44.35267" lon="6.71042">
        <ele>1927.3</ele>
        <time>2021-09-23T09:39:54Z</time>
      </trkpt>
      <trkpt lat="44.35272" lon="6.71041">
        <ele>1928.1</ele>
        <time>2021-09-23T09:39:58Z</time>
      </trkpt>
      <trkpt lat="44.35276" lon="6.7104">
        <ele>1928.7</ele>
        <time>2021-09-23T09:40:02Z</time>
      </trkpt>
      <trkpt lat="44.3528" lon="6.71039">
        <ele>1929.3</ele>
        <time>2021-09-23T09:40:06Z</time>
      </trkpt>
      <trkpt lat="44.35284" lon="6.7104">
        <ele>1930.2</ele>
        <time>2021-09-23T09:40:10Z</time>
      </trkpt>
      <trkpt lat="44.35289" lon="6.7104">
        <ele>1931.2</ele>
        <time>2021-09-23T09:40:14Z</time>
      </trkpt>
      <trkpt lat="44.35293" lon="6.7104">
        <ele>1932</ele>
        <time>2021-09-23T09:40:18Z</time>
      </trkpt>
      <trkpt lat="44.35298" lon="6.71039">
        <ele>1932.7</ele>
        <time>2021-09-23T09:40:22Z</time>
      </trkpt>
      <trkpt lat="44.35302" lon="6.71038">
        <ele>1933.3</ele>
        <time>2021-09-23T09:40:26Z</time>
      </trkpt>
      <trkpt lat="44.35305" lon="6.71038">
        <ele>1933.9</ele>
        <time>2021-09-23T09:40:30Z</time>
      </trkpt>
      <trkpt lat="44.3531" lon="6.71039">
        <ele>1935.1</ele>
        <time>2021-09-23T09:40:34Z</time>
      </trkpt>
      <trkpt lat="44.35314" lon="6.7104">
        <ele>1936</ele>
        <time>2021-09-23T09:40:38Z</time>
      </trkpt>
      <trkpt lat="44.35318" lon="6.71038">
        <ele>1936.4</ele>
        <time>2021-09-23T09:40:42Z</time>
      </trkpt>
      <trkpt lat="44.35321" lon="6.71037">
        <ele>1936.8</ele>
        <time>2021-09-23T09:40:46Z</time>
      </trkpt>
      <trkpt lat="44.35326" lon="6.71036">
        <ele>1937.6</ele>
        <time>2021-09-23T09:40:50Z</time>
      </trkpt>
      <trkpt lat="44.35329" lon="6.71034">
        <ele>1937.9</ele>
        <time>2021-09-23T09:40:54Z</time>
      </trkpt>
      <trkpt lat="44.35334" lon="6.71032">
        <ele>1938.4</ele>
        <time>2021-09-23T09:40:58Z</time>
      </trkpt>
      <trkpt lat="44.35338" lon="6.7103">
        <ele>1938</ele>
        <time>2021-09-23T09:41:02Z</time>
      </trkpt>
      <trkpt lat="44.35342" lon="6.71031">
        <ele>1938.2</ele>
        <time>2021-09-23T09:41:06Z</time>
      </trkpt>
      <trkpt lat="44.35345" lon="6.71032">
        <ele>1938.4</ele>
        <time>2021-09-23T09:41:10Z</time>
      </trkpt>
      <trkpt lat="44.35349" lon="6.71034">
        <ele>1938.7</ele>
        <time>2021-09-23T09:41:14Z</time>
      </trkpt>
      <trkpt lat="44.35353" lon="6.71035">
        <ele>1938.9</ele>
        <time>2021-09-23T09:41:18Z</time>
      </trkpt>
      <trkpt lat="44.35357" lon="6.71037">
        <ele>1939.2</ele>
        <time>2021-09-23T09:41:22Z</time>
      </trkpt>
      <trkpt lat="44.35361" lon="6.7104">
        <ele>1939.7</ele>
        <time>2021-09-23T09:41:26Z</time>
      </trkpt>
      <trkpt lat="44.35365" lon="6.71043">
        <ele>1940.2</ele>
        <time>2021-09-23T09:41:30Z</time>
      </trkpt>
      <trkpt lat="44.35368" lon="6.71044">
        <ele>1940.4</ele>
        <time>2021-09-23T09:41:34Z</time>
      </trkpt>
      <trkpt lat="44.35372" lon="6.71046">
        <ele>1940.7</ele>
        <time>2021-09-23T09:41:38Z</time>
      </trkpt>
      <trkpt lat="44.35376" lon="6.7105">
        <ele>1941.4</ele>
        <time>2021-09-23T09:41:42Z</time>
      </trkpt>
      <trkpt lat="44.35379" lon="6.71056">
        <ele>1942.4</ele>
        <time>2021-09-23T09:41:46Z</time>
      </trkpt>
      <trkpt lat="44.35379" lon="6.71061">
        <ele>1943.2</ele>
        <time>2021-09-23T09:41:50Z</time>
      </trkpt>
      <trkpt lat="44.35378" lon="6.71067">
        <ele>1944.3</ele>
        <time>2021-09-23T09:41:54Z</time>
      </trkpt>
      <trkpt lat="44.35375" lon="6.7107">
        <ele>1944.8</ele>
        <time>2021-09-23T09:41:58Z</time>
      </trkpt>
      <trkpt lat="44.3537" lon="6.71072">
        <ele>1945.1</ele>
        <time>2021-09-23T09:42:02Z</time>
      </trkpt>
      <trkpt lat="44.35366" lon="6.71074">
        <ele>1945.4</ele>
        <time>2021-09-23T09:42:06Z</time>
      </trkpt>
      <trkpt lat="44.35361" lon="6.71076">
        <ele>1945.8</ele>
        <time>2021-09-23T09:42:10Z</time>
      </trkpt>
      <trkpt lat="44.35356" lon="6.71079">
        <ele>1946.3</ele>
        <time>2021-09-23T09:42:14Z</time>
      </trkpt>
      <trkpt lat="44.35352" lon="6.71083">
        <ele>1946.9</ele>
        <time>2021-09-23T09:42:18Z</time>
      </trkpt>
      <trkpt lat="44.35348" lon="6.71088">
        <ele>1947.9</ele>
        <time>2021-09-23T09:42:22Z</time>
      </trkpt>
      <trkpt lat="44.35344" lon="6.71093">
        <ele>1948.9</ele>
        <time>2021-09-23T09:42:26Z</time>
      </trkpt>
      <trkpt lat="44.35341" lon="6.71099">
        <ele>1950.1</ele>
        <time>2021-09-23T09:42:30Z</time>
      </trkpt>
      <trkpt lat="44.35337" lon="6.71105">
        <ele>1951.3</ele>
        <time>2021-09-23T09:42:34Z</time>
      </trkpt>
      <trkpt lat="44.35334" lon="6.71111">
        <ele>1952.6</ele>
        <time>2021-09-23T09:42:38Z</time>
      </trkpt>
      <trkpt lat="44.3533" lon="6.71117">
        <ele>1953.3</ele>
        <time>2021-09-23T09:42:42Z</time>
      </trkpt>
      <trkpt lat="44.35325" lon="6.71123">
        <ele>1953.6</ele>
        <time>2021-09-23T09:42:46Z</time>
      </trkpt>
      <trkpt lat="44.3532" lon="6.71128">
        <ele>1953.8</ele>
        <time>2021-09-23T09:42:50Z</time>
      </trkpt>
      <trkpt lat="44.35315" lon="6.71134">
        <ele>1954.2</ele>
        <time>2021-09-23T09:42:54Z</time>
      </trkpt>
      <trkpt lat="44.3531" lon="6.71139">
        <ele>1954.3</ele>
        <time>2021-09-23T09:42:58Z</time>
      </trkpt>
      <trkpt lat="44.35306" lon="6.71144">
        <ele>1954.7</ele>
        <time>2021-09-23T09:43:02Z</time>
      </trkpt>
      <trkpt lat="44.35302" lon="6.71151">
        <ele>1955.5</ele>
        <time>2021-09-23T09:43:06Z</time>
      </trkpt>
      <trkpt lat="44.35298" lon="6.71156">
        <ele>1955.8</ele>
        <time>2021-09-23T09:43:10Z</time>
      </trkpt>
      <trkpt lat="44.35295" lon="6.71161">
        <ele>1956.4</ele>
        <time>2021-09-23T09:43:14Z</time>
      </trkpt>
      <trkpt lat="44.35293" lon="6.71165">
        <ele>1956.9</ele>
        <time>2021-09-23T09:43:18Z</time>
      </trkpt>
      <trkpt lat="44.35291" lon="6.7117">
        <ele>1957.5</ele>
        <time>2021-09-23T09:43:22Z</time>
      </trkpt>
      <trkpt lat="44.35288" lon="6.71176">
        <ele>1958.1</ele>
        <time>2021-09-23T09:43:26Z</time>
      </trkpt>
      <trkpt lat="44.35285" lon="6.71181">
        <ele>1958.5</ele>
        <time>2021-09-23T09:43:30Z</time>
      </trkpt>
      <trkpt lat="44.35283" lon="6.71186">
        <ele>1959.1</ele>
        <time>2021-09-23T09:43:34Z</time>
      </trkpt>
      <trkpt lat="44.35281" lon="6.71192">
        <ele>1959.8</ele>
        <time>2021-09-23T09:43:38Z</time>
      </trkpt>
      <trkpt lat="44.35279" lon="6.71198">
        <ele>1960.5</ele>
        <time>2021-09-23T09:43:42Z</time>
      </trkpt>
      <trkpt lat="44.35281" lon="6.71204">
        <ele>1962</ele>
        <time>2021-09-23T09:43:46Z</time>
      </trkpt>
      <trkpt lat="44.35285" lon="6.71208">
        <ele>1963.4</ele>
        <time>2021-09-23T09:43:50Z</time>
      </trkpt>
      <trkpt lat="44.35291" lon="6.71208">
        <ele>1964.6</ele>
        <time>2021-09-23T09:43:54Z</time>
      </trkpt>
      <trkpt lat="44.35296" lon="6.71207">
        <ele>1965.3</ele>
        <time>2021-09-23T09:43:58Z</time>
      </trkpt>
      <trkpt lat="44.35301" lon="6.71206">
        <ele>1966</ele>
        <time>2021-09-23T09:44:02Z</time>
      </trkpt>
      <trkpt lat="44.35306" lon="6.71205">
        <ele>1966.8</ele>
        <time>2021-09-23T09:44:06Z</time>
      </trkpt>
      <trkpt lat="44.3531" lon="6.71203">
        <ele>1967.1</ele>
        <time>2021-09-23T09:44:10Z</time>
      </trkpt>
      <trkpt lat="44.35315" lon="6.71203">
        <ele>1968</ele>
        <time>2021-09-23T09:44:14Z</time>
      </trkpt>
      <trkpt lat="44.3532" lon="6.71202">
        <ele>1968.8</ele>
        <time>2021-09-23T09:44:18Z</time>
      </trkpt>
      <trkpt lat="44.35327" lon="6.71202">
        <ele>1970</ele>
        <time>2021-09-23T09:44:22Z</time>
      </trkpt>
      <trkpt lat="44.35334" lon="6.71201">
        <ele>1970.9</ele>
        <time>2021-09-23T09:44:26Z</time>
      </trkpt>
      <trkpt lat="44.3534" lon="6.71201">
        <ele>1970.3</ele>
        <time>2021-09-23T09:44:30Z</time>
      </trkpt>
      <trkpt lat="44.35344" lon="6.71205">
        <ele>1970.7</ele>
        <time>2021-09-23T09:44:34Z</time>
      </trkpt>
      <trkpt lat="44.35345" lon="6.71212">
        <ele>1972</ele>
        <time>2021-09-23T09:44:38Z</time>
      </trkpt>
      <trkpt lat="44.35343" lon="6.71218">
        <ele>1973.4</ele>
        <time>2021-09-23T09:44:42Z</time>
      </trkpt>
      <trkpt lat="44.35338" lon="6.7122">
        <ele>1974.4</ele>
        <time>2021-09-23T09:44:46Z</time>
      </trkpt>
      <trkpt lat="44.35333" lon="6.71223">
        <ele>1975.4</ele>
        <time>2021-09-23T09:44:50Z</time>
      </trkpt>
      <trkpt lat="44.3533" lon="6.71226">
        <ele>1975.5</ele>
        <time>2021-09-23T09:44:54Z</time>
      </trkpt>
      <trkpt lat="44.35326" lon="6.71229">
        <ele>1975.3</ele>
        <time>2021-09-23T09:44:58Z</time>
      </trkpt>
      <trkpt lat="44.35322" lon="6.71232">
        <ele>1975.1</ele>
        <time>2021-09-23T09:45:02Z</time>
      </trkpt>
      <trkpt lat="44.35319" lon="6.71236">
        <ele>1975.3</ele>
        <time>2021-09-23T09:45:06Z</time>
      </trkpt>
      <trkpt lat="44.35319" lon="6.71242">
        <ele>1976.5</ele>
        <time>2021-09-23T09:45:10Z</time>
      </trkpt>
      <trkpt lat="44.35321" lon="6.71248">
        <ele>1978.1</ele>
        <time>2021-09-23T09:45:14Z</time>
      </trkpt>
      <trkpt lat="44.35325" lon="6.7125">
        <ele>1979.3</ele>
        <time>2021-09-23T09:45:18Z</time>
      </trkpt>
      <trkpt lat="44.35329" lon="6.71249">
        <ele>1979.9</ele>
        <time>2021-09-23T09:45:22Z</time>
      </trkpt>
      <trkpt lat="44.35333" lon="6.71249">
        <ele>1980.7</ele>
        <time>2021-09-23T09:45:26Z</time>
      </trkpt>
      <trkpt lat="44.35338" lon="6.71248">
        <ele>1980</ele>
        <time>2021-09-23T09:45:30Z</time>
      </trkpt>
      <trkpt lat="44.35343" lon="6.71247">
        <ele>1979.2</ele>
        <time>2021-09-23T09:45:34Z</time>
      </trkpt>
      <trkpt lat="44.35347" lon="6.71247">
        <ele>1978.8</ele>
        <time>2021-09-23T09:45:38Z</time>
      </trkpt>
      <trkpt lat="44.3535" lon="6.71247">
        <ele>1978.4</ele>
        <time>2021-09-23T09:45:42Z</time>
      </trkpt>
      <trkpt lat="44.35355" lon="6.71248">
        <ele>1978</ele>
        <time>2021-09-23T09:45:46Z</time>
      </trkpt>
      <trkpt lat="44.35359" lon="6.71249">
        <ele>1977.7</ele>
        <time>2021-09-23T09:45:50Z</time>
      </trkpt>
      <trkpt lat="44.35362" lon="6.7125">
        <ele>1977.6</ele>
        <time>2021-09-23T09:45:54Z</time>
      </trkpt>
      <trkpt lat="44.35365" lon="6.71254">
        <ele>1977.9</ele>
        <time>2021-09-23T09:45:58Z</time>
      </trkpt>
      <trkpt lat="44.35367" lon="6.7126">
        <ele>1978.7</ele>
        <time>2021-09-23T09:46:02Z</time>
      </trkpt>
      <trkpt lat="44.35367" lon="6.71265">
        <ele>1979.6</ele>
        <time>2021-09-23T09:46:06Z</time>
      </trkpt>
      <trkpt lat="44.35365" lon="6.7127">
        <ele>1980.7</ele>
        <time>2021-09-23T09:46:10Z</time>
      </trkpt>
      <trkpt lat="44.35362" lon="6.71276">
        <ele>1982.1</ele>
        <time>2021-09-23T09:46:14Z</time>
      </trkpt>
      <trkpt lat="44.35361" lon="6.71281">
        <ele>1983</ele>
        <time>2021-09-23T09:46:18Z</time>
      </trkpt>
      <trkpt lat="44.35358" lon="6.71285">
        <ele>1984</ele>
        <time>2021-09-23T09:46:22Z</time>
      </trkpt>
      <trkpt lat="44.35356" lon="6.7129">
        <ele>1985</ele>
        <time>2021-09-23T09:46:26Z</time>
      </trkpt>
      <trkpt lat="44.35355" lon="6.71295">
        <ele>1985.9</ele>
        <time>2021-09-23T09:46:30Z</time>
      </trkpt>
      <trkpt lat="44.35353" lon="6.713">
        <ele>1986.8</ele>
        <time>2021-09-23T09:46:34Z</time>
      </trkpt>
      <trkpt lat="44.35352" lon="6.71305">
        <ele>1987.7</ele>
        <time>2021-09-23T09:46:38Z</time>
      </trkpt>
      <trkpt lat="44.35349" lon="6.7131">
        <ele>1988.7</ele>
        <time>2021-09-23T09:46:42Z</time>
      </trkpt>
      <trkpt lat="44.35347" lon="6.71314">
        <ele>1989.5</ele>
        <time>2021-09-23T09:46:46Z</time>
      </trkpt>
      <trkpt lat="44.35346" lon="6.7132">
        <ele>1990.5</ele>
        <time>2021-09-23T09:46:50Z</time>
      </trkpt>
      <trkpt lat="44.35346" lon="6.71326">
        <ele>1991.4</ele>
        <time>2021-09-23T09:46:54Z</time>
      </trkpt>
      <trkpt lat="44.35348" lon="6.7133">
        <ele>1991.9</ele>
        <time>2021-09-23T09:46:58Z</time>
      </trkpt>
      <trkpt lat="44.35351" lon="6.71333">
        <ele>1992.3</ele>
        <time>2021-09-23T09:47:02Z</time>
      </trkpt>
      <trkpt lat="44.35354" lon="6.71334">
        <ele>1992.4</ele>
        <time>2021-09-23T09:47:06Z</time>
      </trkpt>
      <trkpt lat="44.35358" lon="6.71336">
        <ele>1992.6</ele>
        <time>2021-09-23T09:47:10Z</time>
      </trkpt>
      <trkpt lat="44.35362" lon="6.71339">
        <ele>1993</ele>
        <time>2021-09-23T09:47:14Z</time>
      </trkpt>
      <trkpt lat="44.35366" lon="6.71341">
        <ele>1993.3</ele>
        <time>2021-09-23T09:47:18Z</time>
      </trkpt>
      <trkpt lat="44.35369" lon="6.71345">
        <ele>1993.9</ele>
        <time>2021-09-23T09:47:22Z</time>
      </trkpt>
      <trkpt lat="44.35372" lon="6.7135">
        <ele>1994.8</ele>
        <time>2021-09-23T09:47:26Z</time>
      </trkpt>
      <trkpt lat="44.35375" lon="6.71355">
        <ele>1995.7</ele>
        <time>2021-09-23T09:47:30Z</time>
      </trkpt>
      <trkpt lat="44.35378" lon="6.7136">
        <ele>1996.5</ele>
        <time>2021-09-23T09:47:34Z</time>
      </trkpt>
      <trkpt lat="44.35382" lon="6.71363">
        <ele>1997</ele>
        <time>2021-09-23T09:47:38Z</time>
      </trkpt>
      <trkpt lat="44.35387" lon="6.71366">
        <ele>1997.5</ele>
        <time>2021-09-23T09:47:42Z</time>
      </trkpt>
      <trkpt lat="44.35392" lon="6.71368">
        <ele>1997.7</ele>
        <time>2021-09-23T09:47:46Z</time>
      </trkpt>
      <trkpt lat="44.35398" lon="6.71372">
        <ele>1998.4</ele>
        <time>2021-09-23T09:47:50Z</time>
      </trkpt>
      <trkpt lat="44.35403" lon="6.71377">
        <ele>1999.2</ele>
        <time>2021-09-23T09:47:54Z</time>
      </trkpt>
      <trkpt lat="44.35406" lon="6.71382">
        <ele>2000.2</ele>
        <time>2021-09-23T09:47:58Z</time>
      </trkpt>
      <trkpt lat="44.3541" lon="6.71387">
        <ele>2001.1</ele>
        <time>2021-09-23T09:48:02Z</time>
      </trkpt>
      <trkpt lat="44.35412" lon="6.71393">
        <ele>2002.3</ele>
        <time>2021-09-23T09:48:06Z</time>
      </trkpt>
      <trkpt lat="44.35415" lon="6.71399">
        <ele>2003.4</ele>
        <time>2021-09-23T09:48:10Z</time>
      </trkpt>
      <trkpt lat="44.35416" lon="6.71405">
        <ele>2004.6</ele>
        <time>2021-09-23T09:48:14Z</time>
      </trkpt>
      <trkpt lat="44.35417" lon="6.71412">
        <ele>2006</ele>
        <time>2021-09-23T09:48:18Z</time>
      </trkpt>
      <trkpt lat="44.35417" lon="6.71418">
        <ele>2007.2</ele>
        <time>2021-09-23T09:48:22Z</time>
      </trkpt>
      <trkpt lat="44.35416" lon="6.71425">
        <ele>2008.4</ele>
        <time>2021-09-23T09:48:26Z</time>
      </trkpt>
      <trkpt lat="44.35416" lon="6.7143">
        <ele>2009.3</ele>
        <time>2021-09-23T09:48:30Z</time>
      </trkpt>
      <trkpt lat="44.35416" lon="6.71434">
        <ele>2009.9</ele>
        <time>2021-09-23T09:48:34Z</time>
      </trkpt>
      <trkpt lat="44.35416" lon="6.71438">
        <ele>2010.6</ele>
        <time>2021-09-23T09:48:38Z</time>
      </trkpt>
      <trkpt lat="44.35415" lon="6.71443">
        <ele>2011.5</ele>
        <time>2021-09-23T09:48:42Z</time>
      </trkpt>
      <trkpt lat="44.35414" lon="6.71447">
        <ele>2012.2</ele>
        <time>2021-09-23T09:48:46Z</time>
      </trkpt>
      <trkpt lat="44.35413" lon="6.71451">
        <ele>2012.9</ele>
        <time>2021-09-23T09:48:50Z</time>
      </trkpt>
      <trkpt lat="44.35412" lon="6.71455">
        <ele>2013.6</ele>
        <time>2021-09-23T09:48:54Z</time>
      </trkpt>
      <trkpt lat="44.3541" lon="6.71458">
        <ele>2014.1</ele>
        <time>2021-09-23T09:48:58Z</time>
      </trkpt>
      <trkpt lat="44.35409" lon="6.71461">
        <ele>2014.7</ele>
        <time>2021-09-23T09:49:02Z</time>
      </trkpt>
      <trkpt lat="44.35407" lon="6.71464">
        <ele>2015.3</ele>
        <time>2021-09-23T09:49:06Z</time>
      </trkpt>
      <trkpt lat="44.35406" lon="6.71467">
        <ele>2015.8</ele>
        <time>2021-09-23T09:49:10Z</time>
      </trkpt>
      <trkpt lat="44.35404" lon="6.7147">
        <ele>2016.4</ele>
        <time>2021-09-23T09:49:14Z</time>
      </trkpt>
      <trkpt lat="44.35403" lon="6.71473">
        <ele>2017</ele>
        <time>2021-09-23T09:49:18Z</time>
      </trkpt>
      <trkpt lat="44.35401" lon="6.71476">
        <ele>2017.6</ele>
        <time>2021-09-23T09:49:22Z</time>
      </trkpt>
      <trkpt lat="44.35399" lon="6.71479">
        <ele>2018.2</ele>
        <time>2021-09-23T09:49:26Z</time>
      </trkpt>
      <trkpt lat="44.35398" lon="6.71482">
        <ele>2018.7</ele>
        <time>2021-09-23T09:49:30Z</time>
      </trkpt>
      <trkpt lat="44.35396" lon="6.71486">
        <ele>2019.5</ele>
        <time>2021-09-23T09:49:38Z</time>
      </trkpt>
      <trkpt lat="44.35395" lon="6.71489">
        <ele>2020.1</ele>
        <time>2021-09-23T09:49:42Z</time>
      </trkpt>
      <trkpt lat="44.35393" lon="6.71492">
        <ele>2020.7</ele>
        <time>2021-09-23T09:49:46Z</time>
      </trkpt>
      <trkpt lat="44.35392" lon="6.71495">
        <ele>2021.3</ele>
        <time>2021-09-23T09:49:50Z</time>
      </trkpt>
      <trkpt lat="44.35391" lon="6.71499">
        <ele>2022.1</ele>
        <time>2021-09-23T09:49:54Z</time>
      </trkpt>
      <trkpt lat="44.35389" lon="6.71502">
        <ele>2022.5</ele>
        <time>2021-09-23T09:49:58Z</time>
      </trkpt>
      <trkpt lat="44.35388" lon="6.71505">
        <ele>2022.7</ele>
        <time>2021-09-23T09:50:02Z</time>
      </trkpt>
      <trkpt lat="44.35386" lon="6.71508">
        <ele>2023.1</ele>
        <time>2021-09-23T09:50:06Z</time>
      </trkpt>
      <trkpt lat="44.35386" lon="6.71512">
        <ele>2023.4</ele>
        <time>2021-09-23T09:50:10Z</time>
      </trkpt>
      <trkpt lat="44.35384" lon="6.71514">
        <ele>2023.7</ele>
        <time>2021-09-23T09:50:14Z</time>
      </trkpt>
      <trkpt lat="44.35382" lon="6.71517">
        <ele>2024.1</ele>
        <time>2021-09-23T09:50:18Z</time>
      </trkpt>
      <trkpt lat="44.35381" lon="6.7152">
        <ele>2024.5</ele>
        <time>2021-09-23T09:50:22Z</time>
      </trkpt>
      <trkpt lat="44.35379" lon="6.71524">
        <ele>2025</ele>
        <time>2021-09-23T09:50:30Z</time>
      </trkpt>
      <trkpt lat="44.35378" lon="6.71528">
        <ele>2025.5</ele>
        <time>2021-09-23T09:50:34Z</time>
      </trkpt>
      <trkpt lat="44.35376" lon="6.7153">
        <ele>2025.9</ele>
        <time>2021-09-23T09:50:38Z</time>
      </trkpt>
      <trkpt lat="44.35374" lon="6.71533">
        <ele>2026.5</ele>
        <time>2021-09-23T09:50:42Z</time>
      </trkpt>
      <trkpt lat="44.35372" lon="6.71536">
        <ele>2027.1</ele>
        <time>2021-09-23T09:50:46Z</time>
      </trkpt>
      <trkpt lat="44.3537" lon="6.71539">
        <ele>2027.7</ele>
        <time>2021-09-23T09:50:50Z</time>
      </trkpt>
      <trkpt lat="44.35368" lon="6.71542">
        <ele>2028.3</ele>
        <time>2021-09-23T09:50:54Z</time>
      </trkpt>
      <trkpt lat="44.35366" lon="6.71544">
        <ele>2028.9</ele>
        <time>2021-09-23T09:50:58Z</time>
      </trkpt>
      <trkpt lat="44.35364" lon="6.71548">
        <ele>2029.7</ele>
        <time>2021-09-23T09:51:02Z</time>
      </trkpt>
      <trkpt lat="44.35362" lon="6.71552">
        <ele>2030.6</ele>
        <time>2021-09-23T09:51:06Z</time>
      </trkpt>
      <trkpt lat="44.35361" lon="6.71554">
        <ele>2031</ele>
        <time>2021-09-23T09:51:10Z</time>
      </trkpt>
      <trkpt lat="44.35359" lon="6.71559">
        <ele>2032.1</ele>
        <time>2021-09-23T09:51:18Z</time>
      </trkpt>
      <trkpt lat="44.35358" lon="6.71562">
        <ele>2032.7</ele>
        <time>2021-09-23T09:51:22Z</time>
      </trkpt>
      <trkpt lat="44.35357" lon="6.71565">
        <ele>2033.4</ele>
        <time>2021-09-23T09:51:26Z</time>
      </trkpt>
      <trkpt lat="44.35355" lon="6.71568">
        <ele>2034.2</ele>
        <time>2021-09-23T09:51:30Z</time>
      </trkpt>
      <trkpt lat="44.35354" lon="6.71572">
        <ele>2035.1</ele>
        <time>2021-09-23T09:51:34Z</time>
      </trkpt>
      <trkpt lat="44.35353" lon="6.71575">
        <ele>2035.7</ele>
        <time>2021-09-23T09:51:38Z</time>
      </trkpt>
      <trkpt lat="44.35352" lon="6.71578">
        <ele>2036.5</ele>
        <time>2021-09-23T09:51:42Z</time>
      </trkpt>
      <trkpt lat="44.35352" lon="6.71581">
        <ele>2036.9</ele>
        <time>2021-09-23T09:51:46Z</time>
      </trkpt>
      <trkpt lat="44.35351" lon="6.71585">
        <ele>2037.7</ele>
        <time>2021-09-23T09:51:50Z</time>
      </trkpt>
      <trkpt lat="44.3535" lon="6.71589">
        <ele>2038.2</ele>
        <time>2021-09-23T09:51:54Z</time>
      </trkpt>
      <trkpt lat="44.35348" lon="6.71593">
        <ele>2038.9</ele>
        <time>2021-09-23T09:51:58Z</time>
      </trkpt>
      <trkpt lat="44.35346" lon="6.71596">
        <ele>2039.6</ele>
        <time>2021-09-23T09:52:02Z</time>
      </trkpt>
      <trkpt lat="44.35345" lon="6.716">
        <ele>2040.1</ele>
        <time>2021-09-23T09:52:06Z</time>
      </trkpt>
      <trkpt lat="44.35345" lon="6.71604">
        <ele>2040.4</ele>
        <time>2021-09-23T09:52:10Z</time>
      </trkpt>
      <trkpt lat="44.35344" lon="6.7161">
        <ele>2041.1</ele>
        <time>2021-09-23T09:52:14Z</time>
      </trkpt>
      <trkpt lat="44.35343" lon="6.71613">
        <ele>2041.5</ele>
        <time>2021-09-23T09:52:18Z</time>
      </trkpt>
      <trkpt lat="44.35342" lon="6.71618">
        <ele>2042.1</ele>
        <time>2021-09-23T09:52:22Z</time>
      </trkpt>
      <trkpt lat="44.35341" lon="6.71623">
        <ele>2042.7</ele>
        <time>2021-09-23T09:52:26Z</time>
      </trkpt>
      <trkpt lat="44.35339" lon="6.71627">
        <ele>2043.6</ele>
        <time>2021-09-23T09:52:30Z</time>
      </trkpt>
      <trkpt lat="44.35338" lon="6.71631">
        <ele>2044.1</ele>
        <time>2021-09-23T09:52:34Z</time>
      </trkpt>
      <trkpt lat="44.35336" lon="6.71635">
        <ele>2045</ele>
        <time>2021-09-23T09:52:38Z</time>
      </trkpt>
      <trkpt lat="44.35334" lon="6.71639">
        <ele>2045.8</ele>
        <time>2021-09-23T09:52:42Z</time>
      </trkpt>
      <trkpt lat="44.35332" lon="6.71644">
        <ele>2046.6</ele>
        <time>2021-09-23T09:52:46Z</time>
      </trkpt>
      <trkpt lat="44.3533" lon="6.71648">
        <ele>2047.2</ele>
        <time>2021-09-23T09:52:50Z</time>
      </trkpt>
      <trkpt lat="44.35329" lon="6.71652">
        <ele>2047.7</ele>
        <time>2021-09-23T09:52:54Z</time>
      </trkpt>
      <trkpt lat="44.35327" lon="6.71656">
        <ele>2048.4</ele>
        <time>2021-09-23T09:52:58Z</time>
      </trkpt>
      <trkpt lat="44.35325" lon="6.71659">
        <ele>2049</ele>
        <time>2021-09-23T09:53:02Z</time>
      </trkpt>
      <trkpt lat="44.35324" lon="6.71662">
        <ele>2049.4</ele>
        <time>2021-09-23T09:53:06Z</time>
      </trkpt>
      <trkpt lat="44.35323" lon="6.71667">
        <ele>2050</ele>
        <time>2021-09-23T09:53:10Z</time>
      </trkpt>
      <trkpt lat="44.35322" lon="6.71671">
        <ele>2050.3</ele>
        <time>2021-09-23T09:53:14Z</time>
      </trkpt>
      <trkpt lat="44.35322" lon="6.71675">
        <ele>2050.5</ele>
        <time>2021-09-23T09:53:18Z</time>
      </trkpt>
      <trkpt lat="44.35322" lon="6.7168">
        <ele>2050.6</ele>
        <time>2021-09-23T09:53:22Z</time>
      </trkpt>
      <trkpt lat="44.35322" lon="6.71685">
        <ele>2050.8</ele>
        <time>2021-09-23T09:53:26Z</time>
      </trkpt>
      <trkpt lat="44.35321" lon="6.71689">
        <ele>2051.2</ele>
        <time>2021-09-23T09:53:30Z</time>
      </trkpt>
      <trkpt lat="44.3532" lon="6.71694">
        <ele>2051.6</ele>
        <time>2021-09-23T09:53:34Z</time>
      </trkpt>
      <trkpt lat="44.35319" lon="6.71697">
        <ele>2051.9</ele>
        <time>2021-09-23T09:53:38Z</time>
      </trkpt>
      <trkpt lat="44.35319" lon="6.71701">
        <ele>2052.1</ele>
        <time>2021-09-23T09:57:42Z</time>
      </trkpt>
      <trkpt lat="44.35318" lon="6.71706">
        <ele>2052.5</ele>
        <time>2021-09-23T09:57:46Z</time>
      </trkpt>
      <trkpt lat="44.35316" lon="6.71711">
        <ele>2053.2</ele>
        <time>2021-09-23T09:57:50Z</time>
      </trkpt>
      <trkpt lat="44.35314" lon="6.71716">
        <ele>2053.9</ele>
        <time>2021-09-23T09:57:54Z</time>
      </trkpt>
      <trkpt lat="44.35313" lon="6.7172">
        <ele>2054.3</ele>
        <time>2021-09-23T09:57:58Z</time>
      </trkpt>
      <trkpt lat="44.35311" lon="6.71726">
        <ele>2055</ele>
        <time>2021-09-23T09:58:02Z</time>
      </trkpt>
      <trkpt lat="44.35309" lon="6.71733">
        <ele>2055.9</ele>
        <time>2021-09-23T09:58:06Z</time>
      </trkpt>
      <trkpt lat="44.35308" lon="6.71741">
        <ele>2056.5</ele>
        <time>2021-09-23T09:58:10Z</time>
      </trkpt>
      <trkpt lat="44.35307" lon="6.71748">
        <ele>2057.2</ele>
        <time>2021-09-23T09:58:14Z</time>
      </trkpt>
      <trkpt lat="44.35307" lon="6.71756">
        <ele>2058</ele>
        <time>2021-09-23T09:58:18Z</time>
      </trkpt>
      <trkpt lat="44.35307" lon="6.71763">
        <ele>2058.8</ele>
        <time>2021-09-23T09:58:22Z</time>
      </trkpt>
      <trkpt lat="44.35308" lon="6.71771">
        <ele>2059.4</ele>
        <time>2021-09-23T09:58:26Z</time>
      </trkpt>
      <trkpt lat="44.35309" lon="6.71777">
        <ele>2059.8</ele>
        <time>2021-09-23T09:58:30Z</time>
      </trkpt>
      <trkpt lat="44.3531" lon="6.71783">
        <ele>2060.2</ele>
        <time>2021-09-23T09:58:34Z</time>
      </trkpt>
      <trkpt lat="44.35312" lon="6.71789">
        <ele>2060.3</ele>
        <time>2021-09-23T09:58:38Z</time>
      </trkpt>
      <trkpt lat="44.35312" lon="6.71795">
        <ele>2061</ele>
        <time>2021-09-23T09:58:42Z</time>
      </trkpt>
      <trkpt lat="44.35311" lon="6.71801">
        <ele>2062</ele>
        <time>2021-09-23T09:58:46Z</time>
      </trkpt>
      <trkpt lat="44.35312" lon="6.71808">
        <ele>2062.5</ele>
        <time>2021-09-23T09:58:50Z</time>
      </trkpt>
      <trkpt lat="44.35311" lon="6.71815">
        <ele>2063.6</ele>
        <time>2021-09-23T09:58:54Z</time>
      </trkpt>
      <trkpt lat="44.35311" lon="6.71823">
        <ele>2064.5</ele>
        <time>2021-09-23T09:58:58Z</time>
      </trkpt>
      <trkpt lat="44.35311" lon="6.71831">
        <ele>2065.4</ele>
        <time>2021-09-23T09:59:02Z</time>
      </trkpt>
      <trkpt lat="44.3531" lon="6.71837">
        <ele>2066</ele>
        <time>2021-09-23T09:59:06Z</time>
      </trkpt>
      <trkpt lat="44.3531" lon="6.71845">
        <ele>2066.1</ele>
        <time>2021-09-23T09:59:10Z</time>
      </trkpt>
      <trkpt lat="44.3531" lon="6.71851">
        <ele>2066.2</ele>
        <time>2021-09-23T09:59:14Z</time>
      </trkpt>
      <trkpt lat="44.3531" lon="6.71858">
        <ele>2066.3</ele>
        <time>2021-09-23T09:59:18Z</time>
      </trkpt>
      <trkpt lat="44.35311" lon="6.71865">
        <ele>2066</ele>
        <time>2021-09-23T09:59:22Z</time>
      </trkpt>
      <trkpt lat="44.35312" lon="6.71871">
        <ele>2065.8</ele>
        <time>2021-09-23T09:59:26Z</time>
      </trkpt>
      <trkpt lat="44.35314" lon="6.71878">
        <ele>2065.1</ele>
        <time>2021-09-23T09:59:30Z</time>
      </trkpt>
      <trkpt lat="44.35315" lon="6.71885">
        <ele>2064.8</ele>
        <time>2021-09-23T09:59:34Z</time>
      </trkpt>
      <trkpt lat="44.35315" lon="6.71892">
        <ele>2064.9</ele>
        <time>2021-09-23T09:59:38Z</time>
      </trkpt>
      <trkpt lat="44.35315" lon="6.719">
        <ele>2064.9</ele>
        <time>2021-09-23T09:59:42Z</time>
      </trkpt>
      <trkpt lat="44.35313" lon="6.71906">
        <ele>2065.7</ele>
        <time>2021-09-23T09:59:46Z</time>
      </trkpt>
      <trkpt lat="44.35312" lon="6.71913">
        <ele>2066.2</ele>
        <time>2021-09-23T09:59:50Z</time>
      </trkpt>
      <trkpt lat="44.35311" lon="6.71919">
        <ele>2066.6</ele>
        <time>2021-09-23T09:59:54Z</time>
      </trkpt>
      <trkpt lat="44.3531" lon="6.71926">
        <ele>2067.2</ele>
        <time>2021-09-23T09:59:58Z</time>
      </trkpt>
      <trkpt lat="44.35308" lon="6.71934">
        <ele>2068.2</ele>
        <time>2021-09-23T10:00:02Z</time>
      </trkpt>
      <trkpt lat="44.35307" lon="6.71941">
        <ele>2068.8</ele>
        <time>2021-09-23T10:00:06Z</time>
      </trkpt>
      <trkpt lat="44.35305" lon="6.71948">
        <ele>2069.8</ele>
        <time>2021-09-23T10:00:10Z</time>
      </trkpt>
      <trkpt lat="44.35303" lon="6.71956">
        <ele>2070.8</ele>
        <time>2021-09-23T10:00:14Z</time>
      </trkpt>
      <trkpt lat="44.35302" lon="6.71963">
        <ele>2071.4</ele>
        <time>2021-09-23T10:00:18Z</time>
      </trkpt>
      <trkpt lat="44.35301" lon="6.71969">
        <ele>2071.9</ele>
        <time>2021-09-23T10:00:22Z</time>
      </trkpt>
      <trkpt lat="44.353" lon="6.71976">
        <ele>2072.5</ele>
        <time>2021-09-23T10:00:26Z</time>
      </trkpt>
      <trkpt lat="44.35298" lon="6.71982">
        <ele>2073.5</ele>
        <time>2021-09-23T10:00:30Z</time>
      </trkpt>
      <trkpt lat="44.35297" lon="6.71989">
        <ele>2074.1</ele>
        <time>2021-09-23T10:00:34Z</time>
      </trkpt>
      <trkpt lat="44.35296" lon="6.71996">
        <ele>2074.7</ele>
        <time>2021-09-23T10:00:38Z</time>
      </trkpt>
      <trkpt lat="44.35294" lon="6.72002">
        <ele>2075.7</ele>
        <time>2021-09-23T10:00:42Z</time>
      </trkpt>
      <trkpt lat="44.35293" lon="6.72009">
        <ele>2076.4</ele>
        <time>2021-09-23T10:00:46Z</time>
      </trkpt>
      <trkpt lat="44.35291" lon="6.72016">
        <ele>2077.5</ele>
        <time>2021-09-23T10:00:50Z</time>
      </trkpt>
      <trkpt lat="44.3529" lon="6.72022">
        <ele>2078.2</ele>
        <time>2021-09-23T10:00:54Z</time>
      </trkpt>
      <trkpt lat="44.35289" lon="6.72029">
        <ele>2078.9</ele>
        <time>2021-09-23T10:00:58Z</time>
      </trkpt>
      <trkpt lat="44.35288" lon="6.72035">
        <ele>2079.6</ele>
        <time>2021-09-23T10:01:02Z</time>
      </trkpt>
      <trkpt lat="44.35286" lon="6.7204">
        <ele>2080.5</ele>
        <time>2021-09-23T10:01:06Z</time>
      </trkpt>
      <trkpt lat="44.35285" lon="6.72047">
        <ele>2081.2</ele>
        <time>2021-09-23T10:01:10Z</time>
      </trkpt>
      <trkpt lat="44.35283" lon="6.72052">
        <ele>2082.2</ele>
        <time>2021-09-23T10:01:14Z</time>
      </trkpt>
      <trkpt lat="44.35281" lon="6.72059">
        <ele>2083.2</ele>
        <time>2021-09-23T10:01:18Z</time>
      </trkpt>
      <trkpt lat="44.3528" lon="6.72065">
        <ele>2083.8</ele>
        <time>2021-09-23T10:01:22Z</time>
      </trkpt>
      <trkpt lat="44.35277" lon="6.72071">
        <ele>2085.1</ele>
        <time>2021-09-23T10:01:26Z</time>
      </trkpt>
      <trkpt lat="44.35275" lon="6.72077">
        <ele>2086.1</ele>
        <time>2021-09-23T10:01:30Z</time>
      </trkpt>
      <trkpt lat="44.35274" lon="6.72084">
        <ele>2086.7</ele>
        <time>2021-09-23T10:01:34Z</time>
      </trkpt>
      <trkpt lat="44.35273" lon="6.72089">
        <ele>2087.4</ele>
        <time>2021-09-23T10:01:38Z</time>
      </trkpt>
      <trkpt lat="44.3527" lon="6.72096">
        <ele>2088.9</ele>
        <time>2021-09-23T10:01:42Z</time>
      </trkpt>
      <trkpt lat="44.35268" lon="6.72102">
        <ele>2090</ele>
        <time>2021-09-23T10:01:46Z</time>
      </trkpt>
      <trkpt lat="44.35266" lon="6.72107">
        <ele>2091</ele>
        <time>2021-09-23T10:01:50Z</time>
      </trkpt>
      <trkpt lat="44.35265" lon="6.72113">
        <ele>2091.7</ele>
        <time>2021-09-23T10:01:54Z</time>
      </trkpt>
      <trkpt lat="44.35263" lon="6.72119">
        <ele>2092.7</ele>
        <time>2021-09-23T10:01:58Z</time>
      </trkpt>
      <trkpt lat="44.35263" lon="6.72126">
        <ele>2093.2</ele>
        <time>2021-09-23T10:02:02Z</time>
      </trkpt>
      <trkpt lat="44.35263" lon="6.72132">
        <ele>2093.6</ele>
        <time>2021-09-23T10:02:06Z</time>
      </trkpt>
      <trkpt lat="44.35263" lon="6.72138">
        <ele>2094</ele>
        <time>2021-09-23T10:02:10Z</time>
      </trkpt>
      <trkpt lat="44.35264" lon="6.72144">
        <ele>2094</ele>
        <time>2021-09-23T10:02:14Z</time>
      </trkpt>
      <trkpt lat="44.35264" lon="6.7215">
        <ele>2094.4</ele>
        <time>2021-09-23T10:02:18Z</time>
      </trkpt>
      <trkpt lat="44.35266" lon="6.72157">
        <ele>2094.2</ele>
        <time>2021-09-23T10:02:22Z</time>
      </trkpt>
      <trkpt lat="44.35266" lon="6.72164">
        <ele>2094.6</ele>
        <time>2021-09-23T10:02:26Z</time>
      </trkpt>
      <trkpt lat="44.35267" lon="6.7217">
        <ele>2095</ele>
        <time>2021-09-23T10:02:30Z</time>
      </trkpt>
      <trkpt lat="44.35269" lon="6.72177">
        <ele>2095.5</ele>
        <time>2021-09-23T10:02:34Z</time>
      </trkpt>
      <trkpt lat="44.3527" lon="6.72185">
        <ele>2096.4</ele>
        <time>2021-09-23T10:02:38Z</time>
      </trkpt>
      <trkpt lat="44.3527" lon="6.72192">
        <ele>2097.5</ele>
        <time>2021-09-23T10:02:42Z</time>
      </trkpt>
      <trkpt lat="44.35271" lon="6.72198">
        <ele>2098.1</ele>
        <time>2021-09-23T10:02:46Z</time>
      </trkpt>
      <trkpt lat="44.35274" lon="6.72205">
        <ele>2098.1</ele>
        <time>2021-09-23T10:02:50Z</time>
      </trkpt>
      <trkpt lat="44.35276" lon="6.72212">
        <ele>2098.5</ele>
        <time>2021-09-23T10:02:54Z</time>
      </trkpt>
      <trkpt lat="44.35279" lon="6.72219">
        <ele>2098.5</ele>
        <time>2021-09-23T10:02:58Z</time>
      </trkpt>
      <trkpt lat="44.35281" lon="6.72227">
        <ele>2099</ele>
        <time>2021-09-23T10:03:02Z</time>
      </trkpt>
      <trkpt lat="44.35283" lon="6.72234">
        <ele>2099.3</ele>
        <time>2021-09-23T10:03:06Z</time>
      </trkpt>
      <trkpt lat="44.35285" lon="6.72241">
        <ele>2099.6</ele>
        <time>2021-09-23T10:03:10Z</time>
      </trkpt>
      <trkpt lat="44.35287" lon="6.7225">
        <ele>2100.2</ele>
        <time>2021-09-23T10:03:14Z</time>
      </trkpt>
      <trkpt lat="44.3529" lon="6.72257">
        <ele>2100.6</ele>
        <time>2021-09-23T10:03:18Z</time>
      </trkpt>
      <trkpt lat="44.35292" lon="6.72265">
        <ele>2101.4</ele>
        <time>2021-09-23T10:03:22Z</time>
      </trkpt>
      <trkpt lat="44.35295" lon="6.72273">
        <ele>2101.9</ele>
        <time>2021-09-23T10:03:26Z</time>
      </trkpt>
      <trkpt lat="44.35297" lon="6.72281">
        <ele>2102.6</ele>
        <time>2021-09-23T10:03:30Z</time>
      </trkpt>
      <trkpt lat="44.35298" lon="6.72288">
        <ele>2103.6</ele>
        <time>2021-09-23T10:03:34Z</time>
      </trkpt>
      <trkpt lat="44.35302" lon="6.72296">
        <ele>2103.5</ele>
        <time>2021-09-23T10:03:38Z</time>
      </trkpt>
      <trkpt lat="44.35304" lon="6.72304">
        <ele>2104.2</ele>
        <time>2021-09-23T10:03:42Z</time>
      </trkpt>
      <trkpt lat="44.35307" lon="6.72312">
        <ele>2104.3</ele>
        <time>2021-09-23T10:03:46Z</time>
      </trkpt>
      <trkpt lat="44.35311" lon="6.72319">
        <ele>2103.8</ele>
        <time>2021-09-23T10:03:50Z</time>
      </trkpt>
      <trkpt lat="44.35315" lon="6.72325">
        <ele>2103.1</ele>
        <time>2021-09-23T10:03:54Z</time>
      </trkpt>
      <trkpt lat="44.35319" lon="6.72333">
        <ele>2102.7</ele>
        <time>2021-09-23T10:03:58Z</time>
      </trkpt>
      <trkpt lat="44.35324" lon="6.7234">
        <ele>2102.4</ele>
        <time>2021-09-23T10:04:02Z</time>
      </trkpt>
      <trkpt lat="44.35327" lon="6.72349">
        <ele>2103.8</ele>
        <time>2021-09-23T10:04:06Z</time>
      </trkpt>
      <trkpt lat="44.35327" lon="6.72354">
        <ele>2105.3</ele>
        <time>2021-09-23T10:04:10Z</time>
      </trkpt>
      <trkpt lat="44.35331" lon="6.72357">
        <ele>2104.4</ele>
        <time>2021-09-23T10:04:14Z</time>
      </trkpt>
      <trkpt lat="44.35333" lon="6.72361">
        <ele>2104.8</ele>
        <time>2021-09-23T10:04:18Z</time>
      </trkpt>
      <trkpt lat="44.35335" lon="6.72366">
        <ele>2105.7</ele>
        <time>2021-09-23T10:04:22Z</time>
      </trkpt>
      <trkpt lat="44.35335" lon="6.7237">
        <ele>2106.9</ele>
        <time>2021-09-23T10:04:30Z</time>
      </trkpt>
      <trkpt lat="44.35338" lon="6.72374">
        <ele>2107.3</ele>
        <time>2021-09-23T10:04:34Z</time>
      </trkpt>
      <trkpt lat="44.3534" lon="6.72378">
        <ele>2107.9</ele>
        <time>2021-09-23T10:04:38Z</time>
      </trkpt>
      <trkpt lat="44.35341" lon="6.72382">
        <ele>2108.8</ele>
        <time>2021-09-23T10:04:42Z</time>
      </trkpt>
      <trkpt lat="44.35343" lon="6.72384">
        <ele>2108.8</ele>
        <time>2021-09-23T10:04:46Z</time>
      </trkpt>
      <trkpt lat="44.35344" lon="6.72388">
        <ele>2109.7</ele>
        <time>2021-09-23T10:04:50Z</time>
      </trkpt>
      <trkpt lat="44.35345" lon="6.72392">
        <ele>2110.6</ele>
        <time>2021-09-23T10:04:54Z</time>
      </trkpt>
      <trkpt lat="44.35346" lon="6.72397">
        <ele>2111.7</ele>
        <time>2021-09-23T10:04:58Z</time>
      </trkpt>
      <trkpt lat="44.35347" lon="6.724">
        <ele>2112.3</ele>
        <time>2021-09-23T10:05:02Z</time>
      </trkpt>
      <trkpt lat="44.35349" lon="6.72404">
        <ele>2112.8</ele>
        <time>2021-09-23T10:05:06Z</time>
      </trkpt>
      <trkpt lat="44.35349" lon="6.72407">
        <ele>2113.7</ele>
        <time>2021-09-23T10:05:10Z</time>
      </trkpt>
      <trkpt lat="44.3535" lon="6.72411">
        <ele>2114.5</ele>
        <time>2021-09-23T10:05:14Z</time>
      </trkpt>
      <trkpt lat="44.35351" lon="6.72416">
        <ele>2115.7</ele>
        <time>2021-09-23T10:05:18Z</time>
      </trkpt>
      <trkpt lat="44.35353" lon="6.72418">
        <ele>2115.6</ele>
        <time>2021-09-23T10:05:22Z</time>
      </trkpt>
      <trkpt lat="44.35353" lon="6.72421">
        <ele>2116.7</ele>
        <time>2021-09-23T10:05:26Z</time>
      </trkpt>
      <trkpt lat="44.35354" lon="6.72424">
        <ele>2117.5</ele>
        <time>2021-09-23T10:05:30Z</time>
      </trkpt>
      <trkpt lat="44.35356" lon="6.72428">
        <ele>2118.2</ele>
        <time>2021-09-23T10:05:34Z</time>
      </trkpt>
      <trkpt lat="44.35356" lon="6.72431">
        <ele>2119.3</ele>
        <time>2021-09-23T10:05:46Z</time>
      </trkpt>
      <trkpt lat="44.35357" lon="6.72433">
        <ele>2119.7</ele>
        <time>2021-09-23T10:05:50Z</time>
      </trkpt>
      <trkpt lat="44.35359" lon="6.72435">
        <ele>2119.7</ele>
        <time>2021-09-23T10:05:54Z</time>
      </trkpt>
      <trkpt lat="44.35361" lon="6.72439">
        <ele>2120.5</ele>
        <time>2021-09-23T10:05:58Z</time>
      </trkpt>
      <trkpt lat="44.35362" lon="6.72441">
        <ele>2120.9</ele>
        <time>2021-09-23T10:06:02Z</time>
      </trkpt>
      <trkpt lat="44.35363" lon="6.72444">
        <ele>2121.6</ele>
        <time>2021-09-23T10:06:06Z</time>
      </trkpt>
      <trkpt lat="44.35365" lon="6.72445">
        <ele>2121.3</ele>
        <time>2021-09-23T10:06:14Z</time>
      </trkpt>
      <trkpt lat="44.35366" lon="6.72445">
        <ele>2121</ele>
        <time>2021-09-23T10:06:18Z</time>
      </trkpt>
      <trkpt lat="44.35368" lon="6.72447">
        <ele>2121</ele>
        <time>2021-09-23T10:06:22Z</time>
      </trkpt>
      <trkpt lat="44.35371" lon="6.72448">
        <ele>2120.3</ele>
        <time>2021-09-23T10:06:30Z</time>
      </trkpt>
      <trkpt lat="44.35373" lon="6.72452">
        <ele>2121.1</ele>
        <time>2021-09-23T10:06:38Z</time>
      </trkpt>
      <trkpt lat="44.35374" lon="6.72454">
        <ele>2121.5</ele>
        <time>2021-09-23T10:06:42Z</time>
      </trkpt>
      <trkpt lat="44.35375" lon="6.72457">
        <ele>2122.3</ele>
        <time>2021-09-23T10:06:46Z</time>
      </trkpt>
      <trkpt lat="44.35377" lon="6.7246">
        <ele>2122.7</ele>
        <time>2021-09-23T10:06:54Z</time>
      </trkpt>
      <trkpt lat="44.35379" lon="6.72463">
        <ele>2123.1</ele>
        <time>2021-09-23T10:06:58Z</time>
      </trkpt>
      <trkpt lat="44.3538" lon="6.72466">
        <ele>2123.9</ele>
        <time>2021-09-23T10:07:02Z</time>
      </trkpt>
      <trkpt lat="44.35382" lon="6.72472">
        <ele>2125.4</ele>
        <time>2021-09-23T10:07:10Z</time>
      </trkpt>
      <trkpt lat="44.35383" lon="6.72475">
        <ele>2126.1</ele>
        <time>2021-09-23T10:07:14Z</time>
      </trkpt>
      <trkpt lat="44.35384" lon="6.72478">
        <ele>2126.9</ele>
        <time>2021-09-23T10:07:18Z</time>
      </trkpt>
      <trkpt lat="44.35386" lon="6.72482">
        <ele>2127.7</ele>
        <time>2021-09-23T10:07:22Z</time>
      </trkpt>
      <trkpt lat="44.35386" lon="6.72486">
        <ele>2129.2</ele>
        <time>2021-09-23T10:07:30Z</time>
      </trkpt>
      <trkpt lat="44.35386" lon="6.72489">
        <ele>2130.3</ele>
        <time>2021-09-23T10:07:34Z</time>
      </trkpt>
      <trkpt lat="44.35387" lon="6.72491">
        <ele>2130.7</ele>
        <time>2021-09-23T10:07:38Z</time>
      </trkpt>
      <trkpt lat="44.3539" lon="6.72496">
        <ele>2131.5</ele>
        <time>2021-09-23T10:07:46Z</time>
      </trkpt>
      <trkpt lat="44.35393" lon="6.725">
        <ele>2132</ele>
        <time>2021-09-23T10:07:50Z</time>
      </trkpt>
      <trkpt lat="44.35394" lon="6.72504">
        <ele>2132.9</ele>
        <time>2021-09-23T10:07:54Z</time>
      </trkpt>
      <trkpt lat="44.35397" lon="6.72509">
        <ele>2133.6</ele>
        <time>2021-09-23T10:08:02Z</time>
      </trkpt>
      <trkpt lat="44.35398" lon="6.72511">
        <ele>2134</ele>
        <time>2021-09-23T10:08:06Z</time>
      </trkpt>
      <trkpt lat="44.354" lon="6.72516">
        <ele>2135</ele>
        <time>2021-09-23T10:08:14Z</time>
      </trkpt>
      <trkpt lat="44.35401" lon="6.72519">
        <ele>2135.7</ele>
        <time>2021-09-23T10:08:18Z</time>
      </trkpt>
      <trkpt lat="44.35402" lon="6.72523">
        <ele>2136.8</ele>
        <time>2021-09-23T10:08:22Z</time>
      </trkpt>
      <trkpt lat="44.35404" lon="6.72528">
        <ele>2137.9</ele>
        <time>2021-09-23T10:08:26Z</time>
      </trkpt>
      <trkpt lat="44.35404" lon="6.72532">
        <ele>2139.3</ele>
        <time>2021-09-23T10:08:30Z</time>
      </trkpt>
      <trkpt lat="44.35407" lon="6.72535">
        <ele>2139.4</ele>
        <time>2021-09-23T10:08:34Z</time>
      </trkpt>
      <trkpt lat="44.35409" lon="6.72536">
        <ele>2139.2</ele>
        <time>2021-09-23T10:08:38Z</time>
      </trkpt>
      <trkpt lat="44.35413" lon="6.72536">
        <ele>2138</ele>
        <time>2021-09-23T10:08:50Z</time>
      </trkpt>
      <trkpt lat="44.35418" lon="6.72537">
        <ele>2137.2</ele>
        <time>2021-09-23T10:08:55Z</time>
      </trkpt>
      <trkpt lat="44.3542" lon="6.72537">
        <ele>2136.9</ele>
        <time>2021-09-23T10:09:02Z</time>
      </trkpt>
      <trkpt lat="44.35423" lon="6.72539">
        <ele>2137.3</ele>
        <time>2021-09-23T10:09:06Z</time>
      </trkpt>
      <trkpt lat="44.35426" lon="6.7254">
        <ele>2137.3</ele>
        <time>2021-09-23T10:09:10Z</time>
      </trkpt>
      <trkpt lat="44.35428" lon="6.72543">
        <ele>2138.1</ele>
        <time>2021-09-23T10:09:14Z</time>
      </trkpt>
      <trkpt lat="44.35429" lon="6.72545">
        <ele>2138.7</ele>
        <time>2021-09-23T10:09:22Z</time>
      </trkpt>
      <trkpt lat="44.35431" lon="6.72547">
        <ele>2139.2</ele>
        <time>2021-09-23T10:09:26Z</time>
      </trkpt>
      <trkpt lat="44.35433" lon="6.72549">
        <ele>2139.6</ele>
        <time>2021-09-23T10:09:30Z</time>
      </trkpt>
      <trkpt lat="44.35438" lon="6.72553">
        <ele>2140.5</ele>
        <time>2021-09-23T10:09:42Z</time>
      </trkpt>
      <trkpt lat="44.35441" lon="6.72557">
        <ele>2141.5</ele>
        <time>2021-09-23T10:09:54Z</time>
      </trkpt>
      <trkpt lat="44.35443" lon="6.7256">
        <ele>2142.3</ele>
        <time>2021-09-23T10:09:58Z</time>
      </trkpt>
      <trkpt lat="44.35446" lon="6.72564">
        <ele>2143.3</ele>
        <time>2021-09-23T10:10:06Z</time>
      </trkpt>
      <trkpt lat="44.35448" lon="6.72566">
        <ele>2143.8</ele>
        <time>2021-09-23T10:10:10Z</time>
      </trkpt>
      <trkpt lat="44.3545" lon="6.72569">
        <ele>2144.6</ele>
        <time>2021-09-23T10:10:14Z</time>
      </trkpt>
      <trkpt lat="44.35452" lon="6.7257">
        <ele>2144.7</ele>
        <time>2021-09-23T10:10:18Z</time>
      </trkpt>
      <trkpt lat="44.35454" lon="6.72571">
        <ele>2144.8</ele>
        <time>2021-09-23T10:10:22Z</time>
      </trkpt>
      <trkpt lat="44.35457" lon="6.72572">
        <ele>2144.7</ele>
        <time>2021-09-23T10:10:26Z</time>
      </trkpt>
      <trkpt lat="44.35459" lon="6.72574">
        <ele>2145.2</ele>
        <time>2021-09-23T10:10:30Z</time>
      </trkpt>
      <trkpt lat="44.35462" lon="6.72578">
        <ele>2146.2</ele>
        <time>2021-09-23T10:10:34Z</time>
      </trkpt>
      <trkpt lat="44.35465" lon="6.7258">
        <ele>2146.5</ele>
        <time>2021-09-23T10:10:38Z</time>
      </trkpt>
      <trkpt lat="44.35468" lon="6.72581">
        <ele>2146.4</ele>
        <time>2021-09-23T10:10:42Z</time>
      </trkpt>
      <trkpt lat="44.35473" lon="6.72582">
        <ele>2146.1</ele>
        <time>2021-09-23T10:10:46Z</time>
      </trkpt>
      <trkpt lat="44.35477" lon="6.72583">
        <ele>2145.9</ele>
        <time>2021-09-23T10:10:50Z</time>
      </trkpt>
      <trkpt lat="44.3548" lon="6.72585">
        <ele>2146.1</ele>
        <time>2021-09-23T10:10:54Z</time>
      </trkpt>
      <trkpt lat="44.35483" lon="6.72589">
        <ele>2147</ele>
        <time>2021-09-23T10:11:06Z</time>
      </trkpt>
      <trkpt lat="44.35485" lon="6.72592">
        <ele>2147.6</ele>
        <time>2021-09-23T10:11:10Z</time>
      </trkpt>
      <trkpt lat="44.35487" lon="6.72596">
        <ele>2148.6</ele>
        <time>2021-09-23T10:11:18Z</time>
      </trkpt>
      <trkpt lat="44.35488" lon="6.726">
        <ele>2149.7</ele>
        <time>2021-09-23T10:11:22Z</time>
      </trkpt>
      <trkpt lat="44.35489" lon="6.72603">
        <ele>2150.5</ele>
        <time>2021-09-23T10:11:26Z</time>
      </trkpt>
      <trkpt lat="44.3549" lon="6.72607">
        <ele>2151.6</ele>
        <time>2021-09-23T10:11:30Z</time>
      </trkpt>
      <trkpt lat="44.35491" lon="6.72611">
        <ele>2152.7</ele>
        <time>2021-09-23T10:11:34Z</time>
      </trkpt>
      <trkpt lat="44.35493" lon="6.72614">
        <ele>2153.4</ele>
        <time>2021-09-23T10:11:38Z</time>
      </trkpt>
      <trkpt lat="44.35494" lon="6.72618">
        <ele>2154.5</ele>
        <time>2021-09-23T10:11:42Z</time>
      </trkpt>
      <trkpt lat="44.35495" lon="6.7262">
        <ele>2155</ele>
        <time>2021-09-23T10:11:46Z</time>
      </trkpt>
      <trkpt lat="44.35497" lon="6.72623">
        <ele>2155.7</ele>
        <time>2021-09-23T10:11:50Z</time>
      </trkpt>
      <trkpt lat="44.35498" lon="6.72626">
        <ele>2156.5</ele>
        <time>2021-09-23T10:11:54Z</time>
      </trkpt>
      <trkpt lat="44.355" lon="6.72628">
        <ele>2156.9</ele>
        <time>2021-09-23T10:11:58Z</time>
      </trkpt>
      <trkpt lat="44.35501" lon="6.7263">
        <ele>2157.4</ele>
        <time>2021-09-23T10:12:02Z</time>
      </trkpt>
      <trkpt lat="44.35501" lon="6.72635">
        <ele>2158.9</ele>
        <time>2021-09-23T10:12:10Z</time>
      </trkpt>
      <trkpt lat="44.35501" lon="6.72638">
        <ele>2159.9</ele>
        <time>2021-09-23T10:12:14Z</time>
      </trkpt>
      <trkpt lat="44.35502" lon="6.72641">
        <ele>2160.6</ele>
        <time>2021-09-23T10:12:18Z</time>
      </trkpt>
      <trkpt lat="44.35501" lon="6.72645">
        <ele>2162</ele>
        <time>2021-09-23T10:12:26Z</time>
      </trkpt>
      <trkpt lat="44.35501" lon="6.72647">
        <ele>2162.7</ele>
        <time>2021-09-23T10:12:30Z</time>
      </trkpt>
      <trkpt lat="44.35503" lon="6.7266">
        <ele>2166.2</ele>
        <time>2021-09-23T10:12:54Z</time>
      </trkpt>
      <trkpt lat="44.35504" lon="6.72662">
        <ele>2166.6</ele>
        <time>2021-09-23T10:12:58Z</time>
      </trkpt>
      <trkpt lat="44.35505" lon="6.72666">
        <ele>2167.6</ele>
        <time>2021-09-23T10:13:02Z</time>
      </trkpt>
      <trkpt lat="44.35505" lon="6.72669">
        <ele>2168.5</ele>
        <time>2021-09-23T10:13:10Z</time>
      </trkpt>
      <trkpt lat="44.35506" lon="6.72674">
        <ele>2169.9</ele>
        <time>2021-09-23T10:13:18Z</time>
      </trkpt>
      <trkpt lat="44.35506" lon="6.72677">
        <ele>2170.9</ele>
        <time>2021-09-23T10:13:22Z</time>
      </trkpt>
      <trkpt lat="44.35506" lon="6.72679">
        <ele>2171.5</ele>
        <time>2021-09-23T10:13:26Z</time>
      </trkpt>
      <trkpt lat="44.35509" lon="6.72693">
        <ele>2175.2</ele>
        <time>2021-09-23T10:13:54Z</time>
      </trkpt>
      <trkpt lat="44.3551" lon="6.72695">
        <ele>2175.6</ele>
        <time>2021-09-23T10:13:58Z</time>
      </trkpt>
      <trkpt lat="44.3551" lon="6.72698">
        <ele>2176.6</ele>
        <time>2021-09-23T10:14:02Z</time>
      </trkpt>
      <trkpt lat="44.35511" lon="6.72702">
        <ele>2177.6</ele>
        <time>2021-09-23T10:14:10Z</time>
      </trkpt>
      <trkpt lat="44.35512" lon="6.72705">
        <ele>2178.3</ele>
        <time>2021-09-23T10:14:14Z</time>
      </trkpt>
      <trkpt lat="44.35513" lon="6.72709">
        <ele>2179.3</ele>
        <time>2021-09-23T10:14:18Z</time>
      </trkpt>
      <trkpt lat="44.35514" lon="6.72711">
        <ele>2179.6</ele>
        <time>2021-09-23T10:14:22Z</time>
      </trkpt>
      <trkpt lat="44.35515" lon="6.72716">
        <ele>2181</ele>
        <time>2021-09-23T10:14:26Z</time>
      </trkpt>
      <trkpt lat="44.35516" lon="6.72719">
        <ele>2181.6</ele>
        <time>2021-09-23T10:14:30Z</time>
      </trkpt>
      <trkpt lat="44.35518" lon="6.72722">
        <ele>2182</ele>
        <time>2021-09-23T10:14:34Z</time>
      </trkpt>
      <trkpt lat="44.3552" lon="6.72726">
        <ele>2182.7</ele>
        <time>2021-09-23T10:14:38Z</time>
      </trkpt>
      <trkpt lat="44.35521" lon="6.72729">
        <ele>2183.4</ele>
        <time>2021-09-23T10:14:42Z</time>
      </trkpt>
      <trkpt lat="44.35522" lon="6.72733">
        <ele>2184.4</ele>
        <time>2021-09-23T10:14:46Z</time>
      </trkpt>
      <trkpt lat="44.35524" lon="6.72735">
        <ele>2184.4</ele>
        <time>2021-09-23T10:14:50Z</time>
      </trkpt>
      <trkpt lat="44.35526" lon="6.72736">
        <ele>2184.2</ele>
        <time>2021-09-23T10:14:54Z</time>
      </trkpt>
      <trkpt lat="44.35528" lon="6.72737">
        <ele>2183.9</ele>
        <time>2021-09-23T10:14:58Z</time>
      </trkpt>
      <trkpt lat="44.3553" lon="6.7274">
        <ele>2184.3</ele>
        <time>2021-09-23T10:15:06Z</time>
      </trkpt>
      <trkpt lat="44.35531" lon="6.72743">
        <ele>2184.9</ele>
        <time>2021-09-23T10:15:10Z</time>
      </trkpt>
      <trkpt lat="44.35531" lon="6.72746">
        <ele>2185.8</ele>
        <time>2021-09-23T10:15:14Z</time>
      </trkpt>
      <trkpt lat="44.35531" lon="6.72749">
        <ele>2186.8</ele>
        <time>2021-09-23T10:15:22Z</time>
      </trkpt>
      <trkpt lat="44.35533" lon="6.72754">
        <ele>2187.3</ele>
        <time>2021-09-23T10:15:30Z</time>
      </trkpt>
      <trkpt lat="44.35534" lon="6.72757">
        <ele>2187.6</ele>
        <time>2021-09-23T10:15:34Z</time>
      </trkpt>
      <trkpt lat="44.35537" lon="6.72759">
        <ele>2187.1</ele>
        <time>2021-09-23T10:15:38Z</time>
      </trkpt>
      <trkpt lat="44.35538" lon="6.72761">
        <ele>2187.3</ele>
        <time>2021-09-23T10:15:42Z</time>
      </trkpt>
      <trkpt lat="44.35539" lon="6.72764">
        <ele>2187.6</ele>
        <time>2021-09-23T10:15:46Z</time>
      </trkpt>
      <trkpt lat="44.35541" lon="6.72768">
        <ele>2187.9</ele>
        <time>2021-09-23T10:15:50Z</time>
      </trkpt>
      <trkpt lat="44.35543" lon="6.72772">
        <ele>2188.1</ele>
        <time>2021-09-23T10:15:54Z</time>
      </trkpt>
      <trkpt lat="44.35544" lon="6.72776">
        <ele>2188.7</ele>
        <time>2021-09-23T10:15:58Z</time>
      </trkpt>
      <trkpt lat="44.35545" lon="6.7278">
        <ele>2189.2</ele>
        <time>2021-09-23T10:16:02Z</time>
      </trkpt>
      <trkpt lat="44.35546" lon="6.72784">
        <ele>2189.8</ele>
        <time>2021-09-23T10:16:06Z</time>
      </trkpt>
      <trkpt lat="44.35547" lon="6.72787">
        <ele>2190.2</ele>
        <time>2021-09-23T10:16:10Z</time>
      </trkpt>
      <trkpt lat="44.35548" lon="6.72791">
        <ele>2190.8</ele>
        <time>2021-09-23T10:16:14Z</time>
      </trkpt>
      <trkpt lat="44.35546" lon="6.72795">
        <ele>2192.1</ele>
        <time>2021-09-23T10:16:22Z</time>
      </trkpt>
      <trkpt lat="44.35546" lon="6.728">
        <ele>2193.1</ele>
        <time>2021-09-23T10:16:30Z</time>
      </trkpt>
      <trkpt lat="44.35546" lon="6.72803">
        <ele>2193.8</ele>
        <time>2021-09-23T10:16:34Z</time>
      </trkpt>
      <trkpt lat="44.35547" lon="6.72807">
        <ele>2194.4</ele>
        <time>2021-09-23T10:16:38Z</time>
      </trkpt>
      <trkpt lat="44.35547" lon="6.72812">
        <ele>2195.4</ele>
        <time>2021-09-23T10:16:46Z</time>
      </trkpt>
      <trkpt lat="44.35547" lon="6.72817">
        <ele>2196.4</ele>
        <time>2021-09-23T10:16:50Z</time>
      </trkpt>
      <trkpt lat="44.35548" lon="6.72823">
        <ele>2197.5</ele>
        <time>2021-09-23T10:16:58Z</time>
      </trkpt>
      <trkpt lat="44.35547" lon="6.72829">
        <ele>2198.9</ele>
        <time>2021-09-23T10:17:06Z</time>
      </trkpt>
      <trkpt lat="44.35546" lon="6.72834">
        <ele>2200.2</ele>
        <time>2021-09-23T10:17:14Z</time>
      </trkpt>
      <trkpt lat="44.35546" lon="6.72838">
        <ele>2201</ele>
        <time>2021-09-23T10:17:22Z</time>
      </trkpt>
      <trkpt lat="44.35545" lon="6.72842">
        <ele>2202</ele>
        <time>2021-09-23T10:17:26Z</time>
      </trkpt>
      <trkpt lat="44.35545" lon="6.72846">
        <ele>2202.8</ele>
        <time>2021-09-23T10:17:30Z</time>
      </trkpt>
      <trkpt lat="44.35544" lon="6.7285">
        <ele>2203.8</ele>
        <time>2021-09-23T10:17:34Z</time>
      </trkpt>
      <trkpt lat="44.35543" lon="6.72853">
        <ele>2204.6</ele>
        <time>2021-09-23T10:17:42Z</time>
      </trkpt>
      <trkpt lat="44.35542" lon="6.72856">
        <ele>2205.4</ele>
        <time>2021-09-23T10:17:46Z</time>
      </trkpt>
      <trkpt lat="44.35542" lon="6.72861">
        <ele>2206.4</ele>
        <time>2021-09-23T10:17:54Z</time>
      </trkpt>
      <trkpt lat="44.35543" lon="6.72863">
        <ele>2206.6</ele>
        <time>2021-09-23T10:17:58Z</time>
      </trkpt>
      <trkpt lat="44.35543" lon="6.72866">
        <ele>2207.2</ele>
        <time>2021-09-23T10:18:02Z</time>
      </trkpt>
      <trkpt lat="44.35542" lon="6.72872">
        <ele>2208.6</ele>
        <time>2021-09-23T10:18:10Z</time>
      </trkpt>
      <trkpt lat="44.35542" lon="6.72876">
        <ele>2209.4</ele>
        <time>2021-09-23T10:18:14Z</time>
      </trkpt>
      <trkpt lat="44.35539" lon="6.7288">
        <ele>2210.7</ele>
        <time>2021-09-23T10:18:22Z</time>
      </trkpt>
      <trkpt lat="44.35539" lon="6.72884">
        <ele>2211.5</ele>
        <time>2021-09-23T10:18:30Z</time>
      </trkpt>
      <trkpt lat="44.35539" lon="6.72889">
        <ele>2212.4</ele>
        <time>2021-09-23T10:18:38Z</time>
      </trkpt>
      <trkpt lat="44.35538" lon="6.72892">
        <ele>2213.2</ele>
        <time>2021-09-23T10:18:42Z</time>
      </trkpt>
      <trkpt lat="44.35537" lon="6.72896">
        <ele>2214.1</ele>
        <time>2021-09-23T10:18:46Z</time>
      </trkpt>
      <trkpt lat="44.35536" lon="6.72898">
        <ele>2214.7</ele>
        <time>2021-09-23T10:18:50Z</time>
      </trkpt>
      <trkpt lat="44.35537" lon="6.72901">
        <ele>2215.1</ele>
        <time>2021-09-23T10:18:58Z</time>
      </trkpt>
      <trkpt lat="44.35538" lon="6.72904">
        <ele>2215.5</ele>
        <time>2021-09-23T10:19:02Z</time>
      </trkpt>
      <trkpt lat="44.35536" lon="6.72908">
        <ele>2216.6</ele>
        <time>2021-09-23T10:19:06Z</time>
      </trkpt>
      <trkpt lat="44.35533" lon="6.72911">
        <ele>2217.6</ele>
        <time>2021-09-23T10:19:14Z</time>
      </trkpt>
      <trkpt lat="44.35532" lon="6.72913">
        <ele>2218.1</ele>
        <time>2021-09-23T10:19:22Z</time>
      </trkpt>
      <trkpt lat="44.35532" lon="6.72917">
        <ele>2218.8</ele>
        <time>2021-09-23T10:19:26Z</time>
      </trkpt>
      <trkpt lat="44.35532" lon="6.7292">
        <ele>2219.3</ele>
        <time>2021-09-23T10:19:30Z</time>
      </trkpt>
      <trkpt lat="44.35531" lon="6.72922">
        <ele>2219.8</ele>
        <time>2021-09-23T10:19:42Z</time>
      </trkpt>
      <trkpt lat="44.35532" lon="6.72926">
        <ele>2220.3</ele>
        <time>2021-09-23T10:19:46Z</time>
      </trkpt>
      <trkpt lat="44.35533" lon="6.7293">
        <ele>2220.8</ele>
        <time>2021-09-23T10:19:50Z</time>
      </trkpt>
      <trkpt lat="44.35533" lon="6.72934">
        <ele>2221.5</ele>
        <time>2021-09-23T10:19:54Z</time>
      </trkpt>
      <trkpt lat="44.35533" lon="6.72938">
        <ele>2222.1</ele>
        <time>2021-09-23T10:19:58Z</time>
      </trkpt>
      <trkpt lat="44.35533" lon="6.72943">
        <ele>2222.9</ele>
        <time>2021-09-23T10:20:02Z</time>
      </trkpt>
      <trkpt lat="44.35533" lon="6.72947">
        <ele>2223.6</ele>
        <time>2021-09-23T10:20:06Z</time>
      </trkpt>
      <trkpt lat="44.35534" lon="6.72952">
        <ele>2224.3</ele>
        <time>2021-09-23T10:20:18Z</time>
      </trkpt>
      <trkpt lat="44.35539" lon="6.72967">
        <ele>2226.2</ele>
        <time>2021-09-23T10:20:22Z</time>
      </trkpt>
      <trkpt lat="44.35544" lon="6.72983">
        <ele>2228.4</ele>
        <time>2021-09-23T10:20:26Z</time>
      </trkpt>
      <trkpt lat="44.35545" lon="6.7299">
        <ele>2229.5</ele>
        <time>2021-09-23T10:20:30Z</time>
      </trkpt>
      <trkpt lat="44.35548" lon="6.72996">
        <ele>2230.3</ele>
        <time>2021-09-23T10:20:34Z</time>
      </trkpt>
      <trkpt lat="44.35551" lon="6.73003">
        <ele>2231.5</ele>
        <time>2021-09-23T10:20:38Z</time>
      </trkpt>
      <trkpt lat="44.35557" lon="6.73008">
        <ele>2232.2</ele>
        <time>2021-09-23T10:20:42Z</time>
      </trkpt>
      <trkpt lat="44.35563" lon="6.73014">
        <ele>2233.1</ele>
        <time>2021-09-23T10:20:46Z</time>
      </trkpt>
      <trkpt lat="44.35568" lon="6.7302">
        <ele>2234.2</ele>
        <time>2021-09-23T10:20:50Z</time>
      </trkpt>
      <trkpt lat="44.35575" lon="6.7303">
        <ele>2236</ele>
        <time>2021-09-23T10:20:54Z</time>
      </trkpt>
      <trkpt lat="44.35581" lon="6.73039">
        <ele>2237.6</ele>
        <time>2021-09-23T10:20:58Z</time>
      </trkpt>
      <trkpt lat="44.35585" lon="6.73043">
        <ele>2238.2</ele>
        <time>2021-09-23T10:21:10Z</time>
      </trkpt>
      <trkpt lat="44.35588" lon="6.73042">
        <ele>2237.7</ele>
        <time>2021-09-23T10:21:14Z</time>
      </trkpt>
      <trkpt lat="44.3559" lon="6.73042">
        <ele>2237.6</ele>
        <time>2021-09-23T10:21:18Z</time>
      </trkpt>
      <trkpt lat="44.35592" lon="6.73043">
        <ele>2237.7</ele>
        <time>2021-09-23T10:21:22Z</time>
      </trkpt>
      <trkpt lat="44.35595" lon="6.73044">
        <ele>2237.7</ele>
        <time>2021-09-23T10:21:26Z</time>
      </trkpt>
      <trkpt lat="44.35597" lon="6.73045">
        <ele>2237.8</ele>
        <time>2021-09-23T10:21:30Z</time>
      </trkpt>
      <trkpt lat="44.356" lon="6.73045">
        <ele>2237.6</ele>
        <time>2021-09-23T10:21:34Z</time>
      </trkpt>
      <trkpt lat="44.35603" lon="6.73045">
        <ele>2237.4</ele>
        <time>2021-09-23T10:21:38Z</time>
      </trkpt>
      <trkpt lat="44.35605" lon="6.73046">
        <ele>2237.5</ele>
        <time>2021-09-23T10:21:42Z</time>
      </trkpt>
      <trkpt lat="44.35607" lon="6.73047">
        <ele>2237.6</ele>
        <time>2021-09-23T10:21:46Z</time>
      </trkpt>
      <trkpt lat="44.35609" lon="6.73048">
        <ele>2237.8</ele>
        <time>2021-09-23T10:21:50Z</time>
      </trkpt>
      <trkpt lat="44.35612" lon="6.73049">
        <ele>2237.8</ele>
        <time>2021-09-23T10:21:58Z</time>
      </trkpt>
      <trkpt lat="44.35614" lon="6.73049">
        <ele>2237.7</ele>
        <time>2021-09-23T10:22:02Z</time>
      </trkpt>
      <trkpt lat="44.35616" lon="6.7305">
        <ele>2237.8</ele>
        <time>2021-09-23T10:22:06Z</time>
      </trkpt>
      <trkpt lat="44.35618" lon="6.73051">
        <ele>2237.9</ele>
        <time>2021-09-23T10:22:10Z</time>
      </trkpt>
      <trkpt lat="44.3562" lon="6.73051">
        <ele>2237.8</ele>
        <time>2021-09-23T10:22:14Z</time>
      </trkpt>
      <trkpt lat="44.35622" lon="6.73052">
        <ele>2237.9</ele>
        <time>2021-09-23T10:22:18Z</time>
      </trkpt>
      <trkpt lat="44.35625" lon="6.73053">
        <ele>2238</ele>
        <time>2021-09-23T10:22:22Z</time>
      </trkpt>
      <trkpt lat="44.35625" lon="6.73055">
        <ele>2238.5</ele>
        <time>2021-09-23T10:22:46Z</time>
      </trkpt>
      <trkpt lat="44.35626" lon="6.73058">
        <ele>2239.2</ele>
        <time>2021-09-23T10:22:50Z</time>
      </trkpt>
      <trkpt lat="44.35626" lon="6.7306">
        <ele>2239.8</ele>
        <time>2021-09-23T10:22:54Z</time>
      </trkpt>
      <trkpt lat="44.35629" lon="6.73063">
        <ele>2240.4</ele>
        <time>2021-09-23T10:22:58Z</time>
      </trkpt>
      <trkpt lat="44.3563" lon="6.73065">
        <ele>2240.9</ele>
        <time>2021-09-23T10:23:02Z</time>
      </trkpt>
      <trkpt lat="44.35633" lon="6.73067">
        <ele>2241.2</ele>
        <time>2021-09-23T10:23:06Z</time>
      </trkpt>
      <trkpt lat="44.35634" lon="6.73069">
        <ele>2241.7</ele>
        <time>2021-09-23T10:23:10Z</time>
      </trkpt>
      <trkpt lat="44.35636" lon="6.73071">
        <ele>2242.1</ele>
        <time>2021-09-23T10:23:14Z</time>
      </trkpt>
      <trkpt lat="44.35638" lon="6.73074">
        <ele>2242.8</ele>
        <time>2021-09-23T10:23:18Z</time>
      </trkpt>
      <trkpt lat="44.35641" lon="6.73076">
        <ele>2243.2</ele>
        <time>2021-09-23T10:23:22Z</time>
      </trkpt>
      <trkpt lat="44.35643" lon="6.73078">
        <ele>2243.7</ele>
        <time>2021-09-23T10:23:26Z</time>
      </trkpt>
      <trkpt lat="44.35646" lon="6.73082">
        <ele>2244.6</ele>
        <time>2021-09-23T10:23:30Z</time>
      </trkpt>
      <trkpt lat="44.35647" lon="6.73087">
        <ele>2246</ele>
        <time>2021-09-23T10:23:34Z</time>
      </trkpt>
      <trkpt lat="44.35649" lon="6.7309">
        <ele>2246.7</ele>
        <time>2021-09-23T10:23:38Z</time>
      </trkpt>
      <trkpt lat="44.3565" lon="6.73094">
        <ele>2247.8</ele>
        <time>2021-09-23T10:23:42Z</time>
      </trkpt>
      <trkpt lat="44.35651" lon="6.73098">
        <ele>2248.8</ele>
        <time>2021-09-23T10:23:46Z</time>
      </trkpt>
      <trkpt lat="44.35652" lon="6.73101">
        <ele>2249.6</ele>
        <time>2021-09-23T10:23:50Z</time>
      </trkpt>
      <trkpt lat="44.35654" lon="6.73105">
        <ele>2250.5</ele>
        <time>2021-09-23T10:23:54Z</time>
      </trkpt>
      <trkpt lat="44.35655" lon="6.73108">
        <ele>2251.3</ele>
        <time>2021-09-23T10:23:58Z</time>
      </trkpt>
      <trkpt lat="44.35657" lon="6.73112">
        <ele>2252.2</ele>
        <time>2021-09-23T10:24:02Z</time>
      </trkpt>
      <trkpt lat="44.35658" lon="6.73116">
        <ele>2253.1</ele>
        <time>2021-09-23T10:24:06Z</time>
      </trkpt>
      <trkpt lat="44.35662" lon="6.73119">
        <ele>2253.5</ele>
        <time>2021-09-23T10:24:10Z</time>
      </trkpt>
      <trkpt lat="44.35664" lon="6.73122">
        <ele>2254.1</ele>
        <time>2021-09-23T10:24:14Z</time>
      </trkpt>
      <trkpt lat="44.35667" lon="6.73126">
        <ele>2254.7</ele>
        <time>2021-09-23T10:24:18Z</time>
      </trkpt>
      <trkpt lat="44.35669" lon="6.73129">
        <ele>2255.3</ele>
        <time>2021-09-23T10:24:22Z</time>
      </trkpt>
      <trkpt lat="44.35671" lon="6.73132">
        <ele>2255.9</ele>
        <time>2021-09-23T10:24:26Z</time>
      </trkpt>
      <trkpt lat="44.35673" lon="6.73136">
        <ele>2256.7</ele>
        <time>2021-09-23T10:24:30Z</time>
      </trkpt>
      <trkpt lat="44.35674" lon="6.73141">
        <ele>2257.8</ele>
        <time>2021-09-23T10:24:34Z</time>
      </trkpt>
      <trkpt lat="44.35676" lon="6.73145">
        <ele>2258.6</ele>
        <time>2021-09-23T10:24:38Z</time>
      </trkpt>
      <trkpt lat="44.35678" lon="6.73149">
        <ele>2259.4</ele>
        <time>2021-09-23T10:24:42Z</time>
      </trkpt>
      <trkpt lat="44.3568" lon="6.73154">
        <ele>2260.5</ele>
        <time>2021-09-23T10:24:46Z</time>
      </trkpt>
      <trkpt lat="44.35683" lon="6.73157">
        <ele>2260.9</ele>
        <time>2021-09-23T10:24:50Z</time>
      </trkpt>
      <trkpt lat="44.35685" lon="6.7316">
        <ele>2261.4</ele>
        <time>2021-09-23T10:24:54Z</time>
      </trkpt>
      <trkpt lat="44.35688" lon="6.73163">
        <ele>2261.8</ele>
        <time>2021-09-23T10:24:58Z</time>
      </trkpt>
      <trkpt lat="44.3569" lon="6.73166">
        <ele>2262.3</ele>
        <time>2021-09-23T10:25:02Z</time>
      </trkpt>
      <trkpt lat="44.35693" lon="6.73168">
        <ele>2262.7</ele>
        <time>2021-09-23T10:25:06Z</time>
      </trkpt>
      <trkpt lat="44.35696" lon="6.7317">
        <ele>2263.1</ele>
        <time>2021-09-23T10:25:10Z</time>
      </trkpt>
      <trkpt lat="44.35699" lon="6.73171">
        <ele>2263.2</ele>
        <time>2021-09-23T10:25:14Z</time>
      </trkpt>
      <trkpt lat="44.35702" lon="6.73172">
        <ele>2263.2</ele>
        <time>2021-09-23T10:25:18Z</time>
      </trkpt>
      <trkpt lat="44.35706" lon="6.73172">
        <ele>2262.8</ele>
        <time>2021-09-23T10:25:22Z</time>
      </trkpt>
      <trkpt lat="44.3571" lon="6.73172">
        <ele>2262.4</ele>
        <time>2021-09-23T10:25:26Z</time>
      </trkpt>
      <trkpt lat="44.35713" lon="6.73173">
        <ele>2262.4</ele>
        <time>2021-09-23T10:25:30Z</time>
      </trkpt>
      <trkpt lat="44.35716" lon="6.73174">
        <ele>2262.5</ele>
        <time>2021-09-23T10:25:34Z</time>
      </trkpt>
      <trkpt lat="44.35719" lon="6.73175">
        <ele>2262.5</ele>
        <time>2021-09-23T10:25:38Z</time>
      </trkpt>
      <trkpt lat="44.3572" lon="6.73177">
        <ele>2263.2</ele>
        <time>2021-09-23T10:25:42Z</time>
      </trkpt>
      <trkpt lat="44.35723" lon="6.7318">
        <ele>2264</ele>
        <time>2021-09-23T10:25:46Z</time>
      </trkpt>
      <trkpt lat="44.35725" lon="6.73181">
        <ele>2264.1</ele>
        <time>2021-09-23T10:25:50Z</time>
      </trkpt>
      <trkpt lat="44.35728" lon="6.73183">
        <ele>2264.6</ele>
        <time>2021-09-23T10:25:54Z</time>
      </trkpt>
      <trkpt lat="44.3573" lon="6.73184">
        <ele>2264.7</ele>
        <time>2021-09-23T10:25:58Z</time>
      </trkpt>
      <trkpt lat="44.35733" lon="6.73186">
        <ele>2265.1</ele>
        <time>2021-09-23T10:26:02Z</time>
      </trkpt>
      <trkpt lat="44.35736" lon="6.73188">
        <ele>2265.5</ele>
        <time>2021-09-23T10:26:06Z</time>
      </trkpt>
      <trkpt lat="44.35738" lon="6.73189">
        <ele>2265.7</ele>
        <time>2021-09-23T10:26:10Z</time>
      </trkpt>
      <trkpt lat="44.35741" lon="6.73189">
        <ele>2265.3</ele>
        <time>2021-09-23T10:26:14Z</time>
      </trkpt>
      <trkpt lat="44.35744" lon="6.73189">
        <ele>2265</ele>
        <time>2021-09-23T10:26:18Z</time>
      </trkpt>
      <trkpt lat="44.35746" lon="6.73189">
        <ele>2264.8</ele>
        <time>2021-09-23T10:26:22Z</time>
      </trkpt>
      <trkpt lat="44.35747" lon="6.73189">
        <ele>2264.7</ele>
        <time>2021-09-23T10:26:34Z</time>
      </trkpt>
      <trkpt lat="44.35749" lon="6.73188">
        <ele>2264.1</ele>
        <time>2021-09-23T10:26:46Z</time>
      </trkpt>
      <trkpt lat="44.35751" lon="6.73188">
        <ele>2264</ele>
        <time>2021-09-23T10:26:50Z</time>
      </trkpt>
      <trkpt lat="44.35753" lon="6.73189">
        <ele>2264.5</ele>
        <time>2021-09-23T10:26:54Z</time>
      </trkpt>
      <trkpt lat="44.35756" lon="6.7319">
        <ele>2265</ele>
        <time>2021-09-23T10:26:58Z</time>
      </trkpt>
      <trkpt lat="44.35757" lon="6.73191">
        <ele>2265.4</ele>
        <time>2021-09-23T10:27:10Z</time>
      </trkpt>
      <trkpt lat="44.35758" lon="6.73191">
        <ele>2265.5</ele>
        <time>2021-09-23T10:27:14Z</time>
      </trkpt>
      <trkpt lat="44.35759" lon="6.73192">
        <ele>2265.9</ele>
        <time>2021-09-23T10:27:18Z</time>
      </trkpt>
      <trkpt lat="44.35762" lon="6.73192">
        <ele>2266</ele>
        <time>2021-09-23T10:27:22Z</time>
      </trkpt>
      <trkpt lat="44.35764" lon="6.73193">
        <ele>2266.5</ele>
        <time>2021-09-23T10:27:26Z</time>
      </trkpt>
      <trkpt lat="44.35766" lon="6.73195">
        <ele>2267.3</ele>
        <time>2021-09-23T10:27:30Z</time>
      </trkpt>
      <trkpt lat="44.35769" lon="6.73196">
        <ele>2267.8</ele>
        <time>2021-09-23T10:27:34Z</time>
      </trkpt>
      <trkpt lat="44.35771" lon="6.73196">
        <ele>2267.9</ele>
        <time>2021-09-23T10:27:38Z</time>
      </trkpt>
      <trkpt lat="44.35774" lon="6.73197">
        <ele>2268.4</ele>
        <time>2021-09-23T10:27:42Z</time>
      </trkpt>
      <trkpt lat="44.35777" lon="6.73198">
        <ele>2268.8</ele>
        <time>2021-09-23T10:27:50Z</time>
      </trkpt>
      <trkpt lat="44.3578" lon="6.73198">
        <ele>2269</ele>
        <time>2021-09-23T10:27:54Z</time>
      </trkpt>
      <trkpt lat="44.35783" lon="6.73199">
        <ele>2269.4</ele>
        <time>2021-09-23T10:28:14Z</time>
      </trkpt>
      <trkpt lat="44.35785" lon="6.732">
        <ele>2269.8</ele>
        <time>2021-09-23T10:28:18Z</time>
      </trkpt>
      <trkpt lat="44.35787" lon="6.73202">
        <ele>2270.6</ele>
        <time>2021-09-23T10:28:22Z</time>
      </trkpt>
      <trkpt lat="44.3579" lon="6.73206">
        <ele>2272</ele>
        <time>2021-09-23T10:28:30Z</time>
      </trkpt>
      <trkpt lat="44.35791" lon="6.73208">
        <ele>2272.6</ele>
        <time>2021-09-23T10:28:34Z</time>
      </trkpt>
      <trkpt lat="44.35793" lon="6.73211">
        <ele>2273.6</ele>
        <time>2021-09-23T10:28:38Z</time>
      </trkpt>
      <trkpt lat="44.35796" lon="6.73212">
        <ele>2274</ele>
        <time>2021-09-23T10:28:42Z</time>
      </trkpt>
      <trkpt lat="44.35797" lon="6.73215">
        <ele>2275</ele>
        <time>2021-09-23T10:28:46Z</time>
      </trkpt>
      <trkpt lat="44.35797" lon="6.73217">
        <ele>2275.6</ele>
        <time>2021-09-23T10:28:54Z</time>
      </trkpt>
      <trkpt lat="44.35795" lon="6.73219">
        <ele>2276.2</ele>
        <time>2021-09-23T10:28:58Z</time>
      </trkpt>
      <trkpt lat="44.35793" lon="6.73222">
        <ele>2277.1</ele>
        <time>2021-09-23T10:29:02Z</time>
      </trkpt>
      <trkpt lat="44.35794" lon="6.73226">
        <ele>2278.4</ele>
        <time>2021-09-23T10:29:06Z</time>
      </trkpt>
      <trkpt lat="44.35792" lon="6.73229">
        <ele>2279.3</ele>
        <time>2021-09-23T10:29:10Z</time>
      </trkpt>
      <trkpt lat="44.35792" lon="6.73231">
        <ele>2280</ele>
        <time>2021-09-23T10:29:14Z</time>
      </trkpt>
      <trkpt lat="44.3579" lon="6.73233">
        <ele>2280.6</ele>
        <time>2021-09-23T10:29:18Z</time>
      </trkpt>
      <trkpt lat="44.35788" lon="6.73236">
        <ele>2281.6</ele>
        <time>2021-09-23T10:29:22Z</time>
      </trkpt>
      <trkpt lat="44.35786" lon="6.73237">
        <ele>2281.9</ele>
        <time>2021-09-23T10:29:26Z</time>
      </trkpt>
      <trkpt lat="44.35786" lon="6.73239">
        <ele>2282.6</ele>
        <time>2021-09-23T10:29:30Z</time>
      </trkpt>
      <trkpt lat="44.35787" lon="6.73242">
        <ele>2283.5</ele>
        <time>2021-09-23T10:29:38Z</time>
      </trkpt>
      <trkpt lat="44.35788" lon="6.73245">
        <ele>2284.5</ele>
        <time>2021-09-23T10:29:42Z</time>
      </trkpt>
      <trkpt lat="44.35788" lon="6.73247">
        <ele>2285.1</ele>
        <time>2021-09-23T10:29:46Z</time>
      </trkpt>
      <trkpt lat="44.35789" lon="6.73248">
        <ele>2285.4</ele>
        <time>2021-09-23T10:29:50Z</time>
      </trkpt>
      <trkpt lat="44.3579" lon="6.73252">
        <ele>2286.7</ele>
        <time>2021-09-23T10:29:54Z</time>
      </trkpt>
      <trkpt lat="44.35791" lon="6.73255">
        <ele>2287.6</ele>
        <time>2021-09-23T10:29:58Z</time>
      </trkpt>
      <trkpt lat="44.35792" lon="6.73257">
        <ele>2288.3</ele>
        <time>2021-09-23T10:30:02Z</time>
      </trkpt>
      <trkpt lat="44.35795" lon="6.7326">
        <ele>2289.1</ele>
        <time>2021-09-23T10:30:10Z</time>
      </trkpt>
      <trkpt lat="44.35796" lon="6.73263">
        <ele>2290.1</ele>
        <time>2021-09-23T10:30:14Z</time>
      </trkpt>
      <trkpt lat="44.35799" lon="6.73266">
        <ele>2290.9</ele>
        <time>2021-09-23T10:30:18Z</time>
      </trkpt>
      <trkpt lat="44.35801" lon="6.73267">
        <ele>2291.1</ele>
        <time>2021-09-23T10:30:22Z</time>
      </trkpt>
      <trkpt lat="44.35803" lon="6.73268">
        <ele>2291.4</ele>
        <time>2021-09-23T10:30:26Z</time>
      </trkpt>
      <trkpt lat="44.35806" lon="6.7327">
        <ele>2291.9</ele>
        <time>2021-09-23T10:30:30Z</time>
      </trkpt>
      <trkpt lat="44.35808" lon="6.73271">
        <ele>2292.1</ele>
        <time>2021-09-23T10:30:34Z</time>
      </trkpt>
      <trkpt lat="44.35811" lon="6.73272">
        <ele>2292.3</ele>
        <time>2021-09-23T10:30:38Z</time>
      </trkpt>
      <trkpt lat="44.35813" lon="6.73273">
        <ele>2292.5</ele>
        <time>2021-09-23T10:30:42Z</time>
      </trkpt>
      <trkpt lat="44.35816" lon="6.73275">
        <ele>2293</ele>
        <time>2021-09-23T10:30:46Z</time>
      </trkpt>
      <trkpt lat="44.35819" lon="6.73277">
        <ele>2293.5</ele>
        <time>2021-09-23T10:30:54Z</time>
      </trkpt>
      <trkpt lat="44.35821" lon="6.73278">
        <ele>2293.7</ele>
        <time>2021-09-23T10:30:58Z</time>
      </trkpt>
      <trkpt lat="44.35824" lon="6.73281">
        <ele>2294.4</ele>
        <time>2021-09-23T10:31:02Z</time>
      </trkpt>
      <trkpt lat="44.35826" lon="6.73282">
        <ele>2294.6</ele>
        <time>2021-09-23T10:31:06Z</time>
      </trkpt>
      <trkpt lat="44.35829" lon="6.73285">
        <ele>2295.3</ele>
        <time>2021-09-23T10:31:10Z</time>
      </trkpt>
      <trkpt lat="44.35832" lon="6.73288">
        <ele>2296</ele>
        <time>2021-09-23T10:31:14Z</time>
      </trkpt>
      <trkpt lat="44.35833" lon="6.73291">
        <ele>2296.8</ele>
        <time>2021-09-23T10:31:18Z</time>
      </trkpt>
      <trkpt lat="44.35835" lon="6.73295">
        <ele>2298</ele>
        <time>2021-09-23T10:31:22Z</time>
      </trkpt>
      <trkpt lat="44.35837" lon="6.73298">
        <ele>2298.9</ele>
        <time>2021-09-23T10:31:26Z</time>
      </trkpt>
      <trkpt lat="44.35838" lon="6.73301">
        <ele>2299.8</ele>
        <time>2021-09-23T10:31:30Z</time>
      </trkpt>
      <trkpt lat="44.3584" lon="6.73304">
        <ele>2300.6</ele>
        <time>2021-09-23T10:31:34Z</time>
      </trkpt>
      <trkpt lat="44.35841" lon="6.73307">
        <ele>2301.5</ele>
        <time>2021-09-23T10:31:38Z</time>
      </trkpt>
      <trkpt lat="44.35844" lon="6.73309">
        <ele>2302.1</ele>
        <time>2021-09-23T10:31:42Z</time>
      </trkpt>
      <trkpt lat="44.35847" lon="6.73311">
        <ele>2302.6</ele>
        <time>2021-09-23T10:31:46Z</time>
      </trkpt>
      <trkpt lat="44.3585" lon="6.73315">
        <ele>2303.7</ele>
        <time>2021-09-23T10:31:50Z</time>
      </trkpt>
      <trkpt lat="44.35852" lon="6.73318">
        <ele>2304.5</ele>
        <time>2021-09-23T10:31:54Z</time>
      </trkpt>
      <trkpt lat="44.35853" lon="6.73322">
        <ele>2305.6</ele>
        <time>2021-09-23T10:31:58Z</time>
      </trkpt>
      <trkpt lat="44.35854" lon="6.73326">
        <ele>2306.6</ele>
        <time>2021-09-23T10:32:02Z</time>
      </trkpt>
      <trkpt lat="44.35856" lon="6.73329">
        <ele>2307.3</ele>
        <time>2021-09-23T10:32:06Z</time>
      </trkpt>
      <trkpt lat="44.35858" lon="6.73333">
        <ele>2308.3</ele>
        <time>2021-09-23T10:32:10Z</time>
      </trkpt>
      <trkpt lat="44.3586" lon="6.73337">
        <ele>2309.4</ele>
        <time>2021-09-23T10:32:14Z</time>
      </trkpt>
      <trkpt lat="44.35862" lon="6.7334">
        <ele>2310.3</ele>
        <time>2021-09-23T10:32:18Z</time>
      </trkpt>
      <trkpt lat="44.35865" lon="6.73344">
        <ele>2311.4</ele>
        <time>2021-09-23T10:32:22Z</time>
      </trkpt>
      <trkpt lat="44.35868" lon="6.73347">
        <ele>2312.2</ele>
        <time>2021-09-23T10:32:26Z</time>
      </trkpt>
      <trkpt lat="44.35871" lon="6.73347">
        <ele>2312.1</ele>
        <time>2021-09-23T10:32:30Z</time>
      </trkpt>
      <trkpt lat="44.35874" lon="6.73348">
        <ele>2312.3</ele>
        <time>2021-09-23T10:32:38Z</time>
      </trkpt>
      <trkpt lat="44.35876" lon="6.73349">
        <ele>2312.6</ele>
        <time>2021-09-23T10:32:42Z</time>
      </trkpt>
      <trkpt lat="44.35876" lon="6.73352">
        <ele>2313.5</ele>
        <time>2021-09-23T10:32:46Z</time>
      </trkpt>
      <trkpt lat="44.35876" lon="6.73356">
        <ele>2314.6</ele>
        <time>2021-09-23T10:32:50Z</time>
      </trkpt>
      <trkpt lat="44.35873" lon="6.73358">
        <ele>2315.3</ele>
        <time>2021-09-23T10:32:54Z</time>
      </trkpt>
      <trkpt lat="44.3587" lon="6.73358">
        <ele>2315.4</ele>
        <time>2021-09-23T10:32:58Z</time>
      </trkpt>
      <trkpt lat="44.35866" lon="6.73358">
        <ele>2315.5</ele>
        <time>2021-09-23T10:33:02Z</time>
      </trkpt>
      <trkpt lat="44.35863" lon="6.73358">
        <ele>2315.6</ele>
        <time>2021-09-23T10:33:06Z</time>
      </trkpt>
      <trkpt lat="44.3586" lon="6.73358">
        <ele>2315.7</ele>
        <time>2021-09-23T10:33:10Z</time>
      </trkpt>
      <trkpt lat="44.35857" lon="6.73358">
        <ele>2315.7</ele>
        <time>2021-09-23T10:33:14Z</time>
      </trkpt>
      <trkpt lat="44.35855" lon="6.73358">
        <ele>2315.8</ele>
        <time>2021-09-23T10:33:18Z</time>
      </trkpt>
      <trkpt lat="44.35852" lon="6.7336">
        <ele>2316.5</ele>
        <time>2021-09-23T10:33:22Z</time>
      </trkpt>
      <trkpt lat="44.35849" lon="6.73363">
        <ele>2317.5</ele>
        <time>2021-09-23T10:33:26Z</time>
      </trkpt>
      <trkpt lat="44.35847" lon="6.73365">
        <ele>2318.1</ele>
        <time>2021-09-23T10:33:30Z</time>
      </trkpt>
      <trkpt lat="44.35844" lon="6.73366">
        <ele>2318.5</ele>
        <time>2021-09-23T10:33:34Z</time>
      </trkpt>
      <trkpt lat="44.35842" lon="6.73368">
        <ele>2319.1</ele>
        <time>2021-09-23T10:33:38Z</time>
      </trkpt>
      <trkpt lat="44.35844" lon="6.73371">
        <ele>2320</ele>
        <time>2021-09-23T10:33:42Z</time>
      </trkpt>
      <trkpt lat="44.35846" lon="6.73374">
        <ele>2320.8</ele>
        <time>2021-09-23T10:33:46Z</time>
      </trkpt>
      <trkpt lat="44.35849" lon="6.73377">
        <ele>2321.6</ele>
        <time>2021-09-23T10:33:50Z</time>
      </trkpt>
      <trkpt lat="44.3585" lon="6.7338">
        <ele>2322.5</ele>
        <time>2021-09-23T10:33:54Z</time>
      </trkpt>
      <trkpt lat="44.35852" lon="6.73382">
        <ele>2323</ele>
        <time>2021-09-23T10:33:58Z</time>
      </trkpt>
      <trkpt lat="44.35854" lon="6.73383">
        <ele>2323.3</ele>
        <time>2021-09-23T10:34:02Z</time>
      </trkpt>
      <trkpt lat="44.35857" lon="6.73384">
        <ele>2323.5</ele>
        <time>2021-09-23T10:34:06Z</time>
      </trkpt>
      <trkpt lat="44.35858" lon="6.73386">
        <ele>2324</ele>
        <time>2021-09-23T10:34:10Z</time>
      </trkpt>
      <trkpt lat="44.3586" lon="6.73387">
        <ele>2324.3</ele>
        <time>2021-09-23T10:34:14Z</time>
      </trkpt>
      <trkpt lat="44.35861" lon="6.73388">
        <ele>2324.5</ele>
        <time>2021-09-23T10:34:18Z</time>
      </trkpt>
      <trkpt lat="44.35863" lon="6.73391">
        <ele>2325.3</ele>
        <time>2021-09-23T10:34:26Z</time>
      </trkpt>
      <trkpt lat="44.35865" lon="6.73393">
        <ele>2325.9</ele>
        <time>2021-09-23T10:34:30Z</time>
      </trkpt>
      <trkpt lat="44.35867" lon="6.73395">
        <ele>2326.4</ele>
        <time>2021-09-23T10:34:34Z</time>
      </trkpt>
      <trkpt lat="44.35868" lon="6.73396">
        <ele>2326.7</ele>
        <time>2021-09-23T10:34:38Z</time>
      </trkpt>
      <trkpt lat="44.35871" lon="6.73398">
        <ele>2327.1</ele>
        <time>2021-09-23T10:34:42Z</time>
      </trkpt>
      <trkpt lat="44.35874" lon="6.734">
        <ele>2327.6</ele>
        <time>2021-09-23T10:34:46Z</time>
      </trkpt>
      <trkpt lat="44.35876" lon="6.73402">
        <ele>2328.2</ele>
        <time>2021-09-23T10:34:50Z</time>
      </trkpt>
      <trkpt lat="44.35878" lon="6.73405">
        <ele>2329</ele>
        <time>2021-09-23T10:34:54Z</time>
      </trkpt>
      <trkpt lat="44.3588" lon="6.73408">
        <ele>2329.8</ele>
        <time>2021-09-23T10:34:58Z</time>
      </trkpt>
      <trkpt lat="44.35883" lon="6.73412">
        <ele>2330.8</ele>
        <time>2021-09-23T10:35:06Z</time>
      </trkpt>
      <trkpt lat="44.35885" lon="6.73414">
        <ele>2331.4</ele>
        <time>2021-09-23T10:35:10Z</time>
      </trkpt>
      <trkpt lat="44.35887" lon="6.73417">
        <ele>2332.2</ele>
        <time>2021-09-23T10:35:14Z</time>
      </trkpt>
      <trkpt lat="44.3589" lon="6.73421">
        <ele>2333.5</ele>
        <time>2021-09-23T10:35:18Z</time>
      </trkpt>
      <trkpt lat="44.35892" lon="6.73423">
        <ele>2334.2</ele>
        <time>2021-09-23T10:35:22Z</time>
      </trkpt>
      <trkpt lat="44.35893" lon="6.73426">
        <ele>2335.2</ele>
        <time>2021-09-23T10:35:26Z</time>
      </trkpt>
      <trkpt lat="44.35895" lon="6.73428">
        <ele>2335.9</ele>
        <time>2021-09-23T10:35:30Z</time>
      </trkpt>
      <trkpt lat="44.35898" lon="6.73431">
        <ele>2336.9</ele>
        <time>2021-09-23T10:35:34Z</time>
      </trkpt>
      <trkpt lat="44.35899" lon="6.73433">
        <ele>2337.6</ele>
        <time>2021-09-23T10:35:38Z</time>
      </trkpt>
      <trkpt lat="44.35901" lon="6.73435">
        <ele>2338.2</ele>
        <time>2021-09-23T10:35:42Z</time>
      </trkpt>
      <trkpt lat="44.35904" lon="6.73437">
        <ele>2338.8</ele>
        <time>2021-09-23T10:35:46Z</time>
      </trkpt>
      <trkpt lat="44.35905" lon="6.7344">
        <ele>2339.9</ele>
        <time>2021-09-23T10:35:54Z</time>
      </trkpt>
      <trkpt lat="44.35908" lon="6.73442">
        <ele>2340.5</ele>
        <time>2021-09-23T10:35:58Z</time>
      </trkpt>
      <trkpt lat="44.3591" lon="6.73444">
        <ele>2341.1</ele>
        <time>2021-09-23T10:36:02Z</time>
      </trkpt>
      <trkpt lat="44.35912" lon="6.73446">
        <ele>2341.7</ele>
        <time>2021-09-23T10:36:06Z</time>
      </trkpt>
      <trkpt lat="44.35914" lon="6.73448">
        <ele>2342.4</ele>
        <time>2021-09-23T10:36:10Z</time>
      </trkpt>
      <trkpt lat="44.35916" lon="6.73451">
        <ele>2343.4</ele>
        <time>2021-09-23T10:36:14Z</time>
      </trkpt>
      <trkpt lat="44.35917" lon="6.73453">
        <ele>2344</ele>
        <time>2021-09-23T10:36:18Z</time>
      </trkpt>
      <trkpt lat="44.3592" lon="6.73455">
        <ele>2344.4</ele>
        <time>2021-09-23T10:36:22Z</time>
      </trkpt>
      <trkpt lat="44.35921" lon="6.73457">
        <ele>2345.1</ele>
        <time>2021-09-23T10:36:26Z</time>
      </trkpt>
      <trkpt lat="44.35923" lon="6.73459">
        <ele>2345.6</ele>
        <time>2021-09-23T10:36:30Z</time>
      </trkpt>
      <trkpt lat="44.35924" lon="6.7346">
        <ele>2345.8</ele>
        <time>2021-09-23T10:36:34Z</time>
      </trkpt>
      <trkpt lat="44.35926" lon="6.73462">
        <ele>2346.3</ele>
        <time>2021-09-23T10:36:38Z</time>
      </trkpt>
      <trkpt lat="44.35927" lon="6.73466">
        <ele>2347.6</ele>
        <time>2021-09-23T10:36:42Z</time>
      </trkpt>
      <trkpt lat="44.35925" lon="6.73468">
        <ele>2348.6</ele>
        <time>2021-09-23T10:36:46Z</time>
      </trkpt>
      <trkpt lat="44.35923" lon="6.73468">
        <ele>2348.8</ele>
        <time>2021-09-23T10:36:50Z</time>
      </trkpt>
      <trkpt lat="44.3592" lon="6.73468">
        <ele>2349.1</ele>
        <time>2021-09-23T10:36:54Z</time>
      </trkpt>
      <trkpt lat="44.35917" lon="6.73467">
        <ele>2349.1</ele>
        <time>2021-09-23T10:36:58Z</time>
      </trkpt>
      <trkpt lat="44.35914" lon="6.73468">
        <ele>2349.6</ele>
        <time>2021-09-23T10:37:02Z</time>
      </trkpt>
      <trkpt lat="44.35912" lon="6.73468">
        <ele>2349.7</ele>
        <time>2021-09-23T10:37:06Z</time>
      </trkpt>
      <trkpt lat="44.35909" lon="6.73468">
        <ele>2349.8</ele>
        <time>2021-09-23T10:37:10Z</time>
      </trkpt>
      <trkpt lat="44.35906" lon="6.73468">
        <ele>2349.9</ele>
        <time>2021-09-23T10:37:14Z</time>
      </trkpt>
      <trkpt lat="44.35904" lon="6.73468">
        <ele>2350</ele>
        <time>2021-09-23T10:37:18Z</time>
      </trkpt>
      <trkpt lat="44.35902" lon="6.73468">
        <ele>2350.1</ele>
        <time>2021-09-23T10:37:22Z</time>
      </trkpt>
      <trkpt lat="44.35899" lon="6.73469">
        <ele>2350.6</ele>
        <time>2021-09-23T10:37:26Z</time>
      </trkpt>
      <trkpt lat="44.35897" lon="6.7347">
        <ele>2351.1</ele>
        <time>2021-09-23T10:37:30Z</time>
      </trkpt>
      <trkpt lat="44.35894" lon="6.73471">
        <ele>2351.6</ele>
        <time>2021-09-23T10:37:34Z</time>
      </trkpt>
      <trkpt lat="44.3589" lon="6.73471">
        <ele>2351.7</ele>
        <time>2021-09-23T10:37:38Z</time>
      </trkpt>
      <trkpt lat="44.35887" lon="6.7347">
        <ele>2351.5</ele>
        <time>2021-09-23T10:37:42Z</time>
      </trkpt>
      <trkpt lat="44.35884" lon="6.7347">
        <ele>2351.6</ele>
        <time>2021-09-23T10:37:46Z</time>
      </trkpt>
      <trkpt lat="44.35881" lon="6.7347">
        <ele>2351.8</ele>
        <time>2021-09-23T10:37:50Z</time>
      </trkpt>
      <trkpt lat="44.35877" lon="6.73469">
        <ele>2351.6</ele>
        <time>2021-09-23T10:37:54Z</time>
      </trkpt>
      <trkpt lat="44.35874" lon="6.73469">
        <ele>2351.7</ele>
        <time>2021-09-23T10:37:58Z</time>
      </trkpt>
      <trkpt lat="44.35871" lon="6.73471">
        <ele>2352.6</ele>
        <time>2021-09-23T10:38:02Z</time>
      </trkpt>
      <trkpt lat="44.35869" lon="6.73473">
        <ele>2353.4</ele>
        <time>2021-09-23T10:38:06Z</time>
      </trkpt>
      <trkpt lat="44.35868" lon="6.73475">
        <ele>2354.2</ele>
        <time>2021-09-23T10:38:10Z</time>
      </trkpt>
      <trkpt lat="44.35868" lon="6.73479">
        <ele>2355.6</ele>
        <time>2021-09-23T10:38:18Z</time>
      </trkpt>
      <trkpt lat="44.35868" lon="6.73482">
        <ele>2356.7</ele>
        <time>2021-09-23T10:38:22Z</time>
      </trkpt>
      <trkpt lat="44.35868" lon="6.73486">
        <ele>2358.2</ele>
        <time>2021-09-23T10:38:26Z</time>
      </trkpt>
      <trkpt lat="44.35868" lon="6.73491">
        <ele>2360</ele>
        <time>2021-09-23T10:38:30Z</time>
      </trkpt>
      <trkpt lat="44.35869" lon="6.73494">
        <ele>2361.1</ele>
        <time>2021-09-23T10:38:34Z</time>
      </trkpt>
      <trkpt lat="44.35869" lon="6.73497">
        <ele>2362.2</ele>
        <time>2021-09-23T10:38:38Z</time>
      </trkpt>
      <trkpt lat="44.35868" lon="6.735">
        <ele>2363.3</ele>
        <time>2021-09-23T10:38:42Z</time>
      </trkpt>
      <trkpt lat="44.35867" lon="6.73505">
        <ele>2364.9</ele>
        <time>2021-09-23T10:38:50Z</time>
      </trkpt>
      <trkpt lat="44.35866" lon="6.7351">
        <ele>2366.5</ele>
        <time>2021-09-23T10:38:58Z</time>
      </trkpt>
      <trkpt lat="44.35864" lon="6.73512">
        <ele>2367.2</ele>
        <time>2021-09-23T10:39:02Z</time>
      </trkpt>
      <trkpt lat="44.35861" lon="6.73515">
        <ele>2368.4</ele>
        <time>2021-09-23T10:39:10Z</time>
      </trkpt>
      <trkpt lat="44.35861" lon="6.73517">
        <ele>2369</ele>
        <time>2021-09-23T10:39:14Z</time>
      </trkpt>
      <trkpt lat="44.35862" lon="6.7352">
        <ele>2369.8</ele>
        <time>2021-09-23T10:39:22Z</time>
      </trkpt>
      <trkpt lat="44.35864" lon="6.7352">
        <ele>2369.7</ele>
        <time>2021-09-23T10:39:26Z</time>
      </trkpt>
      <trkpt lat="44.35867" lon="6.73522">
        <ele>2370</ele>
        <time>2021-09-23T10:39:30Z</time>
      </trkpt>
      <trkpt lat="44.35868" lon="6.73523">
        <ele>2370.2</ele>
        <time>2021-09-23T10:39:34Z</time>
      </trkpt>
      <trkpt lat="44.3587" lon="6.73525">
        <ele>2370.7</ele>
        <time>2021-09-23T10:39:38Z</time>
      </trkpt>
      <trkpt lat="44.35871" lon="6.73527">
        <ele>2371.2</ele>
        <time>2021-09-23T10:39:42Z</time>
      </trkpt>
      <trkpt lat="44.35874" lon="6.73529">
        <ele>2371.5</ele>
        <time>2021-09-23T10:39:46Z</time>
      </trkpt>
      <trkpt lat="44.35876" lon="6.73531">
        <ele>2371.8</ele>
        <time>2021-09-23T10:39:50Z</time>
      </trkpt>
      <trkpt lat="44.35878" lon="6.73533">
        <ele>2372.2</ele>
        <time>2021-09-23T10:39:54Z</time>
      </trkpt>
      <trkpt lat="44.3588" lon="6.73535">
        <ele>2372.5</ele>
        <time>2021-09-23T10:39:58Z</time>
      </trkpt>
      <trkpt lat="44.35881" lon="6.73537">
        <ele>2373</ele>
        <time>2021-09-23T10:40:02Z</time>
      </trkpt>
      <trkpt lat="44.35884" lon="6.73541">
        <ele>2373.7</ele>
        <time>2021-09-23T10:40:10Z</time>
      </trkpt>
      <trkpt lat="44.35885" lon="6.73544">
        <ele>2374.4</ele>
        <time>2021-09-23T10:40:14Z</time>
      </trkpt>
      <trkpt lat="44.35882" lon="6.73544">
        <ele>2374.8</ele>
        <time>2021-09-23T10:40:18Z</time>
      </trkpt>
      <trkpt lat="44.3588" lon="6.73544">
        <ele>2375.1</ele>
        <time>2021-09-23T10:40:22Z</time>
      </trkpt>
      <trkpt lat="44.35877" lon="6.73543">
        <ele>2375.1</ele>
        <time>2021-09-23T10:40:26Z</time>
      </trkpt>
      <trkpt lat="44.35875" lon="6.73543">
        <ele>2375.4</ele>
        <time>2021-09-23T10:40:30Z</time>
      </trkpt>
      <trkpt lat="44.35873" lon="6.73543">
        <ele>2375.6</ele>
        <time>2021-09-23T10:40:34Z</time>
      </trkpt>
      <trkpt lat="44.3587" lon="6.73544">
        <ele>2376.3</ele>
        <time>2021-09-23T10:40:38Z</time>
      </trkpt>
      <trkpt lat="44.35868" lon="6.73546">
        <ele>2377.1</ele>
        <time>2021-09-23T10:40:42Z</time>
      </trkpt>
      <trkpt lat="44.35866" lon="6.73547">
        <ele>2377.7</ele>
        <time>2021-09-23T10:40:46Z</time>
      </trkpt>
      <trkpt lat="44.35863" lon="6.73549">
        <ele>2378.7</ele>
        <time>2021-09-23T10:40:50Z</time>
      </trkpt>
      <trkpt lat="44.3586" lon="6.7355">
        <ele>2379.4</ele>
        <time>2021-09-23T10:40:54Z</time>
      </trkpt>
      <trkpt lat="44.35857" lon="6.7355">
        <ele>2379.8</ele>
        <time>2021-09-23T10:40:58Z</time>
      </trkpt>
      <trkpt lat="44.35855" lon="6.73551">
        <ele>2380.4</ele>
        <time>2021-09-23T10:41:02Z</time>
      </trkpt>
      <trkpt lat="44.35852" lon="6.73551">
        <ele>2380.8</ele>
        <time>2021-09-23T10:41:06Z</time>
      </trkpt>
      <trkpt lat="44.35849" lon="6.7355">
        <ele>2380.9</ele>
        <time>2021-09-23T10:41:10Z</time>
      </trkpt>
      <trkpt lat="44.35846" lon="6.73548">
        <ele>2380.6</ele>
        <time>2021-09-23T10:41:14Z</time>
      </trkpt>
      <trkpt lat="44.35843" lon="6.73546">
        <ele>2380.3</ele>
        <time>2021-09-23T10:41:18Z</time>
      </trkpt>
      <trkpt lat="44.3584" lon="6.73546">
        <ele>2380.7</ele>
        <time>2021-09-23T10:41:22Z</time>
      </trkpt>
      <trkpt lat="44.35837" lon="6.73545">
        <ele>2380.7</ele>
        <time>2021-09-23T10:41:26Z</time>
      </trkpt>
      <trkpt lat="44.35835" lon="6.73544">
        <ele>2380.6</ele>
        <time>2021-09-23T10:41:30Z</time>
      </trkpt>
      <trkpt lat="44.35833" lon="6.73544">
        <ele>2380.9</ele>
        <time>2021-09-23T10:41:34Z</time>
      </trkpt>
      <trkpt lat="44.3583" lon="6.73544">
        <ele>2381.5</ele>
        <time>2021-09-23T10:41:42Z</time>
      </trkpt>
      <trkpt lat="44.35827" lon="6.73545">
        <ele>2382.5</ele>
        <time>2021-09-23T10:41:46Z</time>
      </trkpt>
      <trkpt lat="44.35825" lon="6.73545">
        <ele>2382.9</ele>
        <time>2021-09-23T10:41:50Z</time>
      </trkpt>
      <trkpt lat="44.35822" lon="6.73546">
        <ele>2383.8</ele>
        <time>2021-09-23T10:41:54Z</time>
      </trkpt>
      <trkpt lat="44.3582" lon="6.73546">
        <ele>2384.2</ele>
        <time>2021-09-23T10:41:58Z</time>
      </trkpt>
      <trkpt lat="44.35817" lon="6.73547">
        <ele>2385.2</ele>
        <time>2021-09-23T10:42:02Z</time>
      </trkpt>
      <trkpt lat="44.35814" lon="6.73547">
        <ele>2385.8</ele>
        <time>2021-09-23T10:42:06Z</time>
      </trkpt>
      <trkpt lat="44.35811" lon="6.73547">
        <ele>2386.4</ele>
        <time>2021-09-23T10:42:10Z</time>
      </trkpt>
      <trkpt lat="44.35808" lon="6.73547">
        <ele>2387</ele>
        <time>2021-09-23T10:42:14Z</time>
      </trkpt>
      <trkpt lat="44.35806" lon="6.73547">
        <ele>2387.4</ele>
        <time>2021-09-23T10:42:18Z</time>
      </trkpt>
      <trkpt lat="44.35803" lon="6.73547">
        <ele>2388</ele>
        <time>2021-09-23T10:42:26Z</time>
      </trkpt>
      <trkpt lat="44.358" lon="6.73547">
        <ele>2388.6</ele>
        <time>2021-09-23T10:42:30Z</time>
      </trkpt>
      <trkpt lat="44.35798" lon="6.73548">
        <ele>2389.4</ele>
        <time>2021-09-23T10:42:34Z</time>
      </trkpt>
      <trkpt lat="44.35796" lon="6.73548">
        <ele>2389.8</ele>
        <time>2021-09-23T10:42:38Z</time>
      </trkpt>
      <trkpt lat="44.35794" lon="6.73548">
        <ele>2390.2</ele>
        <time>2021-09-23T10:42:42Z</time>
      </trkpt>
      <trkpt lat="44.35792" lon="6.73548">
        <ele>2390.7</ele>
        <time>2021-09-23T10:42:46Z</time>
      </trkpt>
      <trkpt lat="44.35789" lon="6.73547">
        <ele>2390.9</ele>
        <time>2021-09-23T10:42:50Z</time>
      </trkpt>
      <trkpt lat="44.35787" lon="6.73548">
        <ele>2391.7</ele>
        <time>2021-09-23T10:42:54Z</time>
      </trkpt>
      <trkpt lat="44.35785" lon="6.7355">
        <ele>2392.9</ele>
        <time>2021-09-23T10:42:58Z</time>
      </trkpt>
      <trkpt lat="44.35782" lon="6.73554">
        <ele>2395.1</ele>
        <time>2021-09-23T10:43:10Z</time>
      </trkpt>
      <trkpt lat="44.35783" lon="6.73556">
        <ele>2395.6</ele>
        <time>2021-09-23T10:43:14Z</time>
      </trkpt>
      <trkpt lat="44.35785" lon="6.73558">
        <ele>2396</ele>
        <time>2021-09-23T10:43:18Z</time>
      </trkpt>
      <trkpt lat="44.35787" lon="6.7356">
        <ele>2396.4</ele>
        <time>2021-09-23T10:43:22Z</time>
      </trkpt>
      <trkpt lat="44.35788" lon="6.73561">
        <ele>2396.6</ele>
        <time>2021-09-23T10:43:26Z</time>
      </trkpt>
      <trkpt lat="44.35791" lon="6.73563">
        <ele>2396.7</ele>
        <time>2021-09-23T10:43:30Z</time>
      </trkpt>
      <trkpt lat="44.35792" lon="6.73565">
        <ele>2397.3</ele>
        <time>2021-09-23T10:43:34Z</time>
      </trkpt>
      <trkpt lat="44.35794" lon="6.73567">
        <ele>2397.6</ele>
        <time>2021-09-23T10:43:38Z</time>
      </trkpt>
      <trkpt lat="44.35796" lon="6.73571">
        <ele>2398.7</ele>
        <time>2021-09-23T10:43:46Z</time>
      </trkpt>
      <trkpt lat="44.35798" lon="6.73573">
        <ele>2399.1</ele>
        <time>2021-09-23T10:43:50Z</time>
      </trkpt>
      <trkpt lat="44.35801" lon="6.73577">
        <ele>2399.9</ele>
        <time>2021-09-23T10:43:54Z</time>
      </trkpt>
      <trkpt lat="44.35802" lon="6.73579">
        <ele>2400.5</ele>
        <time>2021-09-23T10:43:58Z</time>
      </trkpt>
      <trkpt lat="44.35804" lon="6.73581">
        <ele>2400.8</ele>
        <time>2021-09-23T10:44:06Z</time>
      </trkpt>
      <trkpt lat="44.35806" lon="6.73583">
        <ele>2401.1</ele>
        <time>2021-09-23T10:44:10Z</time>
      </trkpt>
      <trkpt lat="44.35809" lon="6.73586">
        <ele>2401.6</ele>
        <time>2021-09-23T10:44:14Z</time>
      </trkpt>
      <trkpt lat="44.3581" lon="6.73589">
        <ele>2402.5</ele>
        <time>2021-09-23T10:44:18Z</time>
      </trkpt>
      <trkpt lat="44.35812" lon="6.73592">
        <ele>2403.2</ele>
        <time>2021-09-23T10:44:22Z</time>
      </trkpt>
      <trkpt lat="44.35811" lon="6.73595">
        <ele>2404.6</ele>
        <time>2021-09-23T10:44:26Z</time>
      </trkpt>
      <trkpt lat="44.35809" lon="6.73595">
        <ele>2405.1</ele>
        <time>2021-09-23T10:44:30Z</time>
      </trkpt>
      <trkpt lat="44.35807" lon="6.73593">
        <ele>2404.8</ele>
        <time>2021-09-23T10:44:34Z</time>
      </trkpt>
      <trkpt lat="44.35805" lon="6.73593">
        <ele>2405.3</ele>
        <time>2021-09-23T10:44:38Z</time>
      </trkpt>
      <trkpt lat="44.35803" lon="6.73593">
        <ele>2405.7</ele>
        <time>2021-09-23T10:44:42Z</time>
      </trkpt>
      <trkpt lat="44.358" lon="6.73593">
        <ele>2406.4</ele>
        <time>2021-09-23T10:44:46Z</time>
      </trkpt>
      <trkpt lat="44.35798" lon="6.73594">
        <ele>2407.3</ele>
        <time>2021-09-23T10:44:54Z</time>
      </trkpt>
      <trkpt lat="44.358" lon="6.73596">
        <ele>2407.6</ele>
        <time>2021-09-23T10:44:58Z</time>
      </trkpt>
      <trkpt lat="44.35801" lon="6.73599">
        <ele>2408.6</ele>
        <time>2021-09-23T10:45:02Z</time>
      </trkpt>
      <trkpt lat="44.35804" lon="6.73603">
        <ele>2409.4</ele>
        <time>2021-09-23T10:45:10Z</time>
      </trkpt>
      <trkpt lat="44.35806" lon="6.73605">
        <ele>2409.7</ele>
        <time>2021-09-23T10:45:14Z</time>
      </trkpt>
      <trkpt lat="44.35808" lon="6.73608">
        <ele>2410.4</ele>
        <time>2021-09-23T10:45:18Z</time>
      </trkpt>
      <trkpt lat="44.35809" lon="6.73611">
        <ele>2411.3</ele>
        <time>2021-09-23T10:45:22Z</time>
      </trkpt>
      <trkpt lat="44.35811" lon="6.73614">
        <ele>2412</ele>
        <time>2021-09-23T10:45:30Z</time>
      </trkpt>
      <trkpt lat="44.35812" lon="6.73616">
        <ele>2412.5</ele>
        <time>2021-09-23T10:45:34Z</time>
      </trkpt>
      <trkpt lat="44.35815" lon="6.73621">
        <ele>2413.7</ele>
        <time>2021-09-23T10:45:46Z</time>
      </trkpt>
      <trkpt lat="44.35817" lon="6.73623">
        <ele>2413.9</ele>
        <time>2021-09-23T10:45:50Z</time>
      </trkpt>
      <trkpt lat="44.35818" lon="6.73624">
        <ele>2414.1</ele>
        <time>2021-09-23T10:45:54Z</time>
      </trkpt>
      <trkpt lat="44.35821" lon="6.73626">
        <ele>2414.1</ele>
        <time>2021-09-23T10:46:02Z</time>
      </trkpt>
      <trkpt lat="44.35824" lon="6.73628">
        <ele>2414</ele>
        <time>2021-09-23T10:46:06Z</time>
      </trkpt>
      <trkpt lat="44.35826" lon="6.7363">
        <ele>2414.3</ele>
        <time>2021-09-23T10:46:14Z</time>
      </trkpt>
      <trkpt lat="44.35827" lon="6.73632">
        <ele>2414.8</ele>
        <time>2021-09-23T10:46:18Z</time>
      </trkpt>
      <trkpt lat="44.35825" lon="6.73635">
        <ele>2416.4</ele>
        <time>2021-09-23T10:46:22Z</time>
      </trkpt>
      <trkpt lat="44.35822" lon="6.73636">
        <ele>2417.6</ele>
        <time>2021-09-23T10:46:30Z</time>
      </trkpt>
      <trkpt lat="44.3582" lon="6.73637">
        <ele>2418.5</ele>
        <time>2021-09-23T10:46:34Z</time>
      </trkpt>
      <trkpt lat="44.35818" lon="6.73639">
        <ele>2419.8</ele>
        <time>2021-09-23T10:46:38Z</time>
      </trkpt>
      <trkpt lat="44.35815" lon="6.73641">
        <ele>2421.4</ele>
        <time>2021-09-23T10:46:46Z</time>
      </trkpt>
      <trkpt lat="44.35815" lon="6.73644">
        <ele>2422.5</ele>
        <time>2021-09-23T10:47:02Z</time>
      </trkpt>
      <trkpt lat="44.35817" lon="6.73645">
        <ele>2422.4</ele>
        <time>2021-09-23T10:47:06Z</time>
      </trkpt>
      <trkpt lat="44.35818" lon="6.73649">
        <ele>2423.6</ele>
        <time>2021-09-23T10:47:10Z</time>
      </trkpt>
      <trkpt lat="44.35815" lon="6.73652">
        <ele>2425.6</ele>
        <time>2021-09-23T10:47:18Z</time>
      </trkpt>
      <trkpt lat="44.35814" lon="6.73654">
        <ele>2426.7</ele>
        <time>2021-09-23T10:47:22Z</time>
      </trkpt>
      <trkpt lat="44.35814" lon="6.73656">
        <ele>2427.5</ele>
        <time>2021-09-23T10:47:30Z</time>
      </trkpt>
      <trkpt lat="44.35816" lon="6.73659">
        <ele>2428</ele>
        <time>2021-09-23T10:47:34Z</time>
      </trkpt>
      <trkpt lat="44.35818" lon="6.7366">
        <ele>2427.9</ele>
        <time>2021-09-23T10:47:38Z</time>
      </trkpt>
      <trkpt lat="44.3582" lon="6.73662">
        <ele>2428.1</ele>
        <time>2021-09-23T10:47:42Z</time>
      </trkpt>
      <trkpt lat="44.35822" lon="6.73665">
        <ele>2428.6</ele>
        <time>2021-09-23T10:47:46Z</time>
      </trkpt>
      <trkpt lat="44.35824" lon="6.73668">
        <ele>2429.2</ele>
        <time>2021-09-23T10:47:50Z</time>
      </trkpt>
      <trkpt lat="44.35826" lon="6.73671">
        <ele>2429.7</ele>
        <time>2021-09-23T10:47:54Z</time>
      </trkpt>
      <trkpt lat="44.35827" lon="6.73675">
        <ele>2430.9</ele>
        <time>2021-09-23T10:47:58Z</time>
      </trkpt>
      <trkpt lat="44.35828" lon="6.73679">
        <ele>2432.1</ele>
        <time>2021-09-23T10:48:02Z</time>
      </trkpt>
      <trkpt lat="44.3583" lon="6.73683">
        <ele>2433</ele>
        <time>2021-09-23T10:48:06Z</time>
      </trkpt>
      <trkpt lat="44.35831" lon="6.73686">
        <ele>2433.8</ele>
        <time>2021-09-23T10:48:10Z</time>
      </trkpt>
      <trkpt lat="44.35832" lon="6.73689">
        <ele>2434.7</ele>
        <time>2021-09-23T10:48:14Z</time>
      </trkpt>
      <trkpt lat="44.35833" lon="6.73692">
        <ele>2435.5</ele>
        <time>2021-09-23T10:48:18Z</time>
      </trkpt>
      <trkpt lat="44.35834" lon="6.73696">
        <ele>2436.8</ele>
        <time>2021-09-23T10:48:22Z</time>
      </trkpt>
      <trkpt lat="44.35834" lon="6.73698">
        <ele>2437.5</ele>
        <time>2021-09-23T10:48:26Z</time>
      </trkpt>
      <trkpt lat="44.35835" lon="6.73702">
        <ele>2438.8</ele>
        <time>2021-09-23T10:48:30Z</time>
      </trkpt>
      <trkpt lat="44.35836" lon="6.73705">
        <ele>2439.8</ele>
        <time>2021-09-23T10:48:38Z</time>
      </trkpt>
      <trkpt lat="44.35838" lon="6.73708">
        <ele>2440.6</ele>
        <time>2021-09-23T10:48:42Z</time>
      </trkpt>
      <trkpt lat="44.35839" lon="6.73711">
        <ele>2441.6</ele>
        <time>2021-09-23T10:48:46Z</time>
      </trkpt>
      <trkpt lat="44.35841" lon="6.73716">
        <ele>2443.3</ele>
        <time>2021-09-23T10:48:54Z</time>
      </trkpt>
      <trkpt lat="44.35842" lon="6.7372">
        <ele>2444.7</ele>
        <time>2021-09-23T10:49:02Z</time>
      </trkpt>
      <trkpt lat="44.35845" lon="6.73726">
        <ele>2446.7</ele>
        <time>2021-09-23T10:49:14Z</time>
      </trkpt>
      <trkpt lat="44.35846" lon="6.73729">
        <ele>2447.9</ele>
        <time>2021-09-23T10:49:18Z</time>
      </trkpt>
      <trkpt lat="44.35848" lon="6.73732">
        <ele>2448.9</ele>
        <time>2021-09-23T10:49:26Z</time>
      </trkpt>
      <trkpt lat="44.35849" lon="6.73734">
        <ele>2449.6</ele>
        <time>2021-09-23T10:49:30Z</time>
      </trkpt>
      <trkpt lat="44.35852" lon="6.73738">
        <ele>2451</ele>
        <time>2021-09-23T10:49:42Z</time>
      </trkpt>
      <trkpt lat="44.35855" lon="6.73738">
        <ele>2450.8</ele>
        <time>2021-09-23T10:49:46Z</time>
      </trkpt>
      <trkpt lat="44.35857" lon="6.7374">
        <ele>2451.5</ele>
        <time>2021-09-23T10:49:50Z</time>
      </trkpt>
      <trkpt lat="44.35863" lon="6.73749">
        <ele>2455.1</ele>
        <time>2021-09-23T10:50:18Z</time>
      </trkpt>
      <trkpt lat="44.35868" lon="6.73756">
        <ele>2457.8</ele>
        <time>2021-09-23T10:50:38Z</time>
      </trkpt>
      <trkpt lat="44.3587" lon="6.73759">
        <ele>2459</ele>
        <time>2021-09-23T10:50:46Z</time>
      </trkpt>
      <trkpt lat="44.35873" lon="6.73765">
        <ele>2461.3</ele>
        <time>2021-09-23T10:51:06Z</time>
      </trkpt>
      <trkpt lat="44.35874" lon="6.73768">
        <ele>2462.5</ele>
        <time>2021-09-23T10:51:10Z</time>
      </trkpt>
      <trkpt lat="44.35872" lon="6.7377">
        <ele>2463.4</ele>
        <time>2021-09-23T10:51:18Z</time>
      </trkpt>
      <trkpt lat="44.35869" lon="6.73773">
        <ele>2464.8</ele>
        <time>2021-09-23T10:51:30Z</time>
      </trkpt>
      <trkpt lat="44.3587" lon="6.73774">
        <ele>2465.2</ele>
        <time>2021-09-23T10:51:34Z</time>
      </trkpt>
      <trkpt lat="44.35871" lon="6.73775">
        <ele>2465.6</ele>
        <time>2021-09-23T10:51:38Z</time>
      </trkpt>
      <trkpt lat="44.35872" lon="6.73777">
        <ele>2466.3</ele>
        <time>2021-09-23T10:51:42Z</time>
      </trkpt>
      <trkpt lat="44.35875" lon="6.73778">
        <ele>2466.6</ele>
        <time>2021-09-23T10:51:50Z</time>
      </trkpt>
      <trkpt lat="44.35876" lon="6.73778">
        <ele>2466.5</ele>
        <time>2021-09-23T10:51:54Z</time>
      </trkpt>
      <trkpt lat="44.35879" lon="6.73779">
        <ele>2466.8</ele>
        <time>2021-09-23T10:51:58Z</time>
      </trkpt>
      <trkpt lat="44.35882" lon="6.7378">
        <ele>2467.1</ele>
        <time>2021-09-23T10:52:06Z</time>
      </trkpt>
      <trkpt lat="44.35885" lon="6.7378">
        <ele>2466.9</ele>
        <time>2021-09-23T10:52:14Z</time>
      </trkpt>
      <trkpt lat="44.35887" lon="6.73781">
        <ele>2467.2</ele>
        <time>2021-09-23T10:52:22Z</time>
      </trkpt>
      <trkpt lat="44.35889" lon="6.73781">
        <ele>2467.1</ele>
        <time>2021-09-23T10:52:26Z</time>
      </trkpt>
      <trkpt lat="44.35892" lon="6.73782">
        <ele>2467.4</ele>
        <time>2021-09-23T10:52:34Z</time>
      </trkpt>
      <trkpt lat="44.35894" lon="6.73781">
        <ele>2466.8</ele>
        <time>2021-09-23T10:52:38Z</time>
      </trkpt>
      <trkpt lat="44.35897" lon="6.73782">
        <ele>2467.1</ele>
        <time>2021-09-23T10:52:46Z</time>
      </trkpt>
      <trkpt lat="44.35901" lon="6.73788">
        <ele>2469.3</ele>
        <time>2021-09-23T10:53:02Z</time>
      </trkpt>
      <trkpt lat="44.35902" lon="6.7379">
        <ele>2470.1</ele>
        <time>2021-09-23T10:53:06Z</time>
      </trkpt>
      <trkpt lat="44.35906" lon="6.73795">
        <ele>2471.9</ele>
        <time>2021-09-23T10:53:18Z</time>
      </trkpt>
      <trkpt lat="44.35908" lon="6.73796">
        <ele>2472.2</ele>
        <time>2021-09-23T10:53:26Z</time>
      </trkpt>
      <trkpt lat="44.3591" lon="6.73798">
        <ele>2473</ele>
        <time>2021-09-23T10:53:30Z</time>
      </trkpt>
      <trkpt lat="44.35911" lon="6.738">
        <ele>2473.7</ele>
        <time>2021-09-23T10:53:34Z</time>
      </trkpt>
      <trkpt lat="44.35913" lon="6.73801">
        <ele>2474</ele>
        <time>2021-09-23T10:53:42Z</time>
      </trkpt>
      <trkpt lat="44.35914" lon="6.73801">
        <ele>2474</ele>
        <time>2021-09-23T10:53:46Z</time>
      </trkpt>
      <trkpt lat="44.35918" lon="6.73803">
        <ele>2474.7</ele>
        <time>2021-09-23T10:53:58Z</time>
      </trkpt>
      <trkpt lat="44.35921" lon="6.73803">
        <ele>2474.9</ele>
        <time>2021-09-23T10:54:06Z</time>
      </trkpt>
      <trkpt lat="44.35924" lon="6.73806">
        <ele>2476.3</ele>
        <time>2021-09-23T10:54:22Z</time>
      </trkpt>
      <trkpt lat="44.35924" lon="6.7381">
        <ele>2478</ele>
        <time>2021-09-23T10:54:26Z</time>
      </trkpt>
      <trkpt lat="44.35923" lon="6.73813">
        <ele>2479.1</ele>
        <time>2021-09-23T10:54:30Z</time>
      </trkpt>
      <trkpt lat="44.35922" lon="6.73815">
        <ele>2479.9</ele>
        <time>2021-09-23T10:54:34Z</time>
      </trkpt>
      <trkpt lat="44.3592" lon="6.73816">
        <ele>2480.2</ele>
        <time>2021-09-23T10:54:38Z</time>
      </trkpt>
      <trkpt lat="44.35916" lon="6.73818">
        <ele>2480.8</ele>
        <time>2021-09-23T10:54:50Z</time>
      </trkpt>
      <trkpt lat="44.35916" lon="6.73821">
        <ele>2482</ele>
        <time>2021-09-23T10:54:58Z</time>
      </trkpt>
      <trkpt lat="44.35917" lon="6.73823">
        <ele>2482.8</ele>
        <time>2021-09-23T10:55:02Z</time>
      </trkpt>
      <trkpt lat="44.35917" lon="6.73825">
        <ele>2483.6</ele>
        <time>2021-09-23T10:55:10Z</time>
      </trkpt>
      <trkpt lat="44.35918" lon="6.73825">
        <ele>2483.7</ele>
        <time>2021-09-23T10:56:58Z</time>
      </trkpt>
      <trkpt lat="44.3592" lon="6.73825">
        <ele>2483.8</ele>
        <time>2021-09-23T10:59:38Z</time>
      </trkpt>
      <trkpt lat="44.35921" lon="6.73825">
        <ele>2483.9</ele>
        <time>2021-09-23T10:59:46Z</time>
      </trkpt>
      <trkpt lat="44.35925" lon="6.73825">
        <ele>2484.2</ele>
        <time>2021-09-23T10:59:50Z</time>
      </trkpt>
      <trkpt lat="44.35929" lon="6.73824">
        <ele>2484.1</ele>
        <time>2021-09-23T10:59:54Z</time>
      </trkpt>
      <trkpt lat="44.35933" lon="6.73825">
        <ele>2484.8</ele>
        <time>2021-09-23T10:59:58Z</time>
      </trkpt>
      <trkpt lat="44.35938" lon="6.73824">
        <ele>2484.7</ele>
        <time>2021-09-23T11:00:02Z</time>
      </trkpt>
      <trkpt lat="44.35943" lon="6.73823">
        <ele>2484.6</ele>
        <time>2021-09-23T11:00:06Z</time>
      </trkpt>
      <trkpt lat="44.35948" lon="6.73821">
        <ele>2484.2</ele>
        <time>2021-09-23T11:00:10Z</time>
      </trkpt>
      <trkpt lat="44.35954" lon="6.73821">
        <ele>2484.6</ele>
        <time>2021-09-23T11:00:14Z</time>
      </trkpt>
      <trkpt lat="44.3596" lon="6.73821">
        <ele>2485</ele>
        <time>2021-09-23T11:00:18Z</time>
      </trkpt>
      <trkpt lat="44.35964" lon="6.7382">
        <ele>2484.9</ele>
        <time>2021-09-23T11:00:22Z</time>
      </trkpt>
      <trkpt lat="44.35967" lon="6.7382">
        <ele>2485.1</ele>
        <time>2021-09-23T11:00:26Z</time>
      </trkpt>
      <trkpt lat="44.35971" lon="6.7382">
        <ele>2485.4</ele>
        <time>2021-09-23T11:00:30Z</time>
      </trkpt>
      <trkpt lat="44.35973" lon="6.73819">
        <ele>2485.1</ele>
        <time>2021-09-23T11:00:34Z</time>
      </trkpt>
      <trkpt lat="44.35976" lon="6.73818">
        <ele>2484.9</ele>
        <time>2021-09-23T11:00:38Z</time>
      </trkpt>
      <trkpt lat="44.35978" lon="6.73817">
        <ele>2484.6</ele>
        <time>2021-09-23T11:00:42Z</time>
      </trkpt>
      <trkpt lat="44.35981" lon="6.73816">
        <ele>2484.4</ele>
        <time>2021-09-23T11:00:46Z</time>
      </trkpt>
      <trkpt lat="44.35983" lon="6.73815">
        <ele>2484.1</ele>
        <time>2021-09-23T11:00:50Z</time>
      </trkpt>
      <trkpt lat="44.35986" lon="6.73815">
        <ele>2484.3</ele>
        <time>2021-09-23T11:00:54Z</time>
      </trkpt>
      <trkpt lat="44.35988" lon="6.73816">
        <ele>2484.9</ele>
        <time>2021-09-23T11:00:58Z</time>
      </trkpt>
      <trkpt lat="44.35991" lon="6.73816">
        <ele>2485.1</ele>
        <time>2021-09-23T11:01:02Z</time>
      </trkpt>
      <trkpt lat="44.35995" lon="6.73815">
        <ele>2485</ele>
        <time>2021-09-23T11:01:06Z</time>
      </trkpt>
      <trkpt lat="44.35998" lon="6.73815">
        <ele>2485.2</ele>
        <time>2021-09-23T11:01:10Z</time>
      </trkpt>
      <trkpt lat="44.36001" lon="6.73814">
        <ele>2485.1</ele>
        <time>2021-09-23T11:01:14Z</time>
      </trkpt>
      <trkpt lat="44.36003" lon="6.73814">
        <ele>2485.5</ele>
        <time>2021-09-23T11:01:18Z</time>
      </trkpt>
      <trkpt lat="44.36005" lon="6.73814">
        <ele>2485.9</ele>
        <time>2021-09-23T11:01:30Z</time>
      </trkpt>
      <trkpt lat="44.36009" lon="6.73813">
        <ele>2486.2</ele>
        <time>2021-09-23T11:01:34Z</time>
      </trkpt>
      <trkpt lat="44.36012" lon="6.73812">
        <ele>2486.4</ele>
        <time>2021-09-23T11:01:38Z</time>
      </trkpt>
      <trkpt lat="44.36016" lon="6.7381">
        <ele>2486.4</ele>
        <time>2021-09-23T11:01:42Z</time>
      </trkpt>
      <trkpt lat="44.3602" lon="6.73809">
        <ele>2486.8</ele>
        <time>2021-09-23T11:01:46Z</time>
      </trkpt>
      <trkpt lat="44.36024" lon="6.73808">
        <ele>2487.2</ele>
        <time>2021-09-23T11:01:50Z</time>
      </trkpt>
      <trkpt lat="44.36028" lon="6.73808">
        <ele>2488</ele>
        <time>2021-09-23T11:01:54Z</time>
      </trkpt>
      <trkpt lat="44.36033" lon="6.73806">
        <ele>2488.2</ele>
        <time>2021-09-23T11:01:58Z</time>
      </trkpt>
      <trkpt lat="44.36037" lon="6.73806">
        <ele>2489.1</ele>
        <time>2021-09-23T11:02:02Z</time>
      </trkpt>
      <trkpt lat="44.36041" lon="6.73805">
        <ele>2489.5</ele>
        <time>2021-09-23T11:02:06Z</time>
      </trkpt>
      <trkpt lat="44.36045" lon="6.73803">
        <ele>2489.5</ele>
        <time>2021-09-23T11:02:10Z</time>
      </trkpt>
      <trkpt lat="44.3605" lon="6.73803">
        <ele>2490.6</ele>
        <time>2021-09-23T11:02:14Z</time>
      </trkpt>
      <trkpt lat="44.36054" lon="6.73802">
        <ele>2491</ele>
        <time>2021-09-23T11:02:18Z</time>
      </trkpt>
      <trkpt lat="44.36058" lon="6.73801">
        <ele>2491.5</ele>
        <time>2021-09-23T11:02:22Z</time>
      </trkpt>
      <trkpt lat="44.36061" lon="6.73801">
        <ele>2492.1</ele>
        <time>2021-09-23T11:02:30Z</time>
      </trkpt>
      <trkpt lat="44.36063" lon="6.73803">
        <ele>2493.3</ele>
        <time>2021-09-23T11:02:34Z</time>
      </trkpt>
      <trkpt lat="44.36066" lon="6.73804">
        <ele>2494.2</ele>
        <time>2021-09-23T11:02:38Z</time>
      </trkpt>
      <trkpt lat="44.36069" lon="6.73805">
        <ele>2495.2</ele>
        <time>2021-09-23T11:02:42Z</time>
      </trkpt>
      <trkpt lat="44.36072" lon="6.73805">
        <ele>2495.8</ele>
        <time>2021-09-23T11:02:46Z</time>
      </trkpt>
      <trkpt lat="44.36074" lon="6.73805">
        <ele>2496.2</ele>
        <time>2021-09-23T11:02:50Z</time>
      </trkpt>
      <trkpt lat="44.36077" lon="6.73805">
        <ele>2496.8</ele>
        <time>2021-09-23T11:02:54Z</time>
      </trkpt>
      <trkpt lat="44.3608" lon="6.73805">
        <ele>2497.5</ele>
        <time>2021-09-23T11:02:58Z</time>
      </trkpt>
      <trkpt lat="44.36083" lon="6.73805">
        <ele>2498.1</ele>
        <time>2021-09-23T11:03:02Z</time>
      </trkpt>
      <trkpt lat="44.36085" lon="6.73806">
        <ele>2498.9</ele>
        <time>2021-09-23T11:03:06Z</time>
      </trkpt>
      <trkpt lat="44.36088" lon="6.73806">
        <ele>2499.5</ele>
        <time>2021-09-23T11:03:10Z</time>
      </trkpt>
      <trkpt lat="44.36089" lon="6.73806">
        <ele>2499.8</ele>
        <time>2021-09-23T11:03:26Z</time>
      </trkpt>
      <trkpt lat="44.36092" lon="6.73806">
        <ele>2500.4</ele>
        <time>2021-09-23T11:03:30Z</time>
      </trkpt>
      <trkpt lat="44.36094" lon="6.73806">
        <ele>2500.9</ele>
        <time>2021-09-23T11:03:34Z</time>
      </trkpt>
      <trkpt lat="44.36096" lon="6.73805">
        <ele>2501</ele>
        <time>2021-09-23T11:03:38Z</time>
      </trkpt>
      <trkpt lat="44.36099" lon="6.73805">
        <ele>2501.7</ele>
        <time>2021-09-23T11:03:42Z</time>
      </trkpt>
      <trkpt lat="44.36101" lon="6.73805">
        <ele>2502.1</ele>
        <time>2021-09-23T11:03:46Z</time>
      </trkpt>
      <trkpt lat="44.36104" lon="6.73804">
        <ele>2502.4</ele>
        <time>2021-09-23T11:03:50Z</time>
      </trkpt>
      <trkpt lat="44.36106" lon="6.73804">
        <ele>2502.9</ele>
        <time>2021-09-23T11:03:54Z</time>
      </trkpt>
      <trkpt lat="44.36108" lon="6.73804">
        <ele>2503.3</ele>
        <time>2021-09-23T11:03:58Z</time>
      </trkpt>
      <trkpt lat="44.36111" lon="6.73804">
        <ele>2504</ele>
        <time>2021-09-23T11:04:02Z</time>
      </trkpt>
      <trkpt lat="44.36114" lon="6.73804">
        <ele>2504.7</ele>
        <time>2021-09-23T11:04:06Z</time>
      </trkpt>
      <trkpt lat="44.36117" lon="6.73805">
        <ele>2505.7</ele>
        <time>2021-09-23T11:04:10Z</time>
      </trkpt>
      <trkpt lat="44.36121" lon="6.73805">
        <ele>2506.6</ele>
        <time>2021-09-23T11:04:14Z</time>
      </trkpt>
      <trkpt lat="44.36125" lon="6.73806">
        <ele>2507.8</ele>
        <time>2021-09-23T11:04:18Z</time>
      </trkpt>
      <trkpt lat="44.36128" lon="6.73805">
        <ele>2508.2</ele>
        <time>2021-09-23T11:04:22Z</time>
      </trkpt>
      <trkpt lat="44.36131" lon="6.73804">
        <ele>2508.5</ele>
        <time>2021-09-23T11:04:26Z</time>
      </trkpt>
      <trkpt lat="44.36135" lon="6.73804">
        <ele>2509.4</ele>
        <time>2021-09-23T11:04:30Z</time>
      </trkpt>
      <trkpt lat="44.36138" lon="6.73803">
        <ele>2509.7</ele>
        <time>2021-09-23T11:04:34Z</time>
      </trkpt>
      <trkpt lat="44.36142" lon="6.73802">
        <ele>2510.3</ele>
        <time>2021-09-23T11:04:38Z</time>
      </trkpt>
      <trkpt lat="44.36145" lon="6.73802">
        <ele>2511</ele>
        <time>2021-09-23T11:04:42Z</time>
      </trkpt>
      <trkpt lat="44.36148" lon="6.73803">
        <ele>2512</ele>
        <time>2021-09-23T11:04:46Z</time>
      </trkpt>
      <trkpt lat="44.36151" lon="6.73803">
        <ele>2512.7</ele>
        <time>2021-09-23T11:04:50Z</time>
      </trkpt>
      <trkpt lat="44.36153" lon="6.73804">
        <ele>2513.4</ele>
        <time>2021-09-23T11:04:54Z</time>
      </trkpt>
      <trkpt lat="44.36156" lon="6.73804">
        <ele>2514.1</ele>
        <time>2021-09-23T11:04:58Z</time>
      </trkpt>
      <trkpt lat="44.36158" lon="6.73804">
        <ele>2514.6</ele>
        <time>2021-09-23T11:05:02Z</time>
      </trkpt>
      <trkpt lat="44.3616" lon="6.73805">
        <ele>2515.3</ele>
        <time>2021-09-23T11:05:06Z</time>
      </trkpt>
      <trkpt lat="44.36163" lon="6.73805">
        <ele>2516</ele>
        <time>2021-09-23T11:05:10Z</time>
      </trkpt>
      <trkpt lat="44.36165" lon="6.73806">
        <ele>2516.8</ele>
        <time>2021-09-23T11:05:14Z</time>
      </trkpt>
      <trkpt lat="44.36167" lon="6.73807">
        <ele>2517.4</ele>
        <time>2021-09-23T11:05:18Z</time>
      </trkpt>
      <trkpt lat="44.36169" lon="6.73808">
        <ele>2517.3</ele>
        <time>2021-09-23T11:05:22Z</time>
      </trkpt>
      <trkpt lat="44.36172" lon="6.73808">
        <ele>2516.6</ele>
        <time>2021-09-23T11:05:26Z</time>
      </trkpt>
      <trkpt lat="44.36175" lon="6.73809">
        <ele>2516.2</ele>
        <time>2021-09-23T11:05:30Z</time>
      </trkpt>
      <trkpt lat="44.36177" lon="6.7381">
        <ele>2516.1</ele>
        <time>2021-09-23T11:05:34Z</time>
      </trkpt>
      <trkpt lat="44.36179" lon="6.73811">
        <ele>2516</ele>
        <time>2021-09-23T11:05:38Z</time>
      </trkpt>
      <trkpt lat="44.36181" lon="6.73812">
        <ele>2515.8</ele>
        <time>2021-09-23T11:05:42Z</time>
      </trkpt>
      <trkpt lat="44.36184" lon="6.73813">
        <ele>2515.5</ele>
        <time>2021-09-23T11:05:50Z</time>
      </trkpt>
      <trkpt lat="44.36186" lon="6.73813">
        <ele>2515</ele>
        <time>2021-09-23T11:05:54Z</time>
      </trkpt>
      <trkpt lat="44.36189" lon="6.73814">
        <ele>2514.6</ele>
        <time>2021-09-23T11:05:58Z</time>
      </trkpt>
      <trkpt lat="44.36191" lon="6.73816">
        <ele>2514.8</ele>
        <time>2021-09-23T11:06:02Z</time>
      </trkpt>
      <trkpt lat="44.36193" lon="6.73818">
        <ele>2515</ele>
        <time>2021-09-23T11:06:06Z</time>
      </trkpt>
      <trkpt lat="44.36196" lon="6.7382">
        <ele>2515</ele>
        <time>2021-09-23T11:06:10Z</time>
      </trkpt>
      <trkpt lat="44.36198" lon="6.73822">
        <ele>2515.2</ele>
        <time>2021-09-23T11:06:14Z</time>
      </trkpt>
      <trkpt lat="44.362" lon="6.73824">
        <ele>2515.4</ele>
        <time>2021-09-23T11:06:18Z</time>
      </trkpt>
      <trkpt lat="44.36204" lon="6.73826">
        <ele>2515.1</ele>
        <time>2021-09-23T11:06:22Z</time>
      </trkpt>
      <trkpt lat="44.36207" lon="6.73828">
        <ele>2515.1</ele>
        <time>2021-09-23T11:06:26Z</time>
      </trkpt>
      <trkpt lat="44.36211" lon="6.7383">
        <ele>2514.8</ele>
        <time>2021-09-23T11:06:30Z</time>
      </trkpt>
      <trkpt lat="44.36214" lon="6.73833">
        <ele>2515.1</ele>
        <time>2021-09-23T11:06:34Z</time>
      </trkpt>
      <trkpt lat="44.36218" lon="6.73835">
        <ele>2514.5</ele>
        <time>2021-09-23T11:06:38Z</time>
      </trkpt>
      <trkpt lat="44.36221" lon="6.73837">
        <ele>2514.2</ele>
        <time>2021-09-23T11:06:42Z</time>
      </trkpt>
      <trkpt lat="44.36224" lon="6.73839">
        <ele>2513.9</ele>
        <time>2021-09-23T11:06:46Z</time>
      </trkpt>
      <trkpt lat="44.36227" lon="6.73841">
        <ele>2513.7</ele>
        <time>2021-09-23T11:06:50Z</time>
      </trkpt>
      <trkpt lat="44.36231" lon="6.73844">
        <ele>2513.6</ele>
        <time>2021-09-23T11:06:54Z</time>
      </trkpt>
      <trkpt lat="44.36234" lon="6.73848">
        <ele>2514.1</ele>
        <time>2021-09-23T11:07:06Z</time>
      </trkpt>
      <trkpt lat="44.36236" lon="6.7385">
        <ele>2514.3</ele>
        <time>2021-09-23T11:07:10Z</time>
      </trkpt>
      <trkpt lat="44.36238" lon="6.73853">
        <ele>2514.8</ele>
        <time>2021-09-23T11:07:14Z</time>
      </trkpt>
      <trkpt lat="44.36239" lon="6.73855">
        <ele>2515.2</ele>
        <time>2021-09-23T11:07:18Z</time>
      </trkpt>
      <trkpt lat="44.36241" lon="6.73858">
        <ele>2515.9</ele>
        <time>2021-09-23T11:07:22Z</time>
      </trkpt>
      <trkpt lat="44.36242" lon="6.73859">
        <ele>2516.1</ele>
        <time>2021-09-23T11:07:26Z</time>
      </trkpt>
      <trkpt lat="44.36244" lon="6.73861">
        <ele>2516.6</ele>
        <time>2021-09-23T11:07:30Z</time>
      </trkpt>
      <trkpt lat="44.36246" lon="6.73864">
        <ele>2517.4</ele>
        <time>2021-09-23T11:07:38Z</time>
      </trkpt>
      <trkpt lat="44.36248" lon="6.73867">
        <ele>2518.3</ele>
        <time>2021-09-23T11:07:42Z</time>
      </trkpt>
      <trkpt lat="44.36249" lon="6.7387">
        <ele>2519.3</ele>
        <time>2021-09-23T11:07:46Z</time>
      </trkpt>
      <trkpt lat="44.36249" lon="6.73874">
        <ele>2520.6</ele>
        <time>2021-09-23T11:07:50Z</time>
      </trkpt>
      <trkpt lat="44.3625" lon="6.73877">
        <ele>2521.7</ele>
        <time>2021-09-23T11:07:54Z</time>
      </trkpt>
      <trkpt lat="44.36251" lon="6.73881">
        <ele>2523.1</ele>
        <time>2021-09-23T11:08:02Z</time>
      </trkpt>
      <trkpt lat="44.36253" lon="6.73884">
        <ele>2524.1</ele>
        <time>2021-09-23T11:08:06Z</time>
      </trkpt>
      <trkpt lat="44.36254" lon="6.73881">
        <ele>2523.2</ele>
        <time>2021-09-23T11:08:14Z</time>
      </trkpt>
      <trkpt lat="44.36254" lon="6.73878">
        <ele>2522.2</ele>
        <time>2021-09-23T11:08:18Z</time>
      </trkpt>
      <trkpt lat="44.36255" lon="6.73878">
        <ele>2522.2</ele>
        <time>2021-09-23T11:08:22Z</time>
      </trkpt>
      <trkpt lat="44.36257" lon="6.73879">
        <ele>2522.6</ele>
        <time>2021-09-23T11:08:26Z</time>
      </trkpt>
      <trkpt lat="44.3626" lon="6.73881">
        <ele>2523.4</ele>
        <time>2021-09-23T11:08:34Z</time>
      </trkpt>
      <trkpt lat="44.36261" lon="6.73884">
        <ele>2524.4</ele>
        <time>2021-09-23T11:08:38Z</time>
      </trkpt>
      <trkpt lat="44.36262" lon="6.73887">
        <ele>2525.4</ele>
        <time>2021-09-23T11:08:42Z</time>
      </trkpt>
      <trkpt lat="44.36264" lon="6.7389">
        <ele>2526.5</ele>
        <time>2021-09-23T11:08:50Z</time>
      </trkpt>
      <trkpt lat="44.36266" lon="6.7389">
        <ele>2526.5</ele>
        <time>2021-09-23T11:09:02Z</time>
      </trkpt>
      <trkpt lat="44.36268" lon="6.7389">
        <ele>2526.6</ele>
        <time>2021-09-23T11:09:06Z</time>
      </trkpt>
      <trkpt lat="44.3627" lon="6.73892">
        <ele>2527.3</ele>
        <time>2021-09-23T11:09:14Z</time>
      </trkpt>
      <trkpt lat="44.36271" lon="6.73893">
        <ele>2527.6</ele>
        <time>2021-09-23T11:09:22Z</time>
      </trkpt>
      <trkpt lat="44.36272" lon="6.73895">
        <ele>2528.3</ele>
        <time>2021-09-23T11:09:30Z</time>
      </trkpt>
      <trkpt lat="44.36271" lon="6.73898">
        <ele>2529.2</ele>
        <time>2021-09-23T11:09:34Z</time>
      </trkpt>
      <trkpt lat="44.36271" lon="6.739">
        <ele>2529.8</ele>
        <time>2021-09-23T11:09:38Z</time>
      </trkpt>
      <trkpt lat="44.36273" lon="6.73903">
        <ele>2530.8</ele>
        <time>2021-09-23T11:09:46Z</time>
      </trkpt>
      <trkpt lat="44.36274" lon="6.73904">
        <ele>2531.1</ele>
        <time>2021-09-23T11:09:54Z</time>
      </trkpt>
      <trkpt lat="44.36275" lon="6.73898">
        <ele>2529.3</ele>
        <time>2021-09-23T11:10:10Z</time>
      </trkpt>
      <trkpt lat="44.36277" lon="6.73899">
        <ele>2529.6</ele>
        <time>2021-09-23T11:10:18Z</time>
      </trkpt>
      <trkpt lat="44.36277" lon="6.73901">
        <ele>2530.2</ele>
        <time>2021-09-23T11:10:26Z</time>
      </trkpt>
      <trkpt lat="44.3628" lon="6.73903">
        <ele>2530.9</ele>
        <time>2021-09-23T11:10:30Z</time>
      </trkpt>
      <trkpt lat="44.36281" lon="6.73905">
        <ele>2531.5</ele>
        <time>2021-09-23T11:10:34Z</time>
      </trkpt>
      <trkpt lat="44.36285" lon="6.7391">
        <ele>2533</ele>
        <time>2021-09-23T11:10:50Z</time>
      </trkpt>
      <trkpt lat="44.36286" lon="6.73913">
        <ele>2533.9</ele>
        <time>2021-09-23T11:10:54Z</time>
      </trkpt>
      <trkpt lat="44.36287" lon="6.73913">
        <ele>2533.9</ele>
        <time>2021-09-23T11:11:02Z</time>
      </trkpt>
      <trkpt lat="44.3629" lon="6.73916">
        <ele>2534.8</ele>
        <time>2021-09-23T11:11:10Z</time>
      </trkpt>
      <trkpt lat="44.36291" lon="6.73917">
        <ele>2535</ele>
        <time>2021-09-23T11:11:14Z</time>
      </trkpt>
      <trkpt lat="44.36293" lon="6.73919">
        <ele>2535</ele>
        <time>2021-09-23T11:11:18Z</time>
      </trkpt>
      <trkpt lat="44.36295" lon="6.7392">
        <ele>2535</ele>
        <time>2021-09-23T11:11:22Z</time>
      </trkpt>
      <trkpt lat="44.36296" lon="6.73921">
        <ele>2535</ele>
        <time>2021-09-23T11:11:26Z</time>
      </trkpt>
      <trkpt lat="44.36299" lon="6.73924">
        <ele>2535</ele>
        <time>2021-09-23T11:11:30Z</time>
      </trkpt>
      <trkpt lat="44.363" lon="6.73926">
        <ele>2535</ele>
        <time>2021-09-23T11:11:34Z</time>
      </trkpt>
      <trkpt lat="44.36302" lon="6.7393">
        <ele>2535</ele>
        <time>2021-09-23T11:11:38Z</time>
      </trkpt>
      <trkpt lat="44.36304" lon="6.73933">
        <ele>2535</ele>
        <time>2021-09-23T11:11:46Z</time>
      </trkpt>
      <trkpt lat="44.36307" lon="6.73935">
        <ele>2535</ele>
        <time>2021-09-23T11:11:50Z</time>
      </trkpt>
      <trkpt lat="44.36309" lon="6.73938">
        <ele>2535</ele>
        <time>2021-09-23T11:11:54Z</time>
      </trkpt>
      <trkpt lat="44.36312" lon="6.73941">
        <ele>2535</ele>
        <time>2021-09-23T11:11:58Z</time>
      </trkpt>
      <trkpt lat="44.36315" lon="6.73943">
        <ele>2535</ele>
        <time>2021-09-23T11:12:02Z</time>
      </trkpt>
      <trkpt lat="44.36318" lon="6.73944">
        <ele>2535</ele>
        <time>2021-09-23T11:12:06Z</time>
      </trkpt>
      <trkpt lat="44.36322" lon="6.73945">
        <ele>2535</ele>
        <time>2021-09-23T11:12:10Z</time>
      </trkpt>
      <trkpt lat="44.36324" lon="6.7395">
        <ele>2535</ele>
        <time>2021-09-23T11:12:14Z</time>
      </trkpt>
      <trkpt lat="44.36326" lon="6.73954">
        <ele>2535</ele>
        <time>2021-09-23T11:12:18Z</time>
      </trkpt>
      <trkpt lat="44.36329" lon="6.73956">
        <ele>2535</ele>
        <time>2021-09-23T11:12:22Z</time>
      </trkpt>
      <trkpt lat="44.36331" lon="6.73956">
        <ele>2535</ele>
        <time>2021-09-23T11:12:26Z</time>
      </trkpt>
      <trkpt lat="44.36333" lon="6.73957">
        <ele>2535</ele>
        <time>2021-09-23T11:12:30Z</time>
      </trkpt>
      <trkpt lat="44.36335" lon="6.73956">
        <ele>2597.5</ele>
        <time>2021-09-23T11:12:34Z</time>
      </trkpt>
      <trkpt lat="44.36339" lon="6.73955">
        <ele>2597.6</ele>
        <time>2021-09-23T11:12:38Z</time>
      </trkpt>
      <trkpt lat="44.36341" lon="6.73957">
        <ele>2597.8</ele>
        <time>2021-09-23T11:12:42Z</time>
      </trkpt>
      <trkpt lat="44.36344" lon="6.73959">
        <ele>2598.1</ele>
        <time>2021-09-23T11:12:46Z</time>
      </trkpt>
      <trkpt lat="44.36347" lon="6.73962">
        <ele>2598.7</ele>
        <time>2021-09-23T11:12:50Z</time>
      </trkpt>
      <trkpt lat="44.3635" lon="6.73964">
        <ele>2599.2</ele>
        <time>2021-09-23T11:12:54Z</time>
      </trkpt>
      <trkpt lat="44.36352" lon="6.73966">
        <ele>2599.7</ele>
        <time>2021-09-23T11:12:58Z</time>
      </trkpt>
      <trkpt lat="44.36355" lon="6.73968">
        <ele>2600.4</ele>
        <time>2021-09-23T11:13:02Z</time>
      </trkpt>
      <trkpt lat="44.36357" lon="6.7397">
        <ele>2601</ele>
        <time>2021-09-23T11:13:06Z</time>
      </trkpt>
      <trkpt lat="44.36359" lon="6.73969">
        <ele>2601</ele>
        <time>2021-09-23T11:13:14Z</time>
      </trkpt>
      <trkpt lat="44.36361" lon="6.73968">
        <ele>2601.1</ele>
        <time>2021-09-23T11:13:18Z</time>
      </trkpt>
      <trkpt lat="44.36363" lon="6.73969">
        <ele>2601</ele>
        <time>2021-09-23T11:13:22Z</time>
      </trkpt>
      <trkpt lat="44.36366" lon="6.73968">
        <ele>2600.3</ele>
        <time>2021-09-23T11:13:26Z</time>
      </trkpt>
      <trkpt lat="44.36369" lon="6.73968">
        <ele>2599.8</ele>
        <time>2021-09-23T11:13:30Z</time>
      </trkpt>
      <trkpt lat="44.3637" lon="6.73967">
        <ele>2599.5</ele>
        <time>2021-09-23T11:13:38Z</time>
      </trkpt>
      <trkpt lat="44.36371" lon="6.73967">
        <ele>2599.3</ele>
        <time>2021-09-23T11:13:46Z</time>
      </trkpt>
      <trkpt lat="44.36372" lon="6.73967">
        <ele>2599.1</ele>
        <time>2021-09-23T11:13:54Z</time>
      </trkpt>
      <trkpt lat="44.36376" lon="6.73968">
        <ele>2598.7</ele>
        <time>2021-09-23T11:13:58Z</time>
      </trkpt>
      <trkpt lat="44.3638" lon="6.73968">
        <ele>2598</ele>
        <time>2021-09-23T11:14:02Z</time>
      </trkpt>
      <trkpt lat="44.36387" lon="6.73965">
        <ele>2596.5</ele>
        <time>2021-09-23T11:14:06Z</time>
      </trkpt>
      <trkpt lat="44.36394" lon="6.73963">
        <ele>2595</ele>
        <time>2021-09-23T11:14:10Z</time>
      </trkpt>
      <trkpt lat="44.36401" lon="6.73957">
        <ele>2593.3</ele>
        <time>2021-09-23T11:14:14Z</time>
      </trkpt>
      <trkpt lat="44.36411" lon="6.73952">
        <ele>2591.6</ele>
        <time>2021-09-23T11:14:18Z</time>
      </trkpt>
      <trkpt lat="44.36423" lon="6.73944">
        <ele>2590</ele>
        <time>2021-09-23T11:14:22Z</time>
      </trkpt>
      <trkpt lat="44.3644" lon="6.7394">
        <ele>2586.9</ele>
        <time>2021-09-23T11:14:26Z</time>
      </trkpt>
      <trkpt lat="44.36463" lon="6.73941">
        <ele>2584.3</ele>
        <time>2021-09-23T11:14:30Z</time>
      </trkpt>
      <trkpt lat="44.36473" lon="6.7395">
        <ele>2584.7</ele>
        <time>2021-09-23T11:14:34Z</time>
      </trkpt>
      <trkpt lat="44.3648" lon="6.73953">
        <ele>2584.3</ele>
        <time>2021-09-23T11:14:38Z</time>
      </trkpt>
      <trkpt lat="44.36493" lon="6.73959">
        <ele>2583.5</ele>
        <time>2021-09-23T11:14:42Z</time>
      </trkpt>
      <trkpt lat="44.36507" lon="6.73968">
        <ele>2545.6</ele>
        <time>2021-09-23T11:14:46Z</time>
      </trkpt>
      <trkpt lat="44.36513" lon="6.73974">
        <ele>2547.6</ele>
        <time>2021-09-23T11:14:50Z</time>
      </trkpt>
      <trkpt lat="44.36519" lon="6.73976">
        <ele>2548.2</ele>
        <time>2021-09-23T11:14:54Z</time>
      </trkpt>
      <trkpt lat="44.36523" lon="6.73979">
        <ele>2549.2</ele>
        <time>2021-09-23T11:14:58Z</time>
      </trkpt>
      <trkpt lat="44.36525" lon="6.73981">
        <ele>2549.8</ele>
        <time>2021-09-23T11:15:06Z</time>
      </trkpt>
      <trkpt lat="44.36527" lon="6.73983">
        <ele>2550.5</ele>
        <time>2021-09-23T11:15:10Z</time>
      </trkpt>
      <trkpt lat="44.3653" lon="6.73983">
        <ele>2550.5</ele>
        <time>2021-09-23T11:15:14Z</time>
      </trkpt>
      <trkpt lat="44.36532" lon="6.73983">
        <ele>2550.5</ele>
        <time>2021-09-23T11:15:18Z</time>
      </trkpt>
      <trkpt lat="44.36535" lon="6.73983">
        <ele>2550.5</ele>
        <time>2021-09-23T11:15:22Z</time>
      </trkpt>
      <trkpt lat="44.36538" lon="6.73984">
        <ele>2550.8</ele>
        <time>2021-09-23T11:15:26Z</time>
      </trkpt>
      <trkpt lat="44.3654" lon="6.73985">
        <ele>2551.1</ele>
        <time>2021-09-23T11:15:30Z</time>
      </trkpt>
      <trkpt lat="44.36543" lon="6.73985">
        <ele>2551.1</ele>
        <time>2021-09-23T11:15:34Z</time>
      </trkpt>
      <trkpt lat="44.36544" lon="6.73985">
        <ele>2551.1</ele>
        <time>2021-09-23T11:15:38Z</time>
      </trkpt>
      <trkpt lat="44.36547" lon="6.73983">
        <ele>2550.5</ele>
        <time>2021-09-23T11:15:42Z</time>
      </trkpt>
      <trkpt lat="44.36547" lon="6.73984">
        <ele>2550.8</ele>
        <time>2021-09-23T11:21:30Z</time>
      </trkpt>
      <trkpt lat="44.36548" lon="6.73984">
        <ele>2550.8</ele>
        <time>2021-09-23T11:21:34Z</time>
      </trkpt>
      <trkpt lat="44.36554" lon="6.7399">
        <ele>2552.8</ele>
        <time>2021-09-23T11:21:38Z</time>
      </trkpt>
      <trkpt lat="44.36561" lon="6.73999">
        <ele>2555.7</ele>
        <time>2021-09-23T11:21:42Z</time>
      </trkpt>
      <trkpt lat="44.36567" lon="6.7401">
        <ele>2556.1</ele>
        <time>2021-09-23T11:21:46Z</time>
      </trkpt>
      <trkpt lat="44.36573" lon="6.74023">
        <ele>2556.4</ele>
        <time>2021-09-23T11:21:50Z</time>
      </trkpt>
      <trkpt lat="44.36578" lon="6.74037">
        <ele>2556.8</ele>
        <time>2021-09-23T11:21:54Z</time>
      </trkpt>
      <trkpt lat="44.36584" lon="6.7405">
        <ele>2556.7</ele>
        <time>2021-09-23T11:21:58Z</time>
      </trkpt>
      <trkpt lat="44.36591" lon="6.74064">
        <ele>2552.2</ele>
        <time>2021-09-23T11:22:02Z</time>
      </trkpt>
      <trkpt lat="44.36599" lon="6.74077">
        <ele>2547.2</ele>
        <time>2021-09-23T11:22:06Z</time>
      </trkpt>
      <trkpt lat="44.36608" lon="6.74091">
        <ele>2538.5</ele>
        <time>2021-09-23T11:22:10Z</time>
      </trkpt>
      <trkpt lat="44.3661" lon="6.74097">
        <ele>2535</ele>
        <time>2021-09-23T11:22:50Z</time>
      </trkpt>
      <trkpt lat="44.36608" lon="6.741">
        <ele>2535.1</ele>
        <time>2021-09-23T11:22:54Z</time>
      </trkpt>
      <trkpt lat="44.36611" lon="6.74104">
        <ele>2531.9</ele>
        <time>2021-09-23T11:22:58Z</time>
      </trkpt>
      <trkpt lat="44.36616" lon="6.74106">
        <ele>2528.4</ele>
        <time>2021-09-23T11:23:02Z</time>
      </trkpt>
      <trkpt lat="44.36621" lon="6.74109">
        <ele>2524.7</ele>
        <time>2021-09-23T11:23:06Z</time>
      </trkpt>
      <trkpt lat="44.36624" lon="6.74109">
        <ele>2523.1</ele>
        <time>2021-09-23T11:23:10Z</time>
      </trkpt>
      <trkpt lat="44.36626" lon="6.74112">
        <ele>2521.2</ele>
        <time>2021-09-23T11:23:18Z</time>
      </trkpt>
      <trkpt lat="44.36627" lon="6.74115">
        <ele>2519.9</ele>
        <time>2021-09-23T11:23:22Z</time>
      </trkpt>
      <trkpt lat="44.3663" lon="6.74117">
        <ele>2517.9</ele>
        <time>2021-09-23T11:23:34Z</time>
      </trkpt>
      <trkpt lat="44.36633" lon="6.74118">
        <ele>2516.2</ele>
        <time>2021-09-23T11:23:38Z</time>
      </trkpt>
      <trkpt lat="44.36635" lon="6.7412">
        <ele>2514.7</ele>
        <time>2021-09-23T11:23:46Z</time>
      </trkpt>
      <trkpt lat="44.36639" lon="6.74122">
        <ele>2512.4</ele>
        <time>2021-09-23T11:23:54Z</time>
      </trkpt>
      <trkpt lat="44.36638" lon="6.74125">
        <ele>2512.2</ele>
        <time>2021-09-23T11:23:58Z</time>
      </trkpt>
      <trkpt lat="44.36639" lon="6.74129">
        <ele>2510.9</ele>
        <time>2021-09-23T11:24:02Z</time>
      </trkpt>
      <trkpt lat="44.36638" lon="6.74133">
        <ele>2510.5</ele>
        <time>2021-09-23T11:24:06Z</time>
      </trkpt>
      <trkpt lat="44.3664" lon="6.74135">
        <ele>2509.3</ele>
        <time>2021-09-23T11:24:10Z</time>
      </trkpt>
      <trkpt lat="44.3664" lon="6.74137">
        <ele>2508.9</ele>
        <time>2021-09-23T11:24:14Z</time>
      </trkpt>
      <trkpt lat="44.36638" lon="6.7414">
        <ele>2509</ele>
        <time>2021-09-23T11:24:18Z</time>
      </trkpt>
      <trkpt lat="44.36637" lon="6.74142">
        <ele>2508.9</ele>
        <time>2021-09-23T11:24:22Z</time>
      </trkpt>
      <trkpt lat="44.36637" lon="6.74145">
        <ele>2508.2</ele>
        <time>2021-09-23T11:24:30Z</time>
      </trkpt>
      <trkpt lat="44.36639" lon="6.74148">
        <ele>2506.9</ele>
        <time>2021-09-23T11:24:38Z</time>
      </trkpt>
      <trkpt lat="44.36641" lon="6.74151">
        <ele>2505.7</ele>
        <time>2021-09-23T11:24:42Z</time>
      </trkpt>
      <trkpt lat="44.36644" lon="6.74155">
        <ele>2504</ele>
        <time>2021-09-23T11:24:46Z</time>
      </trkpt>
      <trkpt lat="44.36648" lon="6.7416">
        <ele>2502.1</ele>
        <time>2021-09-23T11:24:50Z</time>
      </trkpt>
      <trkpt lat="44.36651" lon="6.74165">
        <ele>2500.6</ele>
        <time>2021-09-23T11:24:54Z</time>
      </trkpt>
      <trkpt lat="44.36655" lon="6.74169">
        <ele>2498.7</ele>
        <time>2021-09-23T11:24:58Z</time>
      </trkpt>
      <trkpt lat="44.36659" lon="6.74172">
        <ele>2496.9</ele>
        <time>2021-09-23T11:25:02Z</time>
      </trkpt>
      <trkpt lat="44.36663" lon="6.74174">
        <ele>2495.5</ele>
        <time>2021-09-23T11:25:06Z</time>
      </trkpt>
      <trkpt lat="44.36666" lon="6.74178">
        <ele>2493.6</ele>
        <time>2021-09-23T11:25:10Z</time>
      </trkpt>
      <trkpt lat="44.36669" lon="6.74183">
        <ele>2490.8</ele>
        <time>2021-09-23T11:25:14Z</time>
      </trkpt>
      <trkpt lat="44.3667" lon="6.74188">
        <ele>2488.9</ele>
        <time>2021-09-23T11:25:18Z</time>
      </trkpt>
      <trkpt lat="44.36674" lon="6.74193">
        <ele>2485.6</ele>
        <time>2021-09-23T11:25:22Z</time>
      </trkpt>
      <trkpt lat="44.36679" lon="6.742">
        <ele>2481.6</ele>
        <time>2021-09-23T11:25:26Z</time>
      </trkpt>
      <trkpt lat="44.36686" lon="6.74207">
        <ele>2477.1</ele>
        <time>2021-09-23T11:25:30Z</time>
      </trkpt>
      <trkpt lat="44.36691" lon="6.74216">
        <ele>2473.3</ele>
        <time>2021-09-23T11:25:34Z</time>
      </trkpt>
      <trkpt lat="44.36696" lon="6.74226">
        <ele>2469.5</ele>
        <time>2021-09-23T11:25:38Z</time>
      </trkpt>
      <trkpt lat="44.36699" lon="6.74232">
        <ele>2467.5</ele>
        <time>2021-09-23T11:25:42Z</time>
      </trkpt>
      <trkpt lat="44.367" lon="6.74237">
        <ele>2466.2</ele>
        <time>2021-09-23T11:25:46Z</time>
      </trkpt>
      <trkpt lat="44.36704" lon="6.74243">
        <ele>2464.1</ele>
        <time>2021-09-23T11:25:50Z</time>
      </trkpt>
      <trkpt lat="44.36708" lon="6.74247">
        <ele>2462.5</ele>
        <time>2021-09-23T11:25:54Z</time>
      </trkpt>
      <trkpt lat="44.36712" lon="6.74257">
        <ele>2459.4</ele>
        <time>2021-09-23T11:25:58Z</time>
      </trkpt>
      <trkpt lat="44.36716" lon="6.74264">
        <ele>2457</ele>
        <time>2021-09-23T11:26:02Z</time>
      </trkpt>
      <trkpt lat="44.36718" lon="6.74267">
        <ele>2455.9</ele>
        <time>2021-09-23T11:26:18Z</time>
      </trkpt>
      <trkpt lat="44.36721" lon="6.74273">
        <ele>2454</ele>
        <time>2021-09-23T11:26:22Z</time>
      </trkpt>
      <trkpt lat="44.36729" lon="6.74284">
        <ele>2450.6</ele>
        <time>2021-09-23T11:26:26Z</time>
      </trkpt>
      <trkpt lat="44.36735" lon="6.74293">
        <ele>2448.2</ele>
        <time>2021-09-23T11:26:30Z</time>
      </trkpt>
      <trkpt lat="44.36741" lon="6.74303">
        <ele>2445.9</ele>
        <time>2021-09-23T11:26:34Z</time>
      </trkpt>
      <trkpt lat="44.36748" lon="6.7431">
        <ele>2444.4</ele>
        <time>2021-09-23T11:26:38Z</time>
      </trkpt>
      <trkpt lat="44.3676" lon="6.74315">
        <ele>2441.6</ele>
        <time>2021-09-23T11:26:42Z</time>
      </trkpt>
      <trkpt lat="44.36779" lon="6.7433">
        <ele>2437</ele>
        <time>2021-09-23T11:26:46Z</time>
      </trkpt>
      <trkpt lat="44.36792" lon="6.74346">
        <ele>2431.8</ele>
        <time>2021-09-23T11:26:50Z</time>
      </trkpt>
      <trkpt lat="44.36801" lon="6.7435">
        <ele>2429.9</ele>
        <time>2021-09-23T11:26:54Z</time>
      </trkpt>
      <trkpt lat="44.36812" lon="6.74353">
        <ele>2428.4</ele>
        <time>2021-09-23T11:26:58Z</time>
      </trkpt>
      <trkpt lat="44.36823" lon="6.74359">
        <ele>2426.6</ele>
        <time>2021-09-23T11:27:02Z</time>
      </trkpt>
      <trkpt lat="44.36833" lon="6.74372">
        <ele>2424.4</ele>
        <time>2021-09-23T11:27:06Z</time>
      </trkpt>
      <trkpt lat="44.36844" lon="6.74381">
        <ele>2419.6</ele>
        <time>2021-09-23T11:27:10Z</time>
      </trkpt>
      <trkpt lat="44.36853" lon="6.74384">
        <ele>2416.3</ele>
        <time>2021-09-23T11:27:14Z</time>
      </trkpt>
      <trkpt lat="44.36865" lon="6.74396">
        <ele>2411.8</ele>
        <time>2021-09-23T11:27:18Z</time>
      </trkpt>
      <trkpt lat="44.36878" lon="6.74409">
        <ele>2407.8</ele>
        <time>2021-09-23T11:27:22Z</time>
      </trkpt>
      <trkpt lat="44.36882" lon="6.74415">
        <ele>2406.7</ele>
        <time>2021-09-23T11:27:26Z</time>
      </trkpt>
      <trkpt lat="44.36885" lon="6.74417">
        <ele>2405.8</ele>
        <time>2021-09-23T11:27:46Z</time>
      </trkpt>
      <trkpt lat="44.36892" lon="6.74415">
        <ele>2404.2</ele>
        <time>2021-09-23T11:27:50Z</time>
      </trkpt>
      <trkpt lat="44.36913" lon="6.74415">
        <ele>2398.8</ele>
        <time>2021-09-23T11:27:54Z</time>
      </trkpt>
      <trkpt lat="44.36942" lon="6.74417">
        <ele>2387.6</ele>
        <time>2021-09-23T11:27:58Z</time>
      </trkpt>
      <trkpt lat="44.36962" lon="6.74419">
        <ele>2379.1</ele>
        <time>2021-09-23T11:28:02Z</time>
      </trkpt>
      <trkpt lat="44.36971" lon="6.74427">
        <ele>2374.6</ele>
        <time>2021-09-23T11:28:06Z</time>
      </trkpt>
      <trkpt lat="44.36983" lon="6.74442">
        <ele>2369.7</ele>
        <time>2021-09-23T11:28:10Z</time>
      </trkpt>
      <trkpt lat="44.37006" lon="6.74467">
        <ele>2365.1</ele>
        <time>2021-09-23T11:28:14Z</time>
      </trkpt>
      <trkpt lat="44.37024" lon="6.74486">
        <ele>2363</ele>
        <time>2021-09-23T11:28:18Z</time>
      </trkpt>
      <trkpt lat="44.37049" lon="6.74509">
        <ele>2358.6</ele>
        <time>2021-09-23T11:28:22Z</time>
      </trkpt>
      <trkpt lat="44.37055" lon="6.74512">
        <ele>2357.3</ele>
        <time>2021-09-23T11:28:42Z</time>
      </trkpt>
      <trkpt lat="44.37057" lon="6.74513">
        <ele>2356.9</ele>
        <time>2021-09-23T11:28:50Z</time>
      </trkpt>
      <trkpt lat="44.37059" lon="6.74516">
        <ele>2356.3</ele>
        <time>2021-09-23T11:28:54Z</time>
      </trkpt>
      <trkpt lat="44.37062" lon="6.74517">
        <ele>2355.8</ele>
        <time>2021-09-23T11:29:10Z</time>
      </trkpt>
      <trkpt lat="44.37068" lon="6.74516">
        <ele>2355.4</ele>
        <time>2021-09-23T11:29:14Z</time>
      </trkpt>
      <trkpt lat="44.37075" lon="6.74515">
        <ele>2354.9</ele>
        <time>2021-09-23T11:29:18Z</time>
      </trkpt>
      <trkpt lat="44.37081" lon="6.74517">
        <ele>2354.2</ele>
        <time>2021-09-23T11:29:22Z</time>
      </trkpt>
      <trkpt lat="44.37097" lon="6.74527">
        <ele>2352.1</ele>
        <time>2021-09-23T11:29:26Z</time>
      </trkpt>
      <trkpt lat="44.37118" lon="6.74537">
        <ele>2350.6</ele>
        <time>2021-09-23T11:29:30Z</time>
      </trkpt>
      <trkpt lat="44.37144" lon="6.74551">
        <ele>2350.8</ele>
        <time>2021-09-23T11:29:34Z</time>
      </trkpt>
      <trkpt lat="44.3717" lon="6.7457">
        <ele>2352.6</ele>
        <time>2021-09-23T11:29:38Z</time>
      </trkpt>
      <trkpt lat="44.37183" lon="6.7459">
        <ele>2347.9</ele>
        <time>2021-09-23T11:29:42Z</time>
      </trkpt>
      <trkpt lat="44.37185" lon="6.74595">
        <ele>2346.2</ele>
        <time>2021-09-23T11:29:54Z</time>
      </trkpt>
      <trkpt lat="44.37195" lon="6.74607">
        <ele>2340.5</ele>
        <time>2021-09-23T11:29:58Z</time>
      </trkpt>
      <trkpt lat="44.37208" lon="6.74626">
        <ele>2334.3</ele>
        <time>2021-09-23T11:30:02Z</time>
      </trkpt>
      <trkpt lat="44.37226" lon="6.74658">
        <ele>2329.3</ele>
        <time>2021-09-23T11:30:06Z</time>
      </trkpt>
      <trkpt lat="44.3724" lon="6.74692">
        <ele>2324.2</ele>
        <time>2021-09-23T11:30:10Z</time>
      </trkpt>
      <trkpt lat="44.3725" lon="6.74722">
        <ele>2320.7</ele>
        <time>2021-09-23T11:30:14Z</time>
      </trkpt>
      <trkpt lat="44.37274" lon="6.74756">
        <ele>2310.8</ele>
        <time>2021-09-23T11:30:18Z</time>
      </trkpt>
      <trkpt lat="44.37302" lon="6.74787">
        <ele>2301.5</ele>
        <time>2021-09-23T11:30:22Z</time>
      </trkpt>
      <trkpt lat="44.37323" lon="6.74801">
        <ele>2297.9</ele>
        <time>2021-09-23T11:30:26Z</time>
      </trkpt>
      <trkpt lat="44.37326" lon="6.74802">
        <ele>2297.5</ele>
        <time>2021-09-23T11:30:34Z</time>
      </trkpt>
      <trkpt lat="44.37333" lon="6.74805">
        <ele>2296.7</ele>
        <time>2021-09-23T11:30:38Z</time>
      </trkpt>
      <trkpt lat="44.37338" lon="6.74825">
        <ele>2294.8</ele>
        <time>2021-09-23T11:30:42Z</time>
      </trkpt>
      <trkpt lat="44.37343" lon="6.74854">
        <ele>2290.3</ele>
        <time>2021-09-23T11:30:46Z</time>
      </trkpt>
      <trkpt lat="44.37357" lon="6.74873">
        <ele>2284.1</ele>
        <time>2021-09-23T11:30:50Z</time>
      </trkpt>
      <trkpt lat="44.37373" lon="6.74892">
        <ele>2279.6</ele>
        <time>2021-09-23T11:30:54Z</time>
      </trkpt>
      <trkpt lat="44.37389" lon="6.74911">
        <ele>2277.6</ele>
        <time>2021-09-23T11:30:58Z</time>
      </trkpt>
      <trkpt lat="44.37419" lon="6.74941">
        <ele>2275.2</ele>
        <time>2021-09-23T11:31:02Z</time>
      </trkpt>
      <trkpt lat="44.37455" lon="6.74969">
        <ele>2273</ele>
        <time>2021-09-23T11:31:06Z</time>
      </trkpt>
      <trkpt lat="44.37475" lon="6.7499">
        <ele>2275.6</ele>
        <time>2021-09-23T11:31:10Z</time>
      </trkpt>
      <trkpt lat="44.37483" lon="6.75007">
        <ele>2277.9</ele>
        <time>2021-09-23T11:31:18Z</time>
      </trkpt>
      <trkpt lat="44.37484" lon="6.75012">
        <ele>2278.1</ele>
        <time>2021-09-23T11:31:22Z</time>
      </trkpt>
      <trkpt lat="44.37485" lon="6.75017">
        <ele>2278.3</ele>
        <time>2021-09-23T11:31:26Z</time>
      </trkpt>
      <trkpt lat="44.37486" lon="6.75021">
        <ele>2278.4</ele>
        <time>2021-09-23T11:31:30Z</time>
      </trkpt>
      <trkpt lat="44.37487" lon="6.75025">
        <ele>2278.6</ele>
        <time>2021-09-23T11:31:34Z</time>
      </trkpt>
      <trkpt lat="44.37488" lon="6.75029">
        <ele>2278.8</ele>
        <time>2021-09-23T11:31:38Z</time>
      </trkpt>
      <trkpt lat="44.3749" lon="6.75032">
        <ele>2279.1</ele>
        <time>2021-09-23T11:31:42Z</time>
      </trkpt>
      <trkpt lat="44.37491" lon="6.75036">
        <ele>2279.3</ele>
        <time>2021-09-23T11:31:46Z</time>
      </trkpt>
      <trkpt lat="44.37493" lon="6.75041">
        <ele>2279.7</ele>
        <time>2021-09-23T11:31:50Z</time>
      </trkpt>
      <trkpt lat="44.37495" lon="6.75045">
        <ele>2280.1</ele>
        <time>2021-09-23T11:31:54Z</time>
      </trkpt>
      <trkpt lat="44.37497" lon="6.75049">
        <ele>2280.6</ele>
        <time>2021-09-23T11:31:58Z</time>
      </trkpt>
      <trkpt lat="44.37499" lon="6.75051">
        <ele>2280.9</ele>
        <time>2021-09-23T11:32:10Z</time>
      </trkpt>
      <trkpt lat="44.37501" lon="6.75055">
        <ele>2281.3</ele>
        <time>2021-09-23T11:32:14Z</time>
      </trkpt>
      <trkpt lat="44.37505" lon="6.7506">
        <ele>2281.5</ele>
        <time>2021-09-23T11:32:18Z</time>
      </trkpt>
      <trkpt lat="44.3751" lon="6.75064">
        <ele>2281.7</ele>
        <time>2021-09-23T11:32:22Z</time>
      </trkpt>
      <trkpt lat="44.37514" lon="6.75068">
        <ele>2282</ele>
        <time>2021-09-23T11:32:26Z</time>
      </trkpt>
      <trkpt lat="44.37517" lon="6.75074">
        <ele>2282.5</ele>
        <time>2021-09-23T11:32:30Z</time>
      </trkpt>
      <trkpt lat="44.37521" lon="6.75079">
        <ele>2282.9</ele>
        <time>2021-09-23T11:32:34Z</time>
      </trkpt>
      <trkpt lat="44.37523" lon="6.75084">
        <ele>2283.2</ele>
        <time>2021-09-23T11:32:38Z</time>
      </trkpt>
      <trkpt lat="44.37527" lon="6.75089">
        <ele>2283.1</ele>
        <time>2021-09-23T11:32:42Z</time>
      </trkpt>
      <trkpt lat="44.37534" lon="6.75103">
        <ele>2283</ele>
        <time>2021-09-23T11:32:46Z</time>
      </trkpt>
      <trkpt lat="44.37543" lon="6.75129">
        <ele>2283.4</ele>
        <time>2021-09-23T11:32:50Z</time>
      </trkpt>
      <trkpt lat="44.37553" lon="6.75145">
        <ele>2284.8</ele>
        <time>2021-09-23T11:32:54Z</time>
      </trkpt>
      <trkpt lat="44.37559" lon="6.75145">
        <ele>2285.6</ele>
        <time>2021-09-23T11:32:58Z</time>
      </trkpt>
      <trkpt lat="44.37563" lon="6.75145">
        <ele>2286.2</ele>
        <time>2021-09-23T11:33:02Z</time>
      </trkpt>
      <trkpt lat="44.37568" lon="6.75146">
        <ele>2287</ele>
        <time>2021-09-23T11:33:06Z</time>
      </trkpt>
      <trkpt lat="44.37571" lon="6.7515">
        <ele>2287.7</ele>
        <time>2021-09-23T11:33:10Z</time>
      </trkpt>
      <trkpt lat="44.37575" lon="6.75154">
        <ele>2288.6</ele>
        <time>2021-09-23T11:33:14Z</time>
      </trkpt>
      <trkpt lat="44.37579" lon="6.75158">
        <ele>2289.5</ele>
        <time>2021-09-23T11:33:18Z</time>
      </trkpt>
      <trkpt lat="44.37584" lon="6.75162">
        <ele>2290.5</ele>
        <time>2021-09-23T11:33:22Z</time>
      </trkpt>
      <trkpt lat="44.37588" lon="6.75166">
        <ele>2290.2</ele>
        <time>2021-09-23T11:33:26Z</time>
      </trkpt>
      <trkpt lat="44.37592" lon="6.75168">
        <ele>2289.5</ele>
        <time>2021-09-23T11:33:30Z</time>
      </trkpt>
      <trkpt lat="44.37596" lon="6.7517">
        <ele>2288.8</ele>
        <time>2021-09-23T11:33:34Z</time>
      </trkpt>
      <trkpt lat="44.37601" lon="6.75172">
        <ele>2287.9</ele>
        <time>2021-09-23T11:33:38Z</time>
      </trkpt>
      <trkpt lat="44.37606" lon="6.75174">
        <ele>2287.2</ele>
        <time>2021-09-23T11:33:42Z</time>
      </trkpt>
      <trkpt lat="44.3761" lon="6.75176">
        <ele>2286.6</ele>
        <time>2021-09-23T11:33:46Z</time>
      </trkpt>
      <trkpt lat="44.37615" lon="6.75182">
        <ele>2285.9</ele>
        <time>2021-09-23T11:33:50Z</time>
      </trkpt>
      <trkpt lat="44.37618" lon="6.75191">
        <ele>2285.8</ele>
        <time>2021-09-23T11:33:54Z</time>
      </trkpt>
      <trkpt lat="44.3762" lon="6.75198">
        <ele>2285.8</ele>
        <time>2021-09-23T11:33:58Z</time>
      </trkpt>
      <trkpt lat="44.37625" lon="6.75205">
        <ele>2285.6</ele>
        <time>2021-09-23T11:34:02Z</time>
      </trkpt>
      <trkpt lat="44.37631" lon="6.75214">
        <ele>2285.7</ele>
        <time>2021-09-23T11:34:06Z</time>
      </trkpt>
      <trkpt lat="44.37632" lon="6.75221">
        <ele>2286</ele>
        <time>2021-09-23T11:34:10Z</time>
      </trkpt>
      <trkpt lat="44.37635" lon="6.75226">
        <ele>2286.3</ele>
        <time>2021-09-23T11:34:14Z</time>
      </trkpt>
      <trkpt lat="44.37639" lon="6.75231">
        <ele>2286.6</ele>
        <time>2021-09-23T11:34:18Z</time>
      </trkpt>
      <trkpt lat="44.37644" lon="6.75233">
        <ele>2286.7</ele>
        <time>2021-09-23T11:34:22Z</time>
      </trkpt>
      <trkpt lat="44.37649" lon="6.75235">
        <ele>2286.9</ele>
        <time>2021-09-23T11:34:26Z</time>
      </trkpt>
      <trkpt lat="44.37655" lon="6.75237">
        <ele>2287.1</ele>
        <time>2021-09-23T11:34:30Z</time>
      </trkpt>
      <trkpt lat="44.37661" lon="6.7524">
        <ele>2287.5</ele>
        <time>2021-09-23T11:34:34Z</time>
      </trkpt>
      <trkpt lat="44.37667" lon="6.75243">
        <ele>2287.9</ele>
        <time>2021-09-23T11:34:38Z</time>
      </trkpt>
      <trkpt lat="44.37673" lon="6.75245">
        <ele>2286.7</ele>
        <time>2021-09-23T11:34:42Z</time>
      </trkpt>
      <trkpt lat="44.37679" lon="6.75248">
        <ele>2285.7</ele>
        <time>2021-09-23T11:34:46Z</time>
      </trkpt>
      <trkpt lat="44.37684" lon="6.7525">
        <ele>2284.8</ele>
        <time>2021-09-23T11:34:50Z</time>
      </trkpt>
      <trkpt lat="44.37691" lon="6.75254">
        <ele>2282.9</ele>
        <time>2021-09-23T11:34:54Z</time>
      </trkpt>
      <trkpt lat="44.37703" lon="6.7526">
        <ele>2280</ele>
        <time>2021-09-23T11:34:58Z</time>
      </trkpt>
      <trkpt lat="44.37714" lon="6.7527">
        <ele>2277.6</ele>
        <time>2021-09-23T11:35:02Z</time>
      </trkpt>
      <trkpt lat="44.37723" lon="6.75283">
        <ele>2276.1</ele>
        <time>2021-09-23T11:35:06Z</time>
      </trkpt>
      <trkpt lat="44.37733" lon="6.75295">
        <ele>2275</ele>
        <time>2021-09-23T11:35:10Z</time>
      </trkpt>
      <trkpt lat="44.37736" lon="6.75298">
        <ele>2274.7</ele>
        <time>2021-09-23T11:35:14Z</time>
      </trkpt>
      <trkpt lat="44.37745" lon="6.75306">
        <ele>2274.2</ele>
        <time>2021-09-23T11:35:18Z</time>
      </trkpt>
      <trkpt lat="44.37755" lon="6.75314">
        <ele>2273.1</ele>
        <time>2021-09-23T11:35:22Z</time>
      </trkpt>
      <trkpt lat="44.3776" lon="6.75321">
        <ele>2272.5</ele>
        <time>2021-09-23T11:35:26Z</time>
      </trkpt>
      <trkpt lat="44.37766" lon="6.75331">
        <ele>2272.3</ele>
        <time>2021-09-23T11:35:30Z</time>
      </trkpt>
      <trkpt lat="44.37778" lon="6.75341">
        <ele>2269.1</ele>
        <time>2021-09-23T11:35:34Z</time>
      </trkpt>
      <trkpt lat="44.37791" lon="6.75359">
        <ele>2264.2</ele>
        <time>2021-09-23T11:35:38Z</time>
      </trkpt>
      <trkpt lat="44.37806" lon="6.75368">
        <ele>2259.9</ele>
        <time>2021-09-23T11:35:42Z</time>
      </trkpt>
      <trkpt lat="44.37814" lon="6.75374">
        <ele>2257.4</ele>
        <time>2021-09-23T11:35:50Z</time>
      </trkpt>
      <trkpt lat="44.37825" lon="6.75372">
        <ele>2255.2</ele>
        <time>2021-09-23T11:35:54Z</time>
      </trkpt>
      <trkpt lat="44.37838" lon="6.75364">
        <ele>2252.4</ele>
        <time>2021-09-23T11:35:58Z</time>
      </trkpt>
      <trkpt lat="44.3785" lon="6.75358">
        <ele>2248</ele>
        <time>2021-09-23T11:36:02Z</time>
      </trkpt>
      <trkpt lat="44.37852" lon="6.75355">
        <ele>2247.4</ele>
        <time>2021-09-23T11:36:10Z</time>
      </trkpt>
      <trkpt lat="44.37851" lon="6.75356">
        <ele>2247.7</ele>
        <time>2021-09-23T11:36:18Z</time>
      </trkpt>
      <trkpt lat="44.37846" lon="6.75361">
        <ele>2249.4</ele>
        <time>2021-09-23T11:36:22Z</time>
      </trkpt>
      <trkpt lat="44.3784" lon="6.75366">
        <ele>2251.3</ele>
        <time>2021-09-23T11:36:26Z</time>
      </trkpt>
      <trkpt lat="44.37835" lon="6.75367">
        <ele>2253.3</ele>
        <time>2021-09-23T11:36:30Z</time>
      </trkpt>
      <trkpt lat="44.37829" lon="6.75368">
        <ele>2254.8</ele>
        <time>2021-09-23T11:36:34Z</time>
      </trkpt>
      <trkpt lat="44.37823" lon="6.75371">
        <ele>2255.8</ele>
        <time>2021-09-23T11:36:38Z</time>
      </trkpt>
      <trkpt lat="44.37818" lon="6.75377">
        <ele>2256.2</ele>
        <time>2021-09-23T11:36:42Z</time>
      </trkpt>
      <trkpt lat="44.37812" lon="6.75383">
        <ele>2256.8</ele>
        <time>2021-09-23T11:36:46Z</time>
      </trkpt>
      <trkpt lat="44.37805" lon="6.75388">
        <ele>2257.8</ele>
        <time>2021-09-23T11:36:50Z</time>
      </trkpt>
      <trkpt lat="44.378" lon="6.75393">
        <ele>2258.3</ele>
        <time>2021-09-23T11:36:54Z</time>
      </trkpt>
      <trkpt lat="44.37795" lon="6.75398">
        <ele>2258.9</ele>
        <time>2021-09-23T11:36:58Z</time>
      </trkpt>
      <trkpt lat="44.3779" lon="6.75403">
        <ele>2259.4</ele>
        <time>2021-09-23T11:37:02Z</time>
      </trkpt>
      <trkpt lat="44.37786" lon="6.75409">
        <ele>2259.7</ele>
        <time>2021-09-23T11:37:06Z</time>
      </trkpt>
      <trkpt lat="44.37783" lon="6.75417">
        <ele>2259.4</ele>
        <time>2021-09-23T11:37:10Z</time>
      </trkpt>
      <trkpt lat="44.37781" lon="6.75424">
        <ele>2257.8</ele>
        <time>2021-09-23T11:37:14Z</time>
      </trkpt>
      <trkpt lat="44.37777" lon="6.7543">
        <ele>2257</ele>
        <time>2021-09-23T11:37:18Z</time>
      </trkpt>
      <trkpt lat="44.37773" lon="6.75436">
        <ele>2256.3</ele>
        <time>2021-09-23T11:37:22Z</time>
      </trkpt>
      <trkpt lat="44.37769" lon="6.75442">
        <ele>2255.8</ele>
        <time>2021-09-23T11:37:26Z</time>
      </trkpt>
      <trkpt lat="44.37765" lon="6.7545">
        <ele>2254.7</ele>
        <time>2021-09-23T11:37:30Z</time>
      </trkpt>
      <trkpt lat="44.3776" lon="6.75457">
        <ele>2254.3</ele>
        <time>2021-09-23T11:37:34Z</time>
      </trkpt>
      <trkpt lat="44.37755" lon="6.75462">
        <ele>2254.6</ele>
        <time>2021-09-23T11:37:38Z</time>
      </trkpt>
      <trkpt lat="44.3775" lon="6.75469">
        <ele>2254.4</ele>
        <time>2021-09-23T11:37:42Z</time>
      </trkpt>
      <trkpt lat="44.37743" lon="6.75476">
        <ele>2252.8</ele>
        <time>2021-09-23T11:37:46Z</time>
      </trkpt>
      <trkpt lat="44.37738" lon="6.75482">
        <ele>2251.5</ele>
        <time>2021-09-23T11:37:50Z</time>
      </trkpt>
      <trkpt lat="44.37732" lon="6.7549">
        <ele>2249.9</ele>
        <time>2021-09-23T11:37:54Z</time>
      </trkpt>
      <trkpt lat="44.37723" lon="6.755">
        <ele>2248</ele>
        <time>2021-09-23T11:37:58Z</time>
      </trkpt>
      <trkpt lat="44.37713" lon="6.75506">
        <ele>2246.3</ele>
        <time>2021-09-23T11:38:02Z</time>
      </trkpt>
      <trkpt lat="44.37703" lon="6.75505">
        <ele>2247.1</ele>
        <time>2021-09-23T11:38:06Z</time>
      </trkpt>
      <trkpt lat="44.37691" lon="6.75509">
        <ele>2246.5</ele>
        <time>2021-09-23T11:38:10Z</time>
      </trkpt>
      <trkpt lat="44.37678" lon="6.75519">
        <ele>2244.6</ele>
        <time>2021-09-23T11:38:14Z</time>
      </trkpt>
      <trkpt lat="44.37661" lon="6.75525">
        <ele>2242.6</ele>
        <time>2021-09-23T11:38:18Z</time>
      </trkpt>
      <trkpt lat="44.37646" lon="6.75531">
        <ele>2237.4</ele>
        <time>2021-09-23T11:38:22Z</time>
      </trkpt>
      <trkpt lat="44.37637" lon="6.75537">
        <ele>2233.6</ele>
        <time>2021-09-23T11:38:26Z</time>
      </trkpt>
      <trkpt lat="44.37632" lon="6.75545">
        <ele>2230.2</ele>
        <time>2021-09-23T11:38:30Z</time>
      </trkpt>
      <trkpt lat="44.37627" lon="6.75556">
        <ele>2225.9</ele>
        <time>2021-09-23T11:38:34Z</time>
      </trkpt>
      <trkpt lat="44.37625" lon="6.75569">
        <ele>2221.9</ele>
        <time>2021-09-23T11:38:38Z</time>
      </trkpt>
      <trkpt lat="44.37622" lon="6.7558">
        <ele>2218</ele>
        <time>2021-09-23T11:38:42Z</time>
      </trkpt>
      <trkpt lat="44.37621" lon="6.75592">
        <ele>2213.8</ele>
        <time>2021-09-23T11:38:46Z</time>
      </trkpt>
      <trkpt lat="44.3762" lon="6.75601">
        <ele>2210.3</ele>
        <time>2021-09-23T11:38:50Z</time>
      </trkpt>
      <trkpt lat="44.3762" lon="6.75608">
        <ele>2207.8</ele>
        <time>2021-09-23T11:38:54Z</time>
      </trkpt>
      <trkpt lat="44.37618" lon="6.75615">
        <ele>2204.9</ele>
        <time>2021-09-23T11:38:58Z</time>
      </trkpt>
      <trkpt lat="44.37614" lon="6.75615">
        <ele>2204.1</ele>
        <time>2021-09-23T11:39:30Z</time>
      </trkpt>
      <trkpt lat="44.37609" lon="6.75615">
        <ele>2203</ele>
        <time>2021-09-23T11:39:34Z</time>
      </trkpt>
      <trkpt lat="44.37603" lon="6.75617">
        <ele>2201.2</ele>
        <time>2021-09-23T11:39:38Z</time>
      </trkpt>
      <trkpt lat="44.37595" lon="6.75618">
        <ele>2199.2</ele>
        <time>2021-09-23T11:39:42Z</time>
      </trkpt>
      <trkpt lat="44.37594" lon="6.75627">
        <ele>2196.4</ele>
        <time>2021-09-23T11:39:46Z</time>
      </trkpt>
      <trkpt lat="44.37592" lon="6.75632">
        <ele>2194.6</ele>
        <time>2021-09-23T11:39:50Z</time>
      </trkpt>
      <trkpt lat="44.37585" lon="6.75633">
        <ele>2193.2</ele>
        <time>2021-09-23T11:39:54Z</time>
      </trkpt>
      <trkpt lat="44.37582" lon="6.75641">
        <ele>2190.5</ele>
        <time>2021-09-23T11:39:58Z</time>
      </trkpt>
      <trkpt lat="44.37581" lon="6.7565">
        <ele>2187.9</ele>
        <time>2021-09-23T11:40:02Z</time>
      </trkpt>
      <trkpt lat="44.37579" lon="6.75659">
        <ele>2185</ele>
        <time>2021-09-23T11:40:06Z</time>
      </trkpt>
      <trkpt lat="44.37577" lon="6.7567">
        <ele>2181.5</ele>
        <time>2021-09-23T11:40:10Z</time>
      </trkpt>
      <trkpt lat="44.37574" lon="6.75679">
        <ele>2178</ele>
        <time>2021-09-23T11:40:14Z</time>
      </trkpt>
      <trkpt lat="44.37574" lon="6.75689">
        <ele>2175</ele>
        <time>2021-09-23T11:40:18Z</time>
      </trkpt>
      <trkpt lat="44.3757" lon="6.757">
        <ele>2170.7</ele>
        <time>2021-09-23T11:40:22Z</time>
      </trkpt>
      <trkpt lat="44.37567" lon="6.75713">
        <ele>2166.1</ele>
        <time>2021-09-23T11:40:26Z</time>
      </trkpt>
      <trkpt lat="44.37567" lon="6.75724">
        <ele>2162.7</ele>
        <time>2021-09-23T11:40:30Z</time>
      </trkpt>
      <trkpt lat="44.37567" lon="6.75737">
        <ele>2158.8</ele>
        <time>2021-09-23T11:40:34Z</time>
      </trkpt>
      <trkpt lat="44.37563" lon="6.75741">
        <ele>2156.6</ele>
        <time>2021-09-23T11:40:46Z</time>
      </trkpt>
      <trkpt lat="44.37551" lon="6.75748">
        <ele>2151.5</ele>
        <time>2021-09-23T11:40:50Z</time>
      </trkpt>
      <trkpt lat="44.37539" lon="6.75754">
        <ele>2146.6</ele>
        <time>2021-09-23T11:40:54Z</time>
      </trkpt>
      <trkpt lat="44.37528" lon="6.75765">
        <ele>2140.7</ele>
        <time>2021-09-23T11:40:58Z</time>
      </trkpt>
      <trkpt lat="44.37522" lon="6.75781">
        <ele>2134.8</ele>
        <time>2021-09-23T11:41:02Z</time>
      </trkpt>
      <trkpt lat="44.37516" lon="6.75796">
        <ele>2129.5</ele>
        <time>2021-09-23T11:41:06Z</time>
      </trkpt>
      <trkpt lat="44.37505" lon="6.75809">
        <ele>2124</ele>
        <time>2021-09-23T11:41:10Z</time>
      </trkpt>
      <trkpt lat="44.37496" lon="6.75817">
        <ele>2120.3</ele>
        <time>2021-09-23T11:41:14Z</time>
      </trkpt>
      <trkpt lat="44.3749" lon="6.75827">
        <ele>2116.6</ele>
        <time>2021-09-23T11:41:18Z</time>
      </trkpt>
      <trkpt lat="44.3748" lon="6.75833">
        <ele>2113</ele>
        <time>2021-09-23T11:41:22Z</time>
      </trkpt>
      <trkpt lat="44.37474" lon="6.75833">
        <ele>2111.8</ele>
        <time>2021-09-23T11:41:26Z</time>
      </trkpt>
      <trkpt lat="44.37471" lon="6.75831">
        <ele>2111.7</ele>
        <time>2021-09-23T11:41:30Z</time>
      </trkpt>
      <trkpt lat="44.37466" lon="6.75834">
        <ele>2109.8</ele>
        <time>2021-09-23T11:41:34Z</time>
      </trkpt>
      <trkpt lat="44.37459" lon="6.75841">
        <ele>2105.6</ele>
        <time>2021-09-23T11:41:38Z</time>
      </trkpt>
      <trkpt lat="44.37454" lon="6.75849">
        <ele>2101.6</ele>
        <time>2021-09-23T11:41:42Z</time>
      </trkpt>
      <trkpt lat="44.37451" lon="6.75859">
        <ele>2097.3</ele>
        <time>2021-09-23T11:41:46Z</time>
      </trkpt>
      <trkpt lat="44.37447" lon="6.75868">
        <ele>2093.3</ele>
        <time>2021-09-23T11:41:50Z</time>
      </trkpt>
      <trkpt lat="44.37444" lon="6.75878">
        <ele>2089.2</ele>
        <time>2021-09-23T11:41:54Z</time>
      </trkpt>
      <trkpt lat="44.37441" lon="6.75892">
        <ele>2083.7</ele>
        <time>2021-09-23T11:41:58Z</time>
      </trkpt>
      <trkpt lat="44.37435" lon="6.75904">
        <ele>2078.8</ele>
        <time>2021-09-23T11:42:02Z</time>
      </trkpt>
      <trkpt lat="44.37424" lon="6.75914">
        <ele>2074.4</ele>
        <time>2021-09-23T11:42:06Z</time>
      </trkpt>
      <trkpt lat="44.37412" lon="6.75918">
        <ele>2072.1</ele>
        <time>2021-09-23T11:42:10Z</time>
      </trkpt>
      <trkpt lat="44.37398" lon="6.75923">
        <ele>2069</ele>
        <time>2021-09-23T11:42:14Z</time>
      </trkpt>
      <trkpt lat="44.37389" lon="6.75935">
        <ele>2064.2</ele>
        <time>2021-09-23T11:42:18Z</time>
      </trkpt>
      <trkpt lat="44.3738" lon="6.75951">
        <ele>2058.5</ele>
        <time>2021-09-23T11:42:22Z</time>
      </trkpt>
      <trkpt lat="44.3737" lon="6.75964">
        <ele>2054.2</ele>
        <time>2021-09-23T11:42:26Z</time>
      </trkpt>
      <trkpt lat="44.37364" lon="6.75977">
        <ele>2050.3</ele>
        <time>2021-09-23T11:42:30Z</time>
      </trkpt>
      <trkpt lat="44.37358" lon="6.75986">
        <ele>2047.8</ele>
        <time>2021-09-23T11:42:34Z</time>
      </trkpt>
      <trkpt lat="44.37356" lon="6.75987">
        <ele>2047.5</ele>
        <time>2021-09-23T11:42:46Z</time>
      </trkpt>
      <trkpt lat="44.37349" lon="6.75999">
        <ele>2044.5</ele>
        <time>2021-09-23T11:42:50Z</time>
      </trkpt>
      <trkpt lat="44.37333" lon="6.76013">
        <ele>2039.8</ele>
        <time>2021-09-23T11:42:54Z</time>
      </trkpt>
      <trkpt lat="44.37318" lon="6.76019">
        <ele>2036.7</ele>
        <time>2021-09-23T11:42:58Z</time>
      </trkpt>
      <trkpt lat="44.37308" lon="6.7602">
        <ele>2035.8</ele>
        <time>2021-09-23T11:43:02Z</time>
      </trkpt>
      <trkpt lat="44.37299" lon="6.76019">
        <ele>2035.8</ele>
        <time>2021-09-23T11:43:06Z</time>
      </trkpt>
      <trkpt lat="44.37291" lon="6.7602">
        <ele>2035</ele>
        <time>2021-09-23T11:43:10Z</time>
      </trkpt>
      <trkpt lat="44.37276" lon="6.76018">
        <ele>2034.9</ele>
        <time>2021-09-23T11:43:14Z</time>
      </trkpt>
      <trkpt lat="44.37251" lon="6.76017">
        <ele>2034</ele>
        <time>2021-09-23T11:43:18Z</time>
      </trkpt>
      <trkpt lat="44.37223" lon="6.76007">
        <ele>2034.4</ele>
        <time>2021-09-23T11:43:22Z</time>
      </trkpt>
      <trkpt lat="44.3721" lon="6.76014">
        <ele>2031.2</ele>
        <time>2021-09-23T11:43:26Z</time>
      </trkpt>
      <trkpt lat="44.37219" lon="6.76026">
        <ele>2028.6</ele>
        <time>2021-09-23T11:43:30Z</time>
      </trkpt>
      <trkpt lat="44.37232" lon="6.76034">
        <ele>2027.3</ele>
        <time>2021-09-23T11:43:34Z</time>
      </trkpt>
      <trkpt lat="44.37251" lon="6.76046">
        <ele>2025.2</ele>
        <time>2021-09-23T11:43:38Z</time>
      </trkpt>
      <trkpt lat="44.37275" lon="6.76059">
        <ele>2021.4</ele>
        <time>2021-09-23T11:43:42Z</time>
      </trkpt>
      <trkpt lat="44.37305" lon="6.76073">
        <ele>2016.4</ele>
        <time>2021-09-23T11:43:46Z</time>
      </trkpt>
      <trkpt lat="44.3734" lon="6.76075">
        <ele>2014.5</ele>
        <time>2021-09-23T11:43:50Z</time>
      </trkpt>
      <trkpt lat="44.37375" lon="6.76073">
        <ele>2011.5</ele>
        <time>2021-09-23T11:43:54Z</time>
      </trkpt>
      <trkpt lat="44.37409" lon="6.76071">
        <ele>2008.6</ele>
        <time>2021-09-23T11:43:58Z</time>
      </trkpt>
      <trkpt lat="44.3744" lon="6.76057">
        <ele>2012</ele>
        <time>2021-09-23T11:44:02Z</time>
      </trkpt>
      <trkpt lat="44.37464" lon="6.76042">
        <ele>2016.8</ele>
        <time>2021-09-23T11:44:06Z</time>
      </trkpt>
      <trkpt lat="44.37492" lon="6.76051">
        <ele>2009.7</ele>
        <time>2021-09-23T11:44:10Z</time>
      </trkpt>
      <trkpt lat="44.37523" lon="6.76054">
        <ele>2007.2</ele>
        <time>2021-09-23T11:44:14Z</time>
      </trkpt>
      <trkpt lat="44.37554" lon="6.76059">
        <ele>2004.2</ele>
        <time>2021-09-23T11:44:18Z</time>
      </trkpt>
      <trkpt lat="44.37583" lon="6.7607">
        <ele>1997.5</ele>
        <time>2021-09-23T11:44:22Z</time>
      </trkpt>
      <trkpt lat="44.37615" lon="6.76083">
        <ele>1989.4</ele>
        <time>2021-09-23T11:44:26Z</time>
      </trkpt>
      <trkpt lat="44.37643" lon="6.76097">
        <ele>1983.4</ele>
        <time>2021-09-23T11:44:30Z</time>
      </trkpt>
      <trkpt lat="44.37668" lon="6.76108">
        <ele>1978.9</ele>
        <time>2021-09-23T11:44:34Z</time>
      </trkpt>
      <trkpt lat="44.37685" lon="6.76114">
        <ele>1973.9</ele>
        <time>2021-09-23T11:44:38Z</time>
      </trkpt>
      <trkpt lat="44.37704" lon="6.76118">
        <ele>1969.1</ele>
        <time>2021-09-23T11:44:42Z</time>
      </trkpt>
      <trkpt lat="44.37721" lon="6.76118">
        <ele>1966.2</ele>
        <time>2021-09-23T11:44:46Z</time>
      </trkpt>
      <trkpt lat="44.37738" lon="6.76101">
        <ele>1970</ele>
        <time>2021-09-23T11:44:50Z</time>
      </trkpt>
      <trkpt lat="44.37743" lon="6.76095">
        <ele>1971.5</ele>
        <time>2021-09-23T11:45:06Z</time>
      </trkpt>
      <trkpt lat="44.37747" lon="6.76079">
        <ele>1976.9</ele>
        <time>2021-09-23T11:45:10Z</time>
      </trkpt>
      <trkpt lat="44.37762" lon="6.76058">
        <ele>1980.6</ele>
        <time>2021-09-23T11:45:14Z</time>
      </trkpt>
      <trkpt lat="44.37781" lon="6.76046">
        <ele>1980.6</ele>
        <time>2021-09-23T11:45:18Z</time>
      </trkpt>
      <trkpt lat="44.37801" lon="6.76043">
        <ele>1977.4</ele>
        <time>2021-09-23T11:45:22Z</time>
      </trkpt>
      <trkpt lat="44.37819" lon="6.7604">
        <ele>1974.9</ele>
        <time>2021-09-23T11:45:26Z</time>
      </trkpt>
      <trkpt lat="44.37829" lon="6.76042">
        <ele>1971.8</ele>
        <time>2021-09-23T11:45:30Z</time>
      </trkpt>
      <trkpt lat="44.37832" lon="6.76041">
        <ele>1971.6</ele>
        <time>2021-09-23T11:45:38Z</time>
      </trkpt>
      <trkpt lat="44.37835" lon="6.76039">
        <ele>1971.9</ele>
        <time>2021-09-23T11:45:42Z</time>
      </trkpt>
      <trkpt lat="44.37839" lon="6.76038">
        <ele>1971.4</ele>
        <time>2021-09-23T11:45:46Z</time>
      </trkpt>
      <trkpt lat="44.37848" lon="6.76036">
        <ele>1970.1</ele>
        <time>2021-09-23T11:45:50Z</time>
      </trkpt>
      <trkpt lat="44.37861" lon="6.76032">
        <ele>1968.8</ele>
        <time>2021-09-23T11:45:54Z</time>
      </trkpt>
      <trkpt lat="44.3788" lon="6.76022">
        <ele>1968.4</ele>
        <time>2021-09-23T11:45:58Z</time>
      </trkpt>
      <trkpt lat="44.37904" lon="6.76019">
        <ele>1963.5</ele>
        <time>2021-09-23T11:46:02Z</time>
      </trkpt>
      <trkpt lat="44.37928" lon="6.76004">
        <ele>1964.5</ele>
        <time>2021-09-23T11:46:06Z</time>
      </trkpt>
      <trkpt lat="44.37952" lon="6.75988">
        <ele>1967</ele>
        <time>2021-09-23T11:46:10Z</time>
      </trkpt>
      <trkpt lat="44.37977" lon="6.75996">
        <ele>1959.4</ele>
        <time>2021-09-23T11:46:14Z</time>
      </trkpt>
      <trkpt lat="44.37997" lon="6.76015">
        <ele>1949.8</ele>
        <time>2021-09-23T11:46:18Z</time>
      </trkpt>
      <trkpt lat="44.38017" lon="6.76034">
        <ele>1944.9</ele>
        <time>2021-09-23T11:46:22Z</time>
      </trkpt>
      <trkpt lat="44.38042" lon="6.76049">
        <ele>1942.2</ele>
        <time>2021-09-23T11:46:26Z</time>
      </trkpt>
      <trkpt lat="44.38072" lon="6.76054">
        <ele>1942.9</ele>
        <time>2021-09-23T11:46:30Z</time>
      </trkpt>
      <trkpt lat="44.38101" lon="6.76067">
        <ele>1941</ele>
        <time>2021-09-23T11:46:34Z</time>
      </trkpt>
      <trkpt lat="44.38127" lon="6.76081">
        <ele>1938.9</ele>
        <time>2021-09-23T11:46:38Z</time>
      </trkpt>
      <trkpt lat="44.38135" lon="6.76096">
        <ele>1935.3</ele>
        <time>2021-09-23T11:46:42Z</time>
      </trkpt>
      <trkpt lat="44.38123" lon="6.76093">
        <ele>1935.1</ele>
        <time>2021-09-23T11:46:46Z</time>
      </trkpt>
      <trkpt lat="44.38105" lon="6.76085">
        <ele>1935.6</ele>
        <time>2021-09-23T11:46:50Z</time>
      </trkpt>
      <trkpt lat="44.38082" lon="6.76087">
        <ele>1933</ele>
        <time>2021-09-23T11:46:54Z</time>
      </trkpt>
      <trkpt lat="44.38056" lon="6.76094">
        <ele>1929.5</ele>
        <time>2021-09-23T11:46:58Z</time>
      </trkpt>
      <trkpt lat="44.38028" lon="6.76104">
        <ele>1925.1</ele>
        <time>2021-09-23T11:47:02Z</time>
      </trkpt>
      <trkpt lat="44.38012" lon="6.76116">
        <ele>1921</ele>
        <time>2021-09-23T11:47:06Z</time>
      </trkpt>
      <trkpt lat="44.38025" lon="6.7612">
        <ele>1921</ele>
        <time>2021-09-23T11:47:10Z</time>
      </trkpt>
      <trkpt lat="44.38044" lon="6.76123">
        <ele>1921.6</ele>
        <time>2021-09-23T11:47:14Z</time>
      </trkpt>
      <trkpt lat="44.38069" lon="6.76128">
        <ele>1922.2</ele>
        <time>2021-09-23T11:47:18Z</time>
      </trkpt>
      <trkpt lat="44.38096" lon="6.76137">
        <ele>1921.7</ele>
        <time>2021-09-23T11:47:22Z</time>
      </trkpt>
      <trkpt lat="44.38115" lon="6.76147">
        <ele>1919.7</ele>
        <time>2021-09-23T11:47:30Z</time>
      </trkpt>
      <trkpt lat="44.38121" lon="6.7615">
        <ele>1919.1</ele>
        <time>2021-09-23T11:47:34Z</time>
      </trkpt>
      <trkpt lat="44.38134" lon="6.76152">
        <ele>1918.9</ele>
        <time>2021-09-23T11:47:38Z</time>
      </trkpt>
      <trkpt lat="44.38152" lon="6.76157">
        <ele>1917.8</ele>
        <time>2021-09-23T11:47:42Z</time>
      </trkpt>
      <trkpt lat="44.38167" lon="6.76163">
        <ele>1916.2</ele>
        <time>2021-09-23T11:47:46Z</time>
      </trkpt>
      <trkpt lat="44.38157" lon="6.76172">
        <ele>1913.1</ele>
        <time>2021-09-23T11:47:50Z</time>
      </trkpt>
      <trkpt lat="44.38138" lon="6.76177">
        <ele>1911.2</ele>
        <time>2021-09-23T11:47:54Z</time>
      </trkpt>
      <trkpt lat="44.38121" lon="6.7618">
        <ele>1910.1</ele>
        <time>2021-09-23T11:47:58Z</time>
      </trkpt>
      <trkpt lat="44.38106" lon="6.76181">
        <ele>1909.7</ele>
        <time>2021-09-23T11:48:02Z</time>
      </trkpt>
      <trkpt lat="44.38092" lon="6.76186">
        <ele>1908</ele>
        <time>2021-09-23T11:48:06Z</time>
      </trkpt>
      <trkpt lat="44.38078" lon="6.76189">
        <ele>1906.7</ele>
        <time>2021-09-23T11:48:10Z</time>
      </trkpt>
      <trkpt lat="44.38061" lon="6.76197">
        <ele>1903.3</ele>
        <time>2021-09-23T11:48:14Z</time>
      </trkpt>
      <trkpt lat="44.3804" lon="6.7621">
        <ele>1898.4</ele>
        <time>2021-09-23T11:48:18Z</time>
      </trkpt>
      <trkpt lat="44.38015" lon="6.76213">
        <ele>1896.4</ele>
        <time>2021-09-23T11:48:22Z</time>
      </trkpt>
      <trkpt lat="44.37987" lon="6.76216">
        <ele>1894</ele>
        <time>2021-09-23T11:48:26Z</time>
      </trkpt>
      <trkpt lat="44.37963" lon="6.76195">
        <ele>1898.3</ele>
        <time>2021-09-23T11:48:30Z</time>
      </trkpt>
      <trkpt lat="44.37952" lon="6.76166">
        <ele>1906.5</ele>
        <time>2021-09-23T11:48:34Z</time>
      </trkpt>
      <trkpt lat="44.37948" lon="6.76166">
        <ele>1906.3</ele>
        <time>2021-09-23T11:48:42Z</time>
      </trkpt>
      <trkpt lat="44.37949" lon="6.76169">
        <ele>1905.4</ele>
        <time>2021-09-23T11:48:46Z</time>
      </trkpt>
      <trkpt lat="44.37951" lon="6.76181">
        <ele>1901.8</ele>
        <time>2021-09-23T11:48:50Z</time>
      </trkpt>
      <trkpt lat="44.37954" lon="6.76199">
        <ele>1896.5</ele>
        <time>2021-09-23T11:48:54Z</time>
      </trkpt>
      <trkpt lat="44.37958" lon="6.7621">
        <ele>1893.5</ele>
        <time>2021-09-23T11:48:58Z</time>
      </trkpt>
      <trkpt lat="44.37963" lon="6.76221">
        <ele>1890.6</ele>
        <time>2021-09-23T11:49:02Z</time>
      </trkpt>
      <trkpt lat="44.37974" lon="6.7623">
        <ele>1888.9</ele>
        <time>2021-09-23T11:49:06Z</time>
      </trkpt>
      <trkpt lat="44.37984" lon="6.7624">
        <ele>1887.1</ele>
        <time>2021-09-23T11:49:10Z</time>
      </trkpt>
      <trkpt lat="44.37998" lon="6.76248">
        <ele>1886.3</ele>
        <time>2021-09-23T11:49:14Z</time>
      </trkpt>
      <trkpt lat="44.38016" lon="6.7626">
        <ele>1882.5</ele>
        <time>2021-09-23T11:49:18Z</time>
      </trkpt>
      <trkpt lat="44.38034" lon="6.76268">
        <ele>1879.9</ele>
        <time>2021-09-23T11:49:22Z</time>
      </trkpt>
      <trkpt lat="44.38051" lon="6.76282">
        <ele>1874.9</ele>
        <time>2021-09-23T11:49:26Z</time>
      </trkpt>
      <trkpt lat="44.38063" lon="6.76293">
        <ele>1871</ele>
        <time>2021-09-23T11:49:30Z</time>
      </trkpt>
      <trkpt lat="44.38084" lon="6.76308">
        <ele>1865.7</ele>
        <time>2021-09-23T11:49:34Z</time>
      </trkpt>
      <trkpt lat="44.38105" lon="6.76333">
        <ele>1855.6</ele>
        <time>2021-09-23T11:49:38Z</time>
      </trkpt>
      <trkpt lat="44.38123" lon="6.76339">
        <ele>1853.3</ele>
        <time>2021-09-23T11:49:42Z</time>
      </trkpt>
      <trkpt lat="44.38141" lon="6.76345">
        <ele>1850.8</ele>
        <time>2021-09-23T11:49:46Z</time>
      </trkpt>
      <trkpt lat="44.38165" lon="6.76343">
        <ele>1850.7</ele>
        <time>2021-09-23T11:49:50Z</time>
      </trkpt>
      <trkpt lat="44.38173" lon="6.76345">
        <ele>1848.1</ele>
        <time>2021-09-23T11:49:54Z</time>
      </trkpt>
      <trkpt lat="44.38166" lon="6.76356">
        <ele>1846.1</ele>
        <time>2021-09-23T11:49:58Z</time>
      </trkpt>
      <trkpt lat="44.38155" lon="6.76369">
        <ele>1842.2</ele>
        <time>2021-09-23T11:50:02Z</time>
      </trkpt>
      <trkpt lat="44.38141" lon="6.76384">
        <ele>1838.1</ele>
        <time>2021-09-23T11:50:06Z</time>
      </trkpt>
      <trkpt lat="44.38121" lon="6.76405">
        <ele>1833</ele>
        <time>2021-09-23T11:50:10Z</time>
      </trkpt>
      <trkpt lat="44.3812" lon="6.76415">
        <ele>1830</ele>
        <time>2021-09-23T11:50:14Z</time>
      </trkpt>
      <trkpt lat="44.38132" lon="6.76416">
        <ele>1828.5</ele>
        <time>2021-09-23T11:50:18Z</time>
      </trkpt>
      <trkpt lat="44.38155" lon="6.76415">
        <ele>1826.7</ele>
        <time>2021-09-23T11:50:22Z</time>
      </trkpt>
      <trkpt lat="44.38177" lon="6.76423">
        <ele>1822.8</ele>
        <time>2021-09-23T11:50:26Z</time>
      </trkpt>
      <trkpt lat="44.38194" lon="6.76435">
        <ele>1819.6</ele>
        <time>2021-09-23T11:50:30Z</time>
      </trkpt>
      <trkpt lat="44.38212" lon="6.76437">
        <ele>1816.5</ele>
        <time>2021-09-23T11:50:34Z</time>
      </trkpt>
      <trkpt lat="44.38231" lon="6.76422">
        <ele>1812.2</ele>
        <time>2021-09-23T11:50:38Z</time>
      </trkpt>
      <trkpt lat="44.38242" lon="6.7641">
        <ele>1811.3</ele>
        <time>2021-09-23T11:50:42Z</time>
      </trkpt>
      <trkpt lat="44.38256" lon="6.76403">
        <ele>1808.8</ele>
        <time>2021-09-23T11:50:46Z</time>
      </trkpt>
      <trkpt lat="44.38274" lon="6.76391">
        <ele>1804.7</ele>
        <time>2021-09-23T11:50:50Z</time>
      </trkpt>
      <trkpt lat="44.38284" lon="6.76384">
        <ele>1802.7</ele>
        <time>2021-09-23T11:50:54Z</time>
      </trkpt>
      <trkpt lat="44.38296" lon="6.76376">
        <ele>1800.3</ele>
        <time>2021-09-23T11:50:58Z</time>
      </trkpt>
      <trkpt lat="44.38306" lon="6.76369">
        <ele>1798.6</ele>
        <time>2021-09-23T11:51:02Z</time>
      </trkpt>
      <trkpt lat="44.38318" lon="6.7636">
        <ele>1796.9</ele>
        <time>2021-09-23T11:51:06Z</time>
      </trkpt>
      <trkpt lat="44.38325" lon="6.76354">
        <ele>1796.3</ele>
        <time>2021-09-23T11:51:18Z</time>
      </trkpt>
      <trkpt lat="44.38325" lon="6.7635">
        <ele>1797.5</ele>
        <time>2021-09-23T11:51:22Z</time>
      </trkpt>
      <trkpt lat="44.38326" lon="6.76346">
        <ele>1798.5</ele>
        <time>2021-09-23T11:51:26Z</time>
      </trkpt>
      <trkpt lat="44.38327" lon="6.76345">
        <ele>1798.4</ele>
        <time>2021-09-23T11:51:30Z</time>
      </trkpt>
      <trkpt lat="44.3833" lon="6.76346">
        <ele>1797.1</ele>
        <time>2021-09-23T11:51:38Z</time>
      </trkpt>
      <trkpt lat="44.38332" lon="6.76347">
        <ele>1796</ele>
        <time>2021-09-23T11:51:42Z</time>
      </trkpt>
      <trkpt lat="44.38341" lon="6.76347">
        <ele>1791.9</ele>
        <time>2021-09-23T11:51:46Z</time>
      </trkpt>
      <trkpt lat="44.3835" lon="6.76345">
        <ele>1788.3</ele>
        <time>2021-09-23T11:51:50Z</time>
      </trkpt>
      <trkpt lat="44.38358" lon="6.76345">
        <ele>1784.5</ele>
        <time>2021-09-23T11:51:54Z</time>
      </trkpt>
      <trkpt lat="44.38366" lon="6.76347">
        <ele>1780.1</ele>
        <time>2021-09-23T11:51:58Z</time>
      </trkpt>
      <trkpt lat="44.38368" lon="6.76347">
        <ele>1779.1</ele>
        <time>2021-09-23T11:52:06Z</time>
      </trkpt>
      <trkpt lat="44.38376" lon="6.76351">
        <ele>1774.1</ele>
        <time>2021-09-23T11:52:10Z</time>
      </trkpt>
      <trkpt lat="44.38385" lon="6.76349">
        <ele>1770.5</ele>
        <time>2021-09-23T11:52:14Z</time>
      </trkpt>
      <trkpt lat="44.38394" lon="6.76343">
        <ele>1768</ele>
        <time>2021-09-23T11:52:18Z</time>
      </trkpt>
      <trkpt lat="44.38407" lon="6.76326">
        <ele>1770</ele>
        <time>2021-09-23T11:52:22Z</time>
      </trkpt>
      <trkpt lat="44.38414" lon="6.7632">
        <ele>1771.3</ele>
        <time>2021-09-23T11:52:26Z</time>
      </trkpt>
      <trkpt lat="44.38417" lon="6.76316">
        <ele>1772.9</ele>
        <time>2021-09-23T11:52:30Z</time>
      </trkpt>
      <trkpt lat="44.38424" lon="6.76311">
        <ele>1773</ele>
        <time>2021-09-23T11:52:34Z</time>
      </trkpt>
      <trkpt lat="44.38433" lon="6.76298">
        <ele>1777.2</ele>
        <time>2021-09-23T11:52:38Z</time>
      </trkpt>
      <trkpt lat="44.38448" lon="6.7629">
        <ele>1773.6</ele>
        <time>2021-09-23T11:52:42Z</time>
      </trkpt>
      <trkpt lat="44.38466" lon="6.76285">
        <ele>1765.5</ele>
        <time>2021-09-23T11:52:46Z</time>
      </trkpt>
      <trkpt lat="44.3848" lon="6.76278">
        <ele>1760.3</ele>
        <time>2021-09-23T11:52:50Z</time>
      </trkpt>
      <trkpt lat="44.38479" lon="6.76281">
        <ele>1759.4</ele>
        <time>2021-09-23T11:52:54Z</time>
      </trkpt>
      <trkpt lat="44.3847" lon="6.76292">
        <ele>1759</ele>
        <time>2021-09-23T11:52:58Z</time>
      </trkpt>
      <trkpt lat="44.38458" lon="6.76307">
        <ele>1757.1</ele>
        <time>2021-09-23T11:53:02Z</time>
      </trkpt>
      <trkpt lat="44.38439" lon="6.76317">
        <ele>1760.9</ele>
        <time>2021-09-23T11:53:06Z</time>
      </trkpt>
      <trkpt lat="44.38421" lon="6.76327">
        <ele>1762.7</ele>
        <time>2021-09-23T11:53:10Z</time>
      </trkpt>
      <trkpt lat="44.38415" lon="6.76332">
        <ele>1761.8</ele>
        <time>2021-09-23T11:53:18Z</time>
      </trkpt>
      <trkpt lat="44.38409" lon="6.76335">
        <ele>1763.2</ele>
        <time>2021-09-23T11:53:22Z</time>
      </trkpt>
      <trkpt lat="44.38408" lon="6.7635">
        <ele>1759.3</ele>
        <time>2021-09-23T11:53:34Z</time>
      </trkpt>
      <trkpt lat="44.38419" lon="6.76353">
        <ele>1753.3</ele>
        <time>2021-09-23T11:53:38Z</time>
      </trkpt>
      <trkpt lat="44.38433" lon="6.76352">
        <ele>1747.4</ele>
        <time>2021-09-23T11:53:42Z</time>
      </trkpt>
      <trkpt lat="44.38449" lon="6.7636">
        <ele>1738.2</ele>
        <time>2021-09-23T11:53:46Z</time>
      </trkpt>
      <trkpt lat="44.38463" lon="6.76369">
        <ele>1729.8</ele>
        <time>2021-09-23T11:53:50Z</time>
      </trkpt>
      <trkpt lat="44.38477" lon="6.76375">
        <ele>1722.3</ele>
        <time>2021-09-23T11:53:54Z</time>
      </trkpt>
      <trkpt lat="44.38496" lon="6.76378">
        <ele>1713.5</ele>
        <time>2021-09-23T11:53:58Z</time>
      </trkpt>
      <trkpt lat="44.38503" lon="6.76388">
        <ele>1708.9</ele>
        <time>2021-09-23T11:54:02Z</time>
      </trkpt>
      <trkpt lat="44.38498" lon="6.76399">
        <ele>1707.8</ele>
        <time>2021-09-23T11:54:06Z</time>
      </trkpt>
      <trkpt lat="44.38485" lon="6.764">
        <ele>1712.9</ele>
        <time>2021-09-23T11:54:10Z</time>
      </trkpt>
      <trkpt lat="44.38486" lon="6.76407">
        <ele>1710.8</ele>
        <time>2021-09-23T11:54:14Z</time>
      </trkpt>
      <trkpt lat="44.38498" lon="6.76414">
        <ele>1704.4</ele>
        <time>2021-09-23T11:54:18Z</time>
      </trkpt>
      <trkpt lat="44.38506" lon="6.76416">
        <ele>1701.6</ele>
        <time>2021-09-23T11:54:22Z</time>
      </trkpt>
      <trkpt lat="44.38513" lon="6.76425">
        <ele>1701.6</ele>
        <time>2021-09-23T11:54:38Z</time>
      </trkpt>
      <trkpt lat="44.38512" lon="6.7643">
        <ele>1703</ele>
        <time>2021-09-23T11:54:42Z</time>
      </trkpt>
      <trkpt lat="44.38512" lon="6.76436">
        <ele>1704.4</ele>
        <time>2021-09-23T11:54:50Z</time>
      </trkpt>
      <trkpt lat="44.38516" lon="6.76438">
        <ele>1704</ele>
        <time>2021-09-23T11:54:54Z</time>
      </trkpt>
      <trkpt lat="44.38518" lon="6.76438">
        <ele>1703.5</ele>
        <time>2021-09-23T11:54:58Z</time>
      </trkpt>
      <trkpt lat="44.3852" lon="6.76438">
        <ele>1703.1</ele>
        <time>2021-09-23T11:55:02Z</time>
      </trkpt>
      <trkpt lat="44.38524" lon="6.76436">
        <ele>1701.7</ele>
        <time>2021-09-23T11:55:06Z</time>
      </trkpt>
      <trkpt lat="44.38532" lon="6.76429">
        <ele>1698.1</ele>
        <time>2021-09-23T11:55:14Z</time>
      </trkpt>
      <trkpt lat="44.38535" lon="6.76424">
        <ele>1696.1</ele>
        <time>2021-09-23T11:55:22Z</time>
      </trkpt>
      <trkpt lat="44.38539" lon="6.76421">
        <ele>1694.3</ele>
        <time>2021-09-23T11:55:26Z</time>
      </trkpt>
      <trkpt lat="44.38541" lon="6.76416">
        <ele>1692.9</ele>
        <time>2021-09-23T11:55:30Z</time>
      </trkpt>
      <trkpt lat="44.38549" lon="6.7641">
        <ele>1692.5</ele>
        <time>2021-09-23T11:55:34Z</time>
      </trkpt>
      <trkpt lat="44.38561" lon="6.76406">
        <ele>1690.8</ele>
        <time>2021-09-23T11:55:38Z</time>
      </trkpt>
      <trkpt lat="44.38576" lon="6.76402">
        <ele>1688.5</ele>
        <time>2021-09-23T11:55:42Z</time>
      </trkpt>
      <trkpt lat="44.38589" lon="6.76399">
        <ele>1686.5</ele>
        <time>2021-09-23T11:55:46Z</time>
      </trkpt>
      <trkpt lat="44.38612" lon="6.76395">
        <ele>1683.1</ele>
        <time>2021-09-23T11:55:50Z</time>
      </trkpt>
      <trkpt lat="44.38633" lon="6.76395">
        <ele>1678.8</ele>
        <time>2021-09-23T11:55:54Z</time>
      </trkpt>
      <trkpt lat="44.38655" lon="6.7639">
        <ele>1676.5</ele>
        <time>2021-09-23T11:55:58Z</time>
      </trkpt>
      <trkpt lat="44.38676" lon="6.76388">
        <ele>1672.3</ele>
        <time>2021-09-23T11:56:02Z</time>
      </trkpt>
      <trkpt lat="44.38697" lon="6.76395">
        <ele>1663</ele>
        <time>2021-09-23T11:56:06Z</time>
      </trkpt>
      <trkpt lat="44.38712" lon="6.76415">
        <ele>1649.7</ele>
        <time>2021-09-23T11:56:10Z</time>
      </trkpt>
      <trkpt lat="44.38723" lon="6.76426">
        <ele>1647</ele>
        <time>2021-09-23T11:56:14Z</time>
      </trkpt>
      <trkpt lat="44.38737" lon="6.76432">
        <ele>1643.6</ele>
        <time>2021-09-23T11:56:18Z</time>
      </trkpt>
      <trkpt lat="44.38746" lon="6.76441">
        <ele>1641.9</ele>
        <time>2021-09-23T11:56:22Z</time>
      </trkpt>
      <trkpt lat="44.3876" lon="6.76459">
        <ele>1639.7</ele>
        <time>2021-09-23T11:56:26Z</time>
      </trkpt>
      <trkpt lat="44.38771" lon="6.76466">
        <ele>1637.1</ele>
        <time>2021-09-23T11:56:30Z</time>
      </trkpt>
      <trkpt lat="44.38778" lon="6.76448">
        <ele>1634.1</ele>
        <time>2021-09-23T11:56:34Z</time>
      </trkpt>
      <trkpt lat="44.3879" lon="6.76442">
        <ele>1630.9</ele>
        <time>2021-09-23T11:56:38Z</time>
      </trkpt>
      <trkpt lat="44.38804" lon="6.76461">
        <ele>1627.2</ele>
        <time>2021-09-23T11:56:42Z</time>
      </trkpt>
      <trkpt lat="44.3882" lon="6.76488">
        <ele>1621.5</ele>
        <time>2021-09-23T11:56:46Z</time>
      </trkpt>
      <trkpt lat="44.38836" lon="6.765">
        <ele>1615.3</ele>
        <time>2021-09-23T11:56:50Z</time>
      </trkpt>
      <trkpt lat="44.38858" lon="6.76514">
        <ele>1612.5</ele>
        <time>2021-09-23T11:56:54Z</time>
      </trkpt>
      <trkpt lat="44.38877" lon="6.76523">
        <ele>1609.4</ele>
        <time>2021-09-23T11:56:58Z</time>
      </trkpt>
      <trkpt lat="44.38895" lon="6.76531">
        <ele>1606.4</ele>
        <time>2021-09-23T11:57:02Z</time>
      </trkpt>
      <trkpt lat="44.38922" lon="6.76539">
        <ele>1601.5</ele>
        <time>2021-09-23T11:57:06Z</time>
      </trkpt>
      <trkpt lat="44.38955" lon="6.76545">
        <ele>1596.7</ele>
        <time>2021-09-23T11:57:10Z</time>
      </trkpt>
      <trkpt lat="44.38985" lon="6.76545">
        <ele>1591.3</ele>
        <time>2021-09-23T11:57:14Z</time>
      </trkpt>
      <trkpt lat="44.39016" lon="6.76538">
        <ele>1584.9</ele>
        <time>2021-09-23T11:57:18Z</time>
      </trkpt>
      <trkpt lat="44.39042" lon="6.76535">
        <ele>1580.4</ele>
        <time>2021-09-23T11:57:22Z</time>
      </trkpt>
      <trkpt lat="44.39065" lon="6.76547">
        <ele>1578</ele>
        <time>2021-09-23T11:57:26Z</time>
      </trkpt>
      <trkpt lat="44.39094" lon="6.76576">
        <ele>1574.6</ele>
        <time>2021-09-23T11:57:30Z</time>
      </trkpt>
      <trkpt lat="44.39124" lon="6.76606">
        <ele>1569.5</ele>
        <time>2021-09-23T11:57:34Z</time>
      </trkpt>
      <trkpt lat="44.3916" lon="6.76637">
        <ele>1562.7</ele>
        <time>2021-09-23T11:57:38Z</time>
      </trkpt>
      <trkpt lat="44.39197" lon="6.76662">
        <ele>1557.4</ele>
        <time>2021-09-23T11:57:42Z</time>
      </trkpt>
      <trkpt lat="44.39233" lon="6.76684">
        <ele>1552.3</ele>
        <time>2021-09-23T11:57:46Z</time>
      </trkpt>
      <trkpt lat="44.39266" lon="6.76704">
        <ele>1547.3</ele>
        <time>2021-09-23T11:57:50Z</time>
      </trkpt>
      <trkpt lat="44.39277" lon="6.76728">
        <ele>1547.4</ele>
        <time>2021-09-23T11:57:54Z</time>
      </trkpt>
      <trkpt lat="44.39264" lon="6.76753">
        <ele>1552.1</ele>
        <time>2021-09-23T11:57:58Z</time>
      </trkpt>
      <trkpt lat="44.39256" lon="6.76773">
        <ele>1553.2</ele>
        <time>2021-09-23T11:58:02Z</time>
      </trkpt>
      <trkpt lat="44.39259" lon="6.76787">
        <ele>1552.5</ele>
        <time>2021-09-23T11:58:06Z</time>
      </trkpt>
      <trkpt lat="44.39265" lon="6.7678">
        <ele>1551.8</ele>
        <time>2021-09-23T11:58:10Z</time>
      </trkpt>
      <trkpt lat="44.39283" lon="6.76788">
        <ele>1549.4</ele>
        <time>2021-09-23T11:58:14Z</time>
      </trkpt>
      <trkpt lat="44.39305" lon="6.7679">
        <ele>1546.8</ele>
        <time>2021-09-23T11:58:18Z</time>
      </trkpt>
      <trkpt lat="44.39328" lon="6.76787">
        <ele>1543.6</ele>
        <time>2021-09-23T11:58:22Z</time>
      </trkpt>
      <trkpt lat="44.39354" lon="6.76771">
        <ele>1544.7</ele>
        <time>2021-09-23T11:58:26Z</time>
      </trkpt>
      <trkpt lat="44.39372" lon="6.76751">
        <ele>1545.1</ele>
        <time>2021-09-23T11:58:30Z</time>
      </trkpt>
      <trkpt lat="44.39374" lon="6.76733">
        <ele>1543.1</ele>
        <time>2021-09-23T11:58:34Z</time>
      </trkpt>
      <trkpt lat="44.39378" lon="6.76718">
        <ele>1541.7</ele>
        <time>2021-09-23T11:58:38Z</time>
      </trkpt>
      <trkpt lat="44.3938" lon="6.76701">
        <ele>1539.7</ele>
        <time>2021-09-23T11:58:42Z</time>
      </trkpt>
      <trkpt lat="44.39385" lon="6.76685">
        <ele>1538.2</ele>
        <time>2021-09-23T11:58:46Z</time>
      </trkpt>
      <trkpt lat="44.39389" lon="6.76677">
        <ele>1537.5</ele>
        <time>2021-09-23T11:58:50Z</time>
      </trkpt>
      <trkpt lat="44.39392" lon="6.76667">
        <ele>1536.4</ele>
        <time>2021-09-23T11:58:54Z</time>
      </trkpt>
      <trkpt lat="44.39395" lon="6.76656">
        <ele>1535.2</ele>
        <time>2021-09-23T11:58:58Z</time>
      </trkpt>
      <trkpt lat="44.39401" lon="6.76646">
        <ele>1534.4</ele>
        <time>2021-09-23T11:59:02Z</time>
      </trkpt>
      <trkpt lat="44.39412" lon="6.76633">
        <ele>1533.4</ele>
        <time>2021-09-23T11:59:06Z</time>
      </trkpt>
      <trkpt lat="44.39421" lon="6.76625">
        <ele>1533.2</ele>
        <time>2021-09-23T11:59:10Z</time>
      </trkpt>
      <trkpt lat="44.39429" lon="6.76615">
        <ele>1532.9</ele>
        <time>2021-09-23T11:59:14Z</time>
      </trkpt>
      <trkpt lat="44.39441" lon="6.76608">
        <ele>1533.7</ele>
        <time>2021-09-23T11:59:18Z</time>
      </trkpt>
      <trkpt lat="44.39455" lon="6.76605">
        <ele>1535.4</ele>
        <time>2021-09-23T11:59:22Z</time>
      </trkpt>
      <trkpt lat="44.39469" lon="6.76601">
        <ele>1536.8</ele>
        <time>2021-09-23T11:59:26Z</time>
      </trkpt>
      <trkpt lat="44.39479" lon="6.76595">
        <ele>1537.2</ele>
        <time>2021-09-23T11:59:30Z</time>
      </trkpt>
      <trkpt lat="44.39489" lon="6.7659">
        <ele>1537.7</ele>
        <time>2021-09-23T11:59:34Z</time>
      </trkpt>
      <trkpt lat="44.39499" lon="6.76585">
        <ele>1538.2</ele>
        <time>2021-09-23T11:59:38Z</time>
      </trkpt>
      <trkpt lat="44.39509" lon="6.76583">
        <ele>1538.7</ele>
        <time>2021-09-23T11:59:42Z</time>
      </trkpt>
      <trkpt lat="44.39517" lon="6.76584">
        <ele>1539.6</ele>
        <time>2021-09-23T11:59:46Z</time>
      </trkpt>
      <trkpt lat="44.39523" lon="6.76587">
        <ele>1540.7</ele>
        <time>2021-09-23T11:59:50Z</time>
      </trkpt>
      <trkpt lat="44.39529" lon="6.76591">
        <ele>1541.9</ele>
        <time>2021-09-23T11:59:54Z</time>
      </trkpt>
      <trkpt lat="44.39533" lon="6.76595">
        <ele>1543</ele>
        <time>2021-09-23T11:59:58Z</time>
      </trkpt>
      <trkpt lat="44.39537" lon="6.766">
        <ele>1544.3</ele>
        <time>2021-09-23T12:00:02Z</time>
      </trkpt>
      <trkpt lat="44.39542" lon="6.76606">
        <ele>1545.9</ele>
        <time>2021-09-23T12:00:06Z</time>
      </trkpt>
      <trkpt lat="44.39546" lon="6.76613">
        <ele>1547.5</ele>
        <time>2021-09-23T12:00:10Z</time>
      </trkpt>
      <trkpt lat="44.3955" lon="6.76615">
        <ele>1548.2</ele>
        <time>2021-09-23T12:00:14Z</time>
      </trkpt>
      <trkpt lat="44.39555" lon="6.76617">
        <ele>1549</ele>
        <time>2021-09-23T12:00:18Z</time>
      </trkpt>
      <trkpt lat="44.39562" lon="6.7662">
        <ele>1550</ele>
        <time>2021-09-23T12:00:22Z</time>
      </trkpt>
      <trkpt lat="44.39567" lon="6.76621">
        <ele>1550.6</ele>
        <time>2021-09-23T12:00:26Z</time>
      </trkpt>
      <trkpt lat="44.39576" lon="6.76626">
        <ele>1552.2</ele>
        <time>2021-09-23T12:00:30Z</time>
      </trkpt>
      <trkpt lat="44.39582" lon="6.76631">
        <ele>1553.5</ele>
        <time>2021-09-23T12:00:34Z</time>
      </trkpt>
      <trkpt lat="44.39588" lon="6.76636">
        <ele>1554.3</ele>
        <time>2021-09-23T12:00:38Z</time>
      </trkpt>
      <trkpt lat="44.39593" lon="6.76639">
        <ele>1554.6</ele>
        <time>2021-09-23T12:00:42Z</time>
      </trkpt>
      <trkpt lat="44.39598" lon="6.76641">
        <ele>1554.8</ele>
        <time>2021-09-23T12:00:46Z</time>
      </trkpt>
      <trkpt lat="44.39604" lon="6.76645">
        <ele>1555.2</ele>
        <time>2021-09-23T12:00:50Z</time>
      </trkpt>
      <trkpt lat="44.3961" lon="6.7665">
        <ele>1555.8</ele>
        <time>2021-09-23T12:00:54Z</time>
      </trkpt>
      <trkpt lat="44.39609" lon="6.76655">
        <ele>1556.8</ele>
        <time>2021-09-23T12:00:58Z</time>
      </trkpt>
      <trkpt lat="44.39603" lon="6.76657">
        <ele>1557.4</ele>
        <time>2021-09-23T12:01:02Z</time>
      </trkpt>
      <trkpt lat="44.39602" lon="6.76659">
        <ele>1557.8</ele>
        <time>2021-09-23T12:01:10Z</time>
      </trkpt>
      <trkpt lat="44.39607" lon="6.7666">
        <ele>1557.7</ele>
        <time>2021-09-23T12:04:06Z</time>
      </trkpt>
      <trkpt lat="44.39608" lon="6.76657">
        <ele>1557.1</ele>
        <time>2021-09-23T12:04:10Z</time>
      </trkpt>
      <trkpt lat="44.39616" lon="6.76654">
        <ele>1556.3</ele>
        <time>2021-09-23T12:04:14Z</time>
      </trkpt>
      <trkpt lat="44.39631" lon="6.76647">
        <ele>1554.4</ele>
        <time>2021-09-23T12:04:18Z</time>
      </trkpt>
      <trkpt lat="44.39647" lon="6.76637">
        <ele>1552.1</ele>
        <time>2021-09-23T12:04:22Z</time>
      </trkpt>
      <trkpt lat="44.39666" lon="6.76616">
        <ele>1548.1</ele>
        <time>2021-09-23T12:04:26Z</time>
      </trkpt>
      <trkpt lat="44.39681" lon="6.76595">
        <ele>1543.9</ele>
        <time>2021-09-23T12:04:30Z</time>
      </trkpt>
      <trkpt lat="44.39703" lon="6.76587">
        <ele>1541.4</ele>
        <time>2021-09-23T12:04:34Z</time>
      </trkpt>
      <trkpt lat="44.39722" lon="6.76585">
        <ele>1539.9</ele>
        <time>2021-09-23T12:04:38Z</time>
      </trkpt>
      <trkpt lat="44.39741" lon="6.76586">
        <ele>1538.9</ele>
        <time>2021-09-23T12:04:42Z</time>
      </trkpt>
      <trkpt lat="44.3976" lon="6.766">
        <ele>1537.6</ele>
        <time>2021-09-23T12:04:46Z</time>
      </trkpt>
      <trkpt lat="44.39777" lon="6.76634">
        <ele>1537.1</ele>
        <time>2021-09-23T12:04:50Z</time>
      </trkpt>
      <trkpt lat="44.39791" lon="6.76671">
        <ele>1537.1</ele>
        <time>2021-09-23T12:04:54Z</time>
      </trkpt>
      <trkpt lat="44.39811" lon="6.76702">
        <ele>1534.2</ele>
        <time>2021-09-23T12:04:58Z</time>
      </trkpt>
      <trkpt lat="44.3984" lon="6.7672">
        <ele>1529</ele>
        <time>2021-09-23T12:05:02Z</time>
      </trkpt>
      <trkpt lat="44.39869" lon="6.76722">
        <ele>1526</ele>
        <time>2021-09-23T12:05:06Z</time>
      </trkpt>
      <trkpt lat="44.39893" lon="6.76733">
        <ele>1524.3</ele>
        <time>2021-09-23T12:05:10Z</time>
      </trkpt>
      <trkpt lat="44.39915" lon="6.76724">
        <ele>1521</ele>
        <time>2021-09-23T12:05:14Z</time>
      </trkpt>
      <trkpt lat="44.39941" lon="6.76706">
        <ele>1518.6</ele>
        <time>2021-09-23T12:05:18Z</time>
      </trkpt>
      <trkpt lat="44.39971" lon="6.767">
        <ele>1516.7</ele>
        <time>2021-09-23T12:05:22Z</time>
      </trkpt>
      <trkpt lat="44.39999" lon="6.76693">
        <ele>1514.1</ele>
        <time>2021-09-23T12:05:26Z</time>
      </trkpt>
      <trkpt lat="44.40026" lon="6.76676">
        <ele>1512.9</ele>
        <time>2021-09-23T12:05:30Z</time>
      </trkpt>
      <trkpt lat="44.40044" lon="6.76648">
        <ele>1509.8</ele>
        <time>2021-09-23T12:05:34Z</time>
      </trkpt>
      <trkpt lat="44.40059" lon="6.76622">
        <ele>1506.7</ele>
        <time>2021-09-23T12:05:38Z</time>
      </trkpt>
      <trkpt lat="44.4007" lon="6.76589">
        <ele>1501.5</ele>
        <time>2021-09-23T12:05:42Z</time>
      </trkpt>
      <trkpt lat="44.40083" lon="6.76557">
        <ele>1497.8</ele>
        <time>2021-09-23T12:05:46Z</time>
      </trkpt>
      <trkpt lat="44.40099" lon="6.76526">
        <ele>1495.2</ele>
        <time>2021-09-23T12:05:50Z</time>
      </trkpt>
      <trkpt lat="44.40107" lon="6.76493">
        <ele>1491.6</ele>
        <time>2021-09-23T12:05:54Z</time>
      </trkpt>
      <trkpt lat="44.40106" lon="6.76458">
        <ele>1487.3</ele>
        <time>2021-09-23T12:05:58Z</time>
      </trkpt>
      <trkpt lat="44.40118" lon="6.76434">
        <ele>1484.6</ele>
        <time>2021-09-23T12:06:02Z</time>
      </trkpt>
      <trkpt lat="44.40133" lon="6.76417">
        <ele>1482.6</ele>
        <time>2021-09-23T12:06:06Z</time>
      </trkpt>
      <trkpt lat="44.40122" lon="6.764">
        <ele>1479.4</ele>
        <time>2021-09-23T12:06:10Z</time>
      </trkpt>
      <trkpt lat="44.40103" lon="6.76407">
        <ele>1480.5</ele>
        <time>2021-09-23T12:06:14Z</time>
      </trkpt>
      <trkpt lat="44.40089" lon="6.76422">
        <ele>1482.7</ele>
        <time>2021-09-23T12:06:18Z</time>
      </trkpt>
      <trkpt lat="44.40077" lon="6.76441">
        <ele>1484.3</ele>
        <time>2021-09-23T12:06:22Z</time>
      </trkpt>
      <trkpt lat="44.40056" lon="6.76441">
        <ele>1483.4</ele>
        <time>2021-09-23T12:06:26Z</time>
      </trkpt>
      <trkpt lat="44.40032" lon="6.76429">
        <ele>1481</ele>
        <time>2021-09-23T12:06:30Z</time>
      </trkpt>
      <trkpt lat="44.40004" lon="6.76418">
        <ele>1478.4</ele>
        <time>2021-09-23T12:06:34Z</time>
      </trkpt>
      <trkpt lat="44.39982" lon="6.76423">
        <ele>1480.1</ele>
        <time>2021-09-23T12:06:38Z</time>
      </trkpt>
      <trkpt lat="44.39978" lon="6.76403">
        <ele>1477.4</ele>
        <time>2021-09-23T12:06:42Z</time>
      </trkpt>
      <trkpt lat="44.39998" lon="6.76394">
        <ele>1474.6</ele>
        <time>2021-09-23T12:06:46Z</time>
      </trkpt>
      <trkpt lat="44.40023" lon="6.76383">
        <ele>1473.6</ele>
        <time>2021-09-23T12:06:50Z</time>
      </trkpt>
      <trkpt lat="44.40046" lon="6.76354">
        <ele>1469.6</ele>
        <time>2021-09-23T12:06:54Z</time>
      </trkpt>
      <trkpt lat="44.40065" lon="6.76323">
        <ele>1464.7</ele>
        <time>2021-09-23T12:06:58Z</time>
      </trkpt>
      <trkpt lat="44.40093" lon="6.76304">
        <ele>1461.3</ele>
        <time>2021-09-23T12:07:02Z</time>
      </trkpt>
      <trkpt lat="44.40124" lon="6.76288">
        <ele>1458</ele>
        <time>2021-09-23T12:07:06Z</time>
      </trkpt>
      <trkpt lat="44.40152" lon="6.76278">
        <ele>1455.8</ele>
        <time>2021-09-23T12:07:10Z</time>
      </trkpt>
      <trkpt lat="44.40171" lon="6.76298">
        <ele>1460.4</ele>
        <time>2021-09-23T12:07:14Z</time>
      </trkpt>
      <trkpt lat="44.40183" lon="6.76324">
        <ele>1467</ele>
        <time>2021-09-23T12:07:18Z</time>
      </trkpt>
      <trkpt lat="44.40197" lon="6.76318">
        <ele>1467.5</ele>
        <time>2021-09-23T12:07:22Z</time>
      </trkpt>
      <trkpt lat="44.40202" lon="6.76296">
        <ele>1464.1</ele>
        <time>2021-09-23T12:07:26Z</time>
      </trkpt>
      <trkpt lat="44.40209" lon="6.76268">
        <ele>1460.2</ele>
        <time>2021-09-23T12:07:30Z</time>
      </trkpt>
      <trkpt lat="44.40217" lon="6.76238">
        <ele>1456.8</ele>
        <time>2021-09-23T12:07:34Z</time>
      </trkpt>
      <trkpt lat="44.40225" lon="6.76209">
        <ele>1454.5</ele>
        <time>2021-09-23T12:07:38Z</time>
      </trkpt>
      <trkpt lat="44.40235" lon="6.76172">
        <ele>1452</ele>
        <time>2021-09-23T12:07:42Z</time>
      </trkpt>
      <trkpt lat="44.40242" lon="6.76141">
        <ele>1448.8</ele>
        <time>2021-09-23T12:07:46Z</time>
      </trkpt>
      <trkpt lat="44.40255" lon="6.76113">
        <ele>1447.7</ele>
        <time>2021-09-23T12:07:50Z</time>
      </trkpt>
      <trkpt lat="44.40265" lon="6.76085">
        <ele>1446.5</ele>
        <time>2021-09-23T12:07:54Z</time>
      </trkpt>
      <trkpt lat="44.40278" lon="6.76056">
        <ele>1442.7</ele>
        <time>2021-09-23T12:07:58Z</time>
      </trkpt>
      <trkpt lat="44.40301" lon="6.76041">
        <ele>1445.9</ele>
        <time>2021-09-23T12:08:02Z</time>
      </trkpt>
      <trkpt lat="44.40323" lon="6.7603">
        <ele>1449.9</ele>
        <time>2021-09-23T12:08:06Z</time>
      </trkpt>
      <trkpt lat="44.40344" lon="6.76017">
        <ele>1451.2</ele>
        <time>2021-09-23T12:08:10Z</time>
      </trkpt>
      <trkpt lat="44.40362" lon="6.76003">
        <ele>1449.8</ele>
        <time>2021-09-23T12:08:14Z</time>
      </trkpt>
      <trkpt lat="44.4038" lon="6.75985">
        <ele>1448.2</ele>
        <time>2021-09-23T12:08:18Z</time>
      </trkpt>
      <trkpt lat="44.40401" lon="6.75973">
        <ele>1449.2</ele>
        <time>2021-09-23T12:08:22Z</time>
      </trkpt>
      <trkpt lat="44.40423" lon="6.75961">
        <ele>1451.5</ele>
        <time>2021-09-23T12:08:26Z</time>
      </trkpt>
      <trkpt lat="44.4044" lon="6.75948">
        <ele>1453.9</ele>
        <time>2021-09-23T12:08:30Z</time>
      </trkpt>
      <trkpt lat="44.4045" lon="6.75939">
        <ele>1455.2</ele>
        <time>2021-09-23T12:08:34Z</time>
      </trkpt>
      <trkpt lat="44.4046" lon="6.75932">
        <ele>1457</ele>
        <time>2021-09-23T12:08:38Z</time>
      </trkpt>
      <trkpt lat="44.40468" lon="6.75926">
        <ele>1458.4</ele>
        <time>2021-09-23T12:08:42Z</time>
      </trkpt>
      <trkpt lat="44.40474" lon="6.75916">
        <ele>1458.5</ele>
        <time>2021-09-23T12:08:46Z</time>
      </trkpt>
      <trkpt lat="44.4048" lon="6.75904">
        <ele>1459.2</ele>
        <time>2021-09-23T12:08:50Z</time>
      </trkpt>
      <trkpt lat="44.40484" lon="6.75892">
        <ele>1459.4</ele>
        <time>2021-09-23T12:08:54Z</time>
      </trkpt>
      <trkpt lat="44.40488" lon="6.75879">
        <ele>1459.7</ele>
        <time>2021-09-23T12:08:58Z</time>
      </trkpt>
      <trkpt lat="44.40491" lon="6.75866">
        <ele>1459.7</ele>
        <time>2021-09-23T12:09:02Z</time>
      </trkpt>
      <trkpt lat="44.40491" lon="6.75854">
        <ele>1458.7</ele>
        <time>2021-09-23T12:09:06Z</time>
      </trkpt>
      <trkpt lat="44.40489" lon="6.75842">
        <ele>1456.8</ele>
        <time>2021-09-23T12:09:10Z</time>
      </trkpt>
      <trkpt lat="44.40488" lon="6.7583">
        <ele>1455.2</ele>
        <time>2021-09-23T12:09:14Z</time>
      </trkpt>
      <trkpt lat="44.40486" lon="6.75816">
        <ele>1452.8</ele>
        <time>2021-09-23T12:09:18Z</time>
      </trkpt>
      <trkpt lat="44.40483" lon="6.758">
        <ele>1449.8</ele>
        <time>2021-09-23T12:09:22Z</time>
      </trkpt>
      <trkpt lat="44.4048" lon="6.75786">
        <ele>1446.9</ele>
        <time>2021-09-23T12:09:26Z</time>
      </trkpt>
      <trkpt lat="44.40478" lon="6.75773">
        <ele>1444.6</ele>
        <time>2021-09-23T12:09:30Z</time>
      </trkpt>
      <trkpt lat="44.40478" lon="6.7576">
        <ele>1443.2</ele>
        <time>2021-09-23T12:09:34Z</time>
      </trkpt>
      <trkpt lat="44.40481" lon="6.75748">
        <ele>1443.2</ele>
        <time>2021-09-23T12:09:38Z</time>
      </trkpt>
      <trkpt lat="44.40484" lon="6.7574">
        <ele>1442.7</ele>
        <time>2021-09-23T12:09:42Z</time>
      </trkpt>
      <trkpt lat="44.40478" lon="6.75743">
        <ele>1440.5</ele>
        <time>2021-09-23T12:09:46Z</time>
      </trkpt>
      <trkpt lat="44.40472" lon="6.75759">
        <ele>1440.2</ele>
        <time>2021-09-23T12:09:50Z</time>
      </trkpt>
      <trkpt lat="44.40472" lon="6.75779">
        <ele>1442.4</ele>
        <time>2021-09-23T12:09:54Z</time>
      </trkpt>
      <trkpt lat="44.40471" lon="6.75801">
        <ele>1444.3</ele>
        <time>2021-09-23T12:09:58Z</time>
      </trkpt>
      <trkpt lat="44.40467" lon="6.75811">
        <ele>1443.5</ele>
        <time>2021-09-23T12:10:02Z</time>
      </trkpt>
      <trkpt lat="44.40464" lon="6.75814">
        <ele>1442.4</ele>
        <time>2021-09-23T12:10:10Z</time>
      </trkpt>
      <trkpt lat="44.40463" lon="6.75815">
        <ele>1442.1</ele>
        <time>2021-09-23T12:10:30Z</time>
      </trkpt>
      <trkpt lat="44.40463" lon="6.75815">
        <ele>1442.1</ele>
        <time>2021-09-23T12:10:38Z</time>
      </trkpt>
      <trkpt lat="44.40456" lon="6.75819">
        <ele>1439.3</ele>
        <time>2021-09-23T12:10:42Z</time>
      </trkpt>
      <trkpt lat="44.40449" lon="6.75817">
        <ele>1435.8</ele>
        <time>2021-09-23T12:10:46Z</time>
      </trkpt>
      <trkpt lat="44.40443" lon="6.75815">
        <ele>1432.8</ele>
        <time>2021-09-23T12:10:50Z</time>
      </trkpt>
      <trkpt lat="44.40439" lon="6.75813">
        <ele>1430.7</ele>
        <time>2021-09-23T12:10:54Z</time>
      </trkpt>
      <trkpt lat="44.40435" lon="6.75817">
        <ele>1429.3</ele>
        <time>2021-09-23T12:10:58Z</time>
      </trkpt>
      <trkpt lat="44.40432" lon="6.75812">
        <ele>1427.3</ele>
        <time>2021-09-23T12:11:02Z</time>
      </trkpt>
      <trkpt lat="44.40428" lon="6.75813">
        <ele>1425.6</ele>
        <time>2021-09-23T12:11:26Z</time>
      </trkpt>
      <trkpt lat="44.40426" lon="6.75814">
        <ele>1424.8</ele>
        <time>2021-09-23T12:11:38Z</time>
      </trkpt>
      <trkpt lat="44.40423" lon="6.75808">
        <ele>1422.6</ele>
        <time>2021-09-23T12:11:46Z</time>
      </trkpt>
      <trkpt lat="44.4042" lon="6.75812">
        <ele>1421.7</ele>
        <time>2021-09-23T12:11:50Z</time>
      </trkpt>
      <trkpt lat="44.40418" lon="6.75814">
        <ele>1421.1</ele>
        <time>2021-09-23T12:11:54Z</time>
      </trkpt>
      <trkpt lat="44.40412" lon="6.75814">
        <ele>1418.8</ele>
        <time>2021-09-23T12:11:58Z</time>
      </trkpt>
      <trkpt lat="44.40409" lon="6.75813">
        <ele>1417.6</ele>
        <time>2021-09-23T12:12:02Z</time>
      </trkpt>
      <trkpt lat="44.40403" lon="6.7582">
        <ele>1416.5</ele>
        <time>2021-09-23T12:12:06Z</time>
      </trkpt>
      <trkpt lat="44.40396" lon="6.75823">
        <ele>1414.6</ele>
        <time>2021-09-23T12:12:10Z</time>
      </trkpt>
      <trkpt lat="44.40392" lon="6.75819">
        <ele>1412.6</ele>
        <time>2021-09-23T12:12:14Z</time>
      </trkpt>
      <trkpt lat="44.40389" lon="6.75805">
        <ele>1409.1</ele>
        <time>2021-09-23T12:12:18Z</time>
      </trkpt>
      <trkpt lat="44.40384" lon="6.75782">
        <ele>1403</ele>
        <time>2021-09-23T12:12:22Z</time>
      </trkpt>
      <trkpt lat="44.40383" lon="6.75756">
        <ele>1397.8</ele>
        <time>2021-09-23T12:12:26Z</time>
      </trkpt>
      <trkpt lat="44.40382" lon="6.75741">
        <ele>1394.4</ele>
        <time>2021-09-23T12:12:30Z</time>
      </trkpt>
      <trkpt lat="44.40385" lon="6.75723">
        <ele>1392.1</ele>
        <time>2021-09-23T12:12:34Z</time>
      </trkpt>
      <trkpt lat="44.40385" lon="6.75704">
        <ele>1388.2</ele>
        <time>2021-09-23T12:12:38Z</time>
      </trkpt>
      <trkpt lat="44.40391" lon="6.75689">
        <ele>1387.5</ele>
        <time>2021-09-23T12:12:42Z</time>
      </trkpt>
      <trkpt lat="44.40401" lon="6.7568">
        <ele>1389.3</ele>
        <time>2021-09-23T12:12:46Z</time>
      </trkpt>
      <trkpt lat="44.40412" lon="6.7567">
        <ele>1391.1</ele>
        <time>2021-09-23T12:12:50Z</time>
      </trkpt>
      <trkpt lat="44.40417" lon="6.75656">
        <ele>1389.5</ele>
        <time>2021-09-23T12:13:02Z</time>
      </trkpt>
      <trkpt lat="44.40417" lon="6.7565">
        <ele>1388</ele>
        <time>2021-09-23T12:13:06Z</time>
      </trkpt>
      <trkpt lat="44.40422" lon="6.75638">
        <ele>1387.5</ele>
        <time>2021-09-23T12:13:10Z</time>
      </trkpt>
      <trkpt lat="44.40431" lon="6.7563">
        <ele>1390.2</ele>
        <time>2021-09-23T12:13:14Z</time>
      </trkpt>
      <trkpt lat="44.4044" lon="6.75624">
        <ele>1393.4</ele>
        <time>2021-09-23T12:13:18Z</time>
      </trkpt>
      <trkpt lat="44.40447" lon="6.75616">
        <ele>1395.3</ele>
        <time>2021-09-23T12:13:22Z</time>
      </trkpt>
      <trkpt lat="44.40446" lon="6.75607">
        <ele>1392.7</ele>
        <time>2021-09-23T12:13:26Z</time>
      </trkpt>
      <trkpt lat="44.40446" lon="6.75595">
        <ele>1389.9</ele>
        <time>2021-09-23T12:13:30Z</time>
      </trkpt>
      <trkpt lat="44.40452" lon="6.75587">
        <ele>1391.3</ele>
        <time>2021-09-23T12:13:34Z</time>
      </trkpt>
      <trkpt lat="44.40457" lon="6.75578">
        <ele>1392.4</ele>
        <time>2021-09-23T12:13:38Z</time>
      </trkpt>
      <trkpt lat="44.4046" lon="6.75564">
        <ele>1391.9</ele>
        <time>2021-09-23T12:13:42Z</time>
      </trkpt>
      <trkpt lat="44.40462" lon="6.7555">
        <ele>1390.8</ele>
        <time>2021-09-23T12:13:46Z</time>
      </trkpt>
      <trkpt lat="44.40464" lon="6.75537">
        <ele>1389.9</ele>
        <time>2021-09-23T12:13:50Z</time>
      </trkpt>
      <trkpt lat="44.40465" lon="6.75521">
        <ele>1388</ele>
        <time>2021-09-23T12:13:54Z</time>
      </trkpt>
      <trkpt lat="44.40466" lon="6.75506">
        <ele>1386.2</ele>
        <time>2021-09-23T12:13:58Z</time>
      </trkpt>
      <trkpt lat="44.4047" lon="6.75493">
        <ele>1386.2</ele>
        <time>2021-09-23T12:14:02Z</time>
      </trkpt>
      <trkpt lat="44.4048" lon="6.75481">
        <ele>1389.6</ele>
        <time>2021-09-23T12:14:06Z</time>
      </trkpt>
      <trkpt lat="44.40483" lon="6.75471">
        <ele>1389.4</ele>
        <time>2021-09-23T12:14:10Z</time>
      </trkpt>
      <trkpt lat="44.40488" lon="6.75455">
        <ele>1389.1</ele>
        <time>2021-09-23T12:14:14Z</time>
      </trkpt>
      <trkpt lat="44.40493" lon="6.75441">
        <ele>1389.1</ele>
        <time>2021-09-23T12:14:18Z</time>
      </trkpt>
      <trkpt lat="44.405" lon="6.75426">
        <ele>1389.8</ele>
        <time>2021-09-23T12:14:22Z</time>
      </trkpt>
      <trkpt lat="44.40508" lon="6.75413">
        <ele>1391</ele>
        <time>2021-09-23T12:14:26Z</time>
      </trkpt>
      <trkpt lat="44.40511" lon="6.75401">
        <ele>1390.5</ele>
        <time>2021-09-23T12:14:30Z</time>
      </trkpt>
      <trkpt lat="44.4051" lon="6.7539">
        <ele>1388.4</ele>
        <time>2021-09-23T12:14:34Z</time>
      </trkpt>
      <trkpt lat="44.40506" lon="6.75379">
        <ele>1385.1</ele>
        <time>2021-09-23T12:14:38Z</time>
      </trkpt>
      <trkpt lat="44.40504" lon="6.75365">
        <ele>1382.2</ele>
        <time>2021-09-23T12:14:42Z</time>
      </trkpt>
      <trkpt lat="44.40504" lon="6.7535">
        <ele>1380</ele>
        <time>2021-09-23T12:14:46Z</time>
      </trkpt>
      <trkpt lat="44.40511" lon="6.7534">
        <ele>1381.2</ele>
        <time>2021-09-23T12:14:50Z</time>
      </trkpt>
      <trkpt lat="44.40522" lon="6.75336">
        <ele>1384.9</ele>
        <time>2021-09-23T12:14:54Z</time>
      </trkpt>
      <trkpt lat="44.40531" lon="6.75332">
        <ele>1387.6</ele>
        <time>2021-09-23T12:14:58Z</time>
      </trkpt>
      <trkpt lat="44.40539" lon="6.75319">
        <ele>1387.5</ele>
        <time>2021-09-23T12:15:02Z</time>
      </trkpt>
      <trkpt lat="44.40541" lon="6.75305">
        <ele>1384.9</ele>
        <time>2021-09-23T12:15:06Z</time>
      </trkpt>
      <trkpt lat="44.40543" lon="6.75289">
        <ele>1381.9</ele>
        <time>2021-09-23T12:15:10Z</time>
      </trkpt>
      <trkpt lat="44.40545" lon="6.75276">
        <ele>1379.5</ele>
        <time>2021-09-23T12:15:14Z</time>
      </trkpt>
      <trkpt lat="44.40554" lon="6.7527">
        <ele>1381.5</ele>
        <time>2021-09-23T12:15:18Z</time>
      </trkpt>
      <trkpt lat="44.40563" lon="6.75271">
        <ele>1385.2</ele>
        <time>2021-09-23T12:15:22Z</time>
      </trkpt>
      <trkpt lat="44.40576" lon="6.75269">
        <ele>1389.7</ele>
        <time>2021-09-23T12:15:26Z</time>
      </trkpt>
      <trkpt lat="44.40587" lon="6.75268">
        <ele>1393.5</ele>
        <time>2021-09-23T12:15:30Z</time>
      </trkpt>
      <trkpt lat="44.40598" lon="6.75266">
        <ele>1396.5</ele>
        <time>2021-09-23T12:15:34Z</time>
      </trkpt>
      <trkpt lat="44.40606" lon="6.75254">
        <ele>1396.5</ele>
        <time>2021-09-23T12:15:38Z</time>
      </trkpt>
      <trkpt lat="44.40612" lon="6.75239">
        <ele>1394.2</ele>
        <time>2021-09-23T12:15:42Z</time>
      </trkpt>
      <trkpt lat="44.40616" lon="6.75226">
        <ele>1391.7</ele>
        <time>2021-09-23T12:15:46Z</time>
      </trkpt>
      <trkpt lat="44.40621" lon="6.75215">
        <ele>1390.5</ele>
        <time>2021-09-23T12:15:50Z</time>
      </trkpt>
      <trkpt lat="44.40625" lon="6.75199">
        <ele>1387.6</ele>
        <time>2021-09-23T12:15:54Z</time>
      </trkpt>
      <trkpt lat="44.40628" lon="6.75189">
        <ele>1386.2</ele>
        <time>2021-09-23T12:15:58Z</time>
      </trkpt>
      <trkpt lat="44.40638" lon="6.75181">
        <ele>1388.8</ele>
        <time>2021-09-23T12:16:02Z</time>
      </trkpt>
      <trkpt lat="44.40641" lon="6.75174">
        <ele>1388.6</ele>
        <time>2021-09-23T12:16:06Z</time>
      </trkpt>
      <trkpt lat="44.40645" lon="6.7517">
        <ele>1389.6</ele>
        <time>2021-09-23T12:16:18Z</time>
      </trkpt>
      <trkpt lat="44.40646" lon="6.75164">
        <ele>1388.5</ele>
        <time>2021-09-23T12:16:22Z</time>
      </trkpt>
      <trkpt lat="44.40648" lon="6.75154">
        <ele>1386.5</ele>
        <time>2021-09-23T12:16:26Z</time>
      </trkpt>
      <trkpt lat="44.40654" lon="6.75142">
        <ele>1385.9</ele>
        <time>2021-09-23T12:16:30Z</time>
      </trkpt>
      <trkpt lat="44.40664" lon="6.75138">
        <ele>1389.7</ele>
        <time>2021-09-23T12:16:34Z</time>
      </trkpt>
      <trkpt lat="44.40673" lon="6.75132">
        <ele>1390.9</ele>
        <time>2021-09-23T12:16:38Z</time>
      </trkpt>
      <trkpt lat="44.40681" lon="6.75125">
        <ele>1391</ele>
        <time>2021-09-23T12:16:42Z</time>
      </trkpt>
      <trkpt lat="44.40686" lon="6.75123">
        <ele>1391.8</ele>
        <time>2021-09-23T12:16:46Z</time>
      </trkpt>
      <trkpt lat="44.4069" lon="6.75117">
        <ele>1391.3</ele>
        <time>2021-09-23T12:16:50Z</time>
      </trkpt>
      <trkpt lat="44.40694" lon="6.75107">
        <ele>1389.8</ele>
        <time>2021-09-23T12:16:54Z</time>
      </trkpt>
      <trkpt lat="44.40701" lon="6.75094">
        <ele>1388.6</ele>
        <time>2021-09-23T12:16:58Z</time>
      </trkpt>
      <trkpt lat="44.40709" lon="6.75084">
        <ele>1388.9</ele>
        <time>2021-09-23T12:17:02Z</time>
      </trkpt>
      <trkpt lat="44.40714" lon="6.75078">
        <ele>1389</ele>
        <time>2021-09-23T12:17:10Z</time>
      </trkpt>
      <trkpt lat="44.40718" lon="6.75064">
        <ele>1386.5</ele>
        <time>2021-09-23T12:17:14Z</time>
      </trkpt>
      <trkpt lat="44.40723" lon="6.75044">
        <ele>1382.9</ele>
        <time>2021-09-23T12:17:18Z</time>
      </trkpt>
      <trkpt lat="44.40737" lon="6.75025">
        <ele>1383.6</ele>
        <time>2021-09-23T12:17:22Z</time>
      </trkpt>
      <trkpt lat="44.40749" lon="6.75004">
        <ele>1383.5</ele>
        <time>2021-09-23T12:17:26Z</time>
      </trkpt>
      <trkpt lat="44.40755" lon="6.74977">
        <ele>1376.3</ele>
        <time>2021-09-23T12:17:30Z</time>
      </trkpt>
      <trkpt lat="44.40767" lon="6.7496">
        <ele>1372.5</ele>
        <time>2021-09-23T12:17:34Z</time>
      </trkpt>
      <trkpt lat="44.40782" lon="6.74945">
        <ele>1370</ele>
        <time>2021-09-23T12:17:38Z</time>
      </trkpt>
      <trkpt lat="44.40798" lon="6.7492">
        <ele>1365.4</ele>
        <time>2021-09-23T12:17:42Z</time>
      </trkpt>
      <trkpt lat="44.40808" lon="6.74898">
        <ele>1361.1</ele>
        <time>2021-09-23T12:17:46Z</time>
      </trkpt>
      <trkpt lat="44.40815" lon="6.74869">
        <ele>1355.2</ele>
        <time>2021-09-23T12:17:50Z</time>
      </trkpt>
      <trkpt lat="44.40824" lon="6.74843">
        <ele>1351.3</ele>
        <time>2021-09-23T12:17:54Z</time>
      </trkpt>
      <trkpt lat="44.40834" lon="6.74827">
        <ele>1350</ele>
        <time>2021-09-23T12:17:58Z</time>
      </trkpt>
      <trkpt lat="44.40843" lon="6.74811">
        <ele>1345.9</ele>
        <time>2021-09-23T12:18:02Z</time>
      </trkpt>
      <trkpt lat="44.40849" lon="6.74796">
        <ele>1342.1</ele>
        <time>2021-09-23T12:18:06Z</time>
      </trkpt>
      <trkpt lat="44.40858" lon="6.74774">
        <ele>1337</ele>
        <time>2021-09-23T12:18:10Z</time>
      </trkpt>
      <trkpt lat="44.40865" lon="6.74751">
        <ele>1331.9</ele>
        <time>2021-09-23T12:18:14Z</time>
      </trkpt>
      <trkpt lat="44.4087" lon="6.74736">
        <ele>1328.5</ele>
        <time>2021-09-23T12:18:18Z</time>
      </trkpt>
      <trkpt lat="44.40878" lon="6.74718">
        <ele>1325</ele>
        <time>2021-09-23T12:18:22Z</time>
      </trkpt>
      <trkpt lat="44.40887" lon="6.74694">
        <ele>1320.2</ele>
        <time>2021-09-23T12:18:26Z</time>
      </trkpt>
      <trkpt lat="44.40898" lon="6.74676">
        <ele>1318.1</ele>
        <time>2021-09-23T12:18:30Z</time>
      </trkpt>
      <trkpt lat="44.40909" lon="6.7466">
        <ele>1316.4</ele>
        <time>2021-09-23T12:18:34Z</time>
      </trkpt>
      <trkpt lat="44.40915" lon="6.74645">
        <ele>1313</ele>
        <time>2021-09-23T12:18:58Z</time>
      </trkpt>
      <trkpt lat="44.40917" lon="6.74638">
        <ele>1311.1</ele>
        <time>2021-09-23T12:19:02Z</time>
      </trkpt>
      <trkpt lat="44.40921" lon="6.74632">
        <ele>1309.9</ele>
        <time>2021-09-23T12:19:06Z</time>
      </trkpt>
      <trkpt lat="44.40927" lon="6.74629">
        <ele>1310.2</ele>
        <time>2021-09-23T12:19:10Z</time>
      </trkpt>
      <trkpt lat="44.40933" lon="6.74621">
        <ele>1309</ele>
        <time>2021-09-23T12:19:14Z</time>
      </trkpt>
      <trkpt lat="44.40941" lon="6.7461">
        <ele>1307.7</ele>
        <time>2021-09-23T12:19:18Z</time>
      </trkpt>
      <trkpt lat="44.40944" lon="6.746">
        <ele>1305.6</ele>
        <time>2021-09-23T12:19:22Z</time>
      </trkpt>
      <trkpt lat="44.40953" lon="6.74591">
        <ele>1305.8</ele>
        <time>2021-09-23T12:19:26Z</time>
      </trkpt>
      <trkpt lat="44.40958" lon="6.74585">
        <ele>1305.8</ele>
        <time>2021-09-23T12:19:30Z</time>
      </trkpt>
      <trkpt lat="44.40963" lon="6.74575">
        <ele>1305.4</ele>
        <time>2021-09-23T12:19:38Z</time>
      </trkpt>
      <trkpt lat="44.40966" lon="6.7457">
        <ele>1305.4</ele>
        <time>2021-09-23T12:19:42Z</time>
      </trkpt>
      <trkpt lat="44.40969" lon="6.74567">
        <ele>1305.8</ele>
        <time>2021-09-23T12:19:46Z</time>
      </trkpt>
      <trkpt lat="44.40971" lon="6.74564">
        <ele>1306</ele>
        <time>2021-09-23T12:19:50Z</time>
      </trkpt>
      <trkpt lat="44.40972" lon="6.74562">
        <ele>1305.9</ele>
        <time>2021-09-23T12:19:58Z</time>
      </trkpt>
      <trkpt lat="44.40973" lon="6.7456">
        <ele>1305.9</ele>
        <time>2021-09-23T12:20:02Z</time>
      </trkpt>
      <trkpt lat="44.40975" lon="6.74556">
        <ele>1305.8</ele>
        <time>2021-09-23T12:20:06Z</time>
      </trkpt>
      <trkpt lat="44.40977" lon="6.74552">
        <ele>1305.8</ele>
        <time>2021-09-23T12:20:10Z</time>
      </trkpt>
      <trkpt lat="44.40979" lon="6.74548">
        <ele>1305.7</ele>
        <time>2021-09-23T12:20:14Z</time>
      </trkpt>
      <trkpt lat="44.40981" lon="6.74545">
        <ele>1305.9</ele>
        <time>2021-09-23T12:20:18Z</time>
      </trkpt>
      <trkpt lat="44.40983" lon="6.74542">
        <ele>1306</ele>
        <time>2021-09-23T12:20:22Z</time>
      </trkpt>
      <trkpt lat="44.40985" lon="6.74538">
        <ele>1306</ele>
        <time>2021-09-23T12:20:26Z</time>
      </trkpt>
      <trkpt lat="44.40986" lon="6.74534">
        <ele>1305.7</ele>
        <time>2021-09-23T12:20:30Z</time>
      </trkpt>
      <trkpt lat="44.40986" lon="6.7453">
        <ele>1305</ele>
        <time>2021-09-23T12:20:34Z</time>
      </trkpt>
      <trkpt lat="44.40985" lon="6.74523">
        <ele>1303.4</ele>
        <time>2021-09-23T12:20:38Z</time>
      </trkpt>
      <trkpt lat="44.40986" lon="6.74507">
        <ele>1300.9</ele>
        <time>2021-09-23T12:20:42Z</time>
      </trkpt>
      <trkpt lat="44.40993" lon="6.74485">
        <ele>1300.2</ele>
        <time>2021-09-23T12:20:46Z</time>
      </trkpt>
      <trkpt lat="44.41" lon="6.74458">
        <ele>1299</ele>
        <time>2021-09-23T12:20:50Z</time>
      </trkpt>
      <trkpt lat="44.41007" lon="6.74424">
        <ele>1295.6</ele>
        <time>2021-09-23T12:20:54Z</time>
      </trkpt>
      <trkpt lat="44.4101" lon="6.74387">
        <ele>1290.8</ele>
        <time>2021-09-23T12:20:58Z</time>
      </trkpt>
      <trkpt lat="44.41016" lon="6.74349">
        <ele>1286.8</ele>
        <time>2021-09-23T12:21:02Z</time>
      </trkpt>
      <trkpt lat="44.41023" lon="6.74314">
        <ele>1284.2</ele>
        <time>2021-09-23T12:21:06Z</time>
      </trkpt>
      <trkpt lat="44.41032" lon="6.74286">
        <ele>1283.4</ele>
        <time>2021-09-23T12:21:10Z</time>
      </trkpt>
      <trkpt lat="44.41039" lon="6.74257">
        <ele>1282</ele>
        <time>2021-09-23T12:21:14Z</time>
      </trkpt>
      <trkpt lat="44.41046" lon="6.74224">
        <ele>1279.1</ele>
        <time>2021-09-23T12:21:18Z</time>
      </trkpt>
      <trkpt lat="44.41052" lon="6.74192">
        <ele>1275.6</ele>
        <time>2021-09-23T12:21:22Z</time>
      </trkpt>
      <trkpt lat="44.41066" lon="6.74155">
        <ele>1272.5</ele>
        <time>2021-09-23T12:21:26Z</time>
      </trkpt>
      <trkpt lat="44.41083" lon="6.74125">
        <ele>1268.9</ele>
        <time>2021-09-23T12:21:30Z</time>
      </trkpt>
      <trkpt lat="44.41104" lon="6.74108">
        <ele>1265.8</ele>
        <time>2021-09-23T12:21:34Z</time>
      </trkpt>
      <trkpt lat="44.41129" lon="6.74093">
        <ele>1263</ele>
        <time>2021-09-23T12:21:38Z</time>
      </trkpt>
      <trkpt lat="44.41158" lon="6.74087">
        <ele>1262.7</ele>
        <time>2021-09-23T12:21:42Z</time>
      </trkpt>
      <trkpt lat="44.41192" lon="6.74091">
        <ele>1259.7</ele>
        <time>2021-09-23T12:21:46Z</time>
      </trkpt>
      <trkpt lat="44.41226" lon="6.74102">
        <ele>1256.7</ele>
        <time>2021-09-23T12:21:50Z</time>
      </trkpt>
      <trkpt lat="44.41263" lon="6.74119">
        <ele>1254.5</ele>
        <time>2021-09-23T12:21:54Z</time>
      </trkpt>
      <trkpt lat="44.41304" lon="6.7414">
        <ele>1250.9</ele>
        <time>2021-09-23T12:21:58Z</time>
      </trkpt>
      <trkpt lat="44.41343" lon="6.74162">
        <ele>1246.3</ele>
        <time>2021-09-23T12:22:02Z</time>
      </trkpt>
    </trkseg>
  </trk>
</gpx>